# Wetter Temperatur Luftdruck Luftfeuchtigkeit Sichtweite Windgeschwindigkeit Windrichtung Zeit
1 Clear 37 1011 16 10000 5.14 320 13:27 22.04.2021
2 Clear 36 1011 20 10000 5.66 300 12:56 22.04.2021
3 Clear 36 1011 20 10000 5.66 300 12:38 22.04.2021
4 Clear 36 1011 20 10000 5.66 300 12:19 22.04.2021
5 Clear 35 1012 21 10000 4.63 270 11:45 22.04.2021
6 Clear 35 1012 21 10000 4.63 270 11:22 22.04.2021
7 Clouds 34 1012 27 9000 3.09 290 10:44 22.04.2021
8 Clouds 34 1012 27 9000 3.09 290 10:21 22.04.2021
9 Clouds 33 1012 27 8000 2.06 300 09:42 22.04.2021
10 Clouds 33 1012 27 8000 2.06 300 09:19 22.04.2021
11 Clouds 31 1012 29 9000 3.6 270 08:38 22.04.2021
12 Clouds 31 1012 29 9000 3.6 270 08:18 22.04.2021
13 Clouds 29 1011 34 8000 2.57 250 07:38 22.04.2021
14 Clouds 29 1011 34 8000 2.57 250 07:19 22.04.2021
15 Clouds 29 1011 32 5000 1.03 0 06:23 22.04.2021
16 Clouds 26 1009 38 2900 4.12 120 05:25 22.04.2021
17 Clear 25 1010 38 10000 1.54 30 03:31 22.04.2021
18 Clear 27 1010 32 10000 3.6 300 00:52 22.04.2021
19 Clear 27 1009 34 10000 2.06 120 23:47 21.04.2021
20 Clear 27 1009 34 10000 2.06 120 23:25 21.04.2021
21 Clear 29 1009 30 10000 3.09 120 22:42 21.04.2021
22 Clear 29 1009 30 10000 3.09 120 22:23 21.04.2021
23 Clear 29 1009 32 10000 2.06 120 21:42 21.04.2021
24 Clear 29 1009 32 10000 2.06 120 21:23 21.04.2021
25 Clear 31 1009 29 10000 3.09 130 20:42 21.04.2021
26 Clear 31 1009 29 10000 3.09 130 20:19 21.04.2021
27 Clear 32 1008 29 10000 2.57 100 19:42 21.04.2021
28 Clear 32 1008 29 10000 2.57 100 19:23 21.04.2021
29 Clear 34 1008 24 10000 3.09 130 18:45 21.04.2021
30 Clear 34 1008 24 10000 3.09 130 18:26 21.04.2021
31 Clear 39 1008 17 10000 5.14 120 17:47 21.04.2021
32 Clear 39 1008 17 10000 5.14 120 17:24 21.04.2021
33 Clear 41 1008 14 10000 5.14 110 16:48 21.04.2021
34 Clear 41 1008 12 10000 2.57 130 15:57 21.04.2021
35 Clear 41 1008 12 10000 2.57 130 15:39 21.04.2021
36 Clouds 41 1008 13 10000 2.06 200 14:54 21.04.2021
37 Clouds 41 1008 13 10000 2.06 200 14:36 21.04.2021
38 Clouds 41 1008 13 10000 2.06 200 14:18 21.04.2021
39 Clear 41 1009 15 10000 2.06 210 13:40 21.04.2021
40 Clear 41 1009 15 10000 2.06 210 13:19 21.04.2021
41 Clear 40 1010 15 10000 3.09 220 12:30 21.04.2021
42 Clear 39 1010 19 10000 3.6 230 11:49 21.04.2021
43 Clear 39 1010 19 10000 3.6 230 11:49 21.04.2021
44 Clear 39 1010 19 10000 3.6 230 11:29 21.04.2021
45 Clear 36 1011 23 10000 2.57 250 10:48 21.04.2021
46 Clear 36 1011 23 10000 2.57 250 10:20 21.04.2021
47 Clouds 35 1011 21 9000 5.66 270 09:42 21.04.2021
48 Clouds 32 1011 27 8000 6.17 260 08:56 21.04.2021
49 Clouds 32 1011 27 8000 6.17 260 08:37 21.04.2021
50 Clouds 32 1011 27 8000 6.17 260 08:18 21.04.2021
51 Clear 30 1010 30 10000 4.12 250 07:31 21.04.2021
52 Clear 26 1010 44 10000 0.51 0 06:28 21.04.2021
53 Clear 23 1008 40 10000 2.06 170 04:54 21.04.2021
54 Clouds 25 1008 38 8000 2.57 200 00:53 21.04.2021
55 Clear 26 1008 36 10000 1.03 0 23:49 20.04.2021
56 Clear 26 1008 36 10000 1.03 0 23:21 20.04.2021
57 Clouds 27 1009 34 8000 1.15 72 22:40 20.04.2021
58 Clouds 27 1009 34 8000 1.06 19 22:18 20.04.2021
59 Clouds 28 1009 32 8000 1.03 0 21:46 20.04.2021
60 Clouds 28 1009 32 8000 1.03 0 21:24 20.04.2021
61 Clear 28 1009 32 10000 2.06 310 20:43 20.04.2021
62 Clear 28 1009 32 10000 2.06 310 20:23 20.04.2021
63 Clear 30 1009 28 10000 2.06 310 19:54 20.04.2021
64 Clear 30 1009 28 10000 2.06 310 19:36 20.04.2021
65 Clear 32 1008 27 10000 2.57 320 18:55 20.04.2021
66 Clear 33 1008 25 10000 2.06 310 18:35 20.04.2021
67 Clear 36 1008 20 10000 2.06 320 17:45 20.04.2021
68 Clear 36 1008 20 10000 2.06 320 17:25 20.04.2021
69 Clear 38 1008 18 10000 3.6 340 16:44 20.04.2021
70 Clear 39 1009 15 10000 5.66 330 15:51 20.04.2021
71 Clear 39 1009 15 10000 5.66 330 15:28 20.04.2021
72 Clear 39 1009 16 10000 6.17 320 14:57 20.04.2021
73 Clear 39 1009 16 10000 6.17 320 14:31 20.04.2021
74 Clear 39 1010 16 10000 5.14 340 13:37 20.04.2021
75 Clear 39 1010 16 10000 5.14 340 13:18 20.04.2021
76 Clear 39 1011 18 10000 5.14 340 12:40 20.04.2021
77 Clear 39 1011 18 10000 5.14 340 12:19 20.04.2021
78 Clear 37 1011 19 10000 5.66 340 11:40 20.04.2021
79 Clear 37 1011 19 10000 5.66 340 11:20 20.04.2021
80 Clouds 35 1012 24 9000 4.63 320 10:42 20.04.2021
81 Clouds 35 1012 24 9000 4.63 320 10:22 20.04.2021
82 Clear 34 1012 27 10000 6.17 310 09:22 20.04.2021
83 Clear 32 1012 25 10000 4.12 310 08:54 20.04.2021
84 Clear 32 1012 25 10000 4.12 310 08:20 20.04.2021
85 Clouds 27 1012 34 10000 2.57 340 07:39 20.04.2021
86 Clear 25 1011 36 10000 1.54 330 06:36 20.04.2021
87 Clear 21 1011 40 10000 4.12 320 05:37 20.04.2021
88 Clear 22 1011 37 10000 3.6 300 04:41 20.04.2021
89 Clear 24 1011 33 10000 3.6 300 00:53 20.04.2021
90 Clear 24 1011 33 10000 3.6 300 00:28 20.04.2021
91 Clear 25 1012 31 10000 4.12 300 23:36 19.04.2021
92 Clouds 29 1011 21 10000 4.66 339 22:56 19.04.2021
93 Clear 29 1012 28 10000 4.12 270 22:30 19.04.2021
94 Clear 29 1012 28 10000 4.12 270 21:48 19.04.2021
95 Clear 29 1012 28 10000 4.12 270 21:27 19.04.2021
96 Clear 29 1012 28 10000 3.6 270 20:46 19.04.2021
97 Clear 29 1012 28 10000 3.6 270 20:24 19.04.2021
98 Clear 31 1012 25 10000 3.09 290 19:58 19.04.2021
99 Clear 31 1012 25 10000 3.09 290 19:39 19.04.2021
100 Clear 31 1012 25 10000 3.09 290 19:18 19.04.2021
101 Clouds 32 1011 25 9000 2.57 270 18:44 19.04.2021
102 Clouds 32 1011 25 9000 2.57 270 18:21 19.04.2021
103 Clouds 32 1011 25 9000 2.57 270 18:21 19.04.2021
104 Clouds 32 1011 25 9000 2.57 270 18:21 19.04.2021
105 Clear 34 1011 20 10000 3.09 320 17:50 19.04.2021
106 Clear 34 1011 20 10000 3.09 320 17:27 19.04.2021
107 Clear 36 1011 16 10000 4.63 330 16:49 19.04.2021
108 Clear 36 1011 16 10000 4.63 330 16:31 19.04.2021
109 Clear 36 1012 19 10000 7.2 340 15:44 19.04.2021
110 Clear 36 1012 19 10000 7.2 340 15:25 19.04.2021
111 Clear 36 1012 19 10000 7.2 340 14:52 19.04.2021
112 Clear 36 1012 19 10000 7.2 340 14:34 19.04.2021
113 Clear 37 1012 18 10000 7.2 340 13:53 19.04.2021
114 Clear 37 1012 18 10000 7.2 340 13:30 19.04.2021
115 Clouds 38 1010 10 10000 8.56 330 12:55 19.04.2021
116 Clouds 34 1014 22 9000 5.66 310 12:36 19.04.2021
117 Clouds 34 1014 22 9000 5.66 310 12:18 19.04.2021
118 Clouds 34 1014 22 9000 5.66 310 11:43 19.04.2021
119 Clouds 34 1014 22 9000 5.66 310 11:20 19.04.2021
120 Clear 31 1015 27 10000 5.14 320 10:44 19.04.2021
121 Clear 31 1015 27 10000 5.14 320 10:19 19.04.2021
122 Clear 29 1015 30 10000 3.6 330 09:43 19.04.2021
123 Clear 29 1015 30 10000 3.6 330 09:24 19.04.2021
124 Clear 27 1015 34 10000 4.12 330 08:37 19.04.2021
125 Clear 25 1015 33 10000 4.12 320 07:50 19.04.2021
126 Clear 25 1015 33 10000 4.12 320 07:24 19.04.2021
127 Clear 21 1015 43 10000 2.57 310 06:52 19.04.2021
128 Clear 21 1014 40 10000 3.6 340 05:30 19.04.2021
129 Clear 23 1013 28 10000 2.57 270 01:49 19.04.2021
130 Clear 23 1014 33 10000 2.06 260 00:42 19.04.2021
131 Clear 24 1014 31 10000 2.06 280 23:21 18.04.2021
132 Clear 24 1014 33 10000 2.57 250 22:58 18.04.2021
133 Clear 24 1014 33 10000 2.57 250 22:34 18.04.2021
134 Clear 26 1014 27 10000 2.57 240 21:56 18.04.2021
135 Clear 26 1014 27 10000 2.57 240 21:28 18.04.2021
136 Clear 25 1014 33 10000 0.51 0 20:55 18.04.2021
137 Clear 25 1014 33 10000 0.51 0 20:37 18.04.2021
138 Clear 25 1014 33 10000 0.51 0 20:18 18.04.2021
139 Clear 28 1014 30 10000 2.57 220 19:39 18.04.2021
140 Clear 28 1014 30 10000 2.57 220 19:19 18.04.2021
141 Clear 29 1014 26 10000 1.54 330 18:45 18.04.2021
142 Clear 29 1014 26 10000 1.54 330 18:25 18.04.2021
143 Clear 33 1014 19 10000 2.57 330 17:46 18.04.2021
144 Clear 33 1014 19 10000 2.57 330 17:27 18.04.2021
145 Clear 34 1014 18 10000 3.09 290 16:47 18.04.2021
146 Clear 34 1014 18 10000 3.09 290 16:29 18.04.2021
147 Clear 34 1014 18 10000 3.09 320 15:46 18.04.2021
148 Clear 34 1014 18 10000 3.09 320 15:27 18.04.2021
149 Clouds 34 1014 18 10000 3.6 270 14:52 18.04.2021
150 Clouds 34 1014 18 10000 3.6 270 14:23 18.04.2021
151 Clouds 34 1015 18 10000 4.12 320 13:56 18.04.2021
152 Clouds 34 1015 18 10000 4.12 320 13:38 18.04.2021
153 Clouds 34 1015 18 10000 4.12 320 13:18 18.04.2021
154 Clouds 33 1015 19 10000 3.6 300 12:32 18.04.2021
155 Clouds 33 1015 19 10000 4.12 290 11:45 18.04.2021
156 Clouds 33 1015 19 10000 4.12 290 11:22 18.04.2021
157 Clouds 32 1016 20 10000 4.63 280 10:48 18.04.2021
158 Clouds 32 1016 20 10000 4.63 280 10:23 18.04.2021
159 Clouds 29 1016 26 10000 4.12 270 09:53 18.04.2021
160 Clouds 29 1016 26 10000 4.12 270 09:35 18.04.2021
161 Clouds 28 1016 24 10000 3.6 300 08:58 18.04.2021
162 Clouds 28 1016 24 10000 3.6 300 08:37 18.04.2021
163 Clouds 28 1016 24 10000 3.6 300 08:18 18.04.2021
164 Clear 25 1016 29 10000 3.09 310 07:38 18.04.2021
165 Clear 18 1015 39 10000 2.06 290 05:45 18.04.2021
166 Clear 18 1015 39 10000 2.06 290 05:45 18.04.2021
167 Clear 18 1015 39 10000 2.06 290 05:24 18.04.2021
168 Clear 19 1014 34 10000 2.57 290 03:26 18.04.2021
169 Clear 20 1013 32 10000 2.57 310 02:22 18.04.2021
170 Clear 21 1014 35 10000 2.57 300 00:40 18.04.2021
171 Clear 23 1014 28 10000 1.54 280 23:39 17.04.2021
172 Clear 22 1014 30 10000 2.06 260 22:54 17.04.2021
173 Clear 22 1014 30 10000 2.06 260 22:31 17.04.2021
174 Clear 23 1014 31 10000 1.03 270 21:51 17.04.2021
175 Clear 23 1014 31 10000 1.03 270 21:31 17.04.2021
176 Clear 24 1014 29 10000 2.06 270 20:59 17.04.2021
177 Clear 27 1014 24 10000 2.06 300 20:28 17.04.2021
178 Clear 27 1014 24 10000 2.06 300 19:46 17.04.2021
179 Clear 27 1014 24 10000 2.06 300 19:22 17.04.2021
180 Clear 28 1013 23 10000 3.6 320 18:57 17.04.2021
181 Clear 28 1013 23 10000 3.6 320 18:36 17.04.2021
182 Clear 33 1013 17 10000 3.09 340 17:58 17.04.2021
183 Clear 33 1013 17 10000 3.09 340 17:39 17.04.2021
184 Clear 34 1013 15 10000 6.17 310 16:54 17.04.2021
185 Clear 34 1013 15 10000 6.17 310 16:28 17.04.2021
186 Clear 35 1013 14 10000 7.2 320 15:50 17.04.2021
187 Clear 35 1013 14 10000 7.2 310 14:50 17.04.2021
188 Clear 35 1013 14 10000 7.2 310 14:50 17.04.2021
189 Clear 35 1013 14 10000 7.2 310 14:31 17.04.2021
190 Clear 34 1014 15 10000 7.2 330 13:48 17.04.2021
191 Clear 34 1014 15 10000 7.2 330 13:22 17.04.2021
192 Clear 34 1015 14 10000 8.23 330 12:41 17.04.2021
193 Clear 34 1015 14 10000 8.23 330 12:18 17.04.2021
194 Clear 33 1015 16 10000 6.17 340 11:40 17.04.2021
195 Clear 33 1015 16 10000 6.17 340 11:22 17.04.2021
196 Clear 32 1016 18 10000 6.17 330 10:43 17.04.2021
197 Clear 32 1016 18 10000 6.17 330 10:25 17.04.2021
198 Clear 30 1017 21 10000 5.14 320 09:27 17.04.2021
199 Clear 27 1017 24 10000 5.66 310 08:40 17.04.2021
200 Clear 27 1017 24 10000 5.66 310 08:21 17.04.2021
201 Clear 20 1016 34 10000 3.09 300 06:44 17.04.2021
202 Clear 17 1014 42 10000 2.57 310 03:53 17.04.2021
203 Clear 17 1014 42 10000 3.09 290 02:58 17.04.2021
204 Clear 21 1014 35 10000 3.09 260 00:46 17.04.2021
205 Clear 21 1014 35 10000 3.09 260 00:24 17.04.2021
206 Clear 21 1014 35 10000 1.54 290 23:46 16.04.2021
207 Clear 21 1014 35 10000 1.54 290 23:24 16.04.2021
208 Clear 22 1014 35 10000 1.54 350 22:44 16.04.2021
209 Clear 22 1014 35 10000 1.54 350 22:20 16.04.2021
210 Clear 24 1014 27 10000 2.06 280 21:50 16.04.2021
211 Clear 24 1014 27 10000 2.06 280 21:50 16.04.2021
212 Clear 24 1014 27 10000 2.06 280 21:29 16.04.2021
213 Clear 22 1015 33 10000 2.06 330 20:48 16.04.2021
214 Clear 22 1015 33 10000 2.06 330 20:24 16.04.2021
215 Clear 25 1015 27 10000 3.09 340 19:50 16.04.2021
216 Clear 25 1015 27 10000 3.09 340 19:28 16.04.2021
217 Clear 27 1015 24 10000 2.06 340 18:28 16.04.2021
218 Clouds 27 1014 17 10000 4.99 322 17:55 16.04.2021
219 Clear 31 1015 16 10000 4.12 330 17:22 16.04.2021
220 Clear 31 1015 16 10000 4.12 330 16:59 16.04.2021
221 Clear 31 1015 16 10000 4.12 330 16:41 16.04.2021
222 Clear 31 1015 16 10000 4.12 330 16:21 16.04.2021
223 Clear 32 1015 17 10000 4.12 340 15:43 16.04.2021
224 Clear 31 1015 16 10000 5.66 300 14:59 16.04.2021
225 Clear 31 1015 16 10000 5.66 300 14:40 16.04.2021
226 Clear 31 1016 16 10000 4.63 310 13:59 16.04.2021
227 Clear 31 1016 16 10000 4.63 310 13:41 16.04.2021
228 Clear 31 1016 16 10000 4.63 310 13:19 16.04.2021
229 Clear 31 1017 16 10000 4.63 330 12:46 16.04.2021
230 Clear 31 1017 16 10000 4.63 330 12:25 16.04.2021
231 Clear 30 1017 16 10000 5.14 310 11:43 16.04.2021
232 Clear 30 1017 16 10000 5.14 310 11:25 16.04.2021
233 Clear 29 1017 20 10000 3.6 320 10:46 16.04.2021
234 Clear 29 1017 20 10000 3.6 320 10:25 16.04.2021
235 Clear 28 1017 20 10000 3.6 300 09:52 16.04.2021
236 Clear 28 1017 20 10000 3.6 300 09:24 16.04.2021
237 Clear 24 1017 25 10000 3.09 310 08:46 16.04.2021
238 Clear 24 1017 25 10000 3.09 310 08:27 16.04.2021
239 Clear 22 1017 26 10000 3.6 310 07:47 16.04.2021
240 Clear 22 1017 26 10000 3.6 310 07:28 16.04.2021
241 Clear 19 1017 32 10000 3.09 280 06:56 16.04.2021
242 Clear 16 1016 39 10000 3.09 270 05:33 16.04.2021
243 Clear 15 1015 41 10000 3.6 240 04:18 16.04.2021
244 Clear 17 1015 36 10000 1.54 330 00:49 16.04.2021
245 Clear 17 1015 36 10000 1.54 330 00:23 16.04.2021
246 Clear 17 1015 39 10000 2.06 320 23:59 15.04.2021
247 Clear 17 1015 39 10000 2.06 320 23:35 15.04.2021
248 Clear 17 1016 34 10000 1.03 260 22:53 15.04.2021
249 Clear 17 1016 34 10000 1.03 260 22:26 15.04.2021
250 Clear 19 1016 30 10000 1.54 260 21:56 15.04.2021
251 Clear 19 1016 30 10000 1.54 260 21:37 15.04.2021
252 Clear 19 1016 30 10000 1.54 260 21:19 15.04.2021
253 Clear 21 1016 26 10000 1.54 260 20:40 15.04.2021
254 Clear 21 1016 26 10000 1.54 260 20:20 15.04.2021
255 Clear 23 1015 23 10000 3.09 270 19:42 15.04.2021
256 Clear 23 1015 23 10000 3.09 270 19:23 15.04.2021
257 Clear 25 1015 19 10000 4.12 290 18:41 15.04.2021
258 Clear 25 1015 19 10000 4.12 290 18:20 15.04.2021
259 Clear 27 1015 18 10000 5.66 300 17:54 15.04.2021
260 Clear 27 1015 18 10000 5.66 300 17:36 15.04.2021
261 Clear 27 1015 18 10000 5.66 300 17:36 15.04.2021
262 Clear 28 1015 15 10000 6.69 310 16:47 15.04.2021
263 Clear 28 1015 15 10000 6.69 310 16:26 15.04.2021
264 Clear 28 1015 14 10000 7.2 290 15:59 15.04.2021
265 Clear 28 1015 14 10000 7.2 290 15:40 15.04.2021
266 Clear 28 1015 14 10000 7.2 290 15:22 15.04.2021
267 Clear 27 1016 13 10000 8.75 300 14:38 15.04.2021
268 Clear 27 1016 13 10000 8.75 300 14:20 15.04.2021
269 Clear 27 1017 14 10000 8.23 300 13:41 15.04.2021
270 Clear 27 1017 14 10000 8.23 300 13:18 15.04.2021
271 Clear 27 1017 18 10000 7.72 280 12:39 15.04.2021
272 Clear 27 1017 18 10000 7.72 280 12:20 15.04.2021
273 Clear 27 1018 19 10000 6.69 300 11:44 15.04.2021
274 Clear 27 1018 19 10000 6.69 300 11:22 15.04.2021
275 Clear 26 1018 22 10000 7.2 310 10:49 15.04.2021
276 Clear 26 1018 22 10000 7.2 310 10:49 15.04.2021
277 Clear 26 1018 22 10000 7.2 310 10:27 15.04.2021
278 Clear 25 1018 27 10000 6.69 330 09:45 15.04.2021
279 Clear 25 1018 27 10000 6.69 330 09:18 15.04.2021
280 Clear 21 1018 35 10000 5.14 320 08:41 15.04.2021
281 Clear 19 1018 34 10000 5.14 300 07:50 15.04.2021
282 Clear 19 1018 34 10000 5.14 300 07:22 15.04.2021
283 Clear 19 1018 34 10000 5.14 300 07:22 15.04.2021
284 Clear 16 1018 41 10000 4.63 300 06:38 15.04.2021
285 Clear 16 1018 41 10000 4.63 300 06:20 15.04.2021
286 Clear 13 1017 50 10000 3.09 290 04:50 15.04.2021
287 Clear 15 1016 41 10000 4.12 300 00:43 15.04.2021
288 Clear 18 1017 29 10000 5.14 290 23:39 14.04.2021
289 Clear 18 1017 29 10000 5.14 290 23:19 14.04.2021
290 Clear 16 1017 33 10000 1.54 340 22:43 14.04.2021
291 Clear 16 1017 33 10000 1.54 340 22:23 14.04.2021
292 Clear 16 1017 33 10000 1.54 280 21:44 14.04.2021
293 Clear 16 1017 33 10000 1.54 280 21:26 14.04.2021
294 Clear 19 1017 27 10000 3.6 270 20:56 14.04.2021
295 Clear 19 1017 27 10000 3.6 270 20:33 14.04.2021
296 Clear 21 1016 24 10000 4.12 280 19:51 14.04.2021
297 Clear 21 1016 24 10000 4.12 280 19:20 14.04.2021
298 Clear 22 1016 23 10000 5.66 280 18:57 14.04.2021
299 Clear 24 1015 19 10000 7.72 290 18:22 14.04.2021
300 Clear 24 1015 19 10000 7.72 290 17:58 14.04.2021
301 Clear 24 1015 19 10000 7.72 290 17:25 14.04.2021
302 Clear 24 1015 14 10000 6.96 311 16:54 14.04.2021
303 Clear 25 1016 20 10000 10.29 290 16:26 14.04.2021
304 Clear 25 1016 20 10000 10.29 290 15:44 14.04.2021
305 Clear 25 1016 20 10000 10.29 290 15:26 14.04.2021
306 Clear 26 1016 19 10000 9.77 300 14:51 14.04.2021
307 Clear 26 1016 19 10000 9.77 300 14:27 14.04.2021
308 Clear 25 1017 22 10000 9.77 300 13:58 14.04.2021
309 Clear 25 1017 22 10000 9.77 300 13:37 14.04.2021
310 Clear 24 1018 25 10000 8.23 310 12:39 14.04.2021
311 Clear 24 1019 25 10000 6.17 290 11:44 14.04.2021
312 Clear 24 1019 25 10000 6.17 290 11:25 14.04.2021
313 Clear 24 1019 25 10000 6.17 290 10:56 14.04.2021
314 Clear 22 1019 30 10000 5.14 290 10:33 14.04.2021
315 Clear 22 1020 30 10000 6.17 300 09:43 14.04.2021
316 Clear 22 1020 30 10000 6.17 300 09:21 14.04.2021
317 Clear 20 1020 34 10000 3.6 300 08:48 14.04.2021
318 Clear 20 1020 34 10000 3.6 300 08:23 14.04.2021
319 Clear 17 1019 42 10000 2.06 270 07:27 14.04.2021
320 Clear 15 1019 47 10000 1.03 0 06:27 14.04.2021
321 Clear 11 1018 58 10000 3.09 330 05:23 14.04.2021
322 Clear 13 1017 54 10000 3.09 320 01:54 14.04.2021
323 Clear 15 1017 44 10000 5.14 310 00:49 14.04.2021
324 Clear 15 1017 44 10000 5.14 310 00:27 14.04.2021
325 Clear 16 1017 39 10000 2.57 300 23:31 13.04.2021
326 Clear 18 1017 34 10000 5.14 300 22:44 13.04.2021
327 Clear 18 1017 34 10000 5.14 300 22:20 13.04.2021
328 Clear 16 1017 31 10000 3.6 300 21:48 13.04.2021
329 Clear 16 1017 31 10000 3.6 300 21:30 13.04.2021
330 Clear 19 1016 26 10000 2.57 310 20:48 13.04.2021
331 Clear 19 1016 26 10000 2.57 310 20:24 13.04.2021
332 Clear 19 1016 27 10000 3.6 310 19:57 13.04.2021
333 Clear 19 1016 27 10000 3.6 310 19:25 13.04.2021
334 Clear 23 1015 23 10000 6.69 300 18:48 13.04.2021
335 Clear 23 1015 23 10000 6.69 300 18:30 13.04.2021
336 Clear 23 1015 23 10000 6.69 300 18:30 13.04.2021
337 Clear 24 1014 23 10000 7.2 320 17:40 13.04.2021
338 Clear 24 1014 23 10000 7.2 320 17:19 13.04.2021
339 Clear 26 1014 21 10000 6.17 300 16:45 13.04.2021
340 Clear 26 1014 21 10000 6.17 300 16:26 13.04.2021
341 Clear 26 1014 21 10000 6.69 290 15:55 13.04.2021
342 Clear 26 1014 21 10000 6.69 290 15:36 13.04.2021
343 Clouds 26 1015 19 10000 6.17 290 14:50 13.04.2021
344 Clouds 26 1015 19 10000 6.17 290 14:22 13.04.2021
345 Clouds 27 1015 21 10000 6.69 280 13:53 13.04.2021
346 Clouds 27 1015 21 10000 6.69 280 13:27 13.04.2021
347 Clear 27 1016 24 10000 6.69 290 12:58 13.04.2021
348 Clear 27 1016 24 10000 6.69 290 12:37 13.04.2021
349 Clear 27 1016 24 10000 6.69 290 12:18 13.04.2021
350 Clear 25 1016 27 10000 7.2 310 11:34 13.04.2021
351 Clear 23 1017 33 10000 6.17 300 10:56 13.04.2021
352 Clear 23 1017 33 10000 6.17 300 10:56 13.04.2021
353 Clear 23 1017 33 10000 6.17 300 10:37 13.04.2021
354 Clear 23 1017 33 10000 6.17 300 10:18 13.04.2021
355 Clear 21 1017 37 10000 6.69 290 09:40 13.04.2021
356 Clear 21 1017 37 10000 6.69 290 09:18 13.04.2021
357 Clear 19 1017 42 10000 7.2 300 08:41 13.04.2021
358 Clear 19 1017 42 10000 7.2 300 08:20 13.04.2021
359 Clear 18 1016 45 10000 8.23 300 07:36 13.04.2021
360 Clear 16 1015 51 10000 6.69 300 06:59 13.04.2021
361 Clear 16 1015 39 10000 5.66 290 05:53 13.04.2021
362 Clear 17 1013 36 10000 1.54 70 02:47 13.04.2021
363 Clear 17 1013 34 10000 1.54 70 01:27 13.04.2021
364 Clear 18 1014 34 10000 2.06 20 23:49 12.04.2021
365 Clear 18 1014 34 10000 2.06 20 23:27 12.04.2021
366 Clear 19 1014 34 10000 2.06 40 22:43 12.04.2021
367 Clear 19 1014 34 10000 2.06 40 22:23 12.04.2021
368 Clear 19 1014 34 10000 2.06 40 22:23 12.04.2021
369 Clear 19 1015 37 10000 2.06 10 21:46 12.04.2021
370 Clear 19 1015 37 10000 2.06 10 21:46 12.04.2021
371 Clear 19 1015 37 10000 2.06 10 21:21 12.04.2021
372 Clear 20 1015 30 10000 2.57 330 20:41 12.04.2021
373 Clear 20 1015 30 10000 2.57 330 20:23 12.04.2021
374 Clear 21 1014 26 10000 2.06 320 19:58 12.04.2021
375 Clear 21 1014 26 10000 2.06 320 19:38 12.04.2021
376 Clear 21 1014 26 10000 2.06 320 19:19 12.04.2021
377 Clear 23 1014 23 10000 2.57 330 18:46 12.04.2021
378 Clear 23 1014 23 10000 2.57 330 18:27 12.04.2021
379 Clear 26 1014 17 10000 4.12 320 17:45 12.04.2021
380 Clear 26 1014 17 10000 4.12 320 17:24 12.04.2021
381 Clear 27 1014 16 10000 4.63 340 16:47 12.04.2021
382 Clear 27 1014 16 10000 4.63 340 16:27 12.04.2021
383 Clear 28 1014 20 10000 5.66 340 15:49 12.04.2021
384 Clear 28 1014 20 10000 5.66 340 15:31 12.04.2021
385 Clear 28 1014 16 10000 4.12 300 14:53 12.04.2021
386 Clear 28 1014 16 10000 4.12 300 14:35 12.04.2021
387 Clear 27 1015 17 10000 4.63 300 13:49 12.04.2021
388 Clear 27 1015 17 10000 4.63 300 13:30 12.04.2021
389 Clear 26 1016 17 10000 4.12 260 12:51 12.04.2021
390 Clear 26 1016 17 10000 4.12 260 12:27 12.04.2021
391 Clear 25 1017 19 10000 3.09 0 11:59 12.04.2021
392 Clear 25 1017 19 10000 3.09 0 11:24 12.04.2021
393 Clear 25 1017 18 10000 2.57 240 10:47 12.04.2021
394 Clear 25 1017 18 10000 2.57 240 10:27 12.04.2021
395 Clear 24 1018 20 10000 1.54 0 09:50 12.04.2021
396 Clear 24 1018 20 10000 1.54 0 09:21 12.04.2021
397 Clear 23 1017 20 10000 3.09 20 08:39 12.04.2021
398 Clear 21 1017 24 10000 3.6 10 07:42 12.04.2021
399 Clear 21 1017 24 10000 3.6 10 07:21 12.04.2021
400 Clear 17 1016 34 10000 1.54 350 06:27 12.04.2021
401 Clear 15 1017 36 10000 2.57 10 05:42 12.04.2021
402 Clear 16 1017 36 10000 3.09 360 01:40 12.04.2021
403 Clear 16 1017 36 10000 3.09 360 01:40 12.04.2021
404 Clear 16 1017 36 10000 3.09 360 01:40 12.04.2021
405 Clear 15 1017 44 10000 2.57 350 00:26 12.04.2021
406 Clear 14 1017 47 10000 2.57 350 23:49 11.04.2021
407 Clear 14 1017 47 10000 2.57 350 23:30 11.04.2021
408 Clear 15 1017 41 10000 3.09 340 22:48 11.04.2021
409 Clear 15 1017 41 10000 3.09 340 22:26 11.04.2021
410 Clear 16 1017 39 10000 2.06 320 21:52 11.04.2021
411 Clear 16 1017 39 10000 2.06 320 21:31 11.04.2021
412 Clear 17 1017 42 10000 1.54 350 20:59 11.04.2021
413 Clear 17 1017 42 10000 1.54 350 20:37 11.04.2021
414 Clear 17 1017 42 10000 1.54 350 20:18 11.04.2021
415 Clear 19 1017 37 10000 2.57 350 19:39 11.04.2021
416 Clear 19 1017 37 10000 2.57 350 19:19 11.04.2021
417 Clear 20 1016 32 10000 2.57 330 18:46 11.04.2021
418 Clear 20 1016 32 10000 2.57 330 18:26 11.04.2021
419 Clear 23 1015 27 10000 2.06 230 17:50 11.04.2021
420 Clear 23 1015 27 10000 2.06 230 17:29 11.04.2021
421 Clear 24 1015 25 10000 3.09 280 16:53 11.04.2021
422 Clear 24 1015 25 10000 3.09 280 16:28 11.04.2021
423 Clear 24 1015 25 10000 5.14 280 15:59 11.04.2021
424 Clear 24 1015 25 10000 5.14 280 15:40 11.04.2021
425 Clear 24 1015 25 10000 2.06 0 15:22 11.04.2021
426 Clear 24 1015 25 10000 2.06 0 14:48 11.04.2021
427 Clear 24 1015 25 10000 2.06 0 14:19 11.04.2021
428 Clear 23 1016 27 10000 4.63 320 13:39 11.04.2021
429 Clear 23 1016 27 10000 4.63 320 13:21 11.04.2021
430 Clear 22 1016 26 10000 4.63 300 12:26 11.04.2021
431 Clear 21 1016 30 10000 5.14 290 11:53 11.04.2021
432 Clear 21 1016 30 10000 5.14 290 11:33 11.04.2021
433 Clear 21 1016 32 10000 7.2 300 10:58 11.04.2021
434 Clear 21 1016 32 10000 7.2 300 10:39 11.04.2021
435 Clear 21 1016 32 10000 7.2 300 10:20 11.04.2021
436 Clear 20 1015 34 10000 6.69 280 09:40 11.04.2021
437 Clear 20 1015 34 10000 6.69 280 09:22 11.04.2021
438 Clear 18 1015 42 10000 8.23 300 08:39 11.04.2021
439 Clear 16 1014 44 10000 8.75 290 07:38 11.04.2021
440 Clear 16 1014 44 10000 8.75 290 07:19 11.04.2021
441 Clear 14 1012 44 10000 8.75 290 05:47 11.04.2021
442 Clear 14 1012 44 10000 8.75 290 05:22 11.04.2021
443 Clear 15 1011 44 10000 8.23 310 04:35 11.04.2021
444 Clear 16 1011 48 10000 6.69 320 03:35 11.04.2021
445 Clear 19 1008 55 10000 4.12 290 00:51 11.04.2021
446 Clear 19 1008 55 10000 4.12 290 00:25 11.04.2021
447 Clear 19 1008 55 10000 3.09 310 23:44 10.04.2021
448 Clear 20 1008 56 10000 3.09 330 22:55 10.04.2021
449 Clear 20 1008 56 10000 3.09 330 22:28 10.04.2021
450 Clouds 21 1008 56 10000 3.09 310 21:52 10.04.2021
451 Clouds 21 1008 56 10000 3.09 310 21:24 10.04.2021
452 Clouds 22 1008 49 10000 2.57 320 20:55 10.04.2021
453 Clouds 22 1008 49 10000 2.57 320 20:34 10.04.2021
454 Clouds 22 1008 49 10000 2.57 320 20:34 10.04.2021
455 Clouds 25 1007 27 10000 3.6 320 19:58 10.04.2021
456 Clouds 25 1007 27 10000 3.6 320 19:40 10.04.2021
457 Clear 25 1007 27 10000 3.09 320 19:21 10.04.2021
458 Clear 27 1006 24 10000 4.12 300 18:41 10.04.2021
459 Clear 27 1006 24 10000 4.12 300 18:23 10.04.2021
460 Clear 27 1006 24 10000 4.12 300 18:23 10.04.2021
461 Clear 28 1005 26 10000 5.66 280 17:35 10.04.2021
462 Clear 28 1005 26 10000 5.66 280 17:35 10.04.2021
463 Clear 29 1005 24 10000 5.14 280 16:42 10.04.2021
464 Clear 29 1005 24 10000 5.14 280 16:21 10.04.2021
465 Clear 30 1005 25 10000 5.14 310 15:44 10.04.2021
466 Clear 29 1005 26 10000 5.14 310 14:54 10.04.2021
467 Clear 29 1005 26 10000 5.14 310 14:33 10.04.2021
468 Clear 28 1006 30 10000 4.12 280 13:55 10.04.2021
469 Clear 28 1006 30 10000 4.12 280 13:36 10.04.2021
470 Clear 27 1006 32 10000 5.14 280 12:41 10.04.2021
471 Clear 27 1006 32 10000 5.14 280 12:20 10.04.2021
472 Clear 26 1007 34 10000 2.06 290 11:45 10.04.2021
473 Clear 26 1007 34 10000 2.06 290 11:45 10.04.2021
474 Clear 26 1007 34 10000 2.06 290 11:21 10.04.2021
475 Clear 26 1007 34 10000 3.6 310 10:50 10.04.2021
476 Clear 26 1007 34 10000 3.6 310 10:30 10.04.2021
477 Clear 24 1006 41 10000 3.6 290 09:37 10.04.2021
478 Clear 24 1006 41 10000 3.6 290 09:18 10.04.2021
479 Clear 24 1006 41 10000 3.6 290 09:18 10.04.2021
480 Clear 22 1007 40 10000 3.09 300 08:34 10.04.2021
481 Clouds 26 1006 24 10000 2.71 354 07:56 10.04.2021
482 Clear 20 1006 42 10000 3.09 280 07:26 10.04.2021
483 Clear 20 1006 42 10000 3.09 280 06:29 10.04.2021
484 Clear 18 1004 48 10000 3.6 310 05:34 10.04.2021
485 Clear 20 1004 34 10000 5.14 250 03:41 10.04.2021
486 Clear 20 1003 34 10000 3.6 320 02:42 10.04.2021
487 Clear 23 1003 28 10000 5.66 330 01:27 10.04.2021
488 Clear 23 1004 28 10000 5.14 320 00:32 10.04.2021
489 Clear 23 1004 28 10000 5.14 320 00:32 10.04.2021
490 Clear 25 1004 29 10000 6.17 310 23:53 09.04.2021
491 Clear 25 1004 29 10000 6.17 310 23:30 09.04.2021
492 Clear 26 1004 27 10000 5.66 290 22:54 09.04.2021
493 Clear 26 1004 27 10000 5.66 290 22:36 09.04.2021
494 Clear 27 1004 26 10000 4.12 300 21:40 09.04.2021
495 Clear 27 1004 26 10000 4.12 300 21:22 09.04.2021
496 Clear 30 1003 23 10000 3.6 330 20:57 09.04.2021
497 Clear 30 1003 23 10000 3.6 330 20:39 09.04.2021
498 Clear 30 1003 23 10000 3.6 330 20:20 09.04.2021
499 Clouds 28 1002 32 9000 1.54 0 19:43 09.04.2021
500 Clouds 28 1002 32 9000 1.54 0 19:22 09.04.2021
501 Clouds 32 1002 23 8000 2.06 250 18:43 09.04.2021
502 Clouds 32 1002 23 8000 2.06 250 18:25 09.04.2021
503 Clouds 34 1002 20 9000 1.03 0 17:48 09.04.2021
504 Clouds 34 1002 20 9000 1.03 0 17:29 09.04.2021
505 Clear 36 1002 15 10000 2.06 90 16:48 09.04.2021
506 Clear 36 1002 15 10000 2.06 90 16:29 09.04.2021
507 Clouds 36 1002 16 10000 2.57 100 15:47 09.04.2021
508 Clear 36 1002 16 10000 2.57 100 15:24 09.04.2021
509 Clear 36 1002 17 10000 4.12 120 14:46 09.04.2021
510 Clear 36 1002 17 10000 4.12 120 14:28 09.04.2021
511 Clear 37 1003 18 9000 4.63 90 13:45 09.04.2021
512 Clear 37 1003 18 9000 4.63 90 13:22 09.04.2021
513 Clouds 36 1004 17 9000 5.14 110 12:47 09.04.2021
514 Clouds 36 1004 17 9000 5.14 110 12:47 09.04.2021
515 Clouds 36 1004 17 9000 5.14 110 12:24 09.04.2021
516 Clear 36 1005 16 9000 5.66 100 11:43 09.04.2021
517 Clouds 36 1005 16 9000 5.66 100 11:20 09.04.2021
518 Clouds 34 1006 22 7000 4.12 230 10:37 09.04.2021
519 Clouds 35 1004 11 10000 4.54 110 09:58 09.04.2021
520 Clouds 29 1006 24 6000 2.57 110 09:27 09.04.2021
521 Clouds 29 1006 24 6000 2.57 110 08:56 09.04.2021
522 Clouds 29 1006 24 6000 2.57 110 08:31 09.04.2021
523 Clouds 24 1006 41 7000 2.06 90 07:32 09.04.2021
524 Clouds 19 1006 45 8000 3.6 300 06:30 09.04.2021
525 Clouds 19 1006 45 8000 3.6 300 06:30 09.04.2021
526 Clouds 17 1005 48 8000 1.03 0 05:36 09.04.2021
527 Clouds 18 1005 48 8000 3.09 320 03:43 09.04.2021
528 Clouds 24 1006 33 8000 3.92 52 00:39 09.04.2021
529 Clouds 24 1006 33 8000 3.79 54 00:21 09.04.2021
530 Clouds 23 1006 33 7000 1.54 10 23:38 08.04.2021
531 Clouds 27 1006 26 7000 2.06 60 22:56 08.04.2021
532 Clouds 27 1006 26 7000 2.06 60 22:56 08.04.2021
533 Clouds 27 1006 26 7000 2.06 60 22:31 08.04.2021
534 Clouds 28 1006 24 7000 2.57 50 21:59 08.04.2021
535 Clouds 28 1006 24 7000 2.57 50 21:41 08.04.2021
536 Clouds 28 1006 24 7000 2.57 50 21:22 08.04.2021
537 Clouds 28 1007 24 9000 3.09 30 20:59 08.04.2021
538 Clouds 28 1007 24 9000 3.09 30 20:40 08.04.2021
539 Clouds 28 1007 24 9000 3.09 30 20:19 08.04.2021
540 Clouds 30 1007 23 9000 3.6 70 19:41 08.04.2021
541 Clouds 30 1007 23 9000 3.6 70 19:19 08.04.2021
542 Clouds 31 1007 19 9000 4.63 50 18:43 08.04.2021
543 Clouds 31 1007 19 9000 4.63 50 18:19 08.04.2021
544 Clouds 32 1007 18 7000 5.14 40 17:42 08.04.2021
545 Clouds 32 1007 18 7000 5.14 40 17:21 08.04.2021
546 Clouds 33 1008 16 9000 3.6 30 16:45 08.04.2021
547 Clouds 33 1008 16 9000 3.6 30 16:23 08.04.2021
548 Clouds 34 1007 15 8000 6.69 50 15:46 08.04.2021
549 Clouds 34 1007 15 8000 6.69 50 15:28 08.04.2021
550 Dust 34 1007 16 4900 6.69 20 14:44 08.04.2021
551 Dust 34 1007 16 4900 6.69 20 14:22 08.04.2021
552 Clouds 33 1009 16 7000 5.14 50 13:49 08.04.2021
553 Clouds 33 1009 16 7000 5.14 50 13:25 08.04.2021
554 Clouds 33 1009 16 7000 5.14 50 13:25 08.04.2021
555 Clouds 33 1011 18 6000 2.06 40 12:59 08.04.2021
556 Clouds 33 1011 18 6000 2.06 40 12:37 08.04.2021
557 Dust 32 1011 18 5000 2.57 320 11:58 08.04.2021
558 Dust 32 1011 18 4700 2.06 350 11:29 08.04.2021
559 Dust 31 1011 20 4400 3.6 40 10:56 08.04.2021
560 Dust 31 1011 20 4400 3.6 40 10:26 08.04.2021
561 Dust 31 1011 20 4400 3.6 40 10:26 08.04.2021
562 Dust 31 1011 20 4400 3.6 40 10:26 08.04.2021
563 Dust 31 1011 20 4400 3.6 40 10:26 08.04.2021
564 Dust 31 1011 20 4400 3.6 40 10:26 08.04.2021
565 Dust 29 1012 24 4500 3.09 50 09:49 08.04.2021
566 Dust 29 1012 24 4500 3.09 50 09:30 08.04.2021
567 Dust 30 1012 19 5000 1.54 60 08:45 08.04.2021
568 Dust 30 1012 19 5000 1.54 60 08:22 08.04.2021
569 Dust 26 1011 25 4800 3.6 40 07:47 08.04.2021
570 Dust 24 1012 35 4200 2.06 0 06:48 08.04.2021
571 Clear 23 1011 33 10000 3.09 80 02:26 08.04.2021
572 Clouds 24 1012 31 9000 1.03 0 00:32 08.04.2021
573 Clouds 24 1012 31 9000 3.6 100 23:55 07.04.2021
574 Clouds 24 1012 31 9000 3.6 100 23:37 07.04.2021
575 Clouds 24 1012 31 9000 3.6 100 23:18 07.04.2021
576 Clouds 23 1013 33 9000 2.3 29 22:43 07.04.2021
577 Clouds 23 1013 33 9000 1.97 25 22:22 07.04.2021
578 Clouds 23 1013 33 9000 1.97 25 22:21 07.04.2021
579 Clouds 23 1013 40 9000 1.03 0 21:41 07.04.2021
580 Clouds 23 1013 40 9000 1.03 0 21:20 07.04.2021
581 Clouds 26 1013 29 9000 2.57 150 20:41 07.04.2021
582 Clouds 26 1013 29 9000 2.57 150 20:20 07.04.2021
583 Clouds 28 1013 23 9000 3.09 150 19:42 07.04.2021
584 Clouds 28 1013 23 9000 3.09 150 19:22 07.04.2021
585 Clear 29 1013 20 10000 1.54 120 18:42 07.04.2021
586 Clear 29 1013 20 10000 1.54 120 18:19 07.04.2021
587 Clear 31 1012 20 10000 3.6 110 17:50 07.04.2021
588 Clear 31 1012 20 10000 3.6 110 17:32 07.04.2021
589 Clear 33 1013 16 10000 3.09 120 16:47 07.04.2021
590 Clear 33 1013 16 10000 3.09 120 16:22 07.04.2021
591 Clear 34 1013 15 10000 2.06 90 15:57 07.04.2021
592 Clear 34 1013 15 10000 2.06 90 15:38 07.04.2021
593 Clear 34 1013 14 10000 2.57 130 14:52 07.04.2021
594 Clear 34 1013 14 10000 2.57 130 14:25 07.04.2021
595 Clouds 34 1014 14 10000 2.06 70 13:47 07.04.2021
596 Clouds 34 1014 14 10000 2.06 70 13:23 07.04.2021
597 Clear 33 1015 15 10000 2.57 60 12:49 07.04.2021
598 Clear 33 1016 15 10000 1.54 0 12:22 07.04.2021
599 Clear 33 1016 15 10000 1.54 0 11:48 07.04.2021
600 Clear 33 1016 15 10000 1.54 0 11:25 07.04.2021
601 Clouds 31 1016 19 9000 3.09 20 10:51 07.04.2021
602 Clear 29 1017 21 10000 2.57 40 09:56 07.04.2021
603 Clear 29 1017 21 10000 2.57 40 09:37 07.04.2021
604 Clear 29 1017 21 10000 2.57 40 09:19 07.04.2021
605 Clear 27 1017 24 10000 3.6 30 08:33 07.04.2021
606 Clear 22 1017 40 10000 2.06 350 07:57 07.04.2021
607 Clear 22 1017 40 10000 2.06 350 07:29 07.04.2021
608 Clear 17 1017 51 10000 2.57 300 06:59 07.04.2021
609 Clear 17 1017 51 10000 2.57 300 06:21 07.04.2021
610 Clear 15 1016 51 10000 3.09 310 03:54 07.04.2021
611 Clear 20 1016 40 10000 3.09 10 23:52 06.04.2021
612 Clear 20 1016 40 10000 3.09 10 23:23 06.04.2021
613 Clear 20 1017 40 10000 2.06 310 22:59 06.04.2021
614 Clear 20 1017 40 10000 2.06 310 22:22 06.04.2021
615 Clear 20 1017 40 10000 3.09 330 21:59 06.04.2021
616 Clear 20 1017 40 10000 3.09 330 21:39 06.04.2021
617 Clear 20 1017 40 10000 3.09 330 21:21 06.04.2021
618 Clear 22 1017 35 10000 3.09 340 20:51 06.04.2021
619 Clear 22 1017 35 10000 3.09 340 20:21 06.04.2021
620 Clear 22 1017 35 10000 3.09 320 19:51 06.04.2021
621 Clear 22 1017 35 10000 3.09 320 19:33 06.04.2021
622 Clear 26 1017 29 10000 2.06 340 18:49 06.04.2021
623 Clear 26 1017 29 10000 2.06 340 18:31 06.04.2021
624 Clear 28 1017 23 10000 4.12 310 17:53 06.04.2021
625 Clear 28 1017 23 10000 4.12 310 17:30 06.04.2021
626 Clear 30 1017 21 10000 4.12 350 16:59 06.04.2021
627 Clear 30 1017 21 10000 4.12 350 16:39 06.04.2021
628 Clear 30 1017 23 10000 5.66 330 15:44 06.04.2021
629 Clear 30 1017 23 10000 5.66 330 15:22 06.04.2021
630 Clear 30 1017 21 10000 5.14 340 14:39 06.04.2021
631 Clear 30 1017 21 10000 5.14 340 14:19 06.04.2021
632 Clear 29 1018 23 10000 5.14 340 13:44 06.04.2021
633 Clear 29 1018 23 10000 5.14 340 13:25 06.04.2021
634 Clear 29 1019 23 10000 3.09 330 12:42 06.04.2021
635 Clear 29 1019 23 10000 3.09 330 12:22 06.04.2021
636 Clear 28 1020 24 10000 3.6 330 11:52 06.04.2021
637 Clear 28 1020 24 10000 3.6 330 11:21 06.04.2021
638 Clear 27 1020 26 10000 4.63 330 10:48 06.04.2021
639 Clear 27 1020 26 10000 4.63 330 10:29 06.04.2021
640 Clear 26 1020 25 10000 3.6 320 09:58 06.04.2021
641 Clear 26 1020 25 10000 3.6 320 09:38 06.04.2021
642 Clear 23 1020 35 10000 2.57 340 08:45 06.04.2021
643 Clear 23 1020 35 10000 2.57 340 08:45 06.04.2021
644 Clear 23 1020 35 10000 2.57 340 08:19 06.04.2021
645 Clear 15 1020 55 7000 2.57 300 06:56 06.04.2021
646 Clear 15 1020 55 7000 2.57 300 06:20 06.04.2021
647 Clear 15 1019 47 10000 2.06 290 02:59 06.04.2021
648 Clear 18 1019 42 10000 1.54 320 00:46 06.04.2021
649 Clear 18 1019 42 10000 1.54 320 00:21 06.04.2021
650 Clear 19 1020 39 10000 2.57 320 23:44 05.04.2021
651 Clear 19 1020 39 10000 2.57 320 23:22 05.04.2021
652 Clear 18 1020 39 10000 2.57 300 22:48 05.04.2021
653 Clear 18 1020 39 10000 2.57 300 22:27 05.04.2021
654 Clear 19 1020 37 10000 2.06 310 21:45 05.04.2021
655 Clear 19 1020 37 10000 2.06 310 21:22 05.04.2021
656 Clear 20 1020 32 10000 2.57 310 20:45 05.04.2021
657 Clear 20 1020 32 10000 2.57 310 20:27 05.04.2021
658 Clear 21 1019 35 10000 1.54 310 19:44 05.04.2021
659 Clear 21 1019 35 10000 1.54 310 19:24 05.04.2021
660 Clear 22 1019 30 10000 2.06 300 18:55 05.04.2021
661 Clear 22 1019 30 10000 2.06 300 18:36 05.04.2021
662 Clear 25 1019 25 10000 6.69 310 18:18 05.04.2021
663 Clear 25 1019 25 10000 6.69 310 17:43 05.04.2021
664 Clear 27 1019 21 10000 5.14 310 17:20 05.04.2021
665 Clear 27 1019 21 10000 5.14 310 16:44 05.04.2021
666 Clear 27 1019 21 10000 5.14 310 16:21 05.04.2021
667 Clear 27 1019 22 10000 5.14 320 15:54 05.04.2021
668 Clear 27 1019 22 10000 5.14 320 15:30 05.04.2021
669 Clear 27 1019 21 10000 5.66 310 14:54 05.04.2021
670 Clear 27 1019 21 10000 5.66 310 14:35 05.04.2021
671 Clear 27 1019 22 10000 5.14 290 13:32 05.04.2021
672 Clear 27 1020 22 10000 4.63 260 12:57 05.04.2021
673 Clear 27 1020 22 10000 4.63 260 12:37 05.04.2021
674 Clear 27 1020 22 10000 4.63 260 12:19 05.04.2021
675 Clear 26 1021 25 10000 2.57 0 11:42 05.04.2021
676 Clear 26 1021 25 10000 2.57 0 11:22 05.04.2021
677 Clear 25 1021 27 10000 2.57 360 10:45 05.04.2021
678 Clear 25 1021 27 10000 2.57 360 10:26 05.04.2021
679 Clear 24 1021 29 10000 2.57 350 09:47 05.04.2021
680 Clear 24 1021 29 10000 2.57 350 09:23 05.04.2021
681 Clear 22 1022 33 10000 2.57 310 08:45 05.04.2021
682 Clear 22 1022 33 10000 2.57 310 08:25 05.04.2021
683 Clear 19 1021 39 10000 2.57 310 07:36 05.04.2021
684 Clear 15 1021 51 10000 2.06 320 06:20 05.04.2021
685 Clear 13 1019 50 10000 0.51 0 01:41 05.04.2021
686 Clear 14 1019 51 10000 1.03 310 00:49 05.04.2021
687 Clear 15 1019 44 10000 0.51 280 23:51 04.04.2021
688 Clear 15 1019 44 10000 0.51 280 23:24 04.04.2021
689 Clear 17 1019 42 10000 1.54 340 22:51 04.04.2021
690 Clear 17 1019 42 10000 1.54 340 22:30 04.04.2021
691 Clear 17 1020 42 10000 2.06 300 21:28 04.04.2021
692 Clear 19 1020 39 10000 2.06 330 20:57 04.04.2021
693 Clear 19 1020 39 10000 2.06 330 20:30 04.04.2021
694 Clear 21 1019 30 10000 3.6 290 19:58 04.04.2021
695 Clear 21 1019 30 10000 3.6 290 19:37 04.04.2021
696 Clear 21 1019 30 10000 3.6 290 19:18 04.04.2021
697 Clear 23 1019 27 10000 5.14 290 18:44 04.04.2021
698 Clear 23 1019 27 10000 5.14 290 18:21 04.04.2021
699 Clear 25 1018 23 10000 5.66 290 17:44 04.04.2021
700 Clear 25 1018 23 10000 5.66 290 17:23 04.04.2021
701 Clear 25 1018 23 10000 7.2 300 16:47 04.04.2021
702 Clear 25 1018 23 10000 7.2 300 16:20 04.04.2021
703 Clear 25 1018 25 10000 6.69 280 15:36 04.04.2021
704 Clouds 26 1019 24 10000 6.69 330 14:46 04.04.2021
705 Clouds 26 1019 24 10000 6.69 330 14:27 04.04.2021
706 Clouds 26 1019 22 10000 7.72 320 13:52 04.04.2021
707 Clouds 26 1019 22 10000 7.72 320 13:25 04.04.2021
708 Clear 25 1020 23 10000 8.23 320 12:44 04.04.2021
709 Clear 25 1020 25 10000 6.17 340 12:25 04.04.2021
710 Clear 25 1020 23 10000 7.72 330 11:42 04.04.2021
711 Clear 25 1020 23 10000 7.72 330 11:24 04.04.2021
712 Clear 24 1021 25 10000 5.66 340 10:46 04.04.2021
713 Clear 23 1021 31 10000 5.14 340 09:57 04.04.2021
714 Clear 23 1021 31 10000 5.14 340 09:26 04.04.2021
715 Clear 21 1021 32 10000 4.12 330 08:55 04.04.2021
716 Clear 21 1021 32 10000 4.12 330 08:37 04.04.2021
717 Clear 21 1021 32 10000 4.12 330 08:19 04.04.2021
718 Clear 19 1020 32 10000 3.42 338 06:39 04.04.2021
719 Clear 10 1020 53 10000 1.03 270 05:33 04.04.2021
720 Clear 14 1020 51 10000 2.57 310 01:33 04.04.2021
721 Clear 13 1019 54 10000 0.51 0 00:23 04.04.2021
722 Clear 14 1019 51 10000 1.03 240 23:52 03.04.2021
723 Clear 14 1019 51 10000 1.03 240 23:33 03.04.2021
724 Clear 16 1019 44 10000 1.03 0 22:53 03.04.2021
725 Clear 16 1019 44 10000 1.03 0 22:23 03.04.2021
726 Clear 15 1019 47 10000 1.03 250 21:56 03.04.2021
727 Clear 15 1019 47 10000 1.03 250 21:38 03.04.2021
728 Clear 15 1019 47 10000 1.03 250 21:18 03.04.2021
729 Clear 17 1019 39 10000 1.54 240 20:30 03.04.2021
730 Clear 19 1019 37 10000 2.57 270 19:52 03.04.2021
731 Clear 19 1019 37 10000 2.57 270 19:34 03.04.2021
732 Clear 20 1018 34 10000 3.6 290 18:57 03.04.2021
733 Clear 20 1018 34 10000 3.6 290 18:36 03.04.2021
734 Clear 21 1018 32 10000 5.66 300 17:58 03.04.2021
735 Clear 21 1018 32 10000 5.66 300 17:28 03.04.2021
736 Clear 22 1018 30 10000 7.2 290 16:58 03.04.2021
737 Clear 22 1018 30 10000 7.2 290 16:31 03.04.2021
738 Clear 22 1017 30 10000 5.66 280 15:53 03.04.2021
739 Clear 22 1017 30 10000 5.66 280 15:32 03.04.2021
740 Clouds 22 1018 30 10000 7.2 280 14:59 03.04.2021
741 Clouds 22 1018 30 10000 7.2 280 14:37 03.04.2021
742 Clouds 22 1018 30 10000 7.2 280 14:18 03.04.2021
743 Clear 21 1018 35 10000 6.17 300 13:40 03.04.2021
744 Clear 21 1018 35 10000 6.17 300 13:20 03.04.2021
745 Clouds 21 1018 35 10000 6.69 290 12:40 03.04.2021
746 Clouds 21 1018 35 10000 6.69 290 12:19 03.04.2021
747 Clouds 20 1018 37 10000 7.72 280 11:32 03.04.2021
748 Clouds 19 1018 37 10000 7.72 290 10:49 03.04.2021
749 Clouds 19 1018 37 10000 7.72 290 10:30 03.04.2021
750 Clouds 18 1019 39 10000 8.23 290 09:50 03.04.2021
751 Clouds 18 1019 39 10000 8.23 290 09:27 03.04.2021
752 Clouds 16 1018 51 10000 7.2 280 08:40 03.04.2021
753 Clouds 16 1018 51 10000 7.2 280 08:21 03.04.2021
754 Clear 14 1017 58 10000 6.17 280 07:27 03.04.2021
755 Clear 13 1016 67 10000 7.2 290 05:33 03.04.2021
756 Clear 15 1014 51 10000 8.23 280 03:18 03.04.2021
757 Clear 17 1014 42 10000 7.72 280 02:35 03.04.2021
758 Clouds 18 1013 42 10000 6.69 280 01:56 03.04.2021
759 Clear 18 1013 42 9000 9.26 280 00:20 03.04.2021
760 Dust 19 1013 34 3000 9.26 280 23:46 02.04.2021
761 Dust 19 1013 34 3000 9.26 280 23:24 02.04.2021
762 Clear 18 1012 36 10000 1.03 60 22:50 02.04.2021
763 Clear 18 1012 36 10000 1.03 60 22:32 02.04.2021
764 Clear 18 1012 34 10000 2.06 310 21:42 02.04.2021
765 Clear 18 1012 34 10000 2.06 310 21:22 02.04.2021
766 Clear 22 1012 26 10000 4.12 280 20:48 02.04.2021
767 Clear 22 1012 26 10000 4.12 280 20:27 02.04.2021
768 Clear 23 1012 25 10000 5.14 290 19:56 02.04.2021
769 Clear 23 1012 25 10000 5.14 290 19:37 02.04.2021
770 Clear 23 1012 25 10000 5.14 290 19:19 02.04.2021
771 Clear 24 1011 23 10000 6.17 280 18:38 02.04.2021
772 Clear 24 1011 23 10000 6.17 280 18:19 02.04.2021
773 Clear 26 1010 22 10000 5.14 270 17:37 02.04.2021
774 Clear 27 1010 21 10000 6.17 290 16:48 02.04.2021
775 Clear 28 1010 20 10000 5.66 290 15:54 02.04.2021
776 Clear 28 1010 20 10000 5.66 290 15:32 02.04.2021
777 Clear 28 1010 20 10000 5.14 270 14:48 02.04.2021
778 Clear 28 1010 20 10000 5.14 270 14:27 02.04.2021
779 Clear 28 1010 20 10000 5.14 290 13:42 02.04.2021
780 Clear 28 1010 20 10000 5.14 290 13:19 02.04.2021
781 Clear 27 1011 21 10000 5.14 320 12:41 02.04.2021
782 Clear 27 1011 21 10000 5.14 320 12:20 02.04.2021
783 Clear 27 1012 22 10000 5.66 320 11:54 02.04.2021
784 Clear 27 1012 22 10000 5.66 320 11:20 02.04.2021
785 Clear 27 1012 22 10000 6.17 340 10:46 02.04.2021
786 Clear 27 1012 22 10000 6.17 340 10:28 02.04.2021
787 Clear 24 1012 29 10000 4.63 340 09:52 02.04.2021
788 Clear 24 1012 29 10000 4.63 340 09:27 02.04.2021
789 Clear 21 1013 32 10000 4.63 330 08:51 02.04.2021
790 Clear 21 1013 32 10000 4.63 330 08:29 02.04.2021
791 Clear 18 1013 36 10000 5.14 300 07:30 02.04.2021
792 Clear 15 1012 44 10000 3.6 300 06:47 02.04.2021
793 Clear 15 1012 44 10000 3.6 300 06:47 02.04.2021
794 Clouds 14 1012 47 10000 2.57 300 04:49 02.04.2021
795 Clouds 16 1012 39 10000 1.54 340 02:27 02.04.2021
796 Clouds 18 1012 36 10000 1.03 0 00:50 02.04.2021
797 Clouds 18 1012 36 10000 1.03 0 00:18 02.04.2021
798 Clouds 18 1012 39 10000 3.09 350 23:35 01.04.2021
799 Clear 19 1012 30 10000 4.63 310 22:55 01.04.2021
800 Clear 19 1012 30 10000 4.63 310 22:19 01.04.2021
801 Clear 21 1012 26 10000 4.63 300 21:49 01.04.2021
802 Clear 21 1012 26 10000 4.63 300 21:26 01.04.2021
803 Clear 22 1012 26 10000 4.63 300 20:45 01.04.2021
804 Clear 22 1012 26 10000 4.63 300 20:24 01.04.2021
805 Clear 21 1011 30 10000 3.6 300 19:54 01.04.2021
806 Clear 21 1011 30 10000 3.6 300 19:35 01.04.2021
807 Clear 21 1011 30 10000 3.6 300 19:35 01.04.2021
808 Clear 25 1011 25 10000 2.57 310 18:45 01.04.2021
809 Clear 25 1011 25 10000 2.57 310 18:18 01.04.2021
810 Clear 28 1011 21 10000 4.12 330 17:51 01.04.2021
811 Clear 28 1011 21 10000 4.12 330 17:32 01.04.2021
812 Clear 29 1010 21 10000 4.63 350 16:51 01.04.2021
813 Clear 29 1010 21 10000 4.63 350 16:28 01.04.2021
814 Clear 29 1011 20 10000 5.14 330 15:47 01.04.2021
815 Clear 29 1011 20 10000 5.14 330 15:20 01.04.2021
816 Clear 29 1011 18 10000 6.17 330 14:45 01.04.2021
817 Clear 29 1011 18 10000 6.17 330 14:26 01.04.2021
818 Clear 29 1012 23 10000 6.69 310 13:56 01.04.2021
819 Clear 29 1012 23 10000 6.69 310 13:31 01.04.2021
820 Clear 27 1012 28 10000 6.17 300 12:54 01.04.2021
821 Clear 27 1012 28 10000 6.17 300 12:32 01.04.2021
822 Clear 26 1012 31 10000 8.75 300 11:50 01.04.2021
823 Clear 26 1012 31 10000 8.75 300 11:25 01.04.2021
824 Clear 24 1013 35 10000 7.2 290 10:58 01.04.2021
825 Clear 24 1013 35 10000 7.2 290 10:40 01.04.2021
826 Clear 24 1013 35 10000 7.2 290 10:21 01.04.2021
827 Clear 23 1013 38 10000 6.69 310 09:30 01.04.2021
828 Clear 20 1012 42 10000 6.69 310 08:40 01.04.2021
829 Clear 20 1012 42 10000 6.69 310 08:19 01.04.2021
830 Clear 18 1012 42 10000 5.14 320 07:21 01.04.2021
831 Clear 16 1010 41 10000 4.63 320 06:54 01.04.2021
832 Clear 14 1009 38 10000 1.54 290 04:56 01.04.2021
833 Clear 17 1009 34 10000 2.06 230 02:29 01.04.2021
834 Clear 18 1009 45 10000 4.12 150 23:52 31.03.2021
835 Clear 18 1009 45 10000 4.12 150 23:33 31.03.2021
836 Clear 20 1009 42 10000 3.6 150 22:43 31.03.2021
837 Clear 20 1009 42 10000 3.6 150 22:21 31.03.2021
838 Clear 22 1009 35 10000 3.09 180 21:47 31.03.2021
839 Clear 22 1009 35 10000 3.09 180 21:24 31.03.2021
840 Clear 23 1008 33 10000 4.63 130 20:58 31.03.2021
841 Clear 23 1008 33 10000 4.63 130 20:40 31.03.2021
842 Clear 23 1008 33 10000 4.63 130 20:19 31.03.2021
843 Clear 25 1007 29 10000 4.12 110 19:42 31.03.2021
844 Clear 25 1007 29 10000 4.12 110 19:42 31.03.2021
845 Clear 25 1007 29 10000 4.12 110 19:19 31.03.2021
846 Clear 26 1007 27 10000 3.09 120 18:52 31.03.2021
847 Clear 26 1007 27 10000 3.09 120 18:26 31.03.2021
848 Clouds 28 1007 23 10000 3.6 110 17:38 31.03.2021
849 Clouds 28 1007 23 10000 3.6 110 17:19 31.03.2021
850 Clouds 29 1008 18 10000 5.66 130 16:50 31.03.2021
851 Clouds 29 1008 18 10000 5.66 130 16:50 31.03.2021
852 Clouds 29 1008 18 10000 5.66 130 16:31 31.03.2021
853 Clear 29 1008 18 10000 7.72 130 15:53 31.03.2021
854 Clear 29 1008 18 10000 7.72 130 15:20 31.03.2021
855 Clouds 30 1008 16 10000 8.23 130 14:49 31.03.2021
856 Clouds 30 1008 16 10000 8.23 130 14:24 31.03.2021
857 Clouds 29 1009 18 10000 6.69 100 13:54 31.03.2021
858 Clouds 29 1009 18 10000 6.69 100 13:22 31.03.2021
859 Clouds 28 1010 16 10000 6.69 100 12:40 31.03.2021
860 Clouds 28 1010 16 10000 6.69 100 12:40 31.03.2021
861 Clouds 28 1010 16 10000 6.69 100 12:18 31.03.2021
862 Clouds 27 1011 19 10000 4.63 90 11:23 31.03.2021
863 Clouds 24 1012 23 6000 3.09 70 10:50 31.03.2021
864 Clouds 24 1012 23 6000 3.09 70 10:27 31.03.2021
865 Dust 22 1012 24 5000 2.57 40 09:56 31.03.2021
866 Dust 22 1012 24 5000 2.57 40 09:31 31.03.2021
867 Clouds 20 1012 26 8000 2.57 60 08:46 31.03.2021
868 Clouds 20 1012 26 8000 2.57 60 08:26 31.03.2021
869 Clouds 18 1012 29 9000 2.57 30 07:36 31.03.2021
870 Clear 15 1012 33 10000 0.51 0 04:46 31.03.2021
871 Clear 13 1012 44 10000 1.54 10 02:37 31.03.2021
872 Clear 13 1013 38 10000 2.57 320 00:54 31.03.2021
873 Clear 13 1013 38 10000 2.57 320 00:25 31.03.2021
874 Clear 16 1013 36 10000 1.54 340 23:57 30.03.2021
875 Clear 16 1013 36 10000 1.54 340 23:25 30.03.2021
876 Clear 16 1014 33 10000 1.54 340 22:50 30.03.2021
877 Clear 16 1014 33 10000 1.54 340 22:30 30.03.2021
878 Clear 16 1014 31 10000 2.72 16 21:57 30.03.2021
879 Clear 16 1014 31 10000 2.72 16 21:31 30.03.2021
880 Clear 18 1014 27 10000 1.54 290 20:59 30.03.2021
881 Clear 18 1014 27 10000 1.54 290 20:40 30.03.2021
882 Clear 18 1014 27 10000 1.54 290 20:20 30.03.2021
883 Clear 20 1013 24 10000 1.54 310 19:43 30.03.2021
884 Clear 22 1013 20 10000 1.54 330 18:58 30.03.2021
885 Clear 22 1013 20 10000 1.54 330 18:30 30.03.2021
886 Clear 24 1013 17 10000 3.09 310 17:48 30.03.2021
887 Clear 24 1013 17 10000 3.09 310 17:30 30.03.2021
888 Clear 25 1013 18 10000 3.6 330 16:47 30.03.2021
889 Clear 25 1013 18 10000 3.6 330 16:28 30.03.2021
890 Clear 26 1014 15 10000 4.63 330 15:39 30.03.2021
891 Clear 26 1014 15 10000 4.63 330 15:19 30.03.2021
892 Clear 25 1014 16 10000 4.12 350 14:45 30.03.2021
893 Clear 25 1014 16 10000 4.12 350 14:21 30.03.2021
894 Clear 26 1014 9 10000 3.65 344 13:49 30.03.2021
895 Clear 25 1016 15 10000 4.12 340 13:26 30.03.2021
896 Clear 25 1015 10 10000 3.84 339 12:42 30.03.2021
897 Clouds 24 1017 16 10000 2.57 320 12:21 30.03.2021
898 Clouds 24 1017 16 10000 2.57 320 11:47 30.03.2021
899 Clouds 24 1017 16 10000 2.57 320 11:20 30.03.2021
900 Clear 22 1018 18 10000 3.09 320 10:42 30.03.2021
901 Clear 22 1018 18 10000 3.09 320 10:19 30.03.2021
902 Clear 21 1018 23 10000 3.6 350 09:43 30.03.2021
903 Clear 21 1018 23 10000 3.6 350 09:23 30.03.2021
904 Clear 21 1018 13 10000 3.77 336 08:44 30.03.2021
905 Clear 19 1018 15 10000 3.66 336 08:21 30.03.2021
906 Clear 19 1018 15 10000 3.66 336 07:42 30.03.2021
907 Clear 16 1019 18 10000 3.51 339 06:53 30.03.2021
908 Clear 13 1018 21 10000 3.7 344 05:25 30.03.2021
909 Clear 15 1018 24 10000 3.39 338 01:57 30.03.2021
910 Clear 15 1019 22 10000 3.97 315 23:56 29.03.2021
911 Clear 13 1019 35 10000 2.06 250 23:27 29.03.2021
912 Clear 13 1019 35 10000 2.06 250 22:43 29.03.2021
913 Clear 15 1019 29 10000 1.03 220 21:58 29.03.2021
914 Clear 15 1019 29 10000 1.03 220 21:37 29.03.2021
915 Clear 15 1019 29 10000 2.06 280 20:57 29.03.2021
916 Clear 15 1019 29 10000 2.06 280 20:37 29.03.2021
917 Clear 18 1019 24 10000 3.09 280 19:56 29.03.2021
918 Clear 18 1019 24 10000 3.09 280 19:32 29.03.2021
919 Clear 20 1018 21 10000 4.12 290 18:57 29.03.2021
920 Clear 20 1018 21 10000 4.12 290 18:39 29.03.2021
921 Clear 20 1018 21 10000 4.12 290 18:20 29.03.2021
922 Clear 20 1018 21 10000 4.12 290 18:20 29.03.2021
923 Clear 22 1019 17 10000 5.66 300 17:38 29.03.2021
924 Clear 22 1019 16 10000 6.17 290 16:59 29.03.2021
925 Clear 22 1019 16 10000 6.17 290 16:35 29.03.2021
926 Clear 23 1019 16 10000 7.72 290 15:49 29.03.2021
927 Clear 23 1019 16 10000 7.72 290 15:31 29.03.2021
928 Clear 23 1020 17 10000 9.77 300 14:54 29.03.2021
929 Clear 23 1020 17 10000 9.77 300 14:31 29.03.2021
930 Clear 22 1021 16 10000 9.26 300 13:47 29.03.2021
931 Clear 22 1021 16 10000 9.26 300 13:26 29.03.2021
932 Clear 22 1021 20 10000 7.2 300 12:50 29.03.2021
933 Clear 21 1022 18 10000 6.69 280 11:53 29.03.2021
934 Clear 21 1022 18 10000 6.69 280 11:35 29.03.2021
935 Clear 20 1022 22 10000 6.17 300 10:59 29.03.2021
936 Clear 20 1022 22 10000 6.17 300 10:36 29.03.2021
937 Clear 18 1023 32 10000 5.14 300 09:44 29.03.2021
938 Clear 15 1023 33 10000 5.14 300 08:58 29.03.2021
939 Clear 15 1023 33 10000 5.14 300 08:28 29.03.2021
940 Clear 14 1022 35 10000 5.66 310 07:41 29.03.2021
941 Clear 10 1022 50 10000 4.12 310 06:42 29.03.2021
942 Clear 11 1021 54 10000 4.12 290 03:59 29.03.2021
943 Clear 11 1021 54 10000 4.12 290 03:59 29.03.2021
944 Clear 12 1021 47 10000 4.12 280 01:58 29.03.2021
945 Clear 13 1021 41 10000 4.63 280 00:23 29.03.2021
946 Clear 13 1021 33 10000 4.12 270 23:50 28.03.2021
947 Clear 13 1021 33 10000 4.12 270 23:19 28.03.2021
948 Clear 14 1021 33 10000 4.63 270 22:41 28.03.2021
949 Clear 14 1021 33 10000 4.63 270 22:21 28.03.2021
950 Clear 14 1021 28 10000 4.12 270 21:42 28.03.2021
951 Clear 14 1021 28 10000 4.12 270 21:23 28.03.2021
952 Clear 16 1021 23 10000 4.63 280 20:50 28.03.2021
953 Clear 16 1021 23 10000 4.63 280 20:31 28.03.2021
954 Clear 17 1021 22 10000 4.12 280 19:46 28.03.2021
955 Clear 17 1021 22 10000 4.12 280 19:23 28.03.2021
956 Clear 18 1020 22 10000 5.14 280 18:58 28.03.2021
957 Clear 18 1020 22 10000 5.14 280 18:32 28.03.2021
958 Clear 19 1020 22 10000 6.69 290 17:55 28.03.2021
959 Clear 19 1020 22 10000 6.69 290 17:34 28.03.2021
960 Clear 20 1020 21 10000 7.72 290 16:55 28.03.2021
961 Clear 20 1020 21 10000 7.72 290 16:24 28.03.2021
962 Clear 21 1021 19 10000 7.72 300 15:48 28.03.2021
963 Clear 21 1021 19 10000 7.72 300 15:22 28.03.2021
964 Clear 21 1021 18 10000 8.23 290 14:38 28.03.2021
965 Clear 21 1021 18 10000 8.23 300 13:55 28.03.2021
966 Clear 21 1021 18 10000 8.23 300 13:34 28.03.2021
967 Clear 20 1022 21 10000 8.75 300 12:55 28.03.2021
968 Clear 20 1022 21 10000 8.75 300 12:34 28.03.2021
969 Clear 19 1023 20 10000 7.72 300 11:50 28.03.2021
970 Clear 19 1023 20 10000 7.72 300 11:32 28.03.2021
971 Clear 19 1024 22 10000 7.72 320 10:47 28.03.2021
972 Clear 19 1024 22 10000 7.72 320 10:28 28.03.2021
973 Clear 17 1024 25 10000 8.75 320 09:49 28.03.2021
974 Clear 17 1024 25 10000 8.75 320 09:27 28.03.2021
975 Clear 15 1025 33 10000 6.69 320 08:48 28.03.2021
976 Clear 15 1025 33 10000 6.69 320 08:23 28.03.2021
977 Clear 11 1025 43 7000 5.66 310 07:38 28.03.2021
978 Clear 6 1024 52 10000 4.63 310 05:33 28.03.2021
979 Clear 8 1023 39 10000 4.12 310 03:26 28.03.2021
980 Clear 8 1024 39 10000 3.6 310 00:34 28.03.2021
981 Clear 9 1024 37 10000 4.12 310 23:50 27.03.2021
982 Clear 9 1024 37 10000 4.12 310 23:32 27.03.2021
983 Clear 11 1024 32 10000 4.12 320 22:40 27.03.2021
984 Clear 11 1024 32 10000 4.12 320 22:20 27.03.2021
985 Clear 11 1023 32 10000 3.6 310 21:41 27.03.2021
986 Clear 11 1023 32 10000 3.6 310 21:20 27.03.2021
987 Clear 14 1023 30 10000 4.63 300 20:55 27.03.2021
988 Clear 14 1023 30 10000 4.63 300 20:37 27.03.2021
989 Clear 14 1023 28 10000 3.6 270 19:46 27.03.2021
990 Clear 14 1023 28 10000 3.6 270 19:24 27.03.2021
991 Clear 15 1022 25 10000 5.14 280 18:57 27.03.2021
992 Clear 15 1022 25 10000 5.14 280 18:38 27.03.2021
993 Clear 15 1022 25 10000 5.14 280 18:19 27.03.2021
994 Clear 16 1021 23 10000 5.14 290 17:28 27.03.2021
995 Clear 17 1021 20 10000 7.72 310 16:54 27.03.2021
996 Clear 17 1021 20 10000 7.72 310 16:36 27.03.2021
997 Clear 17 1021 20 10000 7.72 310 16:18 27.03.2021
998 Clear 18 1020 17 10000 8.75 300 15:36 27.03.2021
999 Clear 19 1020 19 10000 9.26 310 14:55 27.03.2021
1000 Clear 19 1020 19 10000 9.26 310 14:23 27.03.2021
1001 Clear 19 1020 20 10000 8.75 300 13:36 27.03.2021
1002 Clear 18 1020 22 10000 9.26 300 13:18 27.03.2021
1003 Clear 19 1020 22 10000 8.75 310 12:35 27.03.2021
1004 Clear 19 1019 14 10000 9.51 310 11:47 27.03.2021
1005 Clear 19 1019 15 10000 9.93 310 11:28 27.03.2021
1006 Clear 19 1019 15 10000 9.93 310 10:48 27.03.2021
1007 Clear 19 1019 19 10000 9.8 311 10:29 27.03.2021
1008 Clear 19 1019 19 10000 9.8 311 09:42 27.03.2021
1009 Clear 18 1019 24 10000 9.84 312 09:18 27.03.2021
1010 Clear 18 1019 24 10000 9.84 312 09:18 27.03.2021
1011 Clear 18 1019 24 10000 9.84 312 08:36 27.03.2021
1012 Clear 16 1019 39 10000 12.35 300 07:42 27.03.2021
1013 Clear 16 1019 39 10000 12.35 300 06:59 27.03.2021
1014 Clear 14 1019 47 10000 9.77 300 06:37 27.03.2021
1015 Clear 13 1016 50 10000 10.29 310 04:41 27.03.2021
1016 Clear 16 1012 41 10000 0.51 0 01:36 27.03.2021
1017 Clear 16 1012 44 10000 4.63 270 00:32 27.03.2021
1018 Clear 18 1012 36 10000 2.06 270 23:59 26.03.2021
1019 Clear 18 1012 36 10000 2.06 270 23:24 26.03.2021
1020 Clear 19 1012 34 10000 1.54 20 22:39 26.03.2021
1021 Clear 19 1012 34 10000 1.54 20 21:42 26.03.2021
1022 Clear 19 1012 34 10000 1.54 20 21:22 26.03.2021
1023 Clear 20 1012 32 10000 2.57 50 20:54 26.03.2021
1024 Clear 20 1012 32 10000 2.57 50 20:31 26.03.2021
1025 Clear 21 1012 30 10000 2.57 70 19:51 26.03.2021
1026 Clear 21 1012 30 10000 2.57 70 19:32 26.03.2021
1027 Clear 21 1013 30 10000 2.57 100 18:49 26.03.2021
1028 Clear 21 1013 30 10000 2.57 100 18:30 26.03.2021
1029 Clear 22 1012 26 10000 2.57 50 17:50 26.03.2021
1030 Clear 22 1012 26 10000 2.57 50 17:23 26.03.2021
1031 Clear 24 1012 22 10000 1.54 280 16:36 26.03.2021
1032 Clear 25 1012 20 10000 1.54 280 15:59 26.03.2021
1033 Clear 25 1012 20 10000 1.54 280 15:35 26.03.2021
1034 Clear 26 1012 22 10000 1.54 0 14:44 26.03.2021
1035 Clear 26 1013 21 10000 3.6 210 13:51 26.03.2021
1036 Clear 26 1013 21 10000 3.6 210 13:22 26.03.2021
1037 Clear 25 1013 20 10000 2.57 120 12:35 26.03.2021
1038 Clear 25 1014 19 10000 2.57 110 11:48 26.03.2021
1039 Clear 25 1014 19 10000 2.57 110 11:29 26.03.2021
1040 Clear 24 1015 22 10000 1.54 0 10:43 26.03.2021
1041 Clear 24 1015 22 10000 1.54 0 10:19 26.03.2021
1042 Clear 24 1015 23 10000 2.06 0 09:41 26.03.2021
1043 Clear 23 1016 27 10000 4.12 100 08:49 26.03.2021
1044 Clear 23 1016 27 10000 4.12 100 08:30 26.03.2021
1045 Clear 21 1016 35 10000 2.57 70 07:56 26.03.2021
1046 Clear 21 1016 35 10000 2.57 70 07:22 26.03.2021
1047 Clear 18 1016 45 10000 2.06 70 06:56 26.03.2021
1048 Clear 13 1015 54 10000 0.51 0 05:32 26.03.2021
1049 Clear 11 1015 62 10000 3.1 71 04:18 26.03.2021
1050 Clear 12 1015 54 10000 1.03 350 00:52 26.03.2021
1051 Clear 13 1016 44 10000 4.99 56 23:53 25.03.2021
1052 Clear 13 1016 44 10000 4.99 56 23:33 25.03.2021
1053 Clear 15 1016 44 10000 1.03 0 22:41 25.03.2021
1054 Clear 15 1016 44 10000 1.03 0 22:20 25.03.2021
1055 Clear 15 1016 47 10000 0.51 330 21:47 25.03.2021
1056 Clear 15 1016 47 10000 0.51 330 21:29 25.03.2021
1057 Clear 16 1016 41 10000 1.03 310 20:41 25.03.2021
1058 Clear 16 1016 41 10000 1.03 310 20:23 25.03.2021
1059 Clear 17 1015 39 10000 3.2 10 19:40 25.03.2021
1060 Clear 17 1015 39 10000 3.01 0 19:22 25.03.2021
1061 Clear 18 1014 36 10000 1.03 340 18:46 25.03.2021
1062 Clear 18 1014 36 10000 1.03 340 18:26 25.03.2021
1063 Clear 19 1013 34 10000 2.57 320 17:42 25.03.2021
1064 Clear 19 1013 34 10000 2.57 320 17:23 25.03.2021
1065 Clouds 21 1013 28 10000 4.63 310 16:39 25.03.2021
1066 Clouds 21 1013 28 10000 4.63 310 16:20 25.03.2021
1067 Clouds 22 1012 33 10000 4.63 300 15:42 25.03.2021
1068 Clouds 22 1012 33 10000 4.63 300 15:19 25.03.2021
1069 Clouds 23 1012 31 10000 5.14 290 14:42 25.03.2021
1070 Clouds 22 1012 35 10000 4.12 280 13:41 25.03.2021
1071 Clouds 22 1012 35 10000 4.12 280 13:23 25.03.2021
1072 Clear 22 1012 35 10000 4.63 300 12:41 25.03.2021
1073 Clear 22 1012 35 10000 4.63 300 12:20 25.03.2021
1074 Clear 21 1012 37 10000 5.14 260 11:48 25.03.2021
1075 Clear 21 1012 37 10000 5.14 260 11:26 25.03.2021
1076 Clear 21 1012 35 10000 4.63 280 10:52 25.03.2021
1077 Clear 21 1012 35 10000 4.63 280 10:24 25.03.2021
1078 Clear 20 1013 37 10000 5.14 290 09:56 25.03.2021
1079 Clear 20 1013 37 10000 5.14 290 09:38 25.03.2021
1080 Clear 19 1013 39 10000 6.69 300 08:54 25.03.2021
1081 Clear 19 1013 39 10000 6.69 300 08:28 25.03.2021
1082 Clouds 18 1012 42 7000 7.2 290 07:19 25.03.2021
1083 Clouds 17 1011 45 6000 5.66 290 06:26 25.03.2021
1084 Clouds 16 1010 48 6000 5.66 290 05:49 25.03.2021
1085 Clouds 17 1009 45 7000 6.17 300 03:55 25.03.2021
1086 Clouds 20 1007 34 5000 8.75 300 00:34 25.03.2021
1087 Clouds 21 1007 35 6000 5.66 300 23:53 24.03.2021
1088 Clouds 21 1007 35 6000 5.66 300 23:30 24.03.2021
1089 Clouds 20 1007 37 5000 1.54 280 22:50 24.03.2021
1090 Clouds 20 1007 37 5000 1.54 280 22:30 24.03.2021
1091 Clouds 22 1006 35 4900 2.19 322 21:47 24.03.2021
1092 Clouds 22 1006 35 4900 2.3 9 21:25 24.03.2021
1093 Dust 22 1006 35 5000 1.54 50 20:45 24.03.2021
1094 Dust 22 1006 35 5000 1.54 50 20:20 24.03.2021
1095 Dust 22 1005 37 5000 1.54 330 19:52 24.03.2021
1096 Dust 22 1005 37 5000 1.54 330 19:31 24.03.2021
1097 Dust 23 1004 31 4500 2.57 330 18:51 24.03.2021
1098 Dust 23 1004 31 4500 2.57 330 18:51 24.03.2021
1099 Dust 23 1004 31 4500 2.57 330 18:24 24.03.2021
1100 Dust 24 1004 25 4900 2.57 340 17:52 24.03.2021
1101 Dust 24 1004 25 4900 2.57 340 17:32 24.03.2021
1102 Dust 24 1004 25 4900 2.57 340 17:32 24.03.2021
1103 Dust 25 1004 22 4400 5.66 300 16:53 24.03.2021
1104 Dust 25 1004 22 4400 5.66 300 16:31 24.03.2021
1105 Clouds 26 1004 24 7000 4.12 250 15:57 24.03.2021
1106 Clouds 26 1004 24 7000 4.12 250 15:33 24.03.2021
1107 Clouds 26 1004 24 7000 4.12 250 14:55 24.03.2021
1108 Clouds 26 1004 34 10000 2.06 0 14:28 24.03.2021
1109 Clouds 26 1004 31 10000 4.12 310 13:57 24.03.2021
1110 Clouds 26 1004 31 10000 4.12 310 13:28 24.03.2021
1111 Clouds 25 1004 31 10000 7.2 310 12:48 24.03.2021
1112 Clouds 25 1004 31 10000 7.2 310 12:27 24.03.2021
1113 Clouds 26 1004 31 10000 7.72 290 11:49 24.03.2021
1114 Clouds 26 1004 36 10000 8.75 300 11:20 24.03.2021
1115 Clouds 26 1004 36 10000 8.23 290 10:44 24.03.2021
1116 Clouds 26 1004 41 7000 9.26 290 10:25 24.03.2021
1117 Dust 26 1004 38 5000 7.72 280 09:54 24.03.2021
1118 Dust 25 1004 38 4000 6.69 280 09:25 24.03.2021
1119 Clouds 25 1004 38 7000 6.17 290 08:57 24.03.2021
1120 Clouds 24 1004 35 10000 3.09 230 08:29 24.03.2021
1121 Clouds 23 1004 40 10000 2.57 190 07:42 24.03.2021
1122 Clouds 23 1003 43 10000 4.12 160 06:54 24.03.2021
1123 Clouds 22 1002 43 10000 8.23 140 06:34 24.03.2021
1124 Clear 24 1000 38 10000 12.35 130 01:20 24.03.2021
1125 Clear 25 1001 38 10000 11.32 130 00:32 24.03.2021
1126 Clear 25 1003 41 10000 10.29 130 23:43 23.03.2021
1127 Clear 25 1003 41 10000 10.29 130 23:18 23.03.2021
1128 Clear 26 1004 38 10000 9.77 110 22:40 23.03.2021
1129 Clear 24 1005 46 10000 6.69 120 21:59 23.03.2021
1130 Clear 24 1005 46 10000 6.69 120 21:41 23.03.2021
1131 Clear 24 1005 46 10000 6.69 120 21:41 23.03.2021
1132 Clear 24 1005 46 10000 6.69 120 21:20 23.03.2021
1133 Clear 25 1005 47 10000 7.72 110 20:43 23.03.2021
1134 Clear 25 1005 47 10000 7.72 110 20:25 23.03.2021
1135 Clear 25 1005 44 10000 6.69 100 19:45 23.03.2021
1136 Clear 25 1005 44 10000 6.69 100 19:25 23.03.2021
1137 Clear 25 1006 47 10000 4.63 90 18:43 23.03.2021
1138 Clear 25 1006 47 10000 4.63 90 18:21 23.03.2021
1139 Clouds 24 1007 41 10000 6.16 97 17:45 23.03.2021
1140 Clear 27 1007 41 10000 5.66 100 17:21 23.03.2021
1141 Clear 27 1007 41 10000 5.66 100 17:21 23.03.2021
1142 Clear 27 1007 41 10000 5.66 100 16:26 23.03.2021
1143 Clear 27 1007 41 10000 7.72 90 15:59 23.03.2021
1144 Clear 27 1007 41 10000 7.72 90 15:38 23.03.2021
1145 Clear 28 1008 42 10000 5.14 80 14:51 23.03.2021
1146 Clear 28 1008 42 10000 5.14 80 14:21 23.03.2021
1147 Clear 28 1009 39 10000 6.17 70 13:50 23.03.2021
1148 Clear 28 1009 39 10000 6.17 70 13:26 23.03.2021
1149 Clear 28 1010 36 10000 5.14 40 12:47 23.03.2021
1150 Clear 28 1010 36 10000 5.14 40 12:27 23.03.2021
1151 Clear 28 1011 39 10000 3.6 50 11:56 23.03.2021
1152 Clear 28 1011 39 10000 3.6 50 11:36 23.03.2021
1153 Clear 27 1012 41 10000 3.09 30 10:44 23.03.2021
1154 Clear 27 1012 41 10000 3.09 30 10:22 23.03.2021
1155 Clear 26 1014 44 10000 2.06 10 09:57 23.03.2021
1156 Clear 26 1014 44 10000 2.06 10 09:29 23.03.2021
1157 Clear 25 1014 47 10000 4.63 340 08:58 23.03.2021
1158 Clear 25 1014 47 10000 4.63 340 08:39 23.03.2021
1159 Clear 25 1014 47 10000 4.63 340 08:20 23.03.2021
1160 Clouds 23 1014 56 10000 6.69 310 07:28 23.03.2021
1161 Clouds 21 1014 68 10000 3.09 310 06:59 23.03.2021
1162 Clouds 21 1014 68 10000 3.09 310 06:23 23.03.2021
1163 Clouds 18 1013 82 10000 3.6 170 03:21 23.03.2021
1164 Mist 22 1014 46 10000 5.14 10 00:56 23.03.2021
1165 Clouds 23 1015 40 10000 5.66 320 23:33 22.03.2021
1166 Clouds 22 1014 46 10000 1.54 220 22:46 22.03.2021
1167 Clouds 22 1014 46 10000 1.54 220 22:23 22.03.2021
1168 Clouds 22 1014 53 10000 3.09 210 21:52 22.03.2021
1169 Clouds 22 1014 53 10000 3.09 210 21:29 22.03.2021
1170 Clouds 23 1013 46 10000 1.54 140 20:57 22.03.2021
1171 Clouds 23 1013 46 10000 1.54 140 20:37 22.03.2021
1172 Clouds 23 1013 43 10000 1.54 130 20:18 22.03.2021
1173 Clear 23 1013 38 10000 2.57 150 19:40 22.03.2021
1174 Clear 23 1013 38 10000 2.57 150 19:21 22.03.2021
1175 Clear 24 1013 35 10000 1.54 260 18:45 22.03.2021
1176 Clear 24 1013 35 10000 1.54 260 18:27 22.03.2021
1177 Clear 24 1012 38 10000 2.57 110 17:51 22.03.2021
1178 Clear 24 1012 38 10000 2.57 110 17:24 22.03.2021
1179 Clear 26 1011 31 10000 3.09 110 16:59 22.03.2021
1180 Clear 26 1011 31 10000 3.09 110 16:40 22.03.2021
1181 Clear 27 1011 29 10000 3.09 130 15:58 22.03.2021
1182 Clear 27 1011 29 10000 3.09 130 15:37 22.03.2021
1183 Clear 27 1011 29 10000 3.09 130 15:18 22.03.2021
1184 Clear 28 1010 28 10000 5.14 130 14:49 22.03.2021
1185 Clear 28 1010 28 10000 5.14 130 14:29 22.03.2021
1186 Clear 29 1012 24 10000 6.17 170 13:39 22.03.2021
1187 Clear 29 1012 24 10000 6.17 170 13:19 22.03.2021
1188 Clear 29 1012 24 10000 6.17 170 12:45 22.03.2021
1189 Clear 29 1012 24 10000 6.17 170 12:22 22.03.2021
1190 Clear 28 1012 26 10000 5.14 160 11:46 22.03.2021
1191 Clear 28 1012 26 10000 5.14 160 11:22 22.03.2021
1192 Clear 28 1013 26 10000 6.17 180 10:43 22.03.2021
1193 Clear 28 1013 26 10000 6.17 180 10:24 22.03.2021
1194 Clear 28 1012 26 10000 7.2 150 09:40 22.03.2021
1195 Clear 28 1012 26 10000 7.2 150 09:21 22.03.2021
1196 Clear 28 1013 26 10000 5.66 130 08:43 22.03.2021
1197 Clear 28 1013 26 10000 5.66 130 08:24 22.03.2021
1198 Clear 25 1013 29 10000 4.12 110 07:44 22.03.2021
1199 Clear 20 1013 37 10000 2.57 110 06:53 22.03.2021
1200 Clear 20 1013 37 10000 2.57 110 06:27 22.03.2021
1201 Clear 17 1011 45 10000 2.57 70 02:32 22.03.2021
1202 Clear 18 1011 42 10000 0.51 70 00:33 22.03.2021
1203 Clouds 19 1011 42 8000 1.54 80 23:54 21.03.2021
1204 Clear 19 1011 42 8000 1.54 80 23:19 21.03.2021
1205 Clear 19 1011 42 8000 1.54 80 23:19 21.03.2021
1206 Clear 19 1011 42 8000 1.54 80 23:19 21.03.2021
1207 Clear 20 1011 37 7000 3.09 20 22:56 21.03.2021
1208 Clear 20 1011 37 7000 3.09 20 22:18 21.03.2021
1209 Clear 19 1011 39 9000 2.06 40 21:40 21.03.2021
1210 Clear 19 1011 39 9000 2.06 40 21:22 21.03.2021
1211 Clear 19 1011 42 10000 2.57 40 20:43 21.03.2021
1212 Clear 19 1011 42 10000 2.57 40 20:25 21.03.2021
1213 Clear 21 1010 37 10000 2.06 80 19:53 21.03.2021
1214 Clear 21 1010 37 10000 2.06 80 19:21 21.03.2021
1215 Clear 22 1010 33 10000 2.06 150 18:50 21.03.2021
1216 Clear 22 1010 33 10000 2.06 150 18:27 21.03.2021
1217 Clear 23 1010 31 10000 3.09 140 17:48 21.03.2021
1218 Clear 23 1010 31 10000 3.09 140 17:21 21.03.2021
1219 Clear 26 1010 24 10000 3.6 160 16:59 21.03.2021
1220 Clear 26 1010 24 10000 3.6 160 16:40 21.03.2021
1221 Clear 26 1010 24 10000 3.6 160 16:21 21.03.2021
1222 Clear 28 1010 21 10000 3.09 150 15:41 21.03.2021
1223 Clear 28 1010 21 10000 3.09 150 15:20 21.03.2021
1224 Clear 28 1010 20 10000 1.03 0 14:46 21.03.2021
1225 Clear 28 1010 20 10000 1.03 0 14:26 21.03.2021
1226 Clear 28 1010 21 10000 2.57 100 13:54 21.03.2021
1227 Clear 28 1010 21 10000 2.57 100 13:25 21.03.2021
1228 Clear 28 1010 21 10000 3.6 80 12:42 21.03.2021
1229 Clear 28 1010 21 10000 3.6 80 12:24 21.03.2021
1230 Clear 27 1012 21 10000 3.09 90 11:38 21.03.2021
1231 Clear 27 1012 21 10000 3.09 90 11:19 21.03.2021
1232 Clear 26 1012 21 10000 3.6 100 10:43 21.03.2021
1233 Clear 26 1012 21 10000 3.6 100 10:23 21.03.2021
1234 Clear 26 1013 21 10000 3.6 60 09:46 21.03.2021
1235 Clear 26 1013 21 10000 3.6 60 09:28 21.03.2021
1236 Clear 24 1014 23 10000 2.57 70 08:44 21.03.2021
1237 Clear 24 1014 23 10000 2.57 70 08:26 21.03.2021
1238 Clear 22 1014 28 10000 3.09 70 07:39 21.03.2021
1239 Clear 22 1014 28 10000 3.09 70 07:19 21.03.2021
1240 Clouds 15 1014 47 10000 1.03 350 05:55 21.03.2021
1241 Clouds 16 1013 36 10000 1.54 60 02:46 21.03.2021
1242 Clear 17 1014 34 10000 2.06 50 00:55 21.03.2021
1243 Clear 17 1014 34 10000 2.06 50 00:36 21.03.2021
1244 Clear 17 1014 34 10000 2.06 50 00:18 21.03.2021
1245 Clear 16 1014 39 10000 2.06 50 23:37 20.03.2021
1246 Clear 17 1015 39 10000 1.03 0 22:57 20.03.2021
1247 Clear 17 1015 39 10000 1.03 0 22:24 20.03.2021
1248 Clear 18 1015 36 10000 2.06 60 21:48 20.03.2021
1249 Clear 18 1015 36 10000 2.06 60 21:25 20.03.2021
1250 Clear 19 1016 34 10000 2.06 70 20:49 20.03.2021
1251 Clear 19 1016 34 10000 2.06 70 20:24 20.03.2021
1252 Clear 19 1016 32 10000 0.51 0 19:52 20.03.2021
1253 Clear 19 1016 32 10000 0.51 0 19:29 20.03.2021
1254 Clear 20 1017 32 10000 2.06 330 18:52 20.03.2021
1255 Clear 20 1017 32 10000 2.06 330 18:28 20.03.2021
1256 Clear 20 1016 28 10000 2.57 320 17:58 20.03.2021
1257 Clear 20 1016 28 10000 2.57 320 17:40 20.03.2021
1258 Clear 20 1016 28 10000 2.57 320 17:20 20.03.2021
1259 Clouds 23 1016 25 10000 2.57 330 16:39 20.03.2021
1260 Clouds 23 1016 25 10000 2.57 330 16:18 20.03.2021
1261 Clouds 24 1016 22 10000 4.12 320 15:40 20.03.2021
1262 Clouds 24 1016 22 10000 4.12 320 15:40 20.03.2021
1263 Clouds 24 1016 22 10000 5.66 340 14:55 20.03.2021
1264 Clouds 24 1016 22 10000 5.66 340 14:31 20.03.2021
1265 Clear 24 1016 22 10000 2.57 340 13:56 20.03.2021
1266 Clear 24 1016 22 10000 2.57 340 13:24 20.03.2021
1267 Clear 25 1017 19 10000 5.66 310 12:28 20.03.2021
1268 Clear 24 1018 23 10000 4.12 340 11:55 20.03.2021
1269 Clear 24 1018 23 10000 4.12 340 11:36 20.03.2021
1270 Clear 24 1018 23 10000 4.12 340 11:18 20.03.2021
1271 Clear 24 1018 25 10000 4.12 360 10:38 20.03.2021
1272 Clear 24 1018 25 10000 4.12 360 10:19 20.03.2021
1273 Clear 23 1019 27 10000 5.14 340 09:43 20.03.2021
1274 Clear 23 1019 27 10000 5.14 340 09:21 20.03.2021
1275 Clear 22 1019 30 10000 5.14 360 08:49 20.03.2021
1276 Clear 20 1020 34 10000 4.63 350 07:58 20.03.2021
1277 Clear 20 1020 34 10000 4.63 350 07:39 20.03.2021
1278 Clear 20 1020 34 10000 4.63 350 07:20 20.03.2021
1279 Clear 16 1019 48 10000 3.09 360 06:34 20.03.2021
1280 Clear 10 1019 62 10000 3.09 320 05:27 20.03.2021
1281 Clear 10 1018 62 10000 3.09 320 03:43 20.03.2021
1282 Clear 12 1017 54 10000 3.6 320 00:48 20.03.2021
1283 Clear 13 1017 50 10000 3.09 310 23:45 19.03.2021
1284 Clear 13 1017 50 10000 3.09 310 23:18 19.03.2021
1285 Clear 15 1017 44 10000 3.6 300 22:42 19.03.2021
1286 Clear 15 1017 44 10000 3.6 300 22:22 19.03.2021
1287 Clear 15 1017 44 10000 4.12 300 21:38 19.03.2021
1288 Clear 15 1017 44 10000 4.12 300 21:38 19.03.2021
1289 Clear 15 1017 44 10000 4.12 300 21:19 19.03.2021
1290 Clear 15 1017 41 10000 3.09 300 20:45 19.03.2021
1291 Clear 15 1017 41 10000 3.09 300 20:26 19.03.2021
1292 Clear 16 1017 41 10000 3.09 320 19:48 19.03.2021
1293 Clear 16 1017 41 10000 3.09 320 19:22 19.03.2021
1294 Clear 18 1017 34 10000 4.12 310 18:49 19.03.2021
1295 Clear 18 1017 34 10000 4.12 310 18:21 19.03.2021
1296 Clear 20 1016 32 10000 4.12 310 17:58 19.03.2021
1297 Clear 20 1016 32 10000 4.12 310 17:38 19.03.2021
1298 Clear 20 1016 32 10000 4.12 310 17:18 19.03.2021
1299 Clear 22 1016 26 10000 5.66 310 16:43 19.03.2021
1300 Clear 22 1016 26 10000 5.66 310 16:23 19.03.2021
1301 Clear 24 1015 27 10000 6.69 310 15:33 19.03.2021
1302 Clear 24 1015 25 10000 4.63 220 14:51 19.03.2021
1303 Clear 24 1015 25 10000 4.63 220 14:33 19.03.2021
1304 Clear 24 1015 25 10000 4.12 240 13:50 19.03.2021
1305 Clear 24 1015 25 10000 4.12 240 13:19 19.03.2021
1306 Clear 24 1015 25 10000 3.6 270 12:42 19.03.2021
1307 Clear 24 1015 25 10000 3.6 270 12:18 19.03.2021
1308 Clear 23 1016 27 10000 3.09 0 11:33 19.03.2021
1309 Clear 23 1016 25 10000 2.57 210 10:47 19.03.2021
1310 Clear 23 1016 25 10000 2.57 210 10:22 19.03.2021
1311 Clear 22 1016 30 10000 2.57 210 09:44 19.03.2021
1312 Clear 22 1016 30 10000 2.57 210 09:25 19.03.2021
1313 Clear 21 1016 32 10000 2.06 270 08:52 19.03.2021
1314 Clear 21 1016 32 10000 2.06 270 08:28 19.03.2021
1315 Clear 18 1016 42 10000 3.09 270 07:50 19.03.2021
1316 Clear 18 1016 42 10000 3.09 270 07:31 19.03.2021
1317 Clear 12 1015 58 10000 1.54 270 05:29 19.03.2021
1318 Clear 13 1013 50 10000 1.54 340 02:20 19.03.2021
1319 Clear 13 1014 54 10000 1.03 300 23:57 18.03.2021
1320 Clear 13 1014 54 10000 1.03 300 23:29 18.03.2021
1321 Clear 13 1014 54 10000 1.03 320 22:52 18.03.2021
1322 Clear 13 1014 54 10000 1.03 320 22:26 18.03.2021
1323 Clear 13 1014 54 10000 1.03 320 22:26 18.03.2021
1324 Clear 15 1014 51 10000 1.54 350 21:55 18.03.2021
1325 Clear 15 1014 51 10000 1.54 350 21:36 18.03.2021
1326 Clear 15 1014 47 10000 2.06 330 20:43 18.03.2021
1327 Clear 15 1014 47 10000 2.06 330 20:22 18.03.2021
1328 Clear 19 1014 34 10000 3.6 280 19:43 18.03.2021
1329 Clear 19 1014 34 10000 3.6 280 19:23 18.03.2021
1330 Clear 19 1014 34 10000 3.6 280 19:23 18.03.2021
1331 Clear 20 1014 32 10000 4.12 280 18:52 18.03.2021
1332 Clear 20 1014 32 10000 4.12 280 18:25 18.03.2021
1333 Clear 21 1013 30 10000 4.63 280 17:43 18.03.2021
1334 Clear 21 1013 30 10000 4.63 280 17:20 18.03.2021
1335 Clear 22 1012 26 10000 7.2 280 16:41 18.03.2021
1336 Clear 22 1012 26 10000 7.2 280 16:23 18.03.2021
1337 Clear 23 1011 27 10000 5.66 290 15:41 18.03.2021
1338 Clear 23 1011 27 10000 5.66 290 15:21 18.03.2021
1339 Clear 24 1011 25 10000 6.17 290 14:49 18.03.2021
1340 Clear 24 1011 25 10000 6.17 290 14:23 18.03.2021
1341 Clear 23 1011 27 10000 7.51 305 13:43 18.03.2021
1342 Clear 23 1012 28 10000 7.72 290 13:25 18.03.2021
1343 Clear 23 1012 28 10000 7.72 290 12:40 18.03.2021
1344 Clear 23 1012 28 10000 7.72 290 12:22 18.03.2021
1345 Clear 23 1012 31 10000 7.2 290 11:46 18.03.2021
1346 Clear 23 1012 31 10000 7.2 290 11:25 18.03.2021
1347 Clear 22 1013 35 10000 7.2 310 10:42 18.03.2021
1348 Clear 22 1013 35 10000 7.2 310 10:23 18.03.2021
1349 Clear 21 1013 40 10000 8.75 300 09:53 18.03.2021
1350 Clear 21 1013 40 10000 8.75 300 09:27 18.03.2021
1351 Clear 20 1013 40 10000 9.77 300 08:46 18.03.2021
1352 Clear 20 1013 40 10000 9.77 300 08:26 18.03.2021
1353 Clear 19 1013 42 10000 7.2 290 07:48 18.03.2021
1354 Clear 16 1012 48 10000 6.69 290 06:50 18.03.2021
1355 Clear 16 1012 48 10000 6.69 290 06:26 18.03.2021
1356 Clear 15 1011 51 10000 5.66 290 05:27 18.03.2021
1357 Clear 17 1008 55 10000 1.54 150 00:49 18.03.2021
1358 Clear 19 1008 48 10000 2.06 120 23:58 17.03.2021
1359 Clear 19 1008 52 10000 1.03 80 22:43 17.03.2021
1360 Clear 19 1008 52 10000 1.03 80 22:24 17.03.2021
1361 Clear 21 1009 43 10000 1.03 0 21:53 17.03.2021
1362 Clear 21 1009 43 10000 1.03 0 21:33 17.03.2021
1363 Clouds 20 1009 49 9000 1.03 0 20:58 17.03.2021
1364 Clouds 20 1009 49 9000 1.03 0 20:40 17.03.2021
1365 Clouds 20 1009 49 9000 1.03 0 20:20 17.03.2021
1366 Clouds 23 1008 40 7000 1.54 240 19:43 17.03.2021
1367 Clouds 23 1008 40 7000 1.54 240 19:21 17.03.2021
1368 Clouds 23 1008 40 10000 1.54 320 18:52 17.03.2021
1369 Clouds 23 1008 40 10000 1.54 320 18:32 17.03.2021
1370 Clear 25 1007 36 10000 3.6 300 17:43 17.03.2021
1371 Clear 25 1007 36 10000 3.6 300 17:23 17.03.2021
1372 Clouds 27 1007 36 9000 4.12 320 16:43 17.03.2021
1373 Clouds 27 1007 36 9000 4.12 320 16:21 17.03.2021
1374 Clear 29 1007 26 10000 1.03 0 15:49 17.03.2021
1375 Clear 29 1007 26 10000 1.03 0 15:30 17.03.2021
1376 Clear 29 1007 30 10000 1.54 0 14:43 17.03.2021
1377 Clear 29 1007 30 10000 1.54 0 14:21 17.03.2021
1378 Clear 29 1007 30 10000 3.09 200 13:55 17.03.2021
1379 Clear 29 1007 30 10000 3.09 200 13:27 17.03.2021
1380 Clear 29 1008 30 10000 2.06 0 12:50 17.03.2021
1381 Clear 29 1008 30 10000 2.06 0 12:29 17.03.2021
1382 Clear 28 1008 32 10000 2.57 200 11:43 17.03.2021
1383 Clear 28 1008 32 10000 2.57 200 11:23 17.03.2021
1384 Clouds 27 1009 32 8000 1.03 0 10:53 17.03.2021
1385 Clouds 27 1009 32 8000 1.03 0 10:25 17.03.2021
1386 Clear 25 1010 38 10000 4.12 210 09:48 17.03.2021
1387 Clear 25 1010 38 10000 4.12 210 09:48 17.03.2021
1388 Clear 25 1010 38 10000 4.12 210 09:25 17.03.2021
1389 Clear 23 1010 38 10000 4.12 170 08:56 17.03.2021
1390 Clear 23 1010 38 10000 4.12 170 08:36 17.03.2021
1391 Clear 21 1011 37 10000 4.63 160 07:48 17.03.2021
1392 Clear 21 1011 37 10000 4.63 160 07:30 17.03.2021
1393 Clouds 19 1010 45 9000 3.6 130 06:42 17.03.2021
1394 Clear 17 1009 51 10000 3.6 130 04:21 17.03.2021
1395 Clouds 18 1009 48 10000 2.57 130 02:50 17.03.2021
1396 Clouds 21 1009 40 10000 3.09 110 00:40 17.03.2021
1397 Clouds 19 1009 45 10000 3.09 120 23:33 16.03.2021
1398 Clouds 20 1009 45 10000 3.6 110 22:51 16.03.2021
1399 Clouds 20 1009 45 10000 3.6 110 22:33 16.03.2021
1400 Clouds 20 1010 42 10000 2.06 130 21:51 16.03.2021
1401 Clouds 20 1010 42 10000 2.06 130 21:32 16.03.2021
1402 Clear 21 1010 43 10000 2.06 130 20:59 16.03.2021
1403 Clear 21 1010 43 10000 2.06 130 20:38 16.03.2021
1404 Clear 21 1010 43 10000 2.06 130 20:18 16.03.2021
1405 Clear 20 1010 45 10000 1.03 110 19:42 16.03.2021
1406 Clear 20 1010 45 10000 1.03 110 19:23 16.03.2021
1407 Clouds 22 1009 37 10000 3.6 140 18:44 16.03.2021
1408 Clouds 22 1009 37 10000 3.6 140 18:26 16.03.2021
1409 Clouds 23 1009 38 10000 3.09 140 17:50 16.03.2021
1410 Clouds 23 1009 38 10000 3.09 140 17:30 16.03.2021
1411 Clouds 25 1008 31 10000 4.12 140 16:53 16.03.2021
1412 Clouds 25 1008 31 10000 4.12 140 16:30 16.03.2021
1413 Clouds 26 1008 27 10000 7.72 130 15:47 16.03.2021
1414 Clouds 26 1008 27 10000 7.72 130 15:22 16.03.2021
1415 Clouds 29 1008 16 10000 4.81 138 14:59 16.03.2021
1416 Clouds 29 1008 16 10000 4.81 138 14:40 16.03.2021
1417 Clouds 27 1008 29 10000 6.69 120 14:21 16.03.2021
1418 Clouds 27 1008 29 10000 6.69 120 13:54 16.03.2021
1419 Clouds 27 1008 29 10000 6.69 120 13:27 16.03.2021
1420 Clouds 26 1009 31 10000 8.23 130 12:54 16.03.2021
1421 Clouds 26 1009 31 10000 8.23 130 12:35 16.03.2021
1422 Clouds 29 1009 14 10000 6.83 131 11:54 16.03.2021
1423 Clouds 29 1010 14 10000 6.97 136 11:28 16.03.2021
1424 Clouds 29 1010 14 10000 6.97 136 10:45 16.03.2021
1425 Clouds 25 1011 29 9000 10.29 130 10:20 16.03.2021
1426 Clouds 25 1011 29 9000 10.29 130 09:39 16.03.2021
1427 Clouds 25 1011 29 9000 10.29 130 09:19 16.03.2021
1428 Clouds 23 1011 33 9000 7.72 130 08:51 16.03.2021
1429 Clouds 23 1011 33 9000 7.72 130 08:32 16.03.2021
1430 Clouds 21 1011 37 10000 6.17 140 07:50 16.03.2021
1431 Clouds 19 1011 45 10000 6.17 140 06:57 16.03.2021
1432 Clouds 19 1011 45 10000 6.17 140 06:37 16.03.2021
1433 Clouds 18 1010 48 10000 7.2 130 05:35 16.03.2021
1434 Clear 17 1010 51 10000 4.63 130 02:46 16.03.2021
1435 Clear 17 1010 51 10000 4.63 130 02:25 16.03.2021
1436 Clear 19 1011 42 10000 5.14 120 00:25 16.03.2021
1437 Clear 19 1011 45 10000 4.12 110 23:37 15.03.2021
1438 Clear 19 1011 45 10000 4.12 110 23:18 15.03.2021
1439 Clear 17 1011 51 10000 3.6 120 22:42 15.03.2021
1440 Clear 17 1011 51 10000 3.6 120 22:23 15.03.2021
1441 Clear 17 1012 51 10000 3.6 150 21:47 15.03.2021
1442 Clear 17 1012 51 10000 3.6 150 21:27 15.03.2021
1443 Clouds 17 1012 51 8000 3.09 140 20:47 15.03.2021
1444 Clouds 17 1012 51 8000 3.09 140 20:27 15.03.2021
1445 Clear 18 1012 45 10000 2.57 140 19:57 15.03.2021
1446 Clear 18 1012 45 10000 2.57 140 19:39 15.03.2021
1447 Clear 18 1012 45 10000 2.57 140 19:21 15.03.2021
1448 Clouds 21 1012 40 9000 3.09 120 18:41 15.03.2021
1449 Clouds 21 1012 40 9000 3.09 120 18:22 15.03.2021
1450 Clear 21 1011 37 10000 3.6 110 17:49 15.03.2021
1451 Clear 21 1011 37 10000 3.6 110 17:22 15.03.2021
1452 Clear 23 1011 33 10000 4.12 110 16:44 15.03.2021
1453 Clear 23 1011 33 10000 4.12 110 16:18 15.03.2021
1454 Clear 24 1011 31 10000 4.63 100 15:39 15.03.2021
1455 Clear 24 1011 31 10000 4.63 100 15:20 15.03.2021
1456 Clear 25 1012 27 10000 4.63 90 14:41 15.03.2021
1457 Clear 25 1012 27 10000 4.63 90 14:20 15.03.2021
1458 Clear 25 1012 25 10000 3.6 90 13:45 15.03.2021
1459 Clear 25 1012 25 10000 3.6 90 13:24 15.03.2021
1460 Clear 24 1013 27 10000 2.57 90 12:46 15.03.2021
1461 Clear 24 1013 27 10000 2.57 90 12:18 15.03.2021
1462 Clouds 24 1013 31 9000 3.09 90 11:46 15.03.2021
1463 Clouds 24 1013 31 9000 3.09 90 11:26 15.03.2021
1464 Clouds 22 1014 35 9000 3.6 80 10:44 15.03.2021
1465 Clouds 22 1014 35 9000 3.6 80 10:24 15.03.2021
1466 Clear 22 1015 35 10000 3.09 140 09:48 15.03.2021
1467 Clear 22 1015 35 10000 3.09 140 09:29 15.03.2021
1468 Clouds 22 1015 37 9000 3.09 120 08:46 15.03.2021
1469 Clouds 22 1015 37 9000 3.09 120 08:27 15.03.2021
1470 Clouds 19 1015 48 6000 2.06 110 07:43 15.03.2021
1471 Clouds 19 1015 48 6000 2.06 110 07:22 15.03.2021
1472 Clouds 15 1015 55 10000 0.7 159 06:21 15.03.2021
1473 Clear 10 1014 71 10000 0.96 80 03:36 15.03.2021
1474 Clear 12 1014 62 10000 1.72 23 00:50 15.03.2021
1475 Clear 13 1014 62 10000 1.03 350 23:24 14.03.2021
1476 Clear 14 1015 58 10000 2.06 350 22:59 14.03.2021
1477 Clear 14 1015 58 10000 2.06 350 22:38 14.03.2021
1478 Clear 14 1015 58 10000 2.06 350 22:18 14.03.2021
1479 Clear 15 1015 55 10000 2.06 310 21:39 14.03.2021
1480 Clear 15 1015 55 10000 2.06 310 21:18 14.03.2021
1481 Clear 15 1015 55 10000 2.06 300 20:42 14.03.2021
1482 Clear 15 1015 55 10000 2.06 300 20:23 14.03.2021
1483 Clear 15 1015 51 10000 1.03 270 19:42 14.03.2021
1484 Clear 15 1015 51 10000 1.03 270 19:20 14.03.2021
1485 Clear 18 1015 42 10000 1.54 290 18:41 14.03.2021
1486 Clear 18 1015 42 8000 3.09 310 17:58 14.03.2021
1487 Clear 18 1015 42 8000 3.09 310 17:38 14.03.2021
1488 Clear 18 1015 42 8000 3.09 310 17:19 14.03.2021
1489 Clear 21 1014 35 10000 2.57 310 16:42 14.03.2021
1490 Clear 21 1014 35 10000 2.57 310 16:23 14.03.2021
1491 Clear 22 1014 33 10000 1.54 330 15:49 14.03.2021
1492 Clear 22 1014 33 10000 1.54 330 15:24 14.03.2021
1493 Clear 22 1014 33 10000 3.09 290 14:40 14.03.2021
1494 Clear 22 1014 33 10000 3.09 290 14:20 14.03.2021
1495 Clear 22 1015 33 10000 3.6 350 13:45 14.03.2021
1496 Clear 22 1015 33 10000 3.6 350 13:26 14.03.2021
1497 Clear 22 1015 35 10000 3.09 310 12:43 14.03.2021
1498 Clear 22 1015 35 10000 3.09 310 12:23 14.03.2021
1499 Clear 21 1016 40 10000 3.09 260 11:42 14.03.2021
1500 Clear 21 1016 40 10000 3.09 260 11:23 14.03.2021
1501 Clear 20 1017 40 10000 2.57 270 10:38 14.03.2021
1502 Clear 20 1017 40 10000 2.57 270 10:20 14.03.2021
1503 Clear 20 1017 42 10000 2.06 320 09:59 14.03.2021
1504 Clear 20 1017 42 10000 2.06 320 09:41 14.03.2021
1505 Clear 20 1017 42 10000 2.06 320 09:20 14.03.2021
1506 Clear 19 1017 45 10000 3.09 340 08:40 14.03.2021
1507 Clear 16 1018 48 10000 4.12 320 07:59 14.03.2021
1508 Clear 16 1018 48 10000 4.12 320 07:33 14.03.2021
1509 Clear 7 1017 65 10000 1.54 290 05:38 14.03.2021
1510 Clear 10 1016 53 8000 1.03 300 01:34 14.03.2021
1511 Clear 10 1017 53 10000 2.06 320 00:49 14.03.2021
1512 Clear 10 1017 53 10000 2.06 320 00:18 14.03.2021
1513 Clouds 11 1018 58 6000 1.54 330 23:42 13.03.2021
1514 Clouds 11 1018 58 6000 1.54 330 23:20 13.03.2021
1515 Clouds 11 1018 50 9000 1.54 320 22:49 13.03.2021
1516 Clouds 11 1018 50 9000 1.54 320 22:24 13.03.2021
1517 Clear 12 1018 43 10000 1.03 0 21:40 13.03.2021
1518 Clear 12 1018 43 10000 1.03 0 21:40 13.03.2021
1519 Clear 12 1018 43 10000 1.03 0 21:19 13.03.2021
1520 Clear 13 1018 44 10000 1.03 280 20:48 13.03.2021
1521 Clear 13 1018 44 10000 1.03 280 20:26 13.03.2021
1522 Clear 14 1018 41 10000 0.51 200 19:45 13.03.2021
1523 Clear 14 1018 41 10000 0.51 200 19:26 13.03.2021
1524 Clear 15 1017 36 10000 1.54 200 18:43 13.03.2021
1525 Clear 15 1017 36 10000 1.54 200 18:21 13.03.2021
1526 Clear 16 1017 33 10000 2.57 230 17:52 13.03.2021
1527 Clear 16 1017 33 10000 2.57 230 17:34 13.03.2021
1528 Clear 18 1017 27 10000 3.09 210 16:57 13.03.2021
1529 Clear 18 1017 27 10000 3.09 210 16:39 13.03.2021
1530 Clear 20 1016 24 10000 0.51 0 15:58 13.03.2021
1531 Clear 20 1016 24 10000 0.51 0 15:22 13.03.2021
1532 Clear 19 1017 24 10000 1.54 0 14:43 13.03.2021
1533 Clear 19 1017 24 10000 1.54 0 14:24 13.03.2021
1534 Clear 19 1016 26 10000 1.54 0 13:45 13.03.2021
1535 Clear 19 1016 26 10000 1.54 0 13:21 13.03.2021
1536 Clear 18 1017 25 10000 3.09 270 12:42 13.03.2021
1537 Clear 18 1018 27 10000 3.09 270 11:59 13.03.2021
1538 Clear 18 1018 27 10000 3.09 270 11:40 13.03.2021
1539 Clear 18 1018 27 10000 3.09 270 11:22 13.03.2021
1540 Clear 16 1018 36 10000 4.12 260 10:49 13.03.2021
1541 Clear 16 1018 36 10000 4.12 260 10:25 13.03.2021
1542 Clear 13 1018 44 10000 4.12 260 09:38 13.03.2021
1543 Clear 13 1018 44 10000 4.12 260 08:58 13.03.2021
1544 Clear 13 1018 44 10000 4.12 260 08:58 13.03.2021
1545 Clear 13 1018 44 10000 4.12 260 08:38 13.03.2021
1546 Clear 13 1018 44 10000 4.12 260 08:18 13.03.2021
1547 Clear 11 1017 43 10000 5.66 270 07:39 13.03.2021
1548 Clear 8 1015 49 10000 3.09 270 05:45 13.03.2021
1549 Clear 10 1012 50 10000 5.14 280 02:42 13.03.2021
1550 Clouds 11 1012 54 9000 4.63 270 00:44 13.03.2021
1551 Clouds 11 1011 50 5000 3.6 270 23:49 12.03.2021
1552 Clouds 11 1011 50 5000 3.6 270 23:30 12.03.2021
1553 Dust 13 1011 41 4400 5.14 270 22:42 12.03.2021
1554 Dust 13 1011 41 4400 5.14 270 22:22 12.03.2021
1555 Dust 14 1010 44 4700 6.17 280 21:42 12.03.2021
1556 Dust 14 1010 44 4700 6.17 280 21:21 12.03.2021
1557 Clear 14 1009 58 10000 6.69 290 20:55 12.03.2021
1558 Clear 14 1009 58 10000 6.69 290 20:32 12.03.2021
1559 Clouds 16 1008 42 10000 9.18 292 19:55 12.03.2021
1560 Clouds 17 1006 55 10000 9.77 290 19:36 12.03.2021
1561 Clouds 17 1006 55 10000 9.77 290 18:55 12.03.2021
1562 Clouds 17 1006 55 10000 9.77 290 18:34 12.03.2021
1563 Clouds 15 1005 82 10000 2.06 180 17:49 12.03.2021
1564 Clouds 15 1005 82 10000 2.06 180 17:30 12.03.2021
1565 Clouds 16 1004 77 10000 2.57 190 16:55 12.03.2021
1566 Clouds 16 1004 77 10000 2.57 190 16:34 12.03.2021
1567 Clouds 16 1003 72 10000 2.06 260 15:52 12.03.2021
1568 Clouds 16 1003 72 10000 2.06 260 15:27 12.03.2021
1569 Clouds 16 1003 67 10000 5.14 230 14:48 12.03.2021
1570 Clouds 16 1003 67 10000 5.14 230 14:20 12.03.2021
1571 Clouds 15 1003 77 10000 4.12 210 13:43 12.03.2021
1572 Clouds 15 1003 77 10000 4.12 210 13:21 12.03.2021
1573 Clouds 14 1003 72 10000 6.17 240 12:56 12.03.2021
1574 Clouds 14 1003 72 10000 6.17 240 12:37 12.03.2021
1575 Clouds 14 1003 72 10000 6.17 240 12:19 12.03.2021
1576 Clouds 18 1003 55 10000 10.8 240 11:48 12.03.2021
1577 Clouds 18 1003 55 10000 10.8 240 11:21 12.03.2021
1578 Clouds 17 1002 67 10000 4.63 170 10:48 12.03.2021
1579 Clouds 17 1002 67 10000 4.63 170 10:23 12.03.2021
1580 Clouds 16 1003 67 10000 3.6 260 09:49 12.03.2021
1581 Clouds 16 1003 67 10000 3.6 260 09:19 12.03.2021
1582 Clouds 18 1004 52 10000 7.72 270 08:43 12.03.2021
1583 Clouds 19 1003 48 9000 4.12 280 07:54 12.03.2021
1584 Clouds 19 1003 48 9000 4.12 280 07:31 12.03.2021
1585 Clouds 18 1003 48 9000 3.09 220 06:46 12.03.2021
1586 Clouds 18 1003 48 10000 3.09 220 05:57 12.03.2021
1587 Clouds 20 1001 40 7000 3.6 310 01:42 12.03.2021
1588 Dust 22 1001 33 4600 4.63 300 00:18 12.03.2021
1589 Dust 23 1001 27 4100 7.2 270 23:19 11.03.2021
1590 Dust 23 1001 28 4000 3.6 250 22:42 11.03.2021
1591 Dust 23 1001 28 4000 3.6 250 22:22 11.03.2021
1592 Clear 20 1002 52 10000 2.06 170 21:46 11.03.2021
1593 Clear 20 1002 52 10000 2.06 170 21:26 11.03.2021
1594 Clear 21 1002 49 10000 3.09 150 20:49 11.03.2021
1595 Clear 21 1002 49 10000 3.09 150 20:27 11.03.2021
1596 Clear 22 1002 46 10000 3.09 120 19:58 11.03.2021
1597 Clear 22 1002 46 10000 3.09 120 19:39 11.03.2021
1598 Clouds 23 1002 40 8000 4.63 130 18:56 11.03.2021
1599 Clouds 23 1002 40 8000 4.63 130 18:37 11.03.2021
1600 Clouds 23 1002 40 8000 4.63 130 18:18 11.03.2021
1601 Clouds 24 1001 38 7000 6.17 130 17:41 11.03.2021
1602 Clouds 26 1001 34 7000 5.66 130 16:43 11.03.2021
1603 Clouds 26 1001 34 7000 5.66 130 16:25 11.03.2021
1604 Clouds 27 1002 29 10000 7.2 140 15:45 11.03.2021
1605 Clouds 27 1002 29 10000 7.2 140 15:21 11.03.2021
1606 Clear 28 1002 28 10000 10.29 140 14:46 11.03.2021
1607 Clear 28 1002 28 10000 10.29 140 14:19 11.03.2021
1608 Clear 28 1003 26 10000 11.83 150 13:46 11.03.2021
1609 Clear 28 1003 26 10000 11.83 150 13:24 11.03.2021
1610 Clouds 27 1004 28 9000 10.29 150 12:57 11.03.2021
1611 Clouds 27 1004 28 9000 10.29 150 12:36 11.03.2021
1612 Clouds 27 1004 28 9000 10.29 150 12:18 11.03.2021
1613 Clouds 26 1005 29 7000 11.83 150 11:42 11.03.2021
1614 Clouds 26 1006 29 10000 11.32 160 11:20 11.03.2021
1615 Clouds 25 1008 29 8000 10.29 160 10:30 11.03.2021
1616 Clouds 23 1009 35 7000 10.8 150 09:57 11.03.2021
1617 Clouds 23 1009 35 7000 10.8 150 09:37 11.03.2021
1618 Clouds 23 1009 35 7000 10.8 150 09:18 11.03.2021
1619 Clouds 21 1009 40 7000 11.32 140 08:44 11.03.2021
1620 Clouds 21 1009 40 7000 11.32 140 08:18 11.03.2021
1621 Clouds 19 1011 45 10000 9.26 140 07:28 11.03.2021
1622 Clouds 18 1010 48 10000 9.77 130 06:49 11.03.2021
1623 Clouds 18 1010 48 10000 9.77 130 06:24 11.03.2021
1624 Clear 20 1011 40 10000 6.17 110 02:49 11.03.2021
1625 Clear 18 1012 45 10000 6.17 120 00:49 11.03.2021
1626 Clear 18 1012 45 10000 6.17 120 23:27 10.03.2021
1627 Clear 18 1014 48 10000 5.14 120 22:47 10.03.2021
1628 Clear 18 1014 48 10000 5.14 120 22:28 10.03.2021
1629 Clear 18 1014 48 10000 5.14 120 22:26 10.03.2021
1630 Clear 20 1014 42 10000 4.63 130 21:45 10.03.2021
1631 Clear 20 1014 42 10000 4.63 130 21:23 10.03.2021
1632 Clear 20 1015 42 10000 4.63 120 20:46 10.03.2021
1633 Clear 20 1015 42 10000 4.63 120 20:28 10.03.2021
1634 Clear 21 1015 40 10000 4.12 100 19:49 10.03.2021
1635 Clear 21 1015 40 10000 4.12 100 19:28 10.03.2021
1636 Clear 21 1016 37 10000 3.6 110 18:46 10.03.2021
1637 Clear 21 1016 37 10000 3.6 110 18:24 10.03.2021
1638 Clear 23 1016 33 10000 3.09 100 17:56 10.03.2021
1639 Clear 23 1016 33 10000 3.09 100 17:37 10.03.2021
1640 Clear 23 1016 33 10000 3.09 100 17:19 10.03.2021
1641 Clear 24 1016 31 10000 3.09 110 16:42 10.03.2021
1642 Clear 24 1016 31 10000 3.09 110 16:23 10.03.2021
1643 Clear 26 1016 27 10000 3.6 140 15:46 10.03.2021
1644 Clear 26 1016 27 10000 3.6 140 15:23 10.03.2021
1645 Clouds 26 1016 25 10000 2.57 120 14:56 10.03.2021
1646 Clouds 26 1016 25 10000 2.57 120 14:20 10.03.2021
1647 Clouds 26 1016 25 10000 2.57 140 13:52 10.03.2021
1648 Clouds 26 1016 25 10000 2.57 140 13:30 10.03.2021
1649 Clear 25 1017 27 10000 3.6 180 12:46 10.03.2021
1650 Clear 25 1017 27 10000 3.6 180 12:46 10.03.2021
1651 Clear 25 1017 27 10000 3.6 180 12:23 10.03.2021
1652 Clear 25 1017 29 10000 3.09 160 11:47 10.03.2021
1653 Clear 25 1017 29 10000 3.09 160 11:21 10.03.2021
1654 Clear 24 1018 27 10000 2.06 160 10:50 10.03.2021
1655 Clear 24 1018 27 10000 2.06 160 10:31 10.03.2021
1656 Clear 24 1019 27 10000 2.57 140 09:52 10.03.2021
1657 Clear 24 1019 27 10000 2.57 140 09:32 10.03.2021
1658 Clear 23 1019 31 10000 3.09 100 08:59 10.03.2021
1659 Clear 23 1019 31 10000 3.09 100 08:40 10.03.2021
1660 Clear 23 1019 31 10000 3.09 100 08:21 10.03.2021
1661 Clear 20 1019 40 8000 2.06 100 07:42 10.03.2021
1662 Clouds 20 1019 40 8000 2.06 100 07:20 10.03.2021
1663 Clear 15 1019 51 10000 2.3 66 06:49 10.03.2021
1664 Clear 11 1017 62 10000 1.03 290 02:42 10.03.2021
1665 Clear 13 1017 58 10000 1.03 300 23:59 09.03.2021
1666 Clear 13 1017 58 10000 1.03 300 23:27 09.03.2021
1667 Clear 14 1017 51 10000 1.54 300 22:49 09.03.2021
1668 Clear 14 1017 51 10000 1.54 300 22:28 09.03.2021
1669 Clear 16 1017 44 9000 2.67 14 21:57 09.03.2021
1670 Clear 16 1017 44 9000 2.67 14 21:37 09.03.2021
1671 Clear 16 1017 44 9000 2.91 15 21:18 09.03.2021
1672 Clear 16 1017 51 10000 2.06 10 20:43 09.03.2021
1673 Clear 16 1017 51 10000 2.06 10 20:22 09.03.2021
1674 Clear 16 1017 51 10000 2.06 10 20:22 09.03.2021
1675 Clear 18 1017 39 10000 1.54 340 19:56 09.03.2021
1676 Clear 18 1017 39 10000 1.54 340 19:29 09.03.2021
1677 Clear 18 1017 42 10000 1.54 20 18:54 09.03.2021
1678 Clear 18 1017 42 10000 1.54 20 18:29 09.03.2021
1679 Clear 20 1016 34 10000 2.06 360 17:58 09.03.2021
1680 Clear 20 1016 34 10000 2.06 360 17:38 09.03.2021
1681 Clear 20 1016 34 10000 2.06 360 17:19 09.03.2021
1682 Clear 22 1016 30 10000 3.6 320 16:40 09.03.2021
1683 Clear 22 1016 30 10000 3.6 320 16:20 09.03.2021
1684 Clouds 24 1016 29 10000 3.09 270 15:47 09.03.2021
1685 Clouds 24 1016 29 10000 3.09 270 15:24 09.03.2021
1686 Clear 24 1015 29 10000 3.6 280 14:42 09.03.2021
1687 Clear 24 1015 29 10000 3.6 280 14:22 09.03.2021
1688 Clear 24 1016 29 10000 4.12 240 13:39 09.03.2021
1689 Clear 24 1016 29 10000 4.12 240 13:21 09.03.2021
1690 Clear 24 1016 29 10000 3.09 280 12:44 09.03.2021
1691 Clear 24 1016 29 10000 3.09 280 12:25 09.03.2021
1692 Clear 23 1016 31 10000 3.09 250 11:42 09.03.2021
1693 Clear 23 1016 31 10000 3.09 250 11:21 09.03.2021
1694 Clear 23 1017 31 10000 2.06 0 10:57 09.03.2021
1695 Clear 23 1017 31 10000 2.06 0 10:38 09.03.2021
1696 Clear 23 1017 31 10000 2.06 0 10:20 09.03.2021
1697 Clear 23 1017 31 10000 2.06 0 10:20 09.03.2021
1698 Clear 23 1017 31 10000 2.06 0 10:20 09.03.2021
1699 Clear 21 1018 37 10000 2.06 250 09:44 09.03.2021
1700 Clear 21 1018 37 10000 2.06 250 09:26 09.03.2021
1701 Clear 19 1018 42 10000 3.09 270 08:48 09.03.2021
1702 Clear 19 1018 42 10000 3.09 270 08:29 09.03.2021
1703 Clouds 16 1017 48 10000 2.06 330 07:40 09.03.2021
1704 Clouds 16 1017 48 10000 2.06 330 07:21 09.03.2021
1705 Clear 14 1017 58 10000 2.06 320 06:38 09.03.2021
1706 Clouds 11 1016 62 10000 2.06 300 05:48 09.03.2021
1707 Clear 12 1014 58 10000 0.51 310 00:43 09.03.2021
1708 Clear 13 1014 54 10000 1.54 330 23:45 08.03.2021
1709 Clear 13 1014 54 10000 1.54 330 23:27 08.03.2021
1710 Clear 15 1014 51 10000 1.54 360 22:58 08.03.2021
1711 Clear 15 1014 51 10000 1.54 360 22:39 08.03.2021
1712 Clear 15 1014 51 10000 1.54 360 22:20 08.03.2021
1713 Clear 15 1014 44 10000 2.57 310 21:40 08.03.2021
1714 Clear 15 1014 44 10000 2.57 310 21:20 08.03.2021
1715 Clear 18 1014 36 10000 5.66 300 20:38 08.03.2021
1716 Clear 18 1014 36 10000 5.66 300 20:18 08.03.2021
1717 Clear 19 1014 34 10000 5.66 290 19:38 08.03.2021
1718 Clear 19 1013 32 10000 4.63 310 18:48 08.03.2021
1719 Clear 19 1013 32 10000 4.63 310 18:23 08.03.2021
1720 Clear 20 1012 30 10000 4.12 310 17:58 08.03.2021
1721 Clear 20 1012 30 10000 4.12 310 17:39 08.03.2021
1722 Clear 23 1011 28 10000 6.17 290 16:59 08.03.2021
1723 Clear 23 1011 28 10000 6.17 290 16:40 08.03.2021
1724 Clear 23 1011 28 10000 6.17 290 16:21 08.03.2021
1725 Clear 25 1010 23 10000 5.66 270 15:38 08.03.2021
1726 Clear 25 1010 23 10000 5.66 270 15:20 08.03.2021
1727 Clear 26 1009 21 10000 5.14 170 14:21 08.03.2021
1728 Clear 27 1010 19 10000 5.14 190 13:48 08.03.2021
1729 Clear 27 1010 19 10000 5.14 190 13:23 08.03.2021
1730 Clear 26 1010 19 10000 5.66 180 12:56 08.03.2021
1731 Clear 26 1010 19 10000 5.66 180 12:29 08.03.2021
1732 Clear 26 1011 19 10000 5.14 200 11:48 08.03.2021
1733 Clear 26 1011 19 10000 5.14 200 11:29 08.03.2021
1734 Clear 25 1012 22 10000 6.17 200 10:55 08.03.2021
1735 Clear 25 1012 22 10000 6.17 200 10:37 08.03.2021
1736 Clear 25 1012 22 10000 6.17 200 10:18 08.03.2021
1737 Clear 23 1013 27 10000 3.09 210 09:26 08.03.2021
1738 Clear 23 1013 27 10000 3.09 210 09:26 08.03.2021
1739 Clear 20 1014 32 10000 5.66 180 08:50 08.03.2021
1740 Clear 20 1014 32 10000 5.66 180 08:23 08.03.2021
1741 Clear 18 1014 36 10000 5.14 170 07:21 08.03.2021
1742 Clouds 12 1013 54 10000 3.6 130 05:42 08.03.2021
1743 Clear 12 1012 50 10000 3.09 130 02:24 08.03.2021
1744 Clear 13 1013 50 10000 3.6 140 00:42 08.03.2021
1745 Clear 14 1014 47 10000 3.6 140 23:53 07.03.2021
1746 Clear 14 1014 47 10000 3.6 140 23:21 07.03.2021
1747 Clear 14 1014 47 10000 4.12 140 22:48 07.03.2021
1748 Clear 14 1014 47 10000 4.12 140 22:28 07.03.2021
1749 Clear 16 1014 41 10000 4.12 150 21:53 07.03.2021
1750 Clear 16 1014 41 10000 4.12 150 21:33 07.03.2021
1751 Clear 18 1014 34 10000 3.6 100 20:59 07.03.2021
1752 Clear 18 1014 34 10000 3.6 100 20:40 07.03.2021
1753 Clear 18 1014 34 10000 3.6 100 20:19 07.03.2021
1754 Clear 18 1014 34 10000 3.6 100 20:19 07.03.2021
1755 Clear 17 1014 36 10000 3.09 90 19:40 07.03.2021
1756 Clear 17 1014 36 10000 3.09 90 19:22 07.03.2021
1757 Clear 18 1014 32 10000 3.09 110 18:54 07.03.2021
1758 Clear 18 1014 32 10000 3.09 110 18:21 07.03.2021
1759 Clear 20 1014 32 10000 2.06 90 17:59 07.03.2021
1760 Clear 20 1014 32 10000 2.06 90 17:39 07.03.2021
1761 Clear 20 1014 32 10000 2.06 90 17:19 07.03.2021
1762 Clear 23 1014 20 10000 1.23 290 16:43 07.03.2021
1763 Clear 23 1014 20 10000 1.63 293 16:21 07.03.2021
1764 Clear 24 1015 20 10000 2.06 180 15:51 07.03.2021
1765 Clear 24 1015 20 10000 2.06 180 15:31 07.03.2021
1766 Clear 24 1015 22 10000 2.57 260 14:56 07.03.2021
1767 Clear 24 1015 22 10000 2.57 260 14:29 07.03.2021
1768 Clear 24 1016 22 10000 2.06 320 13:51 07.03.2021
1769 Clear 24 1016 22 10000 2.06 320 13:30 07.03.2021
1770 Clear 24 1016 23 10000 2.57 0 12:56 07.03.2021
1771 Clear 24 1016 23 10000 2.57 0 12:37 07.03.2021
1772 Clear 24 1016 23 10000 2.57 0 12:18 07.03.2021
1773 Clear 23 1018 23 10000 3.09 260 11:24 07.03.2021
1774 Clear 22 1019 28 10000 2.57 250 10:56 07.03.2021
1775 Clear 22 1019 28 10000 2.57 250 10:38 07.03.2021
1776 Clear 21 1019 30 10000 2.57 250 09:56 07.03.2021
1777 Clear 21 1019 30 10000 2.57 250 09:30 07.03.2021
1778 Clear 20 1020 28 10000 1.54 220 08:59 07.03.2021
1779 Clear 20 1020 28 10000 1.54 220 08:40 07.03.2021
1780 Clear 20 1020 28 10000 1.54 220 08:21 07.03.2021
1781 Clear 14 1020 51 10000 1.03 0 06:51 07.03.2021
1782 Clear 10 1019 62 10000 0.51 350 02:40 07.03.2021
1783 Clear 9 1020 61 10000 1.03 0 00:34 07.03.2021
1784 Clear 11 1020 54 10000 1.03 340 23:40 06.03.2021
1785 Clear 11 1020 54 10000 1.03 340 23:20 06.03.2021
1786 Clear 12 1020 50 10000 3.09 300 22:45 06.03.2021
1787 Clear 12 1020 50 10000 3.09 300 22:21 06.03.2021
1788 Clear 16 1020 37 10000 3.27 321 21:49 06.03.2021
1789 Clear 16 1020 35 10000 3.65 326 21:21 06.03.2021
1790 Clear 16 1020 35 10000 3.65 326 20:44 06.03.2021
1791 Clear 15 1021 44 10000 1.03 270 20:19 06.03.2021
1792 Clear 15 1021 44 10000 1.03 270 19:40 06.03.2021
1793 Clear 15 1021 44 10000 1.03 270 19:18 06.03.2021
1794 Clear 17 1021 39 10000 2.57 270 18:42 06.03.2021
1795 Clear 17 1021 39 10000 2.57 270 18:22 06.03.2021
1796 Clear 19 1020 39 10000 3.09 280 17:55 06.03.2021
1797 Clear 19 1020 39 10000 3.09 280 17:33 06.03.2021
1798 Clear 21 1020 35 10000 4.63 290 16:59 06.03.2021
1799 Clear 21 1020 35 10000 4.63 290 16:37 06.03.2021
1800 Clear 21 1020 35 10000 4.63 290 16:18 06.03.2021
1801 Clear 22 1020 28 10000 5.66 320 15:39 06.03.2021
1802 Clear 22 1020 28 10000 5.66 320 15:21 06.03.2021
1803 Clear 22 1021 33 10000 5.14 320 14:33 06.03.2021
1804 Clear 22 1021 30 10000 5.66 330 13:56 06.03.2021
1805 Clear 22 1021 30 10000 5.66 330 13:37 06.03.2021
1806 Clear 22 1021 30 10000 5.66 330 13:19 06.03.2021
1807 Clear 22 1022 35 10000 4.63 300 12:42 06.03.2021
1808 Clear 22 1022 35 10000 4.63 300 12:19 06.03.2021
1809 Clouds 21 1023 37 10000 4.12 300 11:44 06.03.2021
1810 Clouds 21 1023 37 10000 4.12 300 11:20 06.03.2021
1811 Clear 20 1023 45 10000 3.09 280 10:44 06.03.2021
1812 Clear 20 1023 45 10000 3.09 280 10:18 06.03.2021
1813 Clear 19 1024 48 10000 4.12 310 09:40 06.03.2021
1814 Clear 19 1024 48 10000 4.12 310 09:19 06.03.2021
1815 Clear 17 1025 55 10000 4.63 330 08:33 06.03.2021
1816 Clear 15 1024 63 10000 4.12 320 07:56 06.03.2021
1817 Clear 15 1024 63 10000 4.12 320 07:23 06.03.2021
1818 Clear 11 1024 76 7000 3.09 320 06:48 06.03.2021
1819 Clear 8 1024 76 10000 2.57 310 05:34 06.03.2021
1820 Clear 8 1022 61 5000 2.06 290 02:24 06.03.2021
1821 Clear 8 1022 61 10000 1.03 280 00:47 06.03.2021
1822 Clear 11 1022 50 10000 1.54 230 23:52 05.03.2021
1823 Clear 11 1022 50 10000 1.54 230 23:24 05.03.2021
1824 Clear 11 1022 46 10000 2.06 290 22:45 05.03.2021
1825 Clear 11 1022 46 10000 2.06 290 22:22 05.03.2021
1826 Clear 13 1022 41 10000 1.54 290 21:52 05.03.2021
1827 Clear 13 1022 41 10000 1.54 290 21:33 05.03.2021
1828 Clear 15 1022 36 10000 2.57 280 20:54 05.03.2021
1829 Clear 15 1022 36 10000 2.57 280 20:27 05.03.2021
1830 Clear 16 1021 33 10000 3.09 260 19:59 05.03.2021
1831 Clear 16 1021 33 10000 3.09 260 19:26 05.03.2021
1832 Clear 17 1021 34 10000 3.09 260 18:58 05.03.2021
1833 Clear 17 1021 34 10000 3.09 260 18:40 05.03.2021
1834 Clear 17 1021 34 10000 3.09 260 18:19 05.03.2021
1835 Clear 17 1020 34 10000 2.06 250 17:36 05.03.2021
1836 Clear 19 1020 30 10000 5.66 300 16:50 05.03.2021
1837 Clear 19 1020 30 10000 5.66 300 16:25 05.03.2021
1838 Clear 21 1019 28 10000 7.72 300 15:59 05.03.2021
1839 Clear 21 1019 28 10000 7.72 300 15:40 05.03.2021
1840 Clear 21 1019 28 10000 7.72 300 15:21 05.03.2021
1841 Clear 21 1019 28 10000 8.23 300 14:38 05.03.2021
1842 Clear 21 1018 24 10000 7.95 306 13:59 05.03.2021
1843 Clear 21 1018 24 10000 7.95 306 13:59 05.03.2021
1844 Clear 21 1018 32 10000 10.8 290 13:22 05.03.2021
1845 Clear 21 1018 32 10000 10.8 290 12:56 05.03.2021
1846 Clear 21 1018 32 10000 10.8 290 12:23 05.03.2021
1847 Clear 21 1018 32 10000 10.29 300 11:37 05.03.2021
1848 Clear 21 1018 32 10000 10.29 300 11:18 05.03.2021
1849 Clouds 19 1018 39 10000 10.29 290 10:41 05.03.2021
1850 Clouds 19 1018 39 10000 10.29 290 10:23 05.03.2021
1851 Clouds 18 1017 45 10000 9.26 290 09:49 05.03.2021
1852 Clouds 18 1017 45 10000 9.26 290 09:27 05.03.2021
1853 Clouds 17 1017 51 10000 8.23 280 08:45 05.03.2021
1854 Clouds 17 1017 51 10000 8.23 280 08:26 05.03.2021
1855 Clouds 15 1016 58 10000 8.23 280 07:44 05.03.2021
1856 Clouds 15 1016 58 10000 8.23 280 07:24 05.03.2021
1857 Clouds 14 1015 67 10000 6.17 250 06:32 05.03.2021
1858 Clear 12 1012 58 10000 4.12 220 02:51 05.03.2021
1859 Clear 13 1011 47 10000 3.6 210 00:49 05.03.2021
1860 Clear 14 1011 47 10000 4.12 230 23:37 04.03.2021
1861 Clear 16 1011 44 10000 5.14 230 22:55 04.03.2021
1862 Clear 16 1011 44 10000 5.14 230 22:26 04.03.2021
1863 Clear 17 1010 42 10000 5.66 230 21:51 04.03.2021
1864 Clear 17 1010 42 10000 5.66 230 21:29 04.03.2021
1865 Clouds 18 1010 45 10000 5.66 260 20:42 04.03.2021
1866 Clouds 18 1010 45 10000 5.66 260 20:23 04.03.2021
1867 Clear 19 1008 45 10000 8.75 270 19:58 04.03.2021
1868 Clear 19 1008 45 10000 8.75 270 19:39 04.03.2021
1869 Clear 19 1008 45 10000 8.75 270 19:21 04.03.2021
1870 Clear 21 1006 40 10000 8.75 130 18:45 04.03.2021
1871 Clear 21 1006 40 10000 8.75 130 18:24 04.03.2021
1872 Clear 21 1006 40 10000 6.69 110 17:46 04.03.2021
1873 Clear 21 1006 40 10000 6.69 110 17:27 04.03.2021
1874 Clouds 22 1007 37 10000 5.14 120 16:47 04.03.2021
1875 Clouds 22 1007 37 10000 5.14 120 16:28 04.03.2021
1876 Clouds 23 1007 33 10000 7.72 120 15:50 04.03.2021
1877 Clouds 23 1007 33 10000 7.72 120 15:31 04.03.2021
1878 Clouds 23 1008 31 10000 7.72 120 14:49 04.03.2021
1879 Clouds 23 1008 31 10000 7.72 120 14:26 04.03.2021
1880 Clouds 22 1008 35 10000 8.23 130 13:48 04.03.2021
1881 Clouds 22 1008 35 10000 8.23 130 13:30 04.03.2021
1882 Clouds 23 1009 33 10000 9.77 130 12:53 04.03.2021
1883 Clouds 23 1009 33 10000 9.77 130 12:35 04.03.2021
1884 Clouds 22 1011 37 10000 7.72 130 11:47 04.03.2021
1885 Clouds 22 1011 37 10000 7.72 130 11:25 04.03.2021
1886 Clouds 23 1012 31 10000 7.72 130 10:52 04.03.2021
1887 Clouds 23 1012 31 10000 7.72 130 10:31 04.03.2021
1888 Clouds 22 1012 35 10000 7.2 130 09:42 04.03.2021
1889 Clouds 22 1012 35 10000 7.2 130 09:21 04.03.2021
1890 Clouds 20 1014 37 10000 6.17 130 08:35 04.03.2021
1891 Clouds 19 1014 42 10000 5.66 110 07:53 04.03.2021
1892 Clouds 19 1014 42 10000 5.66 110 07:28 04.03.2021
1893 Clouds 16 1014 48 10000 4.63 120 06:24 04.03.2021
1894 Clouds 13 1014 58 10000 3.09 130 05:27 04.03.2021
1895 Clear 14 1014 47 10000 4.63 160 01:41 04.03.2021
1896 Clear 16 1015 41 10000 3.6 130 22:44 03.03.2021
1897 Clear 16 1015 41 10000 3.6 130 22:26 03.03.2021
1898 Clear 17 1015 39 10000 5.14 140 21:44 03.03.2021
1899 Clear 17 1015 39 10000 5.14 140 21:24 03.03.2021
1900 Clear 19 1016 27 10000 3.73 145 20:59 03.03.2021
1901 Clear 19 1016 27 10000 3.73 145 20:41 03.03.2021
1902 Clear 18 1016 42 10000 5.14 150 20:19 03.03.2021
1903 Clear 18 1016 42 10000 5.14 150 19:41 03.03.2021
1904 Clear 18 1016 42 10000 5.14 150 19:22 03.03.2021
1905 Clear 19 1016 39 10000 3.6 130 18:47 03.03.2021
1906 Clear 19 1016 39 10000 3.6 130 18:26 03.03.2021
1907 Clear 20 1016 37 10000 3.09 120 17:54 03.03.2021
1908 Clear 20 1016 37 10000 3.09 120 17:19 03.03.2021
1909 Clouds 23 1015 28 10000 4.12 130 16:44 03.03.2021
1910 Clouds 23 1015 28 10000 4.12 130 16:24 03.03.2021
1911 Clear 25 1016 23 10000 4.12 130 15:35 03.03.2021
1912 Clouds 25 1016 25 10000 2.57 180 14:59 03.03.2021
1913 Clouds 25 1016 25 10000 2.57 180 14:31 03.03.2021
1914 Clear 26 1016 24 10000 3.09 180 13:53 03.03.2021
1915 Clear 26 1016 24 10000 3.09 180 13:33 03.03.2021
1916 Clear 25 1017 25 10000 4.12 170 12:58 03.03.2021
1917 Clear 25 1017 25 10000 4.12 170 12:39 03.03.2021
1918 Clear 25 1017 25 10000 4.12 170 12:19 03.03.2021
1919 Clear 24 1018 29 10000 3.6 200 11:42 03.03.2021
1920 Clear 24 1018 29 10000 3.6 200 11:21 03.03.2021
1921 Clouds 22 1019 37 9000 3.09 190 10:41 03.03.2021
1922 Clouds 22 1019 37 9000 3.09 190 10:19 03.03.2021
1923 Clear 20 1020 42 10000 1.54 0 09:40 03.03.2021
1924 Clouds 18 1020 45 8000 2.06 230 08:46 03.03.2021
1925 Clouds 18 1020 45 8000 2.06 230 08:23 03.03.2021
1926 Clear 16 1020 51 6000 1.03 0 07:52 03.03.2021
1927 Haze 13 1019 62 5000 3.09 130 06:55 03.03.2021
1928 Haze 13 1019 62 5000 3.09 130 06:18 03.03.2021
1929 Clear 11 1019 66 6000 2.06 140 05:30 03.03.2021
1930 Clear 11 1019 66 9000 1.54 150 04:36 03.03.2021
1931 Clear 12 1018 62 10000 3.09 100 03:52 03.03.2021
1932 Clear 13 1018 58 10000 3.09 120 00:18 03.03.2021
1933 Clear 13 1019 58 10000 2.57 130 23:32 02.03.2021
1934 Clear 14 1019 54 10000 3.09 120 22:48 02.03.2021
1935 Clear 14 1019 54 10000 3.09 120 22:21 02.03.2021
1936 Clear 15 1019 51 10000 3.09 110 21:46 02.03.2021
1937 Clear 15 1019 51 10000 3.09 110 21:28 02.03.2021
1938 Clear 16 1020 51 10000 3.09 110 20:55 02.03.2021
1939 Clear 16 1020 51 10000 3.09 110 20:36 02.03.2021
1940 Clear 16 1020 51 10000 3.09 110 20:18 02.03.2021
1941 Clear 17 1020 45 10000 3.6 110 19:43 02.03.2021
1942 Clear 17 1020 45 10000 3.6 110 19:24 02.03.2021
1943 Clear 19 1019 39 10000 3.09 100 18:41 02.03.2021
1944 Clear 19 1019 39 10000 3.09 100 18:21 02.03.2021
1945 Clear 20 1019 37 10000 2.57 110 17:54 02.03.2021
1946 Clear 20 1019 37 10000 2.57 110 17:36 02.03.2021
1947 Clear 20 1019 37 10000 2.57 110 17:36 02.03.2021
1948 Clear 20 1019 37 10000 2.57 110 17:18 02.03.2021
1949 Clouds 21 1019 32 10000 2.57 120 16:40 02.03.2021
1950 Clear 23 1019 25 10000 1.54 210 15:54 02.03.2021
1951 Clear 23 1019 25 10000 1.54 210 15:26 02.03.2021
1952 Clear 24 1019 23 10000 2.57 210 14:44 02.03.2021
1953 Clear 24 1019 23 10000 2.57 210 14:18 02.03.2021
1954 Clouds 24 1019 25 10000 4.12 230 13:44 02.03.2021
1955 Clouds 24 1019 25 10000 4.12 230 13:23 02.03.2021
1956 Clear 24 1019 25 10000 3.09 200 12:45 02.03.2021
1957 Clear 24 1019 25 10000 3.09 200 12:24 02.03.2021
1958 Clear 23 1020 25 10000 3.6 210 11:44 02.03.2021
1959 Clear 23 1020 25 10000 3.6 210 11:22 02.03.2021
1960 Clear 22 1021 33 10000 3.6 220 10:49 02.03.2021
1961 Clear 22 1021 33 10000 3.6 220 10:25 02.03.2021
1962 Clear 21 1021 37 9000 4.12 170 09:41 02.03.2021
1963 Clouds 21 1021 37 9000 4.12 170 09:22 02.03.2021
1964 Clouds 19 1022 52 6000 3.6 140 08:43 02.03.2021
1965 Clouds 19 1022 52 6000 3.6 140 08:25 02.03.2021
1966 Haze 15 1022 63 4300 2.57 110 07:41 02.03.2021
1967 Haze 13 1021 71 4600 2.06 100 06:37 02.03.2021
1968 Clouds 10 1021 62 6000 0.51 0 05:47 02.03.2021
1969 Clouds 10 1021 62 6000 0.51 0 05:29 02.03.2021
1970 Clear 9 1019 66 9000 2.57 110 02:35 02.03.2021
1971 Clear 10 1019 66 8000 2.06 100 01:42 02.03.2021
1972 Clear 10 1019 66 8000 2.06 100 01:18 02.03.2021
1973 Clear 10 1019 57 9000 2.06 140 23:29 01.03.2021
1974 Clear 10 1019 57 9000 2.06 140 22:43 01.03.2021
1975 Clear 10 1019 57 9000 2.06 140 22:25 01.03.2021
1976 Clear 12 1019 43 10000 1.54 160 21:52 01.03.2021
1977 Clear 12 1019 43 10000 1.54 160 21:24 01.03.2021
1978 Clear 13 1019 47 10000 1.03 0 20:59 01.03.2021
1979 Clear 13 1019 47 10000 1.03 0 20:39 01.03.2021
1980 Clear 13 1019 47 10000 1.03 0 20:18 01.03.2021
1981 Clear 14 1019 41 10000 1.54 180 19:42 01.03.2021
1982 Clear 14 1019 41 10000 1.54 180 19:18 01.03.2021
1983 Clear 16 1019 39 10000 1.03 200 18:40 01.03.2021
1984 Clear 16 1019 39 10000 1.03 200 18:21 01.03.2021
1985 Clear 17 1018 34 10000 1.03 230 17:42 01.03.2021
1986 Clear 17 1018 34 10000 1.03 230 17:20 01.03.2021
1987 Clear 20 1017 26 10000 1.03 330 16:46 01.03.2021
1988 Clear 20 1017 26 10000 1.03 330 16:26 01.03.2021
1989 Clear 21 1017 24 10000 2.06 360 15:46 01.03.2021
1990 Clear 21 1017 24 10000 2.06 360 15:22 01.03.2021
1991 Clear 21 1017 26 10000 2.06 280 14:57 01.03.2021
1992 Clear 21 1017 26 10000 2.06 280 14:38 01.03.2021
1993 Clear 21 1017 28 10000 2.57 0 13:47 01.03.2021
1994 Clear 21 1017 28 10000 2.57 0 13:28 01.03.2021
1995 Clear 21 1017 28 10000 2.57 340 12:59 01.03.2021
1996 Clear 21 1017 28 10000 2.57 340 12:40 01.03.2021
1997 Clear 21 1017 28 10000 2.57 340 12:20 01.03.2021
1998 Clear 20 1018 37 10000 2.06 270 11:46 01.03.2021
1999 Clear 20 1018 37 10000 2.06 270 11:46 01.03.2021
2000 Clear 19 1018 37 10000 2.57 300 10:59 01.03.2021
2001 Clear 19 1018 37 10000 2.57 300 10:36 01.03.2021
2002 Clear 19 1018 37 10000 2.57 300 10:18 01.03.2021
2003 Clear 18 1019 45 10000 2.06 310 09:46 01.03.2021
2004 Clear 18 1019 45 10000 2.06 310 09:23 01.03.2021
2005 Clear 18 1019 45 10000 2.06 310 09:23 01.03.2021
2006 Clear 17 1018 45 7000 3.09 350 08:53 01.03.2021
2007 Clear 17 1018 45 7000 3.09 350 08:22 01.03.2021
2008 Haze 11 1018 66 4600 1.54 310 06:54 01.03.2021
2009 Haze 11 1018 66 4600 1.54 310 06:24 01.03.2021
2010 Clouds 10 1016 71 9000 2.57 10 02:26 01.03.2021
2011 Clear 10 1017 66 10000 1.54 300 23:41 28.02.2021
2012 Clouds 10 1017 66 10000 2.06 300 22:55 28.02.2021
2013 Clouds 10 1017 66 10000 2.06 300 22:26 28.02.2021
2014 Clouds 12 1017 62 10000 1.54 300 21:55 28.02.2021
2015 Clouds 12 1017 62 10000 1.54 300 21:33 28.02.2021
2016 Clouds 13 1017 54 10000 1.03 0 20:58 28.02.2021
2017 Clouds 13 1017 54 10000 1.03 0 20:38 28.02.2021
2018 Clouds 13 1017 54 10000 1.03 0 20:38 28.02.2021
2019 Clouds 13 1017 54 10000 1.03 0 20:18 28.02.2021
2020 Clouds 13 1017 58 10000 2.57 160 19:45 28.02.2021
2021 Clouds 13 1017 58 10000 2.57 160 19:24 28.02.2021
2022 Clouds 13 1017 62 10000 5.66 170 18:43 28.02.2021
2023 Clouds 13 1017 62 10000 5.66 170 18:25 28.02.2021
2024 Clouds 13 1017 62 10000 5.66 170 18:25 28.02.2021
2025 Clouds 14 1016 58 10000 4.63 180 17:50 28.02.2021
2026 Clouds 14 1016 58 10000 4.63 180 17:28 28.02.2021
2027 Clouds 14 1016 51 10000 4.12 150 16:56 28.02.2021
2028 Clouds 14 1016 51 10000 4.12 150 16:37 28.02.2021
2029 Clouds 14 1016 51 10000 4.12 150 16:18 28.02.2021
2030 Clouds 15 1016 47 10000 4.63 180 15:40 28.02.2021
2031 Clouds 15 1016 47 10000 4.63 180 15:22 28.02.2021
2032 Haze 16 1016 41 7000 5.14 180 14:52 28.02.2021
2033 Haze 16 1016 41 7000 5.14 180 14:28 28.02.2021
2034 Clouds 18 1016 36 10000 5.14 160 13:52 28.02.2021
2035 Clouds 18 1016 36 10000 5.14 160 13:21 28.02.2021
2036 Clouds 19 1016 32 10000 3.09 130 12:56 28.02.2021
2037 Clouds 19 1016 32 10000 3.09 130 12:38 28.02.2021
2038 Clouds 19 1016 32 10000 3.09 130 12:19 28.02.2021
2039 Clouds 18 1016 29 9000 2.06 100 11:46 28.02.2021
2040 Clouds 18 1016 29 9000 2.06 100 11:26 28.02.2021
2041 Clouds 18 1017 32 10000 2.06 130 10:55 28.02.2021
2042 Clouds 18 1017 32 10000 2.06 130 10:29 28.02.2021
2043 Clouds 17 1017 34 10000 2.06 160 09:56 28.02.2021
2044 Clouds 17 1017 34 10000 2.06 160 09:34 28.02.2021
2045 Clouds 15 1018 38 8000 3.09 150 08:52 28.02.2021
2046 Clouds 15 1018 38 8000 3.09 150 08:33 28.02.2021
2047 Haze 13 1018 50 3300 1.54 110 07:57 28.02.2021
2048 Haze 13 1018 50 3300 1.54 110 07:39 28.02.2021
2049 Haze 13 1018 50 3300 1.54 110 07:18 28.02.2021
2050 Clouds 9 1018 57 2700 2.06 140 06:21 28.02.2021
2051 Clouds 7 1016 61 7000 0.51 0 03:45 28.02.2021
2052 Clear 8 1016 57 8000 1.21 72 02:20 28.02.2021
2053 Clear 9 1017 49 10000 1.03 290 00:58 28.02.2021
2054 Clear 9 1017 49 10000 1.03 290 00:58 28.02.2021
2055 Clear 9 1017 49 10000 1.03 290 00:37 28.02.2021
2056 Clear 10 1017 53 10000 0.52 37 23:48 27.02.2021
2057 Clear 10 1017 53 10000 0.51 330 23:20 27.02.2021
2058 Clear 11 1017 43 10000 1.54 220 22:49 27.02.2021
2059 Clear 11 1017 43 10000 1.54 220 22:23 27.02.2021
2060 Clear 11 1018 40 10000 1.03 210 21:55 27.02.2021
2061 Clear 11 1018 40 10000 1.03 210 21:35 27.02.2021
2062 Clear 11 1018 43 10000 1.03 210 20:54 27.02.2021
2063 Clear 11 1018 43 10000 1.03 210 20:35 27.02.2021
2064 Clear 13 1017 35 10000 0.51 150 19:58 27.02.2021
2065 Clear 13 1017 35 10000 0.51 150 19:39 27.02.2021
2066 Clear 13 1017 35 10000 0.51 150 19:21 27.02.2021
2067 Clear 15 1017 29 10000 0.51 0 18:38 27.02.2021
2068 Clear 15 1017 29 10000 0.51 0 18:18 27.02.2021
2069 Clear 17 1017 25 10000 1.03 280 17:43 27.02.2021
2070 Clear 17 1017 25 10000 1.03 280 17:20 27.02.2021
2071 Clear 19 1017 22 10000 3.09 290 16:51 27.02.2021
2072 Clear 19 1017 22 10000 3.09 290 16:30 27.02.2021
2073 Clear 20 1017 21 10000 3.09 290 15:49 27.02.2021
2074 Clear 20 1017 21 10000 3.09 290 15:31 27.02.2021
2075 Clear 21 1017 21 10000 3.6 300 14:43 27.02.2021
2076 Clear 21 1017 21 10000 3.6 300 14:25 27.02.2021
2077 Clear 21 1017 23 10000 3.6 270 13:49 27.02.2021
2078 Clear 21 1017 23 10000 3.6 270 13:26 27.02.2021
2079 Clear 21 1017 24 10000 3.09 280 12:51 27.02.2021
2080 Clear 21 1017 24 10000 3.09 280 12:28 27.02.2021
2081 Clear 21 1018 23 10000 4.12 270 11:56 27.02.2021
2082 Clear 21 1018 23 10000 4.12 270 11:36 27.02.2021
2083 Clear 21 1018 23 10000 4.12 270 11:18 27.02.2021
2084 Clear 20 1019 22 10000 3.6 310 10:41 27.02.2021
2085 Clear 20 1019 22 10000 3.6 310 10:18 27.02.2021
2086 Clear 20 1019 22 10000 3.6 310 10:18 27.02.2021
2087 Clear 19 1019 27 10000 3.09 280 09:43 27.02.2021
2088 Clear 19 1019 27 10000 3.09 280 09:21 27.02.2021
2089 Clear 17 1020 31 10000 2.57 280 08:39 27.02.2021
2090 Clear 17 1020 31 10000 2.57 280 08:19 27.02.2021
2091 Clear 14 1020 38 10000 3.09 300 07:34 27.02.2021
2092 Clear 8 1018 57 10000 2.06 260 03:28 27.02.2021
2093 Clear 9 1018 53 10000 2.57 340 00:37 27.02.2021
2094 Clear 10 1019 46 10000 2.06 290 23:51 26.02.2021
2095 Clear 10 1019 46 10000 2.06 290 23:26 26.02.2021
2096 Clear 9 1018 49 9000 1.54 290 22:44 26.02.2021
2097 Clear 9 1018 49 9000 1.54 290 22:23 26.02.2021
2098 Clear 11 1019 43 10000 1.54 270 21:39 26.02.2021
2099 Clear 11 1019 43 10000 1.54 270 21:18 26.02.2021
2100 Clear 12 1019 43 10000 1.54 250 20:43 26.02.2021
2101 Clear 12 1019 43 10000 1.54 250 20:20 26.02.2021
2102 Clear 13 1019 44 10000 1.03 360 19:41 26.02.2021
2103 Clear 13 1019 44 10000 1.03 360 19:18 26.02.2021
2104 Clear 15 1018 36 10000 2.57 290 18:41 26.02.2021
2105 Clear 15 1018 36 10000 2.57 290 18:21 26.02.2021
2106 Clear 16 1018 31 10000 3.6 290 17:39 26.02.2021
2107 Clear 16 1018 31 10000 3.6 290 17:21 26.02.2021
2108 Clear 18 1018 27 10000 4.12 310 16:50 26.02.2021
2109 Clear 18 1018 27 10000 4.12 310 16:31 26.02.2021
2110 Clear 20 1018 22 10000 5.66 320 15:56 26.02.2021
2111 Clear 20 1018 22 10000 5.66 320 15:36 26.02.2021
2112 Clear 20 1018 22 10000 5.66 320 15:18 26.02.2021
2113 Clear 21 1018 21 10000 5.14 330 14:42 26.02.2021
2114 Clear 21 1018 21 10000 5.14 330 14:24 26.02.2021
2115 Clear 21 1018 21 10000 5.66 340 13:39 26.02.2021
2116 Clear 21 1018 21 10000 5.66 340 13:20 26.02.2021
2117 Clear 20 1019 28 10000 5.14 320 12:38 26.02.2021
2118 Clear 20 1019 28 10000 5.14 320 11:51 26.02.2021
2119 Clear 20 1019 28 10000 5.14 320 11:33 26.02.2021
2120 Clear 19 1020 34 10000 4.63 300 10:46 26.02.2021
2121 Clear 17 1020 42 10000 3.09 300 09:55 26.02.2021
2122 Clear 17 1020 42 10000 3.09 300 09:31 26.02.2021
2123 Clear 14 1020 47 10000 3.09 300 08:54 26.02.2021
2124 Clear 14 1020 47 10000 3.09 300 08:25 26.02.2021
2125 Clear 11 1020 58 10000 3.09 300 07:49 26.02.2021
2126 Clear 11 1020 58 10000 3.09 300 07:49 26.02.2021
2127 Clear 8 1019 61 10000 3.09 300 06:36 26.02.2021
2128 Clear 5 1019 70 10000 3.09 300 05:27 26.02.2021
2129 Clear 7 1018 65 10000 3.09 290 03:47 26.02.2021
2130 Clear 8 1018 61 10000 3.09 290 02:35 26.02.2021
2131 Clear 10 1019 66 6000 2.57 310 23:56 25.02.2021
2132 Clear 10 1019 66 6000 2.57 310 23:28 25.02.2021
2133 Clear 10 1018 62 8000 1.03 0 22:49 25.02.2021
2134 Clear 10 1018 62 8000 1.03 0 22:19 25.02.2021
2135 Clear 10 1019 62 8000 2.06 310 21:41 25.02.2021
2136 Clear 10 1019 62 8000 2.06 310 21:23 25.02.2021
2137 Clear 12 1019 54 10000 1.03 0 20:41 25.02.2021
2138 Clear 12 1019 54 10000 1.03 0 20:22 25.02.2021
2139 Clear 12 1018 50 10000 0.51 200 19:52 25.02.2021
2140 Clear 12 1018 50 10000 0.51 200 19:22 25.02.2021
2141 Clear 14 1018 47 10000 1.6 23 18:57 25.02.2021
2142 Clear 14 1018 47 10000 1.68 45 18:25 25.02.2021
2143 Clear 16 1018 41 10000 1.03 0 17:49 25.02.2021
2144 Clear 16 1018 41 10000 1.03 0 17:26 25.02.2021
2145 Clear 17 1017 39 10000 2.57 340 16:46 25.02.2021
2146 Clear 17 1017 39 10000 2.57 340 16:25 25.02.2021
2147 Clear 19 1017 32 10000 3.09 340 15:30 25.02.2021
2148 Clear 19 1017 34 10000 2.57 360 14:57 25.02.2021
2149 Clear 19 1017 34 10000 2.57 360 14:24 25.02.2021
2150 Clear 20 1017 32 10000 2.06 30 13:53 25.02.2021
2151 Clear 20 1017 32 10000 2.06 30 13:26 25.02.2021
2152 Clear 19 1017 34 10000 1.03 0 12:55 25.02.2021
2153 Clear 19 1017 34 10000 1.03 0 12:22 25.02.2021
2154 Clear 18 1018 39 10000 1.54 70 11:47 25.02.2021
2155 Clear 18 1018 39 10000 1.54 70 11:20 25.02.2021
2156 Clear 16 1018 48 9000 1.54 0 10:45 25.02.2021
2157 Clear 16 1018 48 9000 1.54 0 10:26 25.02.2021
2158 Clear 15 1018 51 9000 2.06 90 09:43 25.02.2021
2159 Clear 13 1019 58 10000 2.06 100 08:56 25.02.2021
2160 Clear 13 1019 58 10000 2.06 100 08:25 25.02.2021
2161 Clear 13 1019 58 10000 2.06 100 08:25 25.02.2021
2162 Clear 11 1018 66 10000 2.06 150 07:56 25.02.2021
2163 Clear 11 1018 66 10000 2.06 150 07:34 25.02.2021
2164 Clear 9 1018 76 10000 3.09 160 06:55 25.02.2021
2165 Clear 8 1016 76 10000 4.12 170 02:39 25.02.2021
2166 Clear 8 1016 76 10000 4.12 190 01:38 25.02.2021
2167 Clear 9 1016 71 10000 4.12 190 00:42 25.02.2021
2168 Clouds 12 1015 45 10000 5.64 247 23:53 24.02.2021
2169 Clouds 11 1016 62 10000 4.12 200 23:28 24.02.2021
2170 Clouds 11 1016 62 10000 4.12 200 22:45 24.02.2021
2171 Clouds 11 1016 62 10000 4.12 200 22:25 24.02.2021
2172 Clouds 12 1016 58 10000 6.17 230 21:46 24.02.2021
2173 Clouds 12 1016 58 10000 6.17 220 20:59 24.02.2021
2174 Clouds 12 1016 58 10000 6.17 220 20:40 24.02.2021
2175 Clouds 12 1016 58 10000 6.17 220 20:20 24.02.2021
2176 Clouds 13 1016 54 10000 6.17 220 19:29 24.02.2021
2177 Clouds 14 1015 35 10000 5.14 200 18:59 24.02.2021
2178 Clouds 14 1015 35 10000 5.14 200 18:39 24.02.2021
2179 Clouds 14 1015 35 10000 5.14 200 18:21 24.02.2021
2180 Clouds 15 1015 36 10000 2.57 220 17:37 24.02.2021
2181 Clouds 15 1015 36 10000 2.57 220 17:18 24.02.2021
2182 Clouds 17 1015 27 10000 2.57 260 16:43 24.02.2021
2183 Clouds 17 1015 27 10000 2.57 260 16:19 24.02.2021
2184 Clouds 18 1015 25 10000 4.63 290 15:40 24.02.2021
2185 Clouds 18 1015 25 10000 3.6 290 14:57 24.02.2021
2186 Clouds 18 1015 25 10000 3.6 290 14:35 24.02.2021
2187 Clouds 17 1015 34 10000 4.12 300 13:59 24.02.2021
2188 Clouds 17 1015 34 10000 4.12 300 13:39 24.02.2021
2189 Clouds 17 1015 34 10000 4.12 300 13:21 24.02.2021
2190 Clouds 17 1016 34 10000 3.6 290 12:44 24.02.2021
2191 Clouds 17 1016 34 10000 3.6 290 12:24 24.02.2021
2192 Clear 17 1017 34 10000 4.12 290 11:47 24.02.2021
2193 Clear 16 1018 36 10000 3.6 260 10:57 24.02.2021
2194 Clear 16 1018 36 10000 3.6 260 10:32 24.02.2021
2195 Clear 15 1018 38 10000 3.6 270 09:46 24.02.2021
2196 Clear 15 1018 38 10000 3.6 270 09:20 24.02.2021
2197 Clear 12 1019 40 10000 2.57 270 08:34 24.02.2021
2198 Clear 8 1019 57 9000 1.54 250 07:57 24.02.2021
2199 Clear 8 1019 57 9000 1.54 250 07:20 24.02.2021
2200 Clear 6 1019 56 7000 1.54 210 06:31 24.02.2021
2201 Clear 5 1019 48 10000 2.06 270 03:31 24.02.2021
2202 Clear 7 1020 49 10000 2.06 290 00:26 24.02.2021
2203 Clouds 5 1021 56 10000 1.03 0 23:24 23.02.2021
2204 Clear 7 1021 45 10000 1.54 270 22:40 23.02.2021
2205 Clear 7 1021 45 10000 1.54 270 22:19 23.02.2021
2206 Clear 8 1022 46 10000 0.51 290 21:44 23.02.2021
2207 Clear 8 1022 46 10000 0.51 290 21:22 23.02.2021
2208 Clear 9 1022 37 10000 1.03 260 20:48 23.02.2021
2209 Clear 9 1022 37 10000 1.03 260 20:29 23.02.2021
2210 Clear 10 1022 37 10000 2.06 280 19:48 23.02.2021
2211 Clear 10 1022 37 10000 2.06 280 19:27 23.02.2021
2212 Clear 12 1022 30 10000 3.09 300 18:58 23.02.2021
2213 Clear 12 1022 30 10000 3.09 300 18:39 23.02.2021
2214 Clear 12 1022 30 10000 3.09 300 18:18 23.02.2021
2215 Clear 14 1022 28 10000 2.57 320 17:39 23.02.2021
2216 Clear 16 1022 23 10000 4.12 310 16:56 23.02.2021
2217 Clear 16 1022 23 10000 4.12 310 16:36 23.02.2021
2218 Clear 16 1022 23 10000 4.12 310 16:18 23.02.2021
2219 Clear 18 1022 22 10000 4.12 330 15:40 23.02.2021
2220 Clear 18 1022 22 10000 4.12 330 15:21 23.02.2021
2221 Clear 18 1022 22 10000 5.66 320 14:44 23.02.2021
2222 Clear 18 1022 22 10000 5.66 320 14:25 23.02.2021
2223 Clear 18 1022 24 10000 5.66 330 13:47 23.02.2021
2224 Clear 18 1022 24 10000 5.66 330 13:26 23.02.2021
2225 Clear 18 1023 22 10000 6.17 320 12:52 23.02.2021
2226 Clear 18 1023 22 10000 6.17 320 12:22 23.02.2021
2227 Clear 17 1024 23 10000 5.66 320 11:50 23.02.2021
2228 Clear 17 1024 23 10000 5.66 320 11:23 23.02.2021
2229 Clear 16 1025 27 10000 5.66 320 10:52 23.02.2021
2230 Clear 16 1025 27 10000 5.66 320 10:34 23.02.2021
2231 Clear 14 1026 33 10000 6.17 300 09:45 23.02.2021
2232 Clear 14 1026 33 10000 6.17 300 09:25 23.02.2021
2233 Clear 12 1027 37 10000 5.66 310 08:54 23.02.2021
2234 Clear 12 1027 37 10000 5.66 310 08:25 23.02.2021
2235 Clear 9 1027 40 10000 4.63 310 07:58 23.02.2021
2236 Clear 4 1026 60 10000 2.06 290 05:40 23.02.2021
2237 Clear 4 1026 60 10000 2.06 290 05:19 23.02.2021
2238 Clear 5 1025 52 10000 2.57 260 02:34 23.02.2021
2239 Clear 6 1026 52 10000 2.57 250 00:54 23.02.2021
2240 Clear 6 1026 52 10000 2.57 250 00:18 23.02.2021
2241 Clear 6 1025 49 10000 2.57 300 23:21 22.02.2021
2242 Clear 8 1026 46 10000 3.09 300 22:41 22.02.2021
2243 Clear 8 1026 46 10000 3.09 300 22:20 22.02.2021
2244 Clear 10 1026 37 10000 4.12 330 21:45 22.02.2021
2245 Clear 10 1026 37 10000 4.12 330 21:23 22.02.2021
2246 Clear 9 1026 43 10000 3.09 330 20:52 22.02.2021
2247 Clear 9 1026 43 10000 3.09 330 20:29 22.02.2021
2248 Clear 9 1026 40 10000 2.57 320 19:54 22.02.2021
2249 Clear 9 1026 40 10000 2.57 320 19:35 22.02.2021
2250 Clear 10 1026 40 10000 2.57 310 18:57 22.02.2021
2251 Clear 10 1026 40 10000 2.57 310 18:57 22.02.2021
2252 Clear 10 1026 40 10000 2.57 310 18:39 22.02.2021
2253 Clear 10 1026 40 10000 2.57 310 18:20 22.02.2021
2254 Clear 11 1025 35 10000 2.57 310 17:26 22.02.2021
2255 Clear 14 1025 28 10000 4.12 300 16:57 22.02.2021
2256 Clear 14 1025 28 10000 4.12 300 16:39 22.02.2021
2257 Clear 15 1025 25 10000 6.17 310 15:52 22.02.2021
2258 Clear 15 1025 25 10000 6.17 310 15:28 22.02.2021
2259 Clear 16 1025 25 10000 6.69 310 14:48 22.02.2021
2260 Clear 16 1025 25 10000 6.69 310 14:29 22.02.2021
2261 Clear 16 1025 25 10000 6.69 300 13:47 22.02.2021
2262 Clear 16 1025 27 10000 5.66 310 12:59 22.02.2021
2263 Clear 16 1025 27 10000 5.66 310 12:40 22.02.2021
2264 Clear 16 1025 27 10000 5.66 310 12:20 22.02.2021
2265 Clear 16 1026 27 10000 5.66 300 11:42 22.02.2021
2266 Clear 16 1026 27 10000 5.66 300 11:24 22.02.2021
2267 Clear 15 1027 29 10000 4.12 330 10:47 22.02.2021
2268 Clear 15 1027 29 10000 4.12 330 10:26 22.02.2021
2269 Clear 14 1027 28 10000 4.12 340 09:45 22.02.2021
2270 Clear 14 1027 28 10000 4.12 340 09:25 22.02.2021
2271 Clear 13 1028 33 8000 3.6 340 08:51 22.02.2021
2272 Clear 13 1028 33 8000 3.6 340 08:29 22.02.2021
2273 Haze 11 1028 43 5000 1.54 340 07:57 22.02.2021
2274 Haze 11 1028 43 5000 1.54 340 07:26 22.02.2021
2275 Clear 7 1028 61 6000 0.51 0 06:44 22.02.2021
2276 Clear 4 1027 65 3400 2.06 300 05:42 22.02.2021
2277 Clear 3 1027 65 6000 3.09 310 03:29 22.02.2021
2278 Clear 6 1026 52 6000 1.03 280 02:49 22.02.2021
2279 Clear 5 1027 56 10000 2.57 320 00:45 22.02.2021
2280 Clear 5 1027 56 10000 2.57 320 00:22 22.02.2021
2281 Clear 5 1026 56 10000 2.06 320 23:30 21.02.2021
2282 Clear 8 1027 46 10000 1.03 330 22:51 21.02.2021
2283 Clear 8 1027 46 10000 1.03 330 22:22 21.02.2021
2284 Clear 9 1026 40 10000 1.54 350 21:43 21.02.2021
2285 Clear 9 1026 40 10000 1.54 350 21:24 21.02.2021
2286 Clear 10 1026 40 10000 2.57 360 20:43 21.02.2021
2287 Clear 10 1026 40 10000 2.57 360 20:20 21.02.2021
2288 Clear 9 1026 46 10000 2.06 340 19:51 21.02.2021
2289 Clear 9 1026 46 10000 2.06 340 19:33 21.02.2021
2290 Clear 12 1026 37 10000 3.6 340 18:52 21.02.2021
2291 Clear 12 1026 37 10000 3.6 340 18:26 21.02.2021
2292 Clear 12 1025 37 10000 3.6 330 17:30 21.02.2021
2293 Clear 14 1025 35 10000 5.14 330 16:59 21.02.2021
2294 Clear 14 1025 35 10000 5.14 330 16:39 21.02.2021
2295 Clear 14 1025 35 10000 5.14 330 16:20 21.02.2021
2296 Clear 15 1024 33 10000 5.66 340 15:23 21.02.2021
2297 Clear 16 1024 29 10000 6.17 330 14:56 21.02.2021
2298 Clear 16 1024 29 10000 6.17 330 14:37 21.02.2021
2299 Clear 16 1024 29 10000 6.17 330 14:37 21.02.2021
2300 Clouds 17 1024 27 10000 6.69 330 13:54 21.02.2021
2301 Clouds 17 1024 27 10000 6.69 330 13:29 21.02.2021
2302 Clear 16 1024 27 10000 7.2 350 12:33 21.02.2021
2303 Clear 16 1025 29 10000 7.2 360 11:59 21.02.2021
2304 Clear 16 1025 29 10000 7.2 360 11:41 21.02.2021
2305 Clouds 16 1026 27 10000 6.17 340 10:48 21.02.2021
2306 Clouds 16 1026 27 10000 6.17 340 10:22 21.02.2021
2307 Clouds 15 1026 36 10000 5.14 360 09:47 21.02.2021
2308 Clouds 15 1026 36 10000 5.14 360 09:25 21.02.2021
2309 Clouds 14 1026 35 10000 5.66 350 08:37 21.02.2021
2310 Clouds 12 1026 58 10000 3.6 360 07:58 21.02.2021
2311 Clouds 12 1026 58 10000 3.6 360 07:23 21.02.2021
2312 Clouds 10 1026 76 7000 2.57 350 06:45 21.02.2021
2313 Clouds 8 1024 81 6000 2.57 320 02:44 21.02.2021
2314 Clouds 8 1024 81 6000 3.09 320 01:59 21.02.2021
2315 Clouds 8 1025 76 6000 2.57 300 00:22 21.02.2021
2316 Clear 8 1024 76 10000 0.51 0 23:59 20.02.2021
2317 Clear 10 1024 71 10000 2.06 320 22:59 20.02.2021
2318 Clear 10 1024 71 10000 2.06 320 22:38 20.02.2021
2319 Clouds 10 1024 76 10000 3.09 330 21:59 20.02.2021
2320 Clouds 10 1024 76 10000 3.09 330 21:41 20.02.2021
2321 Clouds 10 1024 76 10000 3.09 330 21:18 20.02.2021
2322 Clouds 10 1024 71 10000 3.6 330 20:42 20.02.2021
2323 Clouds 10 1024 71 10000 3.6 330 20:20 20.02.2021
2324 Clear 11 1024 66 10000 3.09 330 19:48 20.02.2021
2325 Clear 12 1024 62 10000 2.57 340 18:58 20.02.2021
2326 Clear 12 1024 62 10000 2.57 340 18:37 20.02.2021
2327 Clear 12 1024 62 10000 2.57 340 18:19 20.02.2021
2328 Clear 13 1023 58 10000 2.57 350 17:36 20.02.2021
2329 Clouds 15 1023 51 10000 3.09 330 16:54 20.02.2021
2330 Clouds 15 1023 51 10000 3.09 330 16:27 20.02.2021
2331 Clouds 15 1023 51 10000 3.09 330 16:27 20.02.2021
2332 Clouds 16 1022 48 10000 5.14 320 15:44 20.02.2021
2333 Clouds 16 1022 48 10000 5.14 320 15:21 20.02.2021
2334 Clouds 17 1022 42 10000 3.6 290 14:44 20.02.2021
2335 Clouds 17 1022 42 10000 3.6 290 14:23 20.02.2021
2336 Clouds 17 1022 45 10000 5.14 280 13:41 20.02.2021
2337 Clouds 17 1022 45 10000 5.14 280 13:22 20.02.2021
2338 Clouds 18 1021 36 10000 4.63 270 12:49 20.02.2021
2339 Clouds 18 1021 36 10000 4.63 270 12:23 20.02.2021
2340 Clouds 17 1022 36 10000 1.03 0 11:43 20.02.2021
2341 Clouds 17 1022 36 10000 1.03 0 11:24 20.02.2021
2342 Clouds 15 1023 41 10000 4.12 230 10:47 20.02.2021
2343 Clouds 15 1022 41 10000 3.09 210 09:54 20.02.2021
2344 Clouds 15 1022 41 10000 3.09 210 09:22 20.02.2021
2345 Clouds 14 1022 44 10000 4.63 160 08:34 20.02.2021
2346 Clouds 12 1022 50 10000 3.6 170 07:55 20.02.2021
2347 Clear 8 1020 57 10000 3.09 110 02:46 20.02.2021
2348 Clear 8 1020 57 10000 3.09 110 02:24 20.02.2021
2349 Clear 8 1021 57 10000 2.57 120 01:48 20.02.2021
2350 Clear 8 1021 61 10000 2.57 110 00:45 20.02.2021
2351 Clear 9 1021 57 10000 2.57 120 23:52 19.02.2021
2352 Clear 10 1021 50 10000 1.54 120 22:56 19.02.2021
2353 Clear 10 1021 50 10000 1.54 120 22:27 19.02.2021
2354 Clear 10 1022 50 10000 2.06 120 21:54 19.02.2021
2355 Clear 10 1022 50 10000 2.06 120 21:31 19.02.2021
2356 Clear 10 1022 50 10000 1.54 140 20:48 19.02.2021
2357 Clear 10 1022 50 10000 1.54 140 20:28 19.02.2021
2358 Clear 12 1022 43 10000 1.54 170 19:55 19.02.2021
2359 Clear 12 1022 43 10000 1.54 170 19:27 19.02.2021
2360 Clear 13 1022 41 10000 2.06 210 18:56 19.02.2021
2361 Clear 13 1022 41 10000 2.06 210 18:33 19.02.2021
2362 Clear 14 1022 35 10000 2.57 220 17:51 19.02.2021
2363 Clear 14 1022 35 10000 2.57 220 17:22 19.02.2021
2364 Clouds 16 1022 31 10000 2.57 230 16:38 19.02.2021
2365 Clouds 16 1022 31 10000 2.57 230 16:18 19.02.2021
2366 Clouds 17 1021 27 10000 4.12 220 15:41 19.02.2021
2367 Clouds 17 1021 27 10000 4.12 220 15:20 19.02.2021
2368 Clouds 18 1021 25 10000 4.12 200 14:38 19.02.2021
2369 Clouds 18 1021 25 10000 4.12 200 14:18 19.02.2021
2370 Clouds 18 1022 27 10000 3.6 130 13:42 19.02.2021
2371 Clouds 18 1022 27 10000 3.6 130 13:24 19.02.2021
2372 Clouds 18 1022 27 10000 4.63 170 12:42 19.02.2021
2373 Clouds 18 1022 27 10000 4.63 170 12:23 19.02.2021
2374 Clouds 17 1023 27 10000 3.6 170 11:51 19.02.2021
2375 Clouds 17 1023 27 10000 3.6 170 11:23 19.02.2021
2376 Clouds 16 1023 36 10000 3.09 180 10:50 19.02.2021
2377 Clouds 16 1023 36 10000 3.09 180 10:22 19.02.2021
2378 Clouds 15 1024 41 10000 2.06 160 09:47 19.02.2021
2379 Clouds 15 1024 41 10000 2.06 160 09:25 19.02.2021
2380 Clouds 13 1024 44 10000 2.06 190 08:50 19.02.2021
2381 Clouds 13 1024 44 10000 2.06 190 08:24 19.02.2021
2382 Haze 12 1024 47 3800 2.57 150 07:48 19.02.2021
2383 Haze 12 1024 47 3800 2.57 150 07:29 19.02.2021
2384 Clear 9 1023 61 4300 2.06 120 06:53 19.02.2021
2385 Clear 7 1023 70 3800 2.06 110 05:28 19.02.2021
2386 Clear 7 1022 65 6000 1.03 120 04:41 19.02.2021
2387 Clear 7 1022 65 6000 1.03 120 04:41 19.02.2021
2388 Clear 6 1022 70 6000 2.41 127 01:47 19.02.2021
2389 Clear 7 1022 61 6000 2.25 131 00:37 19.02.2021
2390 Clear 7 1022 65 10000 0.51 140 23:56 18.02.2021
2391 Clear 7 1022 65 10000 0.51 140 23:35 18.02.2021
2392 Clear 7 1021 61 6000 2.06 170 22:50 18.02.2021
2393 Clear 7 1021 61 6000 2.06 170 22:30 18.02.2021
2394 Clear 8 1021 57 10000 1.73 84 21:52 18.02.2021
2395 Clear 8 1021 57 10000 1.59 49 21:26 18.02.2021
2396 Clear 9 1021 57 10000 1.59 49 20:44 18.02.2021
2397 Clear 9 1021 57 10000 1.74 12 20:24 18.02.2021
2398 Clear 10 1020 53 10000 1.03 350 19:48 18.02.2021
2399 Clear 10 1020 53 10000 1.03 350 19:28 18.02.2021
2400 Clear 11 1019 46 10000 2.57 300 18:55 18.02.2021
2401 Clear 11 1019 46 10000 2.57 300 18:32 18.02.2021
2402 Clear 13 1018 41 10000 1.54 310 17:59 18.02.2021
2403 Clear 13 1018 41 10000 1.54 310 17:41 18.02.2021
2404 Clear 13 1018 41 10000 1.54 310 17:19 18.02.2021
2405 Clear 14 1017 38 9000 2.57 240 16:41 18.02.2021
2406 Clear 14 1017 38 9000 2.57 240 16:22 18.02.2021
2407 Clouds 15 1017 36 10000 5.14 250 15:39 18.02.2021
2408 Clouds 15 1017 36 10000 5.14 250 15:21 18.02.2021
2409 Clear 15 1017 32 10000 5.98 265 14:49 18.02.2021
2410 Clouds 16 1016 31 10000 8.23 230 14:29 18.02.2021
2411 Clouds 16 1016 31 10000 8.23 230 13:46 18.02.2021
2412 Clouds 16 1016 31 10000 8.23 230 13:20 18.02.2021
2413 Clouds 15 1015 33 10000 9.26 220 12:53 18.02.2021
2414 Clouds 15 1015 33 10000 9.26 220 12:25 18.02.2021
2415 Clouds 15 1016 31 10000 7.72 210 11:47 18.02.2021
2416 Clouds 15 1016 31 10000 7.72 210 11:47 18.02.2021
2417 Clouds 15 1016 31 10000 7.72 210 11:27 18.02.2021
2418 Clear 15 1016 31 10000 8.75 210 10:52 18.02.2021
2419 Clear 15 1016 31 10000 8.75 210 10:34 18.02.2021
2420 Clear 14 1017 35 10000 8.23 230 09:51 18.02.2021
2421 Clear 14 1017 35 10000 8.23 230 09:27 18.02.2021
2422 Clear 14 1017 35 10000 6.17 240 08:48 18.02.2021
2423 Clear 14 1017 35 10000 6.17 240 08:29 18.02.2021
2424 Clouds 12 1016 43 7000 5.14 240 07:37 18.02.2021
2425 Dust 11 1016 43 2600 4.12 260 06:59 18.02.2021
2426 Dust 11 1014 43 4100 3.6 250 04:48 18.02.2021
2427 Clear 13 1013 38 10000 3.09 280 23:57 17.02.2021
2428 Clear 13 1013 38 10000 3.09 280 23:38 17.02.2021
2429 Clear 13 1012 44 10000 1.54 250 22:56 17.02.2021
2430 Clear 13 1012 44 10000 1.54 250 22:38 17.02.2021
2431 Clear 13 1012 44 10000 1.54 250 22:18 17.02.2021
2432 Clear 13 1012 44 10000 3.09 270 21:41 17.02.2021
2433 Clear 13 1012 44 10000 3.09 270 21:19 17.02.2021
2434 Clear 14 1012 41 10000 3.6 230 20:40 17.02.2021
2435 Clouds 15 1011 41 7000 2.06 230 19:56 17.02.2021
2436 Clouds 15 1011 41 7000 2.06 230 19:36 17.02.2021
2437 Clouds 16 1010 41 7000 2.57 210 18:57 17.02.2021
2438 Clouds 16 1010 41 7000 2.57 210 18:34 17.02.2021
2439 Clouds 17 1010 36 8000 2.06 210 17:47 17.02.2021
2440 Clouds 17 1010 36 8000 2.06 210 17:22 17.02.2021
2441 Clouds 18 1009 36 8000 1.54 200 16:52 17.02.2021
2442 Clouds 18 1009 36 8000 1.54 200 16:29 17.02.2021
2443 Clouds 19 1009 32 8000 2.06 230 15:56 17.02.2021
2444 Clouds 19 1009 32 8000 2.06 230 15:37 17.02.2021
2445 Clouds 19 1009 32 8000 2.06 230 15:19 17.02.2021
2446 Clouds 19 1009 37 7000 4.12 230 14:41 17.02.2021
2447 Clouds 19 1009 37 7000 4.12 230 14:23 17.02.2021
2448 Clouds 19 1008 42 8000 3.6 260 13:42 17.02.2021
2449 Clouds 21 1007 30 10000 5.9 263 12:59 17.02.2021
2450 Clouds 19 1008 48 8000 2.57 250 12:26 17.02.2021
2451 Clouds 19 1008 48 8000 2.57 250 11:49 17.02.2021
2452 Clouds 19 1008 48 8000 2.57 250 11:30 17.02.2021
2453 Clouds 18 1008 48 9000 4.63 290 10:58 17.02.2021
2454 Clouds 18 1008 48 9000 4.63 290 10:40 17.02.2021
2455 Clouds 18 1008 48 9000 4.63 290 10:20 17.02.2021
2456 Clouds 18 1008 48 8000 7.2 300 09:40 17.02.2021
2457 Clouds 18 1008 48 8000 7.2 300 09:18 17.02.2021
2458 Clouds 18 1007 48 8000 5.66 290 08:42 17.02.2021
2459 Clouds 18 1007 48 8000 5.66 290 08:20 17.02.2021
2460 Clouds 17 1007 55 8000 6.69 300 07:24 17.02.2021
2461 Clouds 21 1001 40 8000 9.77 150 03:55 17.02.2021
2462 Clouds 22 1001 37 6000 9.26 130 02:33 17.02.2021
2463 Clouds 24 1002 35 5000 6.17 140 01:49 17.02.2021
2464 Clouds 25 1001 33 9000 12.86 140 00:30 17.02.2021
2465 Clouds 26 1001 34 10000 14.92 150 23:50 16.02.2021
2466 Clouds 26 1001 34 10000 14.92 150 23:32 16.02.2021
2467 Clouds 26 1001 29 6000 13.38 160 22:42 16.02.2021
2468 Clouds 23 1001 38 10000 9.26 130 22:22 16.02.2021
2469 Clouds 25 1000 22 10000 11.52 140 21:41 16.02.2021
2470 Clouds 25 1001 23 10000 11.2 137 21:22 16.02.2021
2471 Clouds 25 1001 23 10000 11.2 137 20:58 16.02.2021
2472 Clouds 24 1001 38 10000 11.32 120 20:38 16.02.2021
2473 Clouds 24 1001 38 10000 11.32 120 20:20 16.02.2021
2474 Clouds 24 1001 38 10000 11.32 120 19:40 16.02.2021
2475 Clouds 24 1001 38 10000 11.32 120 19:21 16.02.2021
2476 Clouds 24 1002 41 10000 8.23 120 18:39 16.02.2021
2477 Clouds 24 1002 41 10000 8.23 120 18:21 16.02.2021
2478 Clouds 24 1002 43 10000 7.72 110 17:49 16.02.2021
2479 Clouds 24 1002 43 10000 7.72 110 17:23 16.02.2021
2480 Clouds 24 1003 43 10000 5.14 120 16:51 16.02.2021
2481 Clouds 24 1003 43 10000 5.14 120 16:24 16.02.2021
2482 Clouds 25 1004 38 10000 5.14 130 15:47 16.02.2021
2483 Clouds 25 1004 38 10000 5.14 130 15:47 16.02.2021
2484 Clouds 25 1004 38 10000 5.14 130 15:26 16.02.2021
2485 Clouds 25 1004 41 10000 5.14 130 14:48 16.02.2021
2486 Clouds 25 1004 41 10000 5.14 130 14:30 16.02.2021
2487 Clouds 26 1004 38 10000 7.2 120 13:58 16.02.2021
2488 Clouds 26 1004 38 10000 7.2 120 13:34 16.02.2021
2489 Clouds 28 1004 21 10000 8 140 12:47 16.02.2021
2490 Clouds 26 1005 36 10000 6.17 110 12:25 16.02.2021
2491 Clouds 26 1005 36 10000 6.17 110 11:50 16.02.2021
2492 Clouds 26 1005 36 10000 6.17 110 11:24 16.02.2021
2493 Clear 24 1007 41 10000 5.14 120 10:57 16.02.2021
2494 Clear 24 1007 41 10000 5.14 120 10:38 16.02.2021
2495 Clear 24 1007 41 10000 5.14 120 10:20 16.02.2021
2496 Clear 22 1008 43 10000 5.66 130 09:47 16.02.2021
2497 Clear 22 1008 43 10000 5.66 130 09:26 16.02.2021
2498 Clear 20 1009 49 10000 6.17 130 08:45 16.02.2021
2499 Clear 20 1009 49 10000 6.17 130 08:45 16.02.2021
2500 Clear 20 1009 49 10000 6.17 130 08:22 16.02.2021
2501 Clear 17 1009 55 10000 5.14 120 07:27 16.02.2021
2502 Clear 13 1008 71 10000 3.6 130 05:31 16.02.2021
2503 Clear 16 1008 59 10000 5.14 150 01:21 16.02.2021
2504 Clear 17 1008 55 10000 5.14 140 23:46 15.02.2021
2505 Clear 17 1008 55 10000 5.14 140 23:24 15.02.2021
2506 Clear 18 1009 55 10000 4.63 140 22:44 15.02.2021
2507 Clear 18 1009 55 10000 4.63 140 22:23 15.02.2021
2508 Clear 20 1009 49 10000 5.66 130 21:42 15.02.2021
2509 Clear 20 1009 49 10000 5.66 130 21:22 15.02.2021
2510 Clear 21 1009 46 10000 4.63 110 20:47 15.02.2021
2511 Clear 21 1009 46 10000 4.63 110 20:27 15.02.2021
2512 Clear 22 1010 43 10000 4.63 90 19:48 15.02.2021
2513 Clear 22 1010 43 10000 4.63 90 19:24 15.02.2021
2514 Clear 22 1010 43 10000 3.6 80 18:47 15.02.2021
2515 Clear 22 1010 43 10000 3.6 80 18:26 15.02.2021
2516 Clouds 23 1010 40 10000 3.6 80 17:44 15.02.2021
2517 Clouds 23 1010 40 10000 3.6 80 17:26 15.02.2021
2518 Clouds 23 1010 27 10000 4.16 118 16:57 15.02.2021
2519 Clouds 24 1010 26 10000 3.94 127 16:28 15.02.2021
2520 Clouds 24 1010 26 10000 3.94 127 15:57 15.02.2021
2521 Clouds 24 1010 26 10000 3.94 127 15:38 15.02.2021
2522 Clouds 26 1011 23 10000 4.68 137 15:18 15.02.2021
2523 Clouds 26 1011 23 10000 4.68 137 14:38 15.02.2021
2524 Clouds 27 1011 20 10000 5.73 140 14:19 15.02.2021
2525 Clouds 27 1011 20 10000 5.73 140 13:47 15.02.2021
2526 Clouds 27 1011 20 10000 5.72 133 13:19 15.02.2021
2527 Clouds 27 1011 20 10000 5.72 133 12:45 15.02.2021
2528 Clouds 27 1013 26 10000 6.17 100 12:21 15.02.2021
2529 Clouds 27 1013 26 10000 6.17 100 11:45 15.02.2021
2530 Clouds 27 1013 26 10000 6.17 100 11:22 15.02.2021
2531 Clouds 27 1013 26 10000 6.17 100 11:22 15.02.2021
2532 Clouds 26 1014 25 10000 6.69 100 10:49 15.02.2021
2533 Clouds 26 1014 25 10000 6.69 100 10:25 15.02.2021
2534 Dust 25 1015 27 5000 4.63 100 09:55 15.02.2021
2535 Dust 25 1015 27 5000 4.63 100 09:33 15.02.2021
2536 Haze 23 1016 35 5000 2.57 90 08:50 15.02.2021
2537 Clouds 19 1016 48 5000 1.54 100 07:40 15.02.2021
2538 Haze 11 1016 71 4700 1.54 40 06:59 15.02.2021
2539 Haze 11 1016 71 4700 1.54 40 06:39 15.02.2021
2540 Mist 12 1016 71 4300 1.54 330 02:32 15.02.2021
2541 Clear 13 1017 67 7000 3.38 65 00:46 15.02.2021
2542 Clear 13 1017 67 8000 1.03 20 23:41 14.02.2021
2543 Clear 13 1017 67 8000 1.03 20 23:22 14.02.2021
2544 Clear 14 1017 62 10000 0.51 0 22:38 14.02.2021
2545 Clear 14 1017 62 10000 0.51 0 22:19 14.02.2021
2546 Clear 15 1017 58 10000 1.03 0 21:47 14.02.2021
2547 Clear 15 1017 58 10000 1.03 0 21:28 14.02.2021
2548 Clear 17 1018 51 8000 0.51 200 20:44 14.02.2021
2549 Clear 17 1018 51 8000 0.51 200 20:26 14.02.2021
2550 Clear 18 1018 45 10000 1.03 60 19:47 14.02.2021
2551 Clear 20 1018 45 10000 1.03 70 18:52 14.02.2021
2552 Clear 20 1018 45 10000 1.03 70 18:34 14.02.2021
2553 Clear 21 1017 37 10000 2.06 30 17:56 14.02.2021
2554 Clear 21 1017 37 10000 2.06 30 17:35 14.02.2021
2555 Clear 23 1017 35 10000 2.06 30 16:52 14.02.2021
2556 Clear 23 1017 35 10000 2.06 30 16:27 14.02.2021
2557 Clear 22 1017 27 10000 1.36 33 15:49 14.02.2021
2558 Clear 22 1017 27 10000 1.36 33 15:30 14.02.2021
2559 Clear 24 1017 25 10000 1.17 20 14:48 14.02.2021
2560 Clear 25 1017 20 10000 1.27 17 14:26 14.02.2021
2561 Clear 25 1017 20 10000 1.27 17 13:48 14.02.2021
2562 Clear 25 1017 20 10000 1.25 4 13:27 14.02.2021
2563 Clear 25 1019 31 10000 3.09 40 12:38 14.02.2021
2564 Clear 25 1019 31 10000 3.09 40 12:19 14.02.2021
2565 Clear 25 1019 31 10000 3.09 40 11:49 14.02.2021
2566 Clear 25 1019 31 10000 3.09 40 11:21 14.02.2021
2567 Clear 24 1020 31 10000 2.57 360 10:35 14.02.2021
2568 Clear 23 1020 35 10000 2.06 10 09:55 14.02.2021
2569 Clear 20 1021 49 6000 2.06 360 09:37 14.02.2021
2570 Clear 20 1021 49 6000 2.06 360 09:19 14.02.2021
2571 Clear 17 1021 59 7000 1.54 320 08:25 14.02.2021
2572 Clear 17 1021 59 7000 1.54 320 07:54 14.02.2021
2573 Clear 12 1021 71 8000 2.06 310 06:37 14.02.2021
2574 Clear 10 1020 76 10000 2.57 340 04:52 14.02.2021
2575 Clear 10 1020 81 10000 2.57 330 03:23 14.02.2021
2576 Clear 12 1020 71 8000 1.03 330 01:33 14.02.2021
2577 Clear 12 1020 76 7000 1.03 310 00:45 14.02.2021
2578 Clear 13 1020 71 7000 2.06 290 23:58 13.02.2021
2579 Clear 13 1020 71 7000 2.06 290 23:37 13.02.2021
2580 Clear 13 1020 71 7000 2.06 290 23:19 13.02.2021
2581 Clear 14 1020 72 9000 2.06 330 22:32 13.02.2021
2582 Clear 18 1019 37 10000 1.98 343 21:50 13.02.2021
2583 Clear 15 1019 67 10000 0.51 300 21:27 13.02.2021
2584 Clear 15 1019 67 10000 0.51 300 20:45 13.02.2021
2585 Clear 15 1019 67 10000 0.51 300 20:27 13.02.2021
2586 Clear 17 1019 63 10000 1.03 10 19:48 13.02.2021
2587 Clear 17 1019 63 10000 1.03 10 19:48 13.02.2021
2588 Clear 17 1019 63 10000 1.03 10 19:24 13.02.2021
2589 Clear 19 1018 36 10000 1.02 347 18:50 13.02.2021
2590 Clear 19 1018 52 10000 1.03 290 18:28 13.02.2021
2591 Clear 19 1018 52 10000 1.03 290 17:44 13.02.2021
2592 Clear 19 1018 52 10000 1.03 290 17:25 13.02.2021
2593 Clear 21 1018 46 10000 2.06 270 16:53 13.02.2021
2594 Clear 21 1018 46 10000 2.06 270 16:35 13.02.2021
2595 Clear 21 1017 31 10000 1.31 50 15:45 13.02.2021
2596 Clear 24 1017 33 10000 1.03 0 15:26 13.02.2021
2597 Clear 24 1017 33 10000 1.03 0 15:26 13.02.2021
2598 Clear 24 1017 33 10000 1.03 0 14:41 13.02.2021
2599 Clear 23 1017 23 10000 1.87 30 13:50 13.02.2021
2600 Clear 23 1017 35 10000 2.57 230 13:28 13.02.2021
2601 Clear 23 1017 35 10000 2.57 230 12:57 13.02.2021
2602 Clear 23 1017 35 10000 2.57 230 12:21 13.02.2021
2603 Clear 23 1017 35 10000 1.03 0 11:58 13.02.2021
2604 Clear 23 1017 35 10000 1.03 0 11:39 13.02.2021
2605 Clear 23 1017 35 10000 1.03 0 11:18 13.02.2021
2606 Clear 22 1018 37 10000 1.03 0 10:43 13.02.2021
2607 Clear 22 1018 37 10000 1.03 0 10:43 13.02.2021
2608 Clear 22 1018 37 10000 1.03 0 10:22 13.02.2021
2609 Clear 21 1018 43 10000 0.51 0 09:46 13.02.2021
2610 Clear 21 1018 43 10000 0.51 0 09:28 13.02.2021
2611 Clear 18 1018 52 10000 1.54 120 08:47 13.02.2021
2612 Clear 18 1018 52 10000 1.54 120 08:18 13.02.2021
2613 Clear 15 1018 58 10000 1.03 0 07:23 13.02.2021
2614 Clear 11 1017 76 10000 2.06 180 06:24 13.02.2021
2615 Clear 10 1016 76 10000 1.03 0 04:31 13.02.2021
2616 Haze 10 1015 81 4600 1.03 80 02:41 13.02.2021
2617 Clear 11 1015 71 10000 1.54 90 00:54 13.02.2021
2618 Clear 11 1015 71 10000 1.54 90 00:54 13.02.2021
2619 Clear 11 1015 71 10000 1.54 90 00:18 13.02.2021
2620 Clear 13 1015 67 10000 1.54 160 23:45 12.02.2021
2621 Clear 13 1015 67 10000 1.54 160 23:18 12.02.2021
2622 Clear 12 1015 76 10000 1.03 50 22:32 12.02.2021
2623 Clear 13 1015 62 10000 1.96 293 21:58 12.02.2021
2624 Clear 13 1015 62 10000 1.96 293 21:58 12.02.2021
2625 Clear 13 1015 62 10000 1.96 293 21:39 12.02.2021
2626 Clear 13 1015 62 10000 2.45 289 21:21 12.02.2021
2627 Clear 14 1015 58 10000 0.51 260 20:40 12.02.2021
2628 Clear 14 1015 58 10000 0.51 260 20:21 12.02.2021
2629 Clear 15 1015 58 10000 1.54 250 19:49 12.02.2021
2630 Clear 15 1015 58 10000 1.54 250 19:28 12.02.2021
2631 Clear 17 1015 51 10000 1.03 280 18:35 12.02.2021
2632 Clear 19 1015 45 10000 2.06 280 17:54 12.02.2021
2633 Clear 19 1015 45 10000 2.06 280 17:35 12.02.2021
2634 Clear 20 1015 42 10000 1.54 330 16:44 12.02.2021
2635 Clear 20 1015 42 10000 1.54 330 16:18 12.02.2021
2636 Clear 22 1015 37 10000 4.12 310 15:41 12.02.2021
2637 Clear 22 1015 37 10000 4.12 310 15:19 12.02.2021
2638 Clear 23 1015 35 10000 3.6 310 14:34 12.02.2021
2639 Clear 23 1015 33 10000 4.12 280 13:49 12.02.2021
2640 Clear 23 1015 33 10000 4.12 280 13:29 12.02.2021
2641 Clear 23 1015 35 10000 4.12 270 12:53 12.02.2021
2642 Clear 23 1015 35 10000 4.12 270 12:35 12.02.2021
2643 Clear 22 1016 37 10000 3.6 290 11:47 12.02.2021
2644 Clear 22 1016 37 10000 3.6 290 11:21 12.02.2021
2645 Clear 21 1017 43 10000 4.12 300 10:48 12.02.2021
2646 Clear 20 1018 49 10000 2.57 290 09:59 12.02.2021
2647 Clear 20 1018 49 10000 2.57 290 09:39 12.02.2021
2648 Clear 20 1018 49 10000 2.57 290 09:21 12.02.2021
2649 Clear 17 1018 59 10000 2.57 280 08:44 12.02.2021
2650 Clear 17 1018 59 10000 2.57 280 08:21 12.02.2021
2651 Clear 19 1017 37 10000 3.61 319 07:51 12.02.2021
2652 Clear 19 1017 37 10000 3.61 319 07:51 12.02.2021
2653 Clear 11 1018 82 7000 1.03 310 07:21 12.02.2021
2654 Clear 11 1018 82 7000 1.03 310 06:49 12.02.2021
2655 Clear 8 1017 100 5000 1.03 260 05:29 12.02.2021
2656 Clear 11 1017 82 10000 1.54 260 03:32 12.02.2021
2657 Clear 11 1017 82 10000 2.06 290 00:32 12.02.2021
2658 Clear 12 1017 82 10000 2.06 290 23:38 11.02.2021
2659 Clear 12 1017 82 10000 2.06 290 23:18 11.02.2021
2660 Clear 13 1018 82 10000 2.57 330 22:42 11.02.2021
2661 Clear 13 1018 82 10000 2.57 330 22:22 11.02.2021
2662 Clear 13 1018 88 10000 1.54 340 21:43 11.02.2021
2663 Clear 13 1018 88 10000 1.54 340 21:24 11.02.2021
2664 Clear 14 1018 82 10000 1.54 290 20:54 11.02.2021
2665 Clear 14 1018 82 10000 1.54 290 20:36 11.02.2021
2666 Clear 14 1018 82 10000 1.54 290 20:18 11.02.2021
2667 Clear 15 1018 77 10000 2.06 300 19:45 11.02.2021
2668 Clear 15 1018 77 10000 2.06 300 19:23 11.02.2021
2669 Clear 17 1018 72 10000 3.09 300 18:37 11.02.2021
2670 Clear 17 1018 72 10000 3.09 300 18:18 11.02.2021
2671 Clear 18 1018 68 10000 3.09 290 17:39 11.02.2021
2672 Clear 18 1018 68 10000 3.09 290 17:19 11.02.2021
2673 Clear 20 1017 60 10000 3.6 290 16:42 11.02.2021
2674 Clear 20 1017 60 10000 3.6 290 16:24 11.02.2021
2675 Clear 22 1017 49 10000 4.63 300 15:45 11.02.2021
2676 Clear 22 1017 49 10000 4.63 300 15:26 11.02.2021
2677 Clear 23 1017 53 10000 4.63 300 14:53 11.02.2021
2678 Clear 23 1017 53 10000 4.63 300 14:31 11.02.2021
2679 Clear 23 1017 49 10000 3.6 300 13:42 11.02.2021
2680 Clear 23 1017 49 10000 3.6 300 13:20 11.02.2021
2681 Clear 23 1017 46 10000 3.09 310 12:56 11.02.2021
2682 Clear 23 1017 46 10000 3.09 310 12:32 11.02.2021
2683 Clear 22 1018 49 10000 1.54 260 11:47 11.02.2021
2684 Clear 22 1018 49 10000 1.54 260 11:27 11.02.2021
2685 Clear 21 1019 49 6000 1.54 280 10:45 11.02.2021
2686 Clear 21 1019 49 6000 1.54 280 10:26 11.02.2021
2687 Clear 19 1019 55 8000 2.06 290 09:56 11.02.2021
2688 Clear 19 1019 55 8000 2.06 290 09:26 11.02.2021
2689 Clear 17 1019 59 10000 0.51 0 08:55 11.02.2021
2690 Clear 17 1019 59 10000 0.51 0 08:31 11.02.2021
2691 Clear 15 1019 72 3700 1.54 140 07:42 11.02.2021
2692 Clear 11 1018 87 4100 2.06 120 06:43 11.02.2021
2693 Clear 9 1018 93 7000 0.51 0 05:54 11.02.2021
2694 Clear 10 1017 93 10000 1.03 90 02:49 11.02.2021
2695 Clear 10 1017 93 10000 1.03 90 02:21 11.02.2021
2696 Clear 10 1017 81 10000 1.03 100 00:23 11.02.2021
2697 Clear 12 1017 82 10000 0.51 0 23:47 10.02.2021
2698 Clear 12 1017 82 10000 0.51 0 23:18 10.02.2021
2699 Clear 12 1017 82 10000 1.54 110 22:42 10.02.2021
2700 Clear 12 1017 82 10000 1.54 110 22:19 10.02.2021
2701 Clear 14 1018 67 10000 0.51 220 21:39 10.02.2021
2702 Clear 14 1018 67 10000 0.51 220 21:20 10.02.2021
2703 Clear 14 1018 67 10000 0.51 220 20:47 10.02.2021
2704 Clear 14 1018 67 10000 0.51 220 20:24 10.02.2021
2705 Clear 16 1017 59 10000 1.03 150 19:48 10.02.2021
2706 Clear 16 1017 59 10000 1.03 150 19:27 10.02.2021
2707 Clear 16 1017 63 10000 2.57 150 18:47 10.02.2021
2708 Clear 16 1017 63 10000 2.57 150 18:26 10.02.2021
2709 Clear 18 1018 55 10000 3.09 160 17:57 10.02.2021
2710 Clear 18 1018 55 10000 3.09 160 17:26 10.02.2021
2711 Clear 20 1018 49 10000 3.09 150 16:57 10.02.2021
2712 Clear 20 1018 49 10000 3.09 150 16:38 10.02.2021
2713 Clear 20 1018 49 10000 3.09 150 16:19 10.02.2021
2714 Clear 22 1018 46 10000 2.06 180 15:24 10.02.2021
2715 Clear 22 1018 40 10000 2.06 190 14:52 10.02.2021
2716 Clear 22 1018 40 10000 2.06 190 14:34 10.02.2021
2717 Clear 23 1019 38 10000 2.06 230 13:54 10.02.2021
2718 Clear 23 1019 38 10000 2.06 230 13:30 10.02.2021
2719 Clear 23 1019 38 10000 1.54 250 12:53 10.02.2021
2720 Clear 23 1019 38 10000 1.54 250 12:30 10.02.2021
2721 Clear 22 1020 37 10000 2.57 240 11:58 10.02.2021
2722 Clear 22 1020 37 10000 2.57 240 11:39 10.02.2021
2723 Clear 22 1020 37 10000 2.57 240 11:21 10.02.2021
2724 Clear 22 1021 43 10000 2.57 260 10:24 10.02.2021
2725 Clear 20 1022 52 10000 3.09 290 09:56 10.02.2021
2726 Clear 20 1022 52 10000 3.09 290 09:33 10.02.2021
2727 Clear 19 1022 59 10000 1.54 310 08:56 10.02.2021
2728 Clear 19 1022 59 10000 1.54 310 08:35 10.02.2021
2729 Mist 15 1022 82 3400 1.03 0 07:39 10.02.2021
2730 Mist 11 1022 93 1900 1.03 0 06:22 10.02.2021
2731 Mist 11 1022 93 4300 1.54 360 01:37 10.02.2021
2732 Clouds 11 1022 93 5000 1.54 340 00:23 10.02.2021
2733 Clouds 12 1023 94 6000 0.51 0 23:34 09.02.2021
2734 Clouds 13 1023 88 8000 1.54 340 22:53 09.02.2021
2735 Clouds 13 1023 88 8000 1.54 340 22:24 09.02.2021
2736 Clear 14 1023 77 10000 2.06 340 21:52 09.02.2021
2737 Clear 14 1023 77 10000 2.18 328 21:27 09.02.2021
2738 Clear 14 1023 82 10000 1.03 350 20:46 09.02.2021
2739 Clear 14 1023 82 10000 1.03 350 20:26 09.02.2021
2740 Clear 16 1023 67 10000 1.03 220 19:53 09.02.2021
2741 Clear 16 1023 67 10000 1.03 220 19:30 09.02.2021
2742 Clear 18 1023 63 10000 1.54 170 18:58 09.02.2021
2743 Clear 18 1023 63 10000 1.54 170 18:36 09.02.2021
2744 Clear 19 1023 59 10000 2.57 170 17:57 09.02.2021
2745 Clear 19 1023 59 10000 2.57 170 17:36 09.02.2021
2746 Clear 19 1023 59 10000 2.57 170 17:18 09.02.2021
2747 Clear 20 1023 52 10000 2.06 180 16:39 09.02.2021
2748 Clear 20 1023 52 10000 2.06 180 16:18 09.02.2021
2749 Clear 21 1024 49 10000 0.51 0 15:47 09.02.2021
2750 Clear 21 1024 49 10000 0.51 0 15:24 09.02.2021
2751 Clear 22 1024 46 10000 1.03 0 14:49 09.02.2021
2752 Clear 22 1024 46 10000 1.03 0 14:26 09.02.2021
2753 Clear 22 1024 46 10000 2.57 290 13:45 09.02.2021
2754 Clear 22 1024 46 10000 2.57 290 13:21 09.02.2021
2755 Clear 21 1024 49 10000 2.57 260 12:48 09.02.2021
2756 Clear 21 1024 49 10000 2.57 260 12:30 09.02.2021
2757 Clear 21 1025 52 10000 2.06 280 11:54 09.02.2021
2758 Clear 21 1025 52 10000 2.06 280 11:36 09.02.2021
2759 Clear 21 1025 52 10000 2.06 280 11:18 09.02.2021
2760 Clear 19 1026 59 10000 2.06 230 10:41 09.02.2021
2761 Clear 19 1026 59 10000 2.06 230 10:18 09.02.2021
2762 Clear 19 1027 59 10000 1.03 0 09:42 09.02.2021
2763 Clear 19 1027 59 10000 1.03 0 09:23 09.02.2021
2764 Clear 17 1027 63 10000 1.54 200 08:37 09.02.2021
2765 Clear 17 1027 63 10000 1.54 200 08:18 09.02.2021
2766 Mist 10 1026 93 2700 1.54 260 05:55 09.02.2021
2767 Mist 10 1025 93 5000 1.54 290 03:50 09.02.2021
2768 Mist 10 1025 93 3900 1.54 310 02:27 09.02.2021
2769 Clouds 11 1025 93 6000 3.04 331 00:32 09.02.2021
2770 Clouds 11 1026 93 7000 0.51 290 23:54 08.02.2021
2771 Clear 11 1026 93 7000 0.51 290 23:20 08.02.2021
2772 Clear 12 1026 94 9000 1.03 0 22:43 08.02.2021
2773 Clear 12 1026 94 9000 1.03 0 22:23 08.02.2021
2774 Clear 13 1026 82 10000 1.03 260 21:54 08.02.2021
2775 Clear 13 1026 82 10000 1.03 260 21:31 08.02.2021
2776 Clear 13 1026 88 10000 1.03 260 20:59 08.02.2021
2777 Clear 13 1026 88 10000 1.03 260 20:38 08.02.2021
2778 Clear 13 1026 88 10000 1.03 260 20:19 08.02.2021
2779 Clear 15 1026 77 10000 1.03 180 19:42 08.02.2021
2780 Clear 15 1026 77 10000 1.03 180 19:22 08.02.2021
2781 Clear 16 1026 72 10000 0.51 0 18:46 08.02.2021
2782 Clear 16 1026 72 10000 0.51 0 18:19 08.02.2021
2783 Clear 18 1025 63 10000 0.51 0 17:44 08.02.2021
2784 Clear 18 1025 63 10000 0.51 0 17:24 08.02.2021
2785 Clear 19 1025 59 10000 2.06 330 16:43 08.02.2021
2786 Clear 19 1025 59 10000 2.06 330 16:21 08.02.2021
2787 Clear 19 1025 42 10000 2.49 309 15:43 08.02.2021
2788 Clear 21 1025 49 10000 2.57 310 15:20 08.02.2021
2789 Clear 21 1025 49 10000 2.57 310 14:52 08.02.2021
2790 Clear 21 1025 49 10000 2.57 310 14:31 08.02.2021
2791 Clear 22 1025 46 10000 2.06 270 13:57 08.02.2021
2792 Clear 22 1025 46 10000 2.06 270 13:33 08.02.2021
2793 Clear 21 1025 46 10000 2.06 0 12:55 08.02.2021
2794 Clear 21 1025 46 10000 2.06 0 12:36 08.02.2021
2795 Clear 21 1026 52 10000 2.57 250 11:48 08.02.2021
2796 Clear 21 1026 52 10000 2.57 250 11:22 08.02.2021
2797 Clear 19 1026 59 10000 2.06 240 10:45 08.02.2021
2798 Clear 19 1026 59 10000 2.06 240 10:24 08.02.2021
2799 Clear 18 1027 63 10000 1.54 260 09:53 08.02.2021
2800 Clear 18 1027 63 10000 1.54 260 09:35 08.02.2021
2801 Clear 15 1026 72 10000 1.03 0 08:47 08.02.2021
2802 Clear 15 1026 72 10000 1.03 0 08:21 08.02.2021
2803 Clear 13 1026 82 10000 1.54 210 07:34 08.02.2021
2804 Mist 10 1025 93 1700 1.03 180 06:25 08.02.2021
2805 Clear 11 1023 93 9000 1.03 0 02:29 08.02.2021
2806 Clear 12 1023 94 10000 1.03 0 01:47 08.02.2021
2807 Clear 11 1023 93 8000 1.54 250 00:21 08.02.2021
2808 Clear 12 1023 94 6000 1.03 0 23:49 07.02.2021
2809 Clear 12 1023 94 6000 1.03 0 23:20 07.02.2021
2810 Clear 12 1022 100 8000 1.03 0 22:45 07.02.2021
2811 Clear 12 1022 100 8000 1.03 0 22:26 07.02.2021
2812 Clear 13 1023 94 10000 0.51 0 21:53 07.02.2021
2813 Clear 13 1023 94 10000 0.51 0 21:28 07.02.2021
2814 Clear 14 1022 88 10000 1.03 260 20:56 07.02.2021
2815 Clear 14 1022 88 10000 1.03 260 20:35 07.02.2021
2816 Clear 15 1022 82 10000 1.54 280 19:55 07.02.2021
2817 Clear 15 1022 82 10000 1.54 280 19:31 07.02.2021
2818 Clear 16 1021 77 10000 2.57 280 18:57 07.02.2021
2819 Clear 16 1021 77 10000 2.57 280 18:37 07.02.2021
2820 Clear 16 1021 77 10000 2.57 280 18:18 07.02.2021
2821 Clear 16 1020 77 10000 2.06 250 17:44 07.02.2021
2822 Clear 16 1020 77 10000 2.06 250 17:20 07.02.2021
2823 Clouds 17 1020 72 10000 2.57 310 16:48 07.02.2021
2824 Clouds 17 1020 72 10000 2.57 310 16:29 07.02.2021
2825 Clouds 19 1020 63 10000 3.09 320 15:58 07.02.2021
2826 Clouds 19 1020 63 10000 3.09 320 15:40 07.02.2021
2827 Clouds 19 1020 63 10000 3.09 320 15:21 07.02.2021
2828 Clouds 19 1019 63 10000 3.09 340 14:39 07.02.2021
2829 Clouds 19 1019 63 10000 3.09 340 14:21 07.02.2021
2830 Clouds 19 1019 63 10000 3.6 340 13:36 07.02.2021
2831 Clouds 20 1018 54 10000 3.67 318 12:59 07.02.2021
2832 Clouds 18 1018 68 10000 2.57 10 12:38 07.02.2021
2833 Clouds 18 1018 68 10000 2.57 10 12:19 07.02.2021
2834 Clouds 18 1018 68 10000 2.57 10 11:39 07.02.2021
2835 Clouds 18 1018 68 10000 2.57 10 11:18 07.02.2021
2836 Clouds 17 1019 77 10000 3.09 330 10:29 07.02.2021
2837 Clouds 16 1019 82 10000 2.57 330 09:51 07.02.2021
2838 Clouds 16 1019 82 10000 2.57 330 09:25 07.02.2021
2839 Clouds 16 1019 82 10000 3.09 360 08:50 07.02.2021
2840 Clouds 13 1018 100 10000 3.09 330 07:56 07.02.2021
2841 Clouds 13 1018 94 10000 3.09 330 06:25 07.02.2021
2842 Clouds 12 1016 100 10000 2.57 360 04:36 07.02.2021
2843 Clouds 13 1015 94 10000 3.6 350 02:31 07.02.2021
2844 Clouds 13 1015 100 10000 4.12 360 00:38 07.02.2021
2845 Clouds 13 1014 100 10000 4.63 10 23:51 06.02.2021
2846 Mist 14 1014 94 5000 4.12 360 22:54 06.02.2021
2847 Mist 14 1014 94 5000 4.12 360 22:19 06.02.2021
2848 Drizzle 14 1014 94 5000 4.12 360 21:37 06.02.2021
2849 Drizzle 14 1014 94 5000 4.12 360 21:19 06.02.2021
2850 Clouds 14 1014 94 5000 4.12 10 20:43 06.02.2021
2851 Clouds 14 1014 94 5000 4.12 10 20:22 06.02.2021
2852 Mist 14 1014 94 6000 2.06 10 19:45 06.02.2021
2853 Clouds 14 1014 94 5000 3.09 30 19:23 06.02.2021
2854 Mist 14 1014 94 5000 2.57 20 18:44 06.02.2021
2855 Clouds 14 1014 94 6000 4.63 20 18:24 06.02.2021
2856 Clouds 14 1014 94 6000 4.12 10 17:41 06.02.2021
2857 Clouds 14 1014 94 6000 5.14 30 17:21 06.02.2021
2858 Mist 14 1014 94 7000 6.17 20 16:52 06.02.2021
2859 Clouds 15 1013 94 6000 4.63 40 16:30 06.02.2021
2860 Clouds 15 1013 94 5000 4.12 50 15:53 06.02.2021
2861 Clouds 16 1013 77 8000 3.6 50 15:34 06.02.2021
2862 Clouds 16 1013 82 8000 3.09 50 14:59 06.02.2021
2863 Clouds 16 1013 82 8000 3.09 50 14:39 06.02.2021
2864 Clouds 16 1013 82 8000 3.09 50 14:21 06.02.2021
2865 Clouds 16 1013 88 9000 2.06 30 13:44 06.02.2021
2866 Clouds 16 1013 94 9000 2.06 90 12:41 06.02.2021
2867 Clouds 15 1013 100 9000 3.09 100 12:20 06.02.2021
2868 Clouds 15 1013 94 5000 4.12 120 11:40 06.02.2021
2869 Clouds 15 1013 94 5000 4.12 120 11:20 06.02.2021
2870 Clouds 14 1014 100 7000 4.12 120 10:52 06.02.2021
2871 Clouds 14 1014 100 7000 4.12 120 10:26 06.02.2021
2872 Clouds 14 1015 94 5000 4.12 120 09:38 06.02.2021
2873 Clouds 14 1014 100 9000 5.14 100 09:19 06.02.2021
2874 Clouds 14 1015 94 4300 4.63 100 08:59 06.02.2021
2875 Clouds 14 1015 88 9000 4.12 80 08:29 06.02.2021
2876 Clouds 14 1014 94 7000 3.09 40 07:20 06.02.2021
2877 Clouds 14 1014 94 9000 3.6 70 05:42 06.02.2021
2878 Clouds 13 1014 100 7000 2.06 20 02:52 06.02.2021
2879 Clouds 13 1014 94 10000 1.54 120 00:59 06.02.2021
2880 Clouds 13 1014 94 10000 1.54 120 00:41 06.02.2021
2881 Clouds 13 1014 94 10000 1.54 120 00:18 06.02.2021
2882 Clouds 14 1015 77 10000 2.57 80 23:35 05.02.2021
2883 Clouds 14 1015 77 10000 2.57 80 23:35 05.02.2021
2884 Clouds 14 1015 77 10000 2.57 80 23:35 05.02.2021
2885 Clouds 14 1015 77 10000 2.57 80 23:35 05.02.2021
2886 Clouds 14 1015 77 10000 3.6 90 22:57 05.02.2021
2887 Clouds 14 1015 77 10000 3.6 90 22:29 05.02.2021
2888 Clouds 14 1015 77 10000 2.57 100 21:59 05.02.2021
2889 Clouds 14 1015 77 10000 2.57 100 21:40 05.02.2021
2890 Clouds 13 1015 76 10000 1.03 0 20:58 05.02.2021
2891 Clouds 13 1015 76 10000 1.03 0 20:37 05.02.2021
2892 Clouds 13 1015 76 10000 1.03 0 19:48 05.02.2021
2893 Clouds 13 1015 76 10000 1.03 0 19:19 05.02.2021
2894 Clouds 13 1014 76 10000 3.09 110 18:43 05.02.2021
2895 Clouds 13 1014 76 10000 3.09 110 18:19 05.02.2021
2896 Clouds 13 1014 76 10000 6.69 130 17:42 05.02.2021
2897 Clouds 13 1014 76 10000 6.69 130 17:21 05.02.2021
2898 Clouds 13 1014 82 10000 6.17 130 16:44 05.02.2021
2899 Clouds 13 1014 82 10000 6.17 130 16:23 05.02.2021
2900 Clouds 14 1013 94 2100 5.66 100 15:53 05.02.2021
2901 Clouds 14 1013 94 2100 5.66 100 15:26 05.02.2021
2902 Clouds 15 1012 82 7000 4.63 110 14:40 05.02.2021
2903 Clouds 15 1012 82 7000 4.63 110 14:22 05.02.2021
2904 Clouds 15 1012 77 7000 7.2 120 13:57 05.02.2021
2905 Clouds 15 1012 77 7000 7.2 120 13:33 05.02.2021
2906 Clouds 15 1012 72 8000 9.77 110 12:47 05.02.2021
2907 Clouds 15 1012 72 8000 9.77 110 12:27 05.02.2021
2908 Clouds 15 1013 67 8000 12.35 130 11:40 05.02.2021
2909 Clouds 15 1013 67 8000 12.35 130 11:21 05.02.2021
2910 Clouds 18 1011 45 9000 9.77 120 10:54 05.02.2021
2911 Clouds 18 1011 45 9000 9.77 120 10:27 05.02.2021
2912 Clouds 18 1011 45 10000 8.23 100 09:47 05.02.2021
2913 Clouds 18 1011 45 10000 8.23 100 09:27 05.02.2021
2914 Clouds 17 1012 51 10000 9.77 90 08:52 05.02.2021
2915 Clouds 17 1012 51 10000 9.77 90 08:20 05.02.2021
2916 Clouds 16 1014 59 10000 5.14 90 07:36 05.02.2021
2917 Clouds 16 1014 59 10000 3.6 40 06:49 05.02.2021
2918 Clouds 16 1014 63 10000 5.14 50 05:37 05.02.2021
2919 Clouds 15 1015 63 10000 4.12 40 02:52 05.02.2021
2920 Clouds 15 1015 63 10000 4.12 40 02:24 05.02.2021
2921 Clouds 15 1015 63 10000 5.66 30 00:40 05.02.2021
2922 Clouds 15 1015 63 10000 5.66 30 00:20 05.02.2021
2923 Clouds 14 1016 67 9000 2.57 30 23:55 04.02.2021
2924 Clouds 14 1016 67 9000 2.57 30 23:37 04.02.2021
2925 Clouds 14 1016 67 9000 2.57 30 23:19 04.02.2021
2926 Clouds 15 1016 63 10000 4.63 360 22:49 04.02.2021
2927 Clouds 15 1016 63 10000 4.63 360 22:25 04.02.2021
2928 Clouds 15 1017 58 10000 3.6 10 21:42 04.02.2021
2929 Clouds 15 1017 58 10000 3.6 10 21:19 04.02.2021
2930 Clouds 15 1016 63 7000 3.09 10 20:48 04.02.2021
2931 Clouds 15 1016 63 7000 3.09 10 20:29 04.02.2021
2932 Clouds 14 1018 72 7000 3.6 330 19:43 04.02.2021
2933 Clouds 14 1018 72 5000 4.12 300 18:57 04.02.2021
2934 Clouds 14 1018 72 5000 4.12 300 18:26 04.02.2021
2935 Haze 16 1016 55 4400 2.57 330 17:53 04.02.2021
2936 Haze 16 1016 55 4400 2.57 330 17:27 04.02.2021
2937 Haze 16 1015 55 3300 2.57 350 16:56 04.02.2021
2938 Haze 16 1015 55 3300 2.57 350 16:38 04.02.2021
2939 Haze 16 1015 55 3300 2.57 350 16:18 04.02.2021
2940 Haze 17 1016 51 2500 2.57 340 15:39 04.02.2021
2941 Haze 17 1016 51 2500 2.57 340 15:20 04.02.2021
2942 Clouds 17 1015 51 10000 2.06 20 14:47 04.02.2021
2943 Clouds 17 1015 51 10000 2.06 20 14:20 04.02.2021
2944 Clouds 18 1017 45 9000 2.57 180 13:45 04.02.2021
2945 Clouds 18 1017 45 9000 2.57 180 13:25 04.02.2021
2946 Haze 19 1016 39 9000 1.54 110 12:54 04.02.2021
2947 Haze 18 1017 39 7000 3.09 100 11:57 04.02.2021
2948 Haze 18 1017 39 7000 3.09 100 11:37 04.02.2021
2949 Haze 18 1017 39 7000 3.09 100 11:18 04.02.2021
2950 Haze 18 1018 39 3700 3.6 100 10:34 04.02.2021
2951 Haze 17 1018 42 3300 2.06 90 09:45 04.02.2021
2952 Haze 17 1018 42 3300 2.06 90 09:22 04.02.2021
2953 Haze 16 1019 51 3800 1.54 100 08:51 04.02.2021
2954 Haze 16 1019 51 3800 1.54 100 08:26 04.02.2021
2955 Haze 13 1019 62 3800 0.51 0 07:56 04.02.2021
2956 Haze 13 1019 62 3800 0.51 0 07:33 04.02.2021
2957 Haze 11 1018 66 4100 1.03 360 06:45 04.02.2021
2958 Haze 9 1018 71 4500 1.54 320 05:52 04.02.2021
2959 Clear 10 1018 71 8000 1.54 320 02:40 04.02.2021
2960 Clear 10 1018 71 8000 1.54 320 02:21 04.02.2021
2961 Clouds 10 1018 66 8000 2.06 330 00:24 04.02.2021
2962 Clouds 11 1018 66 8000 1.54 320 23:34 03.02.2021
2963 Clouds 12 1019 62 8000 1.03 280 22:40 03.02.2021
2964 Clear 12 1019 62 8000 1.03 280 22:21 03.02.2021
2965 Clear 12 1019 62 9000 2.06 330 21:55 03.02.2021
2966 Clear 12 1019 62 9000 2.06 330 21:25 03.02.2021
2967 Clear 13 1019 58 8000 0.63 38 20:57 03.02.2021
2968 Clear 13 1019 58 8000 0.63 38 20:36 03.02.2021
2969 Clear 14 1019 58 10000 1.03 320 19:57 03.02.2021
2970 Clear 14 1019 58 10000 1.03 320 19:28 03.02.2021
2971 Clouds 14 1019 54 8000 2.06 310 18:59 03.02.2021
2972 Clouds 14 1019 54 8000 2.06 310 18:39 03.02.2021
2973 Clouds 14 1019 54 8000 2.06 310 18:19 03.02.2021
2974 Clear 15 1019 51 10000 2.57 300 17:48 03.02.2021
2975 Clear 15 1019 51 10000 2.57 300 17:29 03.02.2021
2976 Clouds 17 1018 45 10000 2.06 330 16:51 03.02.2021
2977 Clouds 17 1018 45 10000 2.06 330 16:26 03.02.2021
2978 Clear 20 1018 40 10000 3.09 340 15:41 03.02.2021
2979 Clear 20 1018 40 10000 3.09 340 15:23 03.02.2021
2980 Clear 21 1018 32 10000 3.6 330 14:53 03.02.2021
2981 Clear 21 1018 32 10000 3.6 330 14:25 03.02.2021
2982 Clear 21 1019 35 10000 3.09 350 13:53 03.02.2021
2983 Clear 21 1019 35 10000 3.09 350 13:21 03.02.2021
2984 Clear 21 1019 35 10000 3.09 320 12:47 03.02.2021
2985 Clear 21 1019 35 10000 3.09 320 12:24 03.02.2021
2986 Clear 20 1020 37 10000 2.06 350 11:47 03.02.2021
2987 Clear 20 1020 37 10000 2.06 350 11:28 03.02.2021
2988 Clear 19 1020 39 10000 3.09 360 10:53 03.02.2021
2989 Clear 19 1020 39 10000 3.09 360 10:21 03.02.2021
2990 Clear 18 1021 45 10000 2.06 340 09:47 03.02.2021
2991 Clear 18 1021 45 10000 2.06 340 09:27 03.02.2021
2992 Clear 16 1022 48 10000 2.06 340 08:52 03.02.2021
2993 Clear 16 1022 48 10000 2.06 340 08:24 03.02.2021
2994 Clear 12 1022 62 8000 1.54 330 07:39 03.02.2021
2995 Clear 12 1022 62 8000 1.54 330 07:39 03.02.2021
2996 Clear 8 1021 71 10000 2.06 320 06:40 03.02.2021
2997 Clear 6 1021 75 10000 1.03 330 04:52 03.02.2021
2998 Clear 6 1021 75 10000 1.03 330 04:29 03.02.2021
2999 Clear 8 1021 71 10000 2.57 310 03:18 03.02.2021
3000 Clear 8 1021 71 10000 2.57 310 02:26 03.02.2021
3001 Clear 8 1022 66 10000 1.03 280 00:30 03.02.2021
3002 Clear 10 1022 62 10000 2.06 290 23:53 02.02.2021
3003 Clear 10 1022 62 10000 2.06 290 23:29 02.02.2021
3004 Clear 11 1022 58 10000 2.06 310 22:59 02.02.2021
3005 Clear 11 1022 58 10000 2.06 310 22:22 02.02.2021
3006 Clear 11 1022 58 10000 2.06 320 21:57 02.02.2021
3007 Clear 11 1022 58 10000 2.06 320 21:30 02.02.2021
3008 Clear 13 1022 50 10000 2.57 330 20:59 02.02.2021
3009 Clear 13 1022 50 10000 2.57 330 20:41 02.02.2021
3010 Clear 13 1022 50 10000 2.57 330 20:19 02.02.2021
3011 Clear 12 1023 50 10000 3.6 310 19:47 02.02.2021
3012 Clear 12 1023 50 10000 3.6 310 19:29 02.02.2021
3013 Clear 13 1023 50 10000 3.09 300 18:44 02.02.2021
3014 Clear 13 1023 50 10000 3.09 300 18:25 02.02.2021
3015 Clear 15 1022 41 10000 2.06 300 17:50 02.02.2021
3016 Clear 15 1022 41 10000 2.06 300 17:23 02.02.2021
3017 Clear 17 1022 39 10000 3.09 330 16:57 02.02.2021
3018 Clear 17 1022 39 10000 3.09 330 16:37 02.02.2021
3019 Clear 20 1022 32 10000 5.14 330 15:59 02.02.2021
3020 Clear 20 1022 32 10000 5.14 330 15:40 02.02.2021
3021 Clear 20 1022 32 10000 5.14 330 15:21 02.02.2021
3022 Clear 21 1022 28 10000 6.17 330 14:40 02.02.2021
3023 Clear 21 1022 28 10000 6.17 330 14:18 02.02.2021
3024 Clear 22 1023 28 10000 6.17 340 13:44 02.02.2021
3025 Clear 22 1023 28 10000 6.17 340 13:26 02.02.2021
3026 Clear 21 1023 32 10000 5.14 330 12:55 02.02.2021
3027 Clear 21 1023 32 10000 5.14 330 12:27 02.02.2021
3028 Clear 21 1024 32 10000 5.14 330 11:41 02.02.2021
3029 Clear 21 1024 32 10000 5.14 330 11:20 02.02.2021
3030 Clear 20 1025 37 10000 4.63 330 10:49 02.02.2021
3031 Clear 20 1025 37 10000 4.63 330 10:26 02.02.2021
3032 Clear 19 1026 42 10000 3.6 330 09:46 02.02.2021
3033 Clear 19 1026 42 10000 3.6 330 09:25 02.02.2021
3034 Clear 16 1026 48 10000 2.57 330 08:45 02.02.2021
3035 Clear 16 1026 48 10000 2.57 330 08:21 02.02.2021
3036 Clear 12 1026 58 10000 2.06 320 07:28 02.02.2021
3037 Clear 8 1026 66 10000 1.54 310 06:41 02.02.2021
3038 Clear 6 1025 75 10000 1.54 310 05:51 02.02.2021
3039 Clear 6 1025 75 8000 2.57 320 04:36 02.02.2021
3040 Clear 13 1024 54 10000 3.51 350 02:25 02.02.2021
3041 Clear 8 1024 66 9000 2.06 290 01:28 02.02.2021
3042 Clear 8 1024 66 9000 2.06 290 00:31 02.02.2021
3043 Clear 8 1025 66 7000 2.57 300 23:18 01.02.2021
3044 Clear 11 1025 54 5000 2.06 250 22:40 01.02.2021
3045 Clear 11 1025 54 5000 2.06 250 22:21 01.02.2021
3046 Clear 12 1025 54 4800 1.03 280 21:48 01.02.2021
3047 Clear 12 1025 54 4800 1.03 280 21:26 01.02.2021
3048 Clear 11 1025 58 5000 1.54 330 20:45 01.02.2021
3049 Clear 11 1025 58 5000 1.54 330 20:25 01.02.2021
3050 Clear 14 1025 51 9000 2.06 360 19:49 01.02.2021
3051 Clear 14 1025 51 9000 2.06 360 19:22 01.02.2021
3052 Clear 15 1024 44 10000 2.57 40 18:59 01.02.2021
3053 Clear 15 1024 44 10000 2.57 40 18:40 01.02.2021
3054 Clear 15 1024 44 10000 2.57 40 18:22 01.02.2021
3055 Clear 16 1023 40 10000 3.68 38 17:44 01.02.2021
3056 Clear 18 1024 34 10000 2.06 40 17:21 01.02.2021
3057 Clear 18 1024 34 10000 2.06 40 16:41 01.02.2021
3058 Clear 18 1024 34 10000 2.06 40 16:22 01.02.2021
3059 Clear 20 1023 30 10000 3.09 50 15:40 01.02.2021
3060 Clear 20 1023 30 10000 3.09 50 15:19 01.02.2021
3061 Clear 21 1023 28 10000 3.09 60 14:51 01.02.2021
3062 Clear 21 1023 28 10000 3.09 60 14:23 01.02.2021
3063 Clear 22 1023 28 10000 2.57 90 13:42 01.02.2021
3064 Clear 22 1023 28 10000 2.57 90 13:24 01.02.2021
3065 Clear 21 1023 30 10000 4.12 50 12:44 01.02.2021
3066 Clear 21 1023 30 10000 4.12 50 12:44 01.02.2021
3067 Clear 21 1023 30 10000 4.12 50 12:25 01.02.2021
3068 Clear 21 1024 28 10000 3.09 100 11:43 01.02.2021
3069 Clear 21 1024 28 10000 3.09 100 11:20 01.02.2021
3070 Clear 19 1025 34 10000 3.09 80 10:47 01.02.2021
3071 Clear 19 1025 34 10000 3.09 80 10:21 01.02.2021
3072 Clear 18 1026 36 10000 3.6 100 09:49 01.02.2021
3073 Clear 18 1026 36 10000 3.6 100 09:25 01.02.2021
3074 Clear 17 1025 39 10000 4.12 90 08:56 01.02.2021
3075 Clear 17 1025 39 10000 4.12 90 08:56 01.02.2021
3076 Clear 17 1025 39 10000 4.12 90 08:22 01.02.2021
3077 Clear 10 1025 62 7000 2.06 50 06:58 01.02.2021
3078 Clear 9 1023 66 10000 2.57 100 04:32 01.02.2021
3079 Clear 9 1023 66 10000 2.57 100 02:38 01.02.2021
3080 Clear 12 1023 54 10000 3.09 80 23:57 31.01.2021
3081 Clear 12 1022 54 10000 3.09 110 22:56 31.01.2021
3082 Clear 12 1022 54 10000 3.09 110 22:37 31.01.2021
3083 Clear 12 1022 54 10000 3.09 110 22:18 31.01.2021
3084 Clear 13 1022 54 10000 3.6 110 21:46 31.01.2021
3085 Clear 13 1022 54 10000 3.6 110 21:19 31.01.2021
3086 Clear 13 1022 54 10000 3.6 110 21:19 31.01.2021
3087 Clouds 14 1022 51 10000 5.66 110 20:42 31.01.2021
3088 Clouds 14 1022 51 10000 5.66 110 20:20 31.01.2021
3089 Clouds 15 1021 47 10000 5.14 110 19:39 31.01.2021
3090 Clouds 15 1021 47 10000 5.14 110 19:21 31.01.2021
3091 Clouds 15 1021 47 10000 4.12 110 18:55 31.01.2021
3092 Clouds 15 1021 47 10000 4.12 110 18:37 31.01.2021
3093 Clouds 15 1021 47 10000 4.12 110 18:18 31.01.2021
3094 Clouds 15 1021 47 10000 4.63 100 17:39 31.01.2021
3095 Clouds 15 1021 47 10000 4.63 100 17:21 31.01.2021
3096 Clouds 16 1020 44 10000 3.6 100 16:42 31.01.2021
3097 Clouds 16 1020 44 10000 3.6 100 16:20 31.01.2021
3098 Clouds 18 1020 36 10000 5.14 120 15:49 31.01.2021
3099 Clouds 18 1020 36 10000 5.14 120 15:25 31.01.2021
3100 Clouds 19 1020 34 10000 4.12 130 14:36 31.01.2021
3101 Clouds 19 1020 34 10000 4.12 130 14:18 31.01.2021
3102 Clouds 19 1020 34 10000 5.14 150 13:44 31.01.2021
3103 Clouds 19 1020 34 10000 5.14 150 13:19 31.01.2021
3104 Clear 19 1020 37 10000 5.14 140 12:46 31.01.2021
3105 Clear 19 1020 37 10000 5.14 140 12:20 31.01.2021
3106 Clouds 18 1020 39 10000 6.17 140 11:40 31.01.2021
3107 Clouds 18 1020 39 10000 6.17 140 11:20 31.01.2021
3108 Clear 17 1021 42 10000 5.14 120 10:46 31.01.2021
3109 Clear 17 1021 42 10000 5.14 120 10:27 31.01.2021
3110 Clear 16 1022 44 10000 5.14 140 09:41 31.01.2021
3111 Clouds 13 1022 50 10000 2.06 100 08:55 31.01.2021
3112 Clouds 13 1022 50 10000 2.06 100 08:31 31.01.2021
3113 Clouds 9 1022 66 7000 2.57 110 06:51 31.01.2021
3114 Clear 5 1021 81 10000 2.06 120 04:55 31.01.2021
3115 Clear 8 1021 76 9000 1.54 100 00:38 31.01.2021
3116 Clear 8 1021 76 9000 1.54 100 00:38 31.01.2021
3117 Clear 8 1021 76 9000 1.54 100 00:20 31.01.2021
3118 Clear 8 1022 71 10000 2.06 100 23:28 30.01.2021
3119 Clear 8 1022 66 10000 2.57 130 22:45 30.01.2021
3120 Clear 8 1022 66 10000 2.57 130 22:23 30.01.2021
3121 Clear 9 1022 57 9000 2.06 140 21:39 30.01.2021
3122 Clear 9 1022 57 9000 2.06 140 21:20 30.01.2021
3123 Clear 9 1022 57 10000 1.54 130 20:43 30.01.2021
3124 Clear 9 1022 57 10000 1.54 130 20:24 30.01.2021
3125 Clear 12 1022 58 10000 1.03 100 19:42 30.01.2021
3126 Clear 12 1022 58 10000 1.03 100 19:24 30.01.2021
3127 Clear 11 1022 54 10000 0.51 50 18:41 30.01.2021
3128 Clear 11 1022 54 10000 0.51 50 18:21 30.01.2021
3129 Clear 13 1022 44 10000 1.19 336 17:54 30.01.2021
3130 Clear 13 1022 44 10000 1.79 319 17:19 30.01.2021
3131 Clear 15 1021 41 10000 1.54 190 16:44 30.01.2021
3132 Clear 15 1021 41 10000 1.54 190 16:24 30.01.2021
3133 Clouds 16 1021 39 10000 2.06 240 15:54 30.01.2021
3134 Clouds 16 1021 39 10000 2.06 240 15:36 30.01.2021
3135 Clouds 16 1021 39 10000 2.06 240 15:18 30.01.2021
3136 Clear 17 1021 36 10000 3.09 270 14:41 30.01.2021
3137 Clear 17 1021 36 10000 3.09 270 14:19 30.01.2021
3138 Clouds 17 1020 36 10000 3.09 250 13:29 30.01.2021
3139 Clouds 16 1020 39 10000 2.57 270 12:48 30.01.2021
3140 Clouds 16 1020 39 10000 2.57 270 12:28 30.01.2021
3141 Clear 16 1020 41 10000 2.06 270 11:55 30.01.2021
3142 Clear 16 1020 41 10000 2.06 270 11:25 30.01.2021
3143 Clear 15 1021 47 10000 3.09 260 10:46 30.01.2021
3144 Clear 13 1021 58 10000 4.12 250 09:44 30.01.2021
3145 Clear 13 1021 58 10000 4.12 250 09:26 30.01.2021
3146 Clear 11 1020 66 10000 3.09 250 08:47 30.01.2021
3147 Clear 9 1020 71 10000 3.09 260 07:48 30.01.2021
3148 Clear 8 1019 76 10000 3.09 270 06:48 30.01.2021
3149 Clear 6 1017 81 10000 1.54 270 04:29 30.01.2021
3150 Clear 7 1017 81 10000 3.09 260 03:34 30.01.2021
3151 Clear 7 1017 81 10000 3.09 250 02:23 30.01.2021
3152 Clear 7 1017 87 10000 1.03 0 01:29 30.01.2021
3153 Clouds 8 1016 87 7000 3.09 210 00:36 30.01.2021
3154 Clouds 8 1016 87 7000 3.09 210 00:18 30.01.2021
3155 Clouds 9 1016 81 7000 3.09 220 23:44 29.01.2021
3156 Clouds 9 1016 81 7000 3.09 220 23:21 29.01.2021
3157 Clear 10 1015 81 10000 2.06 240 22:44 29.01.2021
3158 Clear 10 1015 81 10000 2.06 240 22:19 29.01.2021
3159 Clear 11 1015 76 10000 1.54 210 21:28 29.01.2021
3160 Clear 11 1014 76 10000 1.54 290 20:45 29.01.2021
3161 Clear 11 1014 76 10000 1.54 290 20:26 29.01.2021
3162 Clouds 12 1013 71 10000 3.09 10 19:57 29.01.2021
3163 Clouds 12 1013 71 10000 3.09 10 19:38 29.01.2021
3164 Clouds 12 1013 71 10000 3.09 10 19:18 29.01.2021
3165 Clouds 12 1013 71 10000 7.2 330 18:21 29.01.2021
3166 Clouds 12 1012 71 10000 10.29 310 17:39 29.01.2021
3167 Clouds 13 1010 71 10000 11.83 300 17:20 29.01.2021
3168 Clouds 15 1011 63 10000 4.12 310 16:45 29.01.2021
3169 Clouds 16 1009 59 10000 6.17 300 16:23 29.01.2021
3170 Clouds 20 1009 52 10000 4.63 130 15:48 29.01.2021
3171 Clouds 20 1009 52 10000 4.63 130 15:27 29.01.2021
3172 Clouds 21 1009 49 10000 5.66 130 14:32 29.01.2021
3173 Clouds 22 1009 46 10000 5.14 110 13:59 29.01.2021
3174 Clouds 22 1009 46 10000 5.14 110 13:59 29.01.2021
3175 Clouds 22 1009 46 10000 5.14 110 13:37 29.01.2021
3176 Clouds 22 1009 46 10000 5.14 110 13:19 29.01.2021
3177 Clouds 22 1010 46 10000 5.66 120 12:25 29.01.2021
3178 Clouds 22 1011 46 6000 6.17 130 11:49 29.01.2021
3179 Clouds 22 1011 46 6000 6.17 130 11:19 29.01.2021
3180 Clouds 21 1012 46 6000 5.66 100 10:51 29.01.2021
3181 Clouds 21 1012 46 6000 5.66 100 10:31 29.01.2021
3182 Clouds 18 1014 59 7000 7.2 110 09:49 29.01.2021
3183 Haze 16 1014 63 4800 6.17 100 08:59 29.01.2021
3184 Haze 16 1014 63 4800 6.17 100 08:38 29.01.2021
3185 Haze 16 1014 63 4800 6.17 100 08:19 29.01.2021
3186 Haze 15 1014 63 3100 4.63 110 07:41 29.01.2021
3187 Haze 14 1014 67 2700 5.14 110 07:20 29.01.2021
3188 Clear 7 1014 70 2700 1.03 120 05:23 29.01.2021
3189 Clear 8 1014 71 4200 0.51 0 03:50 29.01.2021
3190 Clear 7 1015 76 5000 0.51 20 00:44 29.01.2021
3191 Clear 7 1015 76 5000 0.51 20 00:22 29.01.2021
3192 Clear 8 1015 66 5000 0.51 0 23:44 28.01.2021
3193 Clear 8 1015 66 5000 0.51 0 23:25 28.01.2021
3194 Clear 10 1015 62 5000 3.79 308 22:49 28.01.2021
3195 Clear 10 1015 62 5000 4.54 287 22:27 28.01.2021
3196 Clear 12 1015 58 7000 3.09 250 21:58 28.01.2021
3197 Clear 12 1015 58 7000 3.09 250 21:38 28.01.2021
3198 Clear 12 1015 58 7000 3.09 250 21:20 28.01.2021
3199 Clear 11 1014 62 8000 1.54 250 20:39 28.01.2021
3200 Clear 11 1014 62 8000 1.54 250 20:18 28.01.2021
3201 Clear 12 1014 58 10000 1.54 230 19:46 28.01.2021
3202 Clear 12 1014 58 10000 1.54 230 19:23 28.01.2021
3203 Clear 14 1014 54 10000 1.54 240 18:45 28.01.2021
3204 Clear 14 1014 54 10000 1.54 240 18:27 28.01.2021
3205 Clear 15 1013 51 10000 3.63 269 17:47 28.01.2021
3206 Clear 15 1013 51 10000 4.28 271 17:28 28.01.2021
3207 Clear 16 1012 44 10000 1.03 210 16:45 28.01.2021
3208 Clear 16 1012 44 10000 1.03 210 16:25 28.01.2021
3209 Clear 20 1012 34 10000 3.09 200 15:51 28.01.2021
3210 Clear 20 1012 34 10000 3.09 200 15:20 28.01.2021
3211 Clear 21 1011 35 6000 5.14 160 14:42 28.01.2021
3212 Clear 21 1011 35 6000 5.14 160 14:23 28.01.2021
3213 Clear 21 1011 35 5000 6.69 150 13:49 28.01.2021
3214 Clouds 21 1011 35 5000 6.69 150 13:21 28.01.2021
3215 Clouds 20 1011 40 6000 7.72 150 12:46 28.01.2021
3216 Clouds 20 1011 40 6000 7.72 150 12:21 28.01.2021
3217 Clouds 18 1012 42 9000 7.72 140 11:44 28.01.2021
3218 Clouds 18 1012 42 9000 7.72 140 11:21 28.01.2021
3219 Clouds 17 1013 45 10000 7.2 130 10:55 28.01.2021
3220 Clouds 17 1013 45 10000 7.2 130 10:35 28.01.2021
3221 Clouds 14 1013 54 9000 7.72 140 09:59 28.01.2021
3222 Clouds 14 1013 54 9000 7.72 140 09:31 28.01.2021
3223 Clouds 15 1013 41 10000 7.2 150 08:57 28.01.2021
3224 Clouds 15 1013 41 10000 7.2 150 08:39 28.01.2021
3225 Clouds 15 1012 41 10000 9.77 140 07:46 28.01.2021
3226 Clouds 15 1012 38 10000 9.26 130 06:51 28.01.2021
3227 Clouds 15 1012 38 10000 9.26 130 06:31 28.01.2021
3228 Clouds 15 1011 38 10000 10.29 140 04:30 28.01.2021
3229 Clouds 16 1013 33 10000 7.72 130 01:41 28.01.2021
3230 Clouds 16 1013 33 10000 7.72 130 01:41 28.01.2021
3231 Clouds 15 1015 38 10000 5.14 130 23:56 27.01.2021
3232 Clouds 15 1015 38 10000 5.14 130 23:24 27.01.2021
3233 Clouds 15 1015 38 10000 5.66 130 22:44 27.01.2021
3234 Clouds 15 1015 38 10000 5.66 130 22:25 27.01.2021
3235 Clouds 15 1016 36 10000 4.63 120 21:55 27.01.2021
3236 Clouds 15 1016 36 10000 4.63 120 21:37 27.01.2021
3237 Clouds 15 1016 36 10000 4.63 120 21:19 27.01.2021
3238 Clear 15 1016 36 10000 3.6 120 20:39 27.01.2021
3239 Clouds 16 1016 33 10000 3.6 120 19:57 27.01.2021
3240 Clouds 16 1016 33 10000 3.6 120 19:37 27.01.2021
3241 Clouds 16 1016 33 10000 3.6 120 19:18 27.01.2021
3242 Clear 17 1017 31 10000 3.09 100 18:41 27.01.2021
3243 Clear 17 1017 31 10000 3.09 100 18:22 27.01.2021
3244 Clear 16 1017 33 10000 3.09 110 17:45 27.01.2021
3245 Clear 16 1017 33 10000 3.09 110 17:21 27.01.2021
3246 Clouds 17 1017 34 9000 2.57 100 16:47 27.01.2021
3247 Clouds 17 1017 34 9000 2.57 100 16:28 27.01.2021
3248 Clouds 17 1017 34 9000 2.57 100 16:28 27.01.2021
3249 Clear 19 1018 22 10000 2.57 100 15:50 27.01.2021
3250 Clear 19 1018 22 10000 2.57 100 15:30 27.01.2021
3251 Clear 21 1018 21 10000 3.09 110 14:43 27.01.2021
3252 Clear 21 1018 21 10000 3.09 110 14:22 27.01.2021
3253 Clear 21 1018 18 10000 3.09 130 13:45 27.01.2021
3254 Clear 21 1019 18 10000 2.06 80 12:58 27.01.2021
3255 Clear 21 1019 18 10000 2.06 80 12:38 27.01.2021
3256 Clear 21 1019 18 10000 2.06 80 12:18 27.01.2021
3257 Clear 20 1020 18 10000 2.06 60 11:41 27.01.2021
3258 Clear 20 1020 18 10000 2.06 60 11:21 27.01.2021
3259 Clear 19 1021 22 10000 1.54 0 10:38 27.01.2021
3260 Clear 19 1021 22 10000 1.54 0 10:19 27.01.2021
3261 Clear 18 1022 25 10000 0.56 342 09:41 27.01.2021
3262 Clouds 14 1022 35 9000 1.03 0 08:57 27.01.2021
3263 Clouds 14 1022 35 9000 1.03 0 08:31 27.01.2021
3264 Clouds 9 1022 53 5000 1.54 330 07:43 27.01.2021
3265 Clear 4 1022 60 10000 0.51 0 06:58 27.01.2021
3266 Clear 4 1022 60 10000 0.51 0 06:19 27.01.2021
3267 Clouds 3 1022 65 10000 1.54 280 05:39 27.01.2021
3268 Clear 5 1021 56 10000 2.06 260 03:34 27.01.2021
3269 Clear 6 1021 56 10000 2.06 300 02:23 27.01.2021
3270 Clear 6 1022 56 10000 1.54 340 01:49 27.01.2021
3271 Clear 7 1022 53 10000 2.06 340 00:33 27.01.2021
3272 Clear 6 1022 52 10000 2.57 320 23:49 26.01.2021
3273 Clear 6 1022 52 10000 2.57 320 23:28 26.01.2021
3274 Clear 8 1022 42 10000 1.54 330 22:50 26.01.2021
3275 Clear 8 1022 42 10000 1.54 330 22:23 26.01.2021
3276 Clear 9 1023 40 10000 2.57 300 21:54 26.01.2021
3277 Clear 9 1023 40 10000 2.57 300 21:34 26.01.2021
3278 Clear 9 1023 43 10000 2.06 310 20:58 26.01.2021
3279 Clear 9 1023 43 10000 2.06 310 20:39 26.01.2021
3280 Clear 11 1023 40 10000 2.06 310 20:21 26.01.2021
3281 Clear 11 1023 40 10000 2.06 310 19:45 26.01.2021
3282 Clear 11 1023 40 10000 2.06 310 19:20 26.01.2021
3283 Clear 12 1023 40 10000 3.09 320 18:47 26.01.2021
3284 Clear 12 1023 40 10000 3.09 320 18:27 26.01.2021
3285 Clear 11 1022 37 10000 3.6 300 17:52 26.01.2021
3286 Clear 11 1022 37 10000 3.6 300 17:33 26.01.2021
3287 Clear 15 1022 29 10000 2.06 280 16:56 26.01.2021
3288 Clear 15 1022 29 10000 2.06 280 16:37 26.01.2021
3289 Clear 15 1022 29 10000 2.06 280 16:18 26.01.2021
3290 Clear 18 1021 25 10000 3.09 300 15:44 26.01.2021
3291 Clear 18 1021 25 10000 3.09 300 15:24 26.01.2021
3292 Clear 18 1021 25 10000 3.42 320 14:45 26.01.2021
3293 Clear 20 1021 19 10000 4.12 330 14:25 26.01.2021
3294 Clear 20 1021 19 10000 4.12 330 13:34 26.01.2021
3295 Clear 19 1022 24 10000 4.12 340 12:59 26.01.2021
3296 Clear 19 1022 24 10000 4.12 340 12:40 26.01.2021
3297 Clear 19 1022 24 10000 4.12 340 12:22 26.01.2021
3298 Clear 19 1022 24 10000 3.6 330 11:51 26.01.2021
3299 Clear 19 1022 24 10000 3.6 330 11:25 26.01.2021
3300 Clear 17 1024 31 10000 3.09 290 10:44 26.01.2021
3301 Clear 17 1024 31 10000 3.09 290 10:25 26.01.2021
3302 Clear 15 1024 33 10000 3.09 320 09:40 26.01.2021
3303 Clear 15 1024 33 10000 3.09 320 09:22 26.01.2021
3304 Clear 12 1024 40 10000 2.57 310 08:50 26.01.2021
3305 Clear 12 1024 40 10000 2.57 310 08:20 26.01.2021
3306 Clear 9 1024 49 10000 2.57 310 07:25 26.01.2021
3307 Clear 11 1023 39 10000 2.63 338 05:58 26.01.2021
3308 Clear 4 1023 60 10000 1.54 310 05:39 26.01.2021
3309 Clear 4 1023 60 10000 2.57 300 03:51 26.01.2021
3310 Clear 4 1023 65 10000 1.03 280 01:46 26.01.2021
3311 Clear 6 1023 61 10000 1.54 310 00:36 26.01.2021
3312 Clear 6 1023 56 10000 2.57 310 23:34 25.01.2021
3313 Clear 8 1023 49 10000 2.06 310 22:56 25.01.2021
3314 Clear 8 1023 49 10000 2.06 310 22:35 25.01.2021
3315 Clouds 6 1022 52 9000 2.57 320 21:49 25.01.2021
3316 Clouds 6 1022 52 9000 2.57 320 21:23 25.01.2021
3317 Clear 8 1022 49 10000 0.51 330 20:50 25.01.2021
3318 Clear 8 1022 49 10000 0.51 330 20:32 25.01.2021
3319 Clear 9 1022 49 10000 1.03 10 19:51 25.01.2021
3320 Clear 9 1022 49 10000 1.03 10 19:31 25.01.2021
3321 Clear 11 1022 40 10000 1.54 330 18:48 25.01.2021
3322 Clear 11 1022 40 10000 1.54 330 18:28 25.01.2021
3323 Clear 12 1022 35 10000 1.03 280 17:58 25.01.2021
3324 Clear 12 1022 35 10000 1.03 280 17:39 25.01.2021
3325 Clear 12 1022 35 10000 1.03 280 17:20 25.01.2021
3326 Clear 15 1022 29 10000 1.03 0 16:41 25.01.2021
3327 Clear 15 1022 29 10000 1.03 0 16:21 25.01.2021
3328 Clear 17 1021 25 10000 2.06 270 15:48 25.01.2021
3329 Clear 17 1021 25 10000 2.06 270 15:29 25.01.2021
3330 Clear 19 1021 22 10000 0.51 0 14:46 25.01.2021
3331 Clear 19 1021 22 10000 0.51 0 14:19 25.01.2021
3332 Clear 18 1022 24 10000 1.54 290 13:52 25.01.2021
3333 Clear 18 1022 24 10000 1.54 290 13:28 25.01.2021
3334 Clear 18 1022 25 10000 2.06 20 12:46 25.01.2021
3335 Clear 18 1022 25 10000 2.06 20 12:20 25.01.2021
3336 Clear 17 1022 27 10000 1.54 0 11:47 25.01.2021
3337 Clear 17 1022 27 10000 1.54 0 11:19 25.01.2021
3338 Clear 15 1024 29 10000 2.57 250 10:41 25.01.2021
3339 Clear 15 1024 29 10000 2.57 250 10:19 25.01.2021
3340 Clear 14 1024 33 10000 2.06 270 09:45 25.01.2021
3341 Clear 14 1024 33 10000 2.06 270 09:26 25.01.2021
3342 Clear 11 1025 40 10000 2.06 300 08:29 25.01.2021
3343 Clear 7 1024 57 8000 1.54 290 07:32 25.01.2021
3344 Clouds 2 1024 75 9000 1.54 320 06:55 25.01.2021
3345 Clear 3 1023 60 10000 1.54 260 04:18 25.01.2021
3346 Clouds 3 1023 65 8000 1.03 310 01:32 25.01.2021
3347 Clear 4 1023 56 10000 1.03 320 23:51 24.01.2021
3348 Clear 4 1023 56 10000 1.03 320 23:19 24.01.2021
3349 Clouds 5 1023 52 9000 1.54 310 22:43 24.01.2021
3350 Clouds 5 1023 52 9000 1.54 310 22:21 24.01.2021
3351 Clouds 6 1023 52 7000 1.03 310 21:49 24.01.2021
3352 Clouds 6 1023 52 7000 1.03 310 21:24 24.01.2021
3353 Clouds 6 1023 52 7000 1.03 310 21:24 24.01.2021
3354 Clouds 7 1023 49 8000 1.03 0 20:46 24.01.2021
3355 Clear 7 1023 49 8000 1.03 0 20:22 24.01.2021
3356 Clear 7 1023 49 8000 1.03 320 19:53 24.01.2021
3357 Clear 7 1023 49 8000 1.03 320 19:28 24.01.2021
3358 Clear 9 1023 46 10000 1.54 290 18:59 24.01.2021
3359 Clear 9 1023 46 10000 1.54 290 18:40 24.01.2021
3360 Clear 9 1023 46 10000 1.54 290 18:21 24.01.2021
3361 Clear 10 1023 40 10000 2.06 270 17:51 24.01.2021
3362 Clear 10 1023 40 10000 2.06 270 17:30 24.01.2021
3363 Clear 13 1023 33 10000 2.06 260 16:59 24.01.2021
3364 Clear 13 1023 33 10000 2.06 260 16:39 24.01.2021
3365 Clear 13 1023 33 10000 2.06 260 16:19 24.01.2021
3366 Clear 16 1022 25 10000 1.03 330 15:44 24.01.2021
3367 Clear 16 1022 25 10000 1.03 330 15:19 24.01.2021
3368 Clear 16 1022 25 10000 2.06 320 14:43 24.01.2021
3369 Clear 16 1023 25 10000 2.06 350 13:52 24.01.2021
3370 Clear 16 1023 25 10000 2.06 350 13:34 24.01.2021
3371 Clear 16 1023 27 10000 2.57 310 12:51 24.01.2021
3372 Clear 16 1023 27 10000 2.57 310 12:22 24.01.2021
3373 Clear 15 1024 26 10000 1.54 290 11:54 24.01.2021
3374 Clear 15 1024 26 10000 1.54 290 11:25 24.01.2021
3375 Clear 14 1025 33 10000 3.09 310 10:54 24.01.2021
3376 Clear 14 1025 33 10000 3.09 310 10:30 24.01.2021
3377 Clear 14 1025 33 10000 3.09 310 10:30 24.01.2021
3378 Clear 14 1025 33 10000 3.09 310 10:30 24.01.2021
3379 Clear 12 1026 37 10000 2.57 310 09:46 24.01.2021
3380 Clear 12 1026 37 10000 2.57 310 09:19 24.01.2021
3381 Clear 5 1026 52 10000 2.06 300 08:31 24.01.2021
3382 Clear 0 1024 69 10000 2.06 300 03:48 24.01.2021
3383 Clear 1 1024 60 10000 2.06 280 02:19 24.01.2021
3384 Clear 3 1024 56 10000 1.54 290 00:39 24.01.2021
3385 Clear 3 1024 56 10000 1.54 290 00:19 24.01.2021
3386 Clear 2 1024 64 9000 1.54 290 23:33 23.01.2021
3387 Clear 4 1024 56 10000 1.03 240 22:58 23.01.2021
3388 Clear 4 1024 56 10000 1.03 240 22:40 23.01.2021
3389 Clear 4 1024 56 10000 2.56 311 21:59 23.01.2021
3390 Clear 4 1024 56 10000 2.34 315 21:23 23.01.2021
3391 Clear 5 1024 52 9000 1.03 280 20:51 23.01.2021
3392 Clear 5 1024 52 9000 1.03 280 20:33 23.01.2021
3393 Clear 8 1024 39 10000 1.54 260 19:56 23.01.2021
3394 Clear 8 1024 39 10000 1.54 260 19:38 23.01.2021
3395 Clear 8 1024 39 10000 1.54 260 19:20 23.01.2021
3396 Clear 9 1025 37 10000 2.06 250 18:42 23.01.2021
3397 Clear 9 1025 37 10000 2.06 250 18:20 23.01.2021
3398 Clear 9 1024 34 10000 1.54 290 17:29 23.01.2021
3399 Clear 10 1024 29 10000 2.57 300 16:53 23.01.2021
3400 Clear 10 1024 29 10000 2.57 300 16:32 23.01.2021
3401 Clear 14 1024 24 10000 4.12 300 15:53 23.01.2021
3402 Clear 14 1024 24 10000 4.12 300 15:28 23.01.2021
3403 Clear 14 1024 26 10000 3.6 310 14:40 23.01.2021
3404 Clear 14 1024 26 10000 3.6 310 14:19 23.01.2021
3405 Clouds 14 1024 24 10000 4.12 320 13:43 23.01.2021
3406 Clouds 14 1024 24 10000 4.12 320 13:24 23.01.2021
3407 Clear 14 1024 23 10000 6.17 310 12:44 23.01.2021
3408 Clear 14 1024 23 10000 6.17 310 12:24 23.01.2021
3409 Clear 13 1025 30 10000 6.17 300 11:40 23.01.2021
3410 Clear 12 1026 28 10000 6.17 300 10:58 23.01.2021
3411 Clear 12 1026 28 10000 6.17 300 10:26 23.01.2021
3412 Clear 10 1027 32 10000 4.63 290 09:53 23.01.2021
3413 Clear 10 1027 32 10000 4.63 290 09:28 23.01.2021
3414 Clear 7 1027 42 10000 4.63 300 08:43 23.01.2021
3415 Clear 4 1026 56 10000 4.12 300 07:48 23.01.2021
3416 Clear 2 1026 64 10000 3.6 290 06:50 23.01.2021
3417 Clear 1 1025 64 10000 3.6 320 03:24 23.01.2021
3418 Clear 3 1025 56 10000 4.12 310 00:33 23.01.2021
3419 Clear 5 1026 48 10000 5.14 300 23:36 22.01.2021
3420 Clear 5 1026 48 10000 4.63 300 22:45 22.01.2021
3421 Clear 5 1026 48 10000 4.63 300 22:21 22.01.2021
3422 Clear 5 1026 48 10000 4.12 310 21:42 22.01.2021
3423 Clear 5 1026 48 10000 4.12 310 21:23 22.01.2021
3424 Clear 6 1026 45 10000 5.14 300 20:46 22.01.2021
3425 Clear 6 1026 45 10000 5.14 300 20:26 22.01.2021
3426 Clear 6 1026 42 10000 4.12 300 19:47 22.01.2021
3427 Clear 6 1026 42 10000 4.12 300 19:19 22.01.2021
3428 Clear 6 1026 39 10000 4.12 300 18:47 22.01.2021
3429 Clear 6 1026 39 10000 4.12 300 18:26 22.01.2021
3430 Clear 8 1026 34 10000 4.12 300 17:50 22.01.2021
3431 Clear 8 1026 34 10000 4.12 300 17:32 22.01.2021
3432 Clear 9 1026 34 10000 4.12 310 16:54 22.01.2021
3433 Clear 9 1026 34 10000 4.12 310 16:30 22.01.2021
3434 Clear 13 1026 26 10000 4.63 320 15:45 22.01.2021
3435 Clear 13 1026 26 10000 4.63 320 15:23 22.01.2021
3436 Clear 14 1026 26 10000 6.17 330 14:37 22.01.2021
3437 Clear 14 1026 26 10000 6.17 330 14:18 22.01.2021
3438 Clear 14 1026 26 10000 5.66 330 13:36 22.01.2021
3439 Clouds 14 1026 28 10000 5.66 330 12:59 22.01.2021
3440 Clouds 14 1026 28 10000 5.66 330 12:28 22.01.2021
3441 Clear 13 1027 30 10000 6.69 310 11:51 22.01.2021
3442 Clear 13 1027 30 10000 6.69 310 11:32 22.01.2021
3443 Clear 12 1028 30 10000 7.72 310 10:48 22.01.2021
3444 Clear 12 1028 30 10000 7.72 310 10:48 22.01.2021
3445 Clear 12 1028 30 10000 7.72 310 10:23 22.01.2021
3446 Clear 10 1029 40 10000 6.69 310 09:43 22.01.2021
3447 Clear 8 1030 53 10000 6.17 310 08:57 22.01.2021
3448 Clear 8 1030 53 10000 6.17 310 08:32 22.01.2021
3449 Clear 8 1030 53 10000 6.17 310 08:32 22.01.2021
3450 Clear 6 1030 65 10000 6.17 310 07:48 22.01.2021
3451 Clear 1 1029 80 10000 4.63 310 05:22 22.01.2021
3452 Clear 1 1029 69 10000 1.54 280 01:54 22.01.2021
3453 Clear 0 1029 74 10000 3.09 300 00:29 22.01.2021
3454 Clear 1 1029 69 10000 3.6 320 23:48 21.01.2021
3455 Clear 1 1029 69 10000 3.6 320 23:20 21.01.2021
3456 Clear 2 1029 60 10000 3.6 320 22:48 21.01.2021
3457 Clear 4 1029 52 10000 3.09 290 21:59 21.01.2021
3458 Clear 4 1029 52 10000 3.09 290 21:39 21.01.2021
3459 Clear 4 1029 52 10000 3.09 290 21:18 21.01.2021
3460 Clear 4 1029 52 10000 3.09 300 20:44 21.01.2021
3461 Clear 4 1029 52 10000 3.09 300 20:21 21.01.2021
3462 Clear 5 1029 52 10000 3.09 300 19:49 21.01.2021
3463 Clear 5 1029 52 10000 3.09 300 19:26 21.01.2021
3464 Clear 6 1029 52 10000 1.54 280 18:47 21.01.2021
3465 Clear 6 1029 52 10000 1.54 280 18:22 21.01.2021
3466 Clear 9 1028 47 10000 3.97 314 17:58 21.01.2021
3467 Clear 8 1028 42 10000 3.6 310 17:22 21.01.2021
3468 Clear 8 1028 42 10000 3.6 310 16:59 21.01.2021
3469 Clear 8 1028 42 10000 3.6 310 16:40 21.01.2021
3470 Clear 8 1028 42 10000 3.6 310 16:22 21.01.2021
3471 Clear 10 1028 40 10000 4.63 300 15:48 21.01.2021
3472 Clear 10 1028 40 10000 4.63 300 15:28 21.01.2021
3473 Clear 11 1027 35 10000 5.14 290 14:47 21.01.2021
3474 Clear 11 1027 35 10000 5.14 290 14:25 21.01.2021
3475 Clear 11 1027 37 10000 5.66 280 13:46 21.01.2021
3476 Clear 11 1027 37 10000 5.66 280 13:26 21.01.2021
3477 Clear 11 1027 43 10000 5.66 280 12:45 21.01.2021
3478 Clear 11 1027 43 10000 5.66 280 12:25 21.01.2021
3479 Clear 10 1027 46 10000 6.69 290 11:53 21.01.2021
3480 Clear 10 1027 46 10000 6.69 290 11:32 21.01.2021
3481 Clear 8 1028 57 10000 5.66 290 10:53 21.01.2021
3482 Clear 8 1028 57 10000 5.66 290 10:34 21.01.2021
3483 Clear 8 1028 57 10000 6.69 290 09:50 21.01.2021
3484 Clear 8 1028 57 10000 6.69 290 09:30 21.01.2021
3485 Clear 6 1027 61 10000 6.69 270 08:59 21.01.2021
3486 Clear 6 1027 61 10000 6.69 270 08:27 21.01.2021
3487 Clear 5 1027 60 10000 6.69 270 07:46 21.01.2021
3488 Clear 5 1027 60 10000 6.69 270 07:26 21.01.2021
3489 Clear 4 1025 65 10000 5.66 270 05:59 21.01.2021
3490 Clear 4 1024 70 10000 6.17 270 04:32 21.01.2021
3491 Clear 6 1022 70 10000 6.17 270 02:19 21.01.2021
3492 Clear 7 1021 76 10000 7.2 280 00:41 21.01.2021
3493 Clear 9 1020 71 10000 5.14 280 23:44 20.01.2021
3494 Clear 9 1020 71 10000 5.14 280 23:24 20.01.2021
3495 Clear 9 1019 76 10000 4.63 270 22:52 20.01.2021
3496 Clear 9 1019 76 10000 4.63 270 22:29 20.01.2021
3497 Clear 9 1018 81 10000 3.09 240 21:49 20.01.2021
3498 Clear 9 1018 81 10000 3.09 240 21:23 20.01.2021
3499 Clear 9 1018 93 10000 1.54 240 20:52 20.01.2021
3500 Clear 9 1018 93 10000 1.54 240 20:23 20.01.2021
3501 Clear 9 1017 81 10000 2.06 290 19:48 20.01.2021
3502 Clear 9 1017 81 10000 2.06 290 19:48 20.01.2021
3503 Clear 9 1017 81 10000 2.06 290 19:28 20.01.2021
3504 Clouds 11 1017 76 10000 2.57 300 18:43 20.01.2021
3505 Rain 11 1017 76 10000 2.57 300 18:21 20.01.2021
3506 Rain 12 1017 62 10000 7.2 280 17:50 20.01.2021
3507 Rain 12 1017 62 10000 7.2 280 17:31 20.01.2021
3508 Rain 14 1015 62 10000 6.17 300 16:51 20.01.2021
3509 Clouds 14 1015 62 10000 6.17 300 16:22 20.01.2021
3510 Clouds 17 1013 48 10000 4.12 250 15:41 20.01.2021
3511 Clouds 17 1013 48 10000 4.12 250 15:19 20.01.2021
3512 Clouds 17 1013 45 10000 6.69 260 14:40 20.01.2021
3513 Clouds 17 1013 45 10000 6.69 260 14:20 20.01.2021
3514 Clear 19 1012 37 10000 6.17 240 13:38 20.01.2021
3515 Clear 18 1013 39 10000 5.66 250 12:56 20.01.2021
3516 Clear 18 1013 39 10000 5.66 250 12:24 20.01.2021
3517 Clouds 18 1013 39 10000 4.12 220 11:41 20.01.2021
3518 Clouds 18 1013 39 10000 4.12 220 11:21 20.01.2021
3519 Clouds 16 1014 41 10000 4.12 200 10:50 20.01.2021
3520 Clouds 16 1014 41 10000 4.12 200 10:27 20.01.2021
3521 Clouds 14 1015 47 10000 4.12 170 09:39 20.01.2021
3522 Clouds 14 1015 47 10000 4.12 170 09:19 20.01.2021
3523 Clouds 13 1015 50 10000 4.63 180 08:45 20.01.2021
3524 Clouds 13 1015 50 10000 4.63 180 08:23 20.01.2021
3525 Clouds 12 1015 54 10000 4.63 150 07:54 20.01.2021
3526 Clouds 12 1015 54 10000 4.63 150 07:25 20.01.2021
3527 Clear 9 1015 61 10000 2.06 130 04:50 20.01.2021
3528 Clear 9 1016 61 10000 3.09 270 02:58 20.01.2021
3529 Clear 11 1016 58 10000 5.14 140 00:58 20.01.2021
3530 Clear 11 1016 58 10000 5.14 140 00:25 20.01.2021
3531 Clear 11 1016 58 10000 5.14 140 23:42 19.01.2021
3532 Clear 11 1016 58 10000 5.14 140 23:18 19.01.2021
3533 Clear 12 1016 54 10000 4.63 140 22:41 19.01.2021
3534 Clear 12 1016 54 10000 4.63 140 22:21 19.01.2021
3535 Clear 13 1017 50 10000 5.14 140 21:58 19.01.2021
3536 Clear 13 1017 50 10000 5.14 140 21:39 19.01.2021
3537 Clear 13 1017 50 10000 5.14 140 21:18 19.01.2021
3538 Clear 13 1017 50 10000 5.66 140 20:40 19.01.2021
3539 Clear 13 1017 50 10000 5.66 140 20:21 19.01.2021
3540 Clear 13 1017 50 10000 5.14 140 19:41 19.01.2021
3541 Clear 13 1017 50 10000 5.14 140 19:19 19.01.2021
3542 Clear 13 1017 50 10000 4.63 140 18:39 19.01.2021
3543 Clear 13 1017 50 10000 4.63 140 18:21 19.01.2021
3544 Clear 15 1017 44 10000 4.12 150 17:45 19.01.2021
3545 Clear 15 1017 44 10000 4.12 150 17:23 19.01.2021
3546 Clear 16 1017 36 10000 3.6 160 16:45 19.01.2021
3547 Clear 16 1017 36 10000 3.6 160 16:25 19.01.2021
3548 Clear 20 1016 30 10000 3.6 210 15:56 19.01.2021
3549 Clear 20 1016 30 10000 3.6 210 15:35 19.01.2021
3550 Clouds 21 1016 26 10000 5.66 210 14:51 19.01.2021
3551 Clouds 21 1016 26 10000 5.66 210 14:31 19.01.2021
3552 Clouds 21 1017 28 10000 6.17 200 13:56 19.01.2021
3553 Clouds 21 1017 28 10000 6.17 200 13:37 19.01.2021
3554 Clouds 21 1017 28 10000 6.17 200 13:19 19.01.2021
3555 Clouds 21 1017 30 10000 4.12 200 12:36 19.01.2021
3556 Clouds 21 1017 30 10000 4.12 200 12:18 19.01.2021
3557 Clear 20 1018 37 10000 5.14 180 11:43 19.01.2021
3558 Clear 20 1018 37 10000 5.14 180 11:22 19.01.2021
3559 Clear 21 1018 26 10000 6.55 202 10:50 19.01.2021
3560 Clear 16 1020 48 10000 3.6 210 10:29 19.01.2021
3561 Clear 16 1020 48 10000 3.6 210 09:52 19.01.2021
3562 Clear 16 1020 48 10000 3.6 210 09:21 19.01.2021
3563 Clear 14 1021 54 10000 3.6 170 08:48 19.01.2021
3564 Clear 11 1021 62 9000 3.09 170 07:58 19.01.2021
3565 Clear 11 1021 62 9000 3.09 170 07:22 19.01.2021
3566 Clear 10 1020 66 10000 3.09 120 04:55 19.01.2021
3567 Clear 8 1020 71 10000 3.09 100 02:24 19.01.2021
3568 Clear 10 1020 62 10000 3.09 110 00:47 19.01.2021
3569 Clear 10 1019 66 10000 2.06 100 23:57 18.01.2021
3570 Clear 10 1019 66 10000 2.06 100 23:29 18.01.2021
3571 Clear 9 1019 66 10000 1.54 130 22:50 18.01.2021
3572 Clear 9 1019 66 10000 1.54 130 22:24 18.01.2021
3573 Clear 10 1019 62 10000 2.06 130 21:49 18.01.2021
3574 Clear 10 1019 62 10000 2.06 130 21:24 18.01.2021
3575 Clear 11 1019 58 10000 2.06 150 20:58 18.01.2021
3576 Clear 11 1019 58 10000 2.06 150 20:37 18.01.2021
3577 Clear 11 1019 58 10000 2.06 150 20:19 18.01.2021
3578 Clear 11 1019 62 10000 3.09 110 19:42 18.01.2021
3579 Clear 11 1019 62 10000 3.09 110 19:24 18.01.2021
3580 Clear 12 1019 58 10000 2.06 140 18:43 18.01.2021
3581 Clear 12 1019 58 10000 2.06 140 18:21 18.01.2021
3582 Clear 14 1018 51 10000 2.39 207 17:40 18.01.2021
3583 Clear 15 1018 47 10000 1.03 280 16:55 18.01.2021
3584 Clear 15 1018 47 10000 1.03 280 16:36 18.01.2021
3585 Clear 18 1017 42 10000 2.57 260 15:59 18.01.2021
3586 Clear 18 1017 42 10000 2.57 260 15:41 18.01.2021
3587 Clear 18 1017 42 10000 2.57 260 15:19 18.01.2021
3588 Clear 18 1017 35 10000 4.36 253 14:43 18.01.2021
3589 Clear 18 1017 42 10000 4.12 230 14:24 18.01.2021
3590 Clear 18 1017 42 10000 4.12 230 13:45 18.01.2021
3591 Clear 18 1017 42 10000 4.12 230 13:26 18.01.2021
3592 Clear 18 1017 42 10000 3.6 230 12:51 18.01.2021
3593 Clear 18 1017 42 10000 3.6 230 12:20 18.01.2021
3594 Clear 18 1017 42 10000 2.57 250 11:53 18.01.2021
3595 Clear 18 1017 42 10000 2.57 250 11:29 18.01.2021
3596 Clear 17 1017 42 10000 3.09 250 10:53 18.01.2021
3597 Clear 17 1017 42 10000 3.09 250 10:35 18.01.2021
3598 Clear 16 1018 48 10000 5.66 260 09:43 18.01.2021
3599 Clear 16 1018 48 10000 5.66 260 09:19 18.01.2021
3600 Clear 15 1018 47 10000 3.6 230 08:47 18.01.2021
3601 Clear 13 1017 54 10000 3.09 210 07:55 18.01.2021
3602 Clear 9 1016 76 10000 2.57 200 06:56 18.01.2021
3603 Clear 9 1015 76 10000 2.57 170 04:58 18.01.2021
3604 Clear 9 1015 76 10000 2.57 170 04:31 18.01.2021
3605 Clear 9 1014 81 10000 1.54 160 03:57 18.01.2021
3606 Clear 9 1014 81 10000 1.54 160 03:38 18.01.2021
3607 Clear 9 1014 81 10000 1.54 160 03:18 18.01.2021
3608 Clear 10 1014 76 10000 2.57 200 02:27 18.01.2021
3609 Clear 11 1013 71 10000 2.06 130 00:43 18.01.2021
3610 Clear 11 1013 71 10000 2.06 130 00:20 18.01.2021
3611 Clear 11 1013 71 10000 3.09 140 23:44 17.01.2021
3612 Clear 11 1013 71 10000 3.09 140 23:20 17.01.2021
3613 Clouds 12 1013 66 8000 2.57 110 22:26 17.01.2021
3614 Clouds 12 1013 66 8000 2.57 110 22:26 17.01.2021
3615 Clouds 12 1013 66 7000 3.09 110 21:58 17.01.2021
3616 Clouds 12 1013 66 7000 3.09 110 21:39 17.01.2021
3617 Clouds 12 1013 66 7000 3.09 110 21:39 17.01.2021
3618 Clouds 12 1013 66 7000 3.09 110 21:21 17.01.2021
3619 Clear 13 1013 67 10000 2.57 110 20:44 17.01.2021
3620 Clear 13 1013 67 10000 2.57 110 20:25 17.01.2021
3621 Clear 13 1013 62 10000 2.06 110 19:42 17.01.2021
3622 Clear 13 1013 62 10000 2.06 110 19:21 17.01.2021
3623 Clear 14 1012 62 10000 1.54 120 18:38 17.01.2021
3624 Clear 14 1012 62 10000 1.54 120 18:19 17.01.2021
3625 Clear 14 1012 62 10000 1.69 229 17:45 17.01.2021
3626 Clear 14 1012 62 10000 2.12 245 17:24 17.01.2021
3627 Clear 16 1012 55 10000 2.12 245 16:43 17.01.2021
3628 Clear 16 1012 55 10000 2.6 246 16:20 17.01.2021
3629 Clear 18 1012 48 10000 2.06 280 15:42 17.01.2021
3630 Clear 18 1012 48 10000 2.06 280 15:21 17.01.2021
3631 Clouds 19 1011 45 10000 1.54 240 14:48 17.01.2021
3632 Clouds 19 1011 45 10000 1.54 240 14:26 17.01.2021
3633 Clear 19 1011 48 10000 3.09 250 13:45 17.01.2021
3634 Clear 19 1011 48 10000 3.09 250 13:27 17.01.2021
3635 Clear 19 1011 52 10000 3.09 250 12:52 17.01.2021
3636 Clear 19 1011 52 10000 3.09 250 12:31 17.01.2021
3637 Clear 19 1012 48 10000 2.06 200 11:54 17.01.2021
3638 Clear 19 1012 48 10000 2.06 200 11:22 17.01.2021
3639 Clear 18 1013 52 9000 3.09 190 10:46 17.01.2021
3640 Clear 18 1013 52 9000 3.09 190 10:21 17.01.2021
3641 Clear 18 1014 55 8000 4.12 150 09:25 17.01.2021
3642 Clear 16 1014 63 6000 3.09 130 08:44 17.01.2021
3643 Mist 11 1013 71 1400 1.54 130 06:52 17.01.2021
3644 Mist 12 1012 71 2300 2.57 80 04:28 17.01.2021
3645 Mist 11 1012 82 3300 1.03 100 02:46 17.01.2021
3646 Clouds 12 1012 76 6000 2.06 60 00:48 17.01.2021
3647 Clouds 12 1012 76 6000 2.06 60 00:18 17.01.2021
3648 Clouds 12 1012 71 6000 1.54 10 23:49 16.01.2021
3649 Clouds 12 1012 71 6000 1.54 10 23:19 16.01.2021
3650 Clouds 12 1012 71 6000 1.2 11 22:45 16.01.2021
3651 Clouds 12 1012 71 7000 1.42 339 21:58 16.01.2021
3652 Clouds 12 1012 71 7000 1.42 339 21:37 16.01.2021
3653 Clouds 12 1012 71 7000 2.24 316 21:18 16.01.2021
3654 Clear 12 1013 66 10000 1.03 290 20:42 16.01.2021
3655 Clear 12 1013 66 10000 1.03 290 20:21 16.01.2021
3656 Clear 13 1013 67 10000 3.09 240 19:44 16.01.2021
3657 Clear 13 1013 67 10000 3.09 240 19:24 16.01.2021
3658 Clear 13 1013 67 10000 3.09 240 19:24 16.01.2021
3659 Clear 13 1013 62 10000 1.54 270 18:43 16.01.2021
3660 Clear 13 1013 62 10000 1.54 270 18:43 16.01.2021
3661 Clear 13 1013 62 10000 1.54 270 18:24 16.01.2021
3662 Clear 14 1012 58 10000 1.03 350 17:47 16.01.2021
3663 Clear 14 1012 58 10000 1.03 350 17:28 16.01.2021
3664 Clear 17 1012 51 10000 1.54 230 16:47 16.01.2021
3665 Clear 17 1012 51 10000 1.54 230 16:26 16.01.2021
3666 Clear 19 1012 45 10000 1.03 0 15:51 16.01.2021
3667 Clear 19 1012 45 10000 1.03 0 15:20 16.01.2021
3668 Clear 19 1012 45 10000 2.06 260 14:22 16.01.2021
3669 Clear 19 1013 48 10000 1.54 210 13:48 16.01.2021
3670 Clear 19 1013 48 10000 1.54 210 13:24 16.01.2021
3671 Clear 19 1014 48 10000 2.06 250 12:39 16.01.2021
3672 Clear 19 1014 48 10000 2.06 250 12:20 16.01.2021
3673 Clear 18 1015 55 10000 2.06 240 11:48 16.01.2021
3674 Clear 18 1015 55 10000 2.06 240 11:25 16.01.2021
3675 Clear 18 1016 55 7000 2.06 230 10:46 16.01.2021
3676 Clear 18 1016 55 7000 2.06 230 10:22 16.01.2021
3677 Clear 16 1017 63 5000 1.54 250 09:36 16.01.2021
3678 Mist 13 1018 71 2600 1.54 280 08:47 16.01.2021
3679 Clear 10 1018 87 4500 1.03 300 07:50 16.01.2021
3680 Mist 7 1017 100 4400 2.57 300 06:44 16.01.2021
3681 Clear 6 1017 100 9000 1.54 310 04:40 16.01.2021
3682 Clear 8 1017 93 10000 1.54 310 02:56 16.01.2021
3683 Clear 7 1017 100 10000 1.54 290 01:44 16.01.2021
3684 Clear 9 1017 100 10000 2.57 300 00:38 16.01.2021
3685 Clear 9 1017 100 10000 2.57 300 00:19 16.01.2021
3686 Clear 9 1018 100 10000 1.54 320 23:24 15.01.2021
3687 Clear 9 1018 93 10000 1.03 340 22:26 15.01.2021
3688 Clear 9 1018 81 10000 1.54 300 21:47 15.01.2021
3689 Clear 9 1018 81 10000 1.54 300 21:22 15.01.2021
3690 Clear 11 1018 76 10000 1.03 250 20:42 15.01.2021
3691 Clear 11 1018 76 10000 1.03 250 20:23 15.01.2021
3692 Clear 12 1018 71 10000 2.06 300 19:42 15.01.2021
3693 Clear 12 1018 71 10000 2.06 300 19:24 15.01.2021
3694 Clear 13 1017 71 10000 1.03 350 18:45 15.01.2021
3695 Clear 13 1017 71 10000 1.03 350 18:20 15.01.2021
3696 Clear 14 1017 67 10000 1.54 10 17:53 15.01.2021
3697 Clear 14 1017 67 10000 1.54 10 17:28 15.01.2021
3698 Clear 15 1017 63 10000 2.57 300 16:59 15.01.2021
3699 Clear 15 1017 63 10000 2.57 300 16:40 15.01.2021
3700 Clear 15 1017 63 10000 2.57 300 16:20 15.01.2021
3701 Clear 18 1016 52 10000 2.57 310 15:37 15.01.2021
3702 Clear 18 1016 52 10000 2.57 310 15:18 15.01.2021
3703 Clear 19 1016 48 10000 2.57 270 14:39 15.01.2021
3704 Clear 19 1016 48 10000 2.57 270 14:20 15.01.2021
3705 Clear 19 1015 52 10000 2.06 260 13:40 15.01.2021
3706 Clear 19 1015 52 10000 2.06 260 13:19 15.01.2021
3707 Clear 18 1015 55 4500 1.03 0 12:46 15.01.2021
3708 Clear 18 1015 55 4500 1.03 0 12:25 15.01.2021
3709 Clear 17 1015 59 3500 2.06 230 11:42 15.01.2021
3710 Clear 17 1015 59 3500 2.06 230 11:21 15.01.2021
3711 Clear 16 1016 63 3200 2.57 220 10:51 15.01.2021
3712 Clear 16 1016 63 3200 2.57 220 10:22 15.01.2021
3713 Haze 15 1017 67 5000 3.09 160 09:49 15.01.2021
3714 Haze 15 1017 67 5000 3.09 160 09:29 15.01.2021
3715 Clear 13 1017 71 4400 3.09 140 08:28 15.01.2021
3716 Haze 12 1016 71 3300 2.57 160 07:46 15.01.2021
3717 Haze 12 1016 71 3300 2.57 160 07:24 15.01.2021
3718 Mist 10 1015 81 3600 1.03 0 06:51 15.01.2021
3719 Clouds 12 1012 71 8000 3.6 140 02:45 15.01.2021
3720 Rain 13 1011 67 9000 3.09 80 00:55 15.01.2021
3721 Rain 15 1012 51 10000 1.54 100 23:42 14.01.2021
3722 Clouds 15 1012 47 10000 1.54 90 22:58 14.01.2021
3723 Clouds 15 1012 47 10000 1.54 90 22:40 14.01.2021
3724 Clouds 15 1012 47 10000 1.54 90 22:21 14.01.2021
3725 Clouds 15 1012 47 10000 3.6 290 21:42 14.01.2021
3726 Clouds 15 1012 47 10000 3.6 290 21:21 14.01.2021
3727 Clouds 16 1010 44 10000 5.14 130 20:48 14.01.2021
3728 Clouds 16 1010 44 10000 5.14 130 20:22 14.01.2021
3729 Clouds 16 1010 44 10000 3.6 130 19:43 14.01.2021
3730 Clouds 16 1010 44 10000 3.6 130 19:25 14.01.2021
3731 Clear 16 1010 41 10000 2.57 140 18:51 14.01.2021
3732 Clear 16 1010 41 10000 2.57 140 18:27 14.01.2021
3733 Clear 17 1010 42 10000 6.69 140 17:46 14.01.2021
3734 Clear 17 1010 42 10000 6.69 140 17:26 14.01.2021
3735 Clouds 17 1008 39 10000 9.26 130 16:43 14.01.2021
3736 Clouds 18 1008 34 10000 9.77 130 15:58 14.01.2021
3737 Clouds 18 1008 34 10000 9.77 130 15:39 14.01.2021
3738 Clouds 18 1009 36 10000 8.75 130 14:59 14.01.2021
3739 Clouds 18 1009 36 10000 8.75 130 14:38 14.01.2021
3740 Clouds 18 1009 36 10000 8.75 130 14:19 14.01.2021
3741 Clouds 19 1009 32 10000 9.26 140 13:52 14.01.2021
3742 Clouds 19 1009 32 10000 9.26 140 13:20 14.01.2021
3743 Clouds 19 1009 32 10000 11.32 140 12:47 14.01.2021
3744 Clouds 19 1009 32 10000 11.32 140 12:19 14.01.2021
3745 Clear 18 1010 34 10000 10.29 130 11:43 14.01.2021
3746 Clear 18 1010 34 10000 10.29 130 11:20 14.01.2021
3747 Clear 18 1011 32 10000 9.26 120 10:52 14.01.2021
3748 Clear 18 1011 32 10000 9.26 120 10:25 14.01.2021
3749 Clear 17 1012 31 10000 8.23 110 09:48 14.01.2021
3750 Clear 17 1012 31 10000 8.23 110 09:23 14.01.2021
3751 Clouds 16 1014 33 10000 7.2 120 08:49 14.01.2021
3752 Clouds 16 1014 33 10000 7.2 120 08:27 14.01.2021
3753 Clouds 13 1014 41 10000 6.69 110 07:49 14.01.2021
3754 Clear 12 1014 43 10000 5.66 100 06:53 14.01.2021
3755 Clear 12 1014 43 10000 5.14 110 05:50 14.01.2021
3756 Clear 11 1016 54 10000 3.09 120 00:46 14.01.2021
3757 Clear 11 1015 54 10000 3.6 120 23:55 13.01.2021
3758 Clear 11 1015 54 10000 3.6 120 23:23 13.01.2021
3759 Clear 13 1015 50 10000 4.12 120 22:30 13.01.2021
3760 Clear 13 1016 47 10000 3.6 120 21:57 13.01.2021
3761 Clear 13 1016 47 10000 3.6 120 21:39 13.01.2021
3762 Clear 13 1016 47 10000 3.6 120 21:19 13.01.2021
3763 Clear 14 1016 47 10000 4.12 120 20:38 13.01.2021
3764 Clear 14 1016 47 10000 4.12 120 20:19 13.01.2021
3765 Clear 15 1017 41 10000 4.12 110 19:42 13.01.2021
3766 Clear 15 1017 41 10000 4.12 110 19:21 13.01.2021
3767 Clouds 17 1017 30 10000 3.64 158 18:41 13.01.2021
3768 Clear 16 1017 39 10000 4.12 110 17:51 13.01.2021
3769 Clear 16 1017 39 10000 4.12 110 17:26 13.01.2021
3770 Clear 17 1017 36 10000 2.57 120 16:59 13.01.2021
3771 Clear 17 1017 36 10000 2.57 120 16:23 13.01.2021
3772 Clear 20 1017 30 10000 3.09 130 15:59 13.01.2021
3773 Clear 20 1017 30 10000 3.09 130 15:39 13.01.2021
3774 Clear 22 1018 26 10000 3.6 120 14:52 13.01.2021
3775 Clear 22 1018 26 10000 3.6 120 14:18 13.01.2021
3776 Clear 22 1018 24 10000 3.6 160 13:37 13.01.2021
3777 Clear 22 1018 24 10000 3.6 160 13:18 13.01.2021
3778 Clear 23 1018 23 10000 3.6 130 12:43 13.01.2021
3779 Clear 23 1018 23 10000 3.6 130 12:22 13.01.2021
3780 Clear 22 1019 23 10000 3.6 150 11:47 13.01.2021
3781 Clear 22 1019 23 10000 3.6 150 11:26 13.01.2021
3782 Clear 21 1020 24 10000 2.57 140 10:46 13.01.2021
3783 Clear 21 1020 24 10000 2.57 140 10:25 13.01.2021
3784 Clear 19 1021 27 10000 3.6 140 09:40 13.01.2021
3785 Haze 17 1022 34 4300 2.57 130 08:57 13.01.2021
3786 Haze 17 1022 34 4300 2.57 130 08:33 13.01.2021
3787 Haze 13 1022 50 4300 1.54 130 07:56 13.01.2021
3788 Haze 13 1022 50 4300 1.54 130 07:27 13.01.2021
3789 Clear 7 1021 61 10000 0.51 280 04:22 13.01.2021
3790 Clear 6 1021 65 10000 0.51 30 03:54 13.01.2021
3791 Clear 6 1021 65 10000 0.51 30 03:33 13.01.2021
3792 Clear 7 1021 61 10000 0.71 265 02:53 13.01.2021
3793 Clear 8 1022 57 10000 1.54 150 00:44 13.01.2021
3794 Clear 10 1022 50 10000 1.03 280 23:37 12.01.2021
3795 Clear 10 1022 50 10000 1.03 280 22:47 12.01.2021
3796 Clear 10 1022 50 10000 1.03 280 22:26 12.01.2021
3797 Clear 12 1022 43 10000 1.54 260 21:58 12.01.2021
3798 Clear 12 1022 43 10000 1.54 260 21:40 12.01.2021
3799 Clear 12 1022 43 10000 1.54 260 21:20 12.01.2021
3800 Clear 12 1023 43 10000 1.54 240 20:44 12.01.2021
3801 Clear 12 1023 43 10000 1.54 240 20:25 12.01.2021
3802 Clear 12 1022 43 10000 1.03 230 19:39 12.01.2021
3803 Clear 14 1022 38 10000 2.06 250 18:54 12.01.2021
3804 Clear 14 1022 38 10000 2.06 250 18:25 12.01.2021
3805 Clear 14 1023 38 10000 1.54 250 17:57 12.01.2021
3806 Clear 14 1023 38 10000 1.54 250 17:33 12.01.2021
3807 Clear 17 1022 34 10000 1.54 250 16:45 12.01.2021
3808 Clear 17 1022 34 10000 1.54 250 16:27 12.01.2021
3809 Clear 19 1022 30 10000 3.09 290 15:54 12.01.2021
3810 Clear 19 1022 30 10000 3.09 290 15:27 12.01.2021
3811 Clear 21 1023 28 10000 4.63 290 14:55 12.01.2021
3812 Clear 21 1023 28 10000 4.63 290 14:36 12.01.2021
3813 Clear 21 1023 28 10000 4.63 290 14:18 12.01.2021
3814 Clear 21 1023 26 10000 6.17 300 13:43 12.01.2021
3815 Clear 21 1023 30 10000 5.14 300 12:38 12.01.2021
3816 Clear 20 1024 34 10000 4.63 300 11:53 12.01.2021
3817 Clear 20 1024 34 10000 4.63 300 11:34 12.01.2021
3818 Clear 18 1024 34 10000 4.63 290 10:44 12.01.2021
3819 Clear 18 1024 34 10000 4.63 290 10:20 12.01.2021
3820 Clear 16 1025 33 10000 4.12 290 09:53 12.01.2021
3821 Clear 16 1025 33 10000 4.12 290 09:23 12.01.2021
3822 Clear 13 1026 38 10000 3.09 300 08:28 12.01.2021
3823 Clear 11 1025 40 10000 4.12 290 07:56 12.01.2021
3824 Clear 11 1025 40 10000 4.12 290 07:33 12.01.2021
3825 Clear 6 1025 61 10000 2.06 290 05:46 12.01.2021
3826 Clear 6 1024 65 10000 2.06 270 03:46 12.01.2021
3827 Clear 6 1024 65 10000 2.06 270 03:22 12.01.2021
3828 Clear 7 1025 61 10000 2.06 290 02:18 12.01.2021
3829 Clear 8 1025 46 10000 2.57 290 00:35 12.01.2021
3830 Clear 8 1025 46 10000 2.06 260 23:44 11.01.2021
3831 Clear 8 1025 46 10000 2.06 260 23:20 11.01.2021
3832 Clear 8 1025 46 10000 2.06 280 22:47 11.01.2021
3833 Clear 8 1025 46 10000 2.06 280 22:28 11.01.2021
3834 Clear 10 1025 40 10000 2.06 280 21:47 11.01.2021
3835 Clear 10 1025 40 10000 2.06 280 21:26 11.01.2021
3836 Clear 10 1025 40 10000 2.06 280 20:59 11.01.2021
3837 Clear 10 1025 40 10000 2.06 280 20:39 11.01.2021
3838 Clear 10 1025 40 10000 2.06 280 20:21 11.01.2021
3839 Clear 12 1025 37 10000 2.57 280 19:50 11.01.2021
3840 Clear 12 1025 37 10000 2.57 280 19:23 11.01.2021
3841 Clear 12 1025 37 10000 2.57 270 18:44 11.01.2021
3842 Clear 12 1025 37 10000 2.57 270 18:24 11.01.2021
3843 Clear 13 1025 38 10000 3.09 280 17:42 11.01.2021
3844 Clear 13 1025 38 10000 3.09 280 17:24 11.01.2021
3845 Clear 15 1024 33 10000 3.09 280 16:50 11.01.2021
3846 Clear 15 1024 33 10000 3.09 280 16:30 11.01.2021
3847 Clear 17 1024 27 10000 3.09 290 15:59 11.01.2021
3848 Clear 17 1024 27 10000 3.09 290 15:37 11.01.2021
3849 Clear 19 1024 24 10000 4.63 310 14:58 11.01.2021
3850 Clear 19 1024 24 10000 4.63 310 14:38 11.01.2021
3851 Clear 20 1024 24 10000 5.14 300 13:48 11.01.2021
3852 Clear 20 1024 24 10000 5.14 300 13:24 11.01.2021
3853 Clear 19 1024 24 10000 5.14 310 12:45 11.01.2021
3854 Clear 19 1024 24 10000 5.14 310 12:27 11.01.2021
3855 Clear 19 1024 26 10000 4.63 300 11:53 11.01.2021
3856 Clear 19 1024 26 10000 4.63 300 11:26 11.01.2021
3857 Clear 17 1025 29 10000 4.63 310 10:42 11.01.2021
3858 Clear 17 1025 29 10000 4.63 310 10:24 11.01.2021
3859 Clear 15 1026 36 10000 3.6 300 09:38 11.01.2021
3860 Clear 15 1026 36 10000 3.6 300 09:19 11.01.2021
3861 Clear 12 1027 40 10000 3.6 300 08:44 11.01.2021
3862 Clear 12 1027 40 10000 3.6 300 08:18 11.01.2021
3863 Clear 8 1026 57 10000 2.57 300 07:26 11.01.2021
3864 Clear 4 1025 75 10000 0.51 270 06:58 11.01.2021
3865 Clear 5 1024 65 10000 2.57 260 03:27 11.01.2021
3866 Clear 6 1024 56 10000 3.09 300 01:29 11.01.2021
3867 Clear 6 1024 61 6000 0.51 280 23:59 10.01.2021
3868 Clear 6 1024 61 6000 0.51 280 23:30 10.01.2021
3869 Clear 7 1024 61 6000 1.03 300 22:48 10.01.2021
3870 Clear 7 1024 61 6000 1.03 300 22:24 10.01.2021
3871 Clear 8 1024 61 9000 1.03 290 21:45 10.01.2021
3872 Clear 8 1024 61 9000 1.03 290 21:21 10.01.2021
3873 Clear 8 1024 61 9000 1.03 290 21:21 10.01.2021
3874 Clear 8 1024 61 7000 1.54 280 20:53 10.01.2021
3875 Clear 8 1024 61 7000 1.54 280 20:33 10.01.2021
3876 Clear 8 1024 61 7000 1.54 280 20:33 10.01.2021
3877 Clear 10 1024 57 10000 1.03 280 19:43 10.01.2021
3878 Clear 10 1024 57 10000 1.03 280 19:25 10.01.2021
3879 Clear 10 1024 53 10000 1.03 0 18:56 10.01.2021
3880 Clear 10 1024 53 10000 1.03 0 18:36 10.01.2021
3881 Clear 10 1024 53 10000 1.03 0 18:18 10.01.2021
3882 Clear 12 1024 47 10000 1.03 280 17:21 10.01.2021
3883 Clear 14 1023 44 10000 2.06 300 16:33 10.01.2021
3884 Clear 14 1023 44 10000 2.06 300 16:33 10.01.2021
3885 Clear 17 1023 36 10000 2.06 330 15:57 10.01.2021
3886 Clear 17 1023 36 10000 2.06 330 15:25 10.01.2021
3887 Clear 19 1023 30 10000 3.09 280 14:50 10.01.2021
3888 Clear 19 1023 30 10000 3.09 280 14:32 10.01.2021
3889 Clear 19 1023 32 10000 3.6 290 13:55 10.01.2021
3890 Clear 19 1023 32 10000 3.6 290 13:37 10.01.2021
3891 Clear 19 1023 32 10000 3.6 290 13:18 10.01.2021
3892 Clear 19 1023 32 10000 3.6 290 12:47 10.01.2021
3893 Clear 19 1023 32 10000 3.6 290 12:27 10.01.2021
3894 Clear 18 1024 36 10000 3.09 290 11:40 10.01.2021
3895 Clear 18 1024 36 10000 3.09 290 11:19 10.01.2021
3896 Clear 17 1024 42 10000 3.6 300 10:38 10.01.2021
3897 Clear 17 1024 42 10000 3.6 300 10:20 10.01.2021
3898 Clear 15 1025 44 10000 3.09 300 09:27 10.01.2021
3899 Haze 13 1025 44 4000 2.06 300 08:22 10.01.2021
3900 Clear 9 1025 53 2900 1.03 0 07:31 10.01.2021
3901 Clouds 4 1024 70 8000 2.06 270 06:20 10.01.2021
3902 Clouds 4 1024 65 7000 1.54 280 05:37 10.01.2021
3903 Clouds 5 1023 60 6000 2.06 300 03:55 10.01.2021
3904 Clouds 5 1023 60 6000 1.03 290 01:29 10.01.2021
3905 Clouds 6 1023 56 8000 1.03 350 23:55 09.01.2021
3906 Clouds 6 1023 56 8000 1.03 350 23:36 09.01.2021
3907 Clouds 8 1024 53 4600 1.54 310 22:49 09.01.2021
3908 Clouds 8 1024 53 4600 1.54 310 22:19 09.01.2021
3909 Clouds 9 1024 49 9000 1.54 290 21:58 09.01.2021
3910 Clouds 9 1024 49 9000 1.54 290 21:39 09.01.2021
3911 Clouds 9 1024 49 9000 1.54 290 21:20 09.01.2021
3912 Clear 9 1024 53 10000 1.03 290 20:45 09.01.2021
3913 Clear 11 1023 43 10000 1.03 280 19:57 09.01.2021
3914 Clear 11 1023 43 10000 1.03 280 19:39 09.01.2021
3915 Clear 11 1023 43 10000 1.03 280 19:18 09.01.2021
3916 Clear 11 1023 46 10000 1.54 290 18:35 09.01.2021
3917 Clear 12 1023 43 10000 2.06 260 17:51 09.01.2021
3918 Clear 12 1023 43 10000 2.06 260 17:32 09.01.2021
3919 Clear 15 1022 41 10000 2.57 250 16:55 09.01.2021
3920 Clear 15 1022 41 10000 2.57 250 16:22 09.01.2021
3921 Clear 17 1022 36 10000 2.57 240 15:41 09.01.2021
3922 Clear 19 1022 32 10000 2.06 240 14:56 09.01.2021
3923 Clear 19 1022 32 10000 2.06 240 14:36 09.01.2021
3924 Clear 19 1022 32 10000 2.06 240 14:18 09.01.2021
3925 Clear 20 1022 26 10000 2.06 220 13:43 09.01.2021
3926 Clear 20 1022 26 10000 2.06 220 13:24 09.01.2021
3927 Clear 19 1022 30 10000 1.54 230 12:28 09.01.2021
3928 Clear 19 1023 27 10000 2.06 230 11:58 09.01.2021
3929 Clear 19 1023 27 10000 2.06 230 11:37 09.01.2021
3930 Clear 19 1023 27 10000 2.06 230 11:37 09.01.2021
3931 Clear 18 1023 29 10000 2.06 270 10:57 09.01.2021
3932 Clear 18 1023 29 10000 2.06 270 10:38 09.01.2021
3933 Clear 18 1023 29 10000 2.06 270 10:19 09.01.2021
3934 Clear 15 1024 36 10000 2.06 260 09:43 09.01.2021
3935 Clear 15 1024 36 10000 2.06 260 09:19 09.01.2021
3936 Haze 8 1024 71 2900 2.06 280 07:48 09.01.2021
3937 Clear 5 1024 70 4100 1.54 280 06:42 09.01.2021
3938 Clear 5 1024 70 4100 1.54 280 06:23 09.01.2021
3939 Clear 5 1022 70 7000 0.51 10 03:49 09.01.2021
3940 Clear 7 1023 65 7000 1.03 0 02:40 09.01.2021
3941 Clear 7 1023 65 7000 1.03 0 02:22 09.01.2021
3942 Clear 6 1023 61 7000 1.54 310 01:24 09.01.2021
3943 Clear 6 1023 61 6000 2.57 260 00:28 09.01.2021
3944 Clear 7 1023 61 10000 1.03 290 23:42 08.01.2021
3945 Clear 6 1023 61 10000 2.36 320 22:43 08.01.2021
3946 Clear 9 1023 49 10000 1.03 0 21:52 08.01.2021
3947 Clear 8 1023 53 10000 1.03 260 20:59 08.01.2021
3948 Clear 8 1023 53 10000 1.03 260 20:35 08.01.2021
3949 Clear 11 1023 43 10000 0.51 0 19:58 08.01.2021
3950 Clear 11 1023 43 10000 0.51 0 19:25 08.01.2021
3951 Clear 11 1023 46 10000 1.54 230 18:54 08.01.2021
3952 Clear 11 1023 46 10000 1.54 230 18:54 08.01.2021
3953 Clear 11 1023 46 10000 1.54 230 18:32 08.01.2021
3954 Clear 12 1022 40 10000 1.54 240 17:54 08.01.2021
3955 Clear 12 1022 40 10000 1.54 240 17:25 08.01.2021
3956 Clear 14 1022 35 10000 1.03 270 16:48 08.01.2021
3957 Clear 17 1022 29 10000 1.54 230 15:52 08.01.2021
3958 Clear 17 1022 29 10000 1.54 230 15:32 08.01.2021
3959 Clear 19 1022 24 10000 2.57 230 14:40 08.01.2021
3960 Clear 19 1022 24 10000 2.57 230 14:40 08.01.2021
3961 Clear 19 1022 26 10000 3.09 250 13:55 08.01.2021
3962 Clear 19 1022 26 10000 3.09 250 13:22 08.01.2021
3963 Clear 19 1022 27 10000 2.06 250 12:52 08.01.2021
3964 Clear 19 1022 27 10000 2.06 250 12:22 08.01.2021
3965 Clear 19 1022 24 10000 1.54 250 11:50 08.01.2021
3966 Clear 19 1022 24 10000 1.54 250 11:30 08.01.2021
3967 Clear 17 1023 29 9000 1.03 0 10:56 08.01.2021
3968 Clear 17 1023 29 9000 1.03 0 10:38 08.01.2021
3969 Clear 15 1024 31 9000 2.06 290 09:53 08.01.2021
3970 Clear 15 1024 31 9000 2.06 290 09:34 08.01.2021
3971 Clear 12 1025 43 9000 1.54 290 08:41 08.01.2021
3972 Clear 8 1024 57 7000 1.03 0 07:29 08.01.2021
3973 Mist 4 1024 75 5000 1.54 300 06:40 08.01.2021
3974 Mist 5 1023 65 4200 1.03 330 00:32 08.01.2021
3975 Mist 7 1023 61 4800 1.54 300 23:41 07.01.2021
3976 Clear 7 1023 57 10000 1.03 290 22:51 07.01.2021
3977 Clear 7 1023 57 10000 1.03 290 22:33 07.01.2021
3978 Clear 7 1023 61 10000 1.03 320 21:49 07.01.2021
3979 Clear 7 1023 61 10000 1.03 320 21:29 07.01.2021
3980 Clear 8 1023 57 10000 0.51 0 20:48 07.01.2021
3981 Clear 8 1023 57 10000 0.51 0 20:29 07.01.2021
3982 Clear 8 1023 53 10000 1.03 0 19:47 07.01.2021
3983 Clear 8 1023 53 10000 1.03 0 19:23 07.01.2021
3984 Clear 10 1023 50 10000 0.51 0 18:46 07.01.2021
3985 Clear 10 1023 50 10000 0.51 0 18:20 07.01.2021
3986 Clear 11 1023 43 10000 0.51 260 17:32 07.01.2021
3987 Clear 13 1022 41 10000 1.54 360 16:56 07.01.2021
3988 Clear 13 1022 41 10000 1.54 360 16:32 07.01.2021
3989 Clear 17 1022 31 10000 2.06 330 15:52 07.01.2021
3990 Clear 17 1022 31 10000 2.06 330 15:30 07.01.2021
3991 Clear 19 1022 27 10000 3.09 280 14:32 07.01.2021
3992 Clear 19 1022 27 10000 2.57 280 13:58 07.01.2021
3993 Clear 19 1022 27 10000 2.57 280 13:30 07.01.2021
3994 Clouds 18 1022 23 10000 2.53 334 12:55 07.01.2021
3995 Clear 17 1022 29 10000 3.1 280 12:23 07.01.2021
3996 Clear 17 1022 29 10000 3.1 280 11:41 07.01.2021
3997 Clear 16 1023 25 10000 1 0 11:23 07.01.2021
3998 Clear 16 1023 25 10000 1 0 10:37 07.01.2021
3999 Clear 14 1024 35 10000 1.5 350 10:18 07.01.2021
4000 Clear 14 1024 35 10000 1.5 350 09:41 07.01.2021
4001 Clear 11 1024 37 10000 3.1 300 08:40 07.01.2021
4002 Clear 9 1024 45 10000 2.6 310 08:21 07.01.2021
4003 Clear 9 1024 45 10000 2.6 310 07:42 07.01.2021
4004 Clear 4 1024 60 10000 1.5 290 06:50 07.01.2021
4005 Clear 7 1023 39 10000 2.6 260 02:19 07.01.2021
4006 Clear 8 1023 52 10000 2.6 320 00:22 07.01.2021
4007 Clear 8 1023 52 10000 2.6 320 23:31 06.01.2021
4008 Clear 9 1023 45 10000 1.5 330 22:29 06.01.2021
4009 Clear 9 1023 45 10000 1.5 330 21:42 06.01.2021
4010 Clear 10 1023 43 10000 1.5 290 21:22 06.01.2021
4011 Clear 10 1023 43 10000 1.5 290 20:47 06.01.2021
4012 Clear 10 1024 46 10000 2.6 300 20:22 06.01.2021
4013 Clear 10 1024 46 10000 2.6 300 20:22 06.01.2021
4014 Clear 10 1024 46 10000 2.6 300 19:48 06.01.2021
4015 Clear 10 1024 46 10000 2.6 300 19:28 06.01.2021
4016 Clear 12 1024 37 10000 3.6 300 18:50 06.01.2021
4017 Clear 13 1023 32 10000 3.1 290 18:31 06.01.2021
4018 Clear 13 1023 32 10000 3.1 290 17:47 06.01.2021
4019 Clear 13 1023 32 10000 3.1 290 17:28 06.01.2021
4020 Clear 14 1023 35 10000 2.6 300 16:59 06.01.2021
4021 Clear 14 1023 35 10000 2.6 300 16:36 06.01.2021
4022 Clear 17 1023 27 10000 3.6 310 16:18 06.01.2021
4023 Clear 17 1023 27 10000 3.6 310 15:43 06.01.2021
4024 Clouds 20 1023 22 10000 5.7 310 15:23 06.01.2021
4025 Clouds 20 1023 22 10000 5.7 310 14:32 06.01.2021
4026 Clear 20 1022 24 10000 4.6 310 13:55 06.01.2021
4027 Clear 20 1022 24 10000 4.6 310 13:27 06.01.2021
4028 Clear 20 1022 22 10000 4.6 300 12:58 06.01.2021
4029 Clear 20 1022 22 10000 4.6 300 12:32 06.01.2021
4030 Clear 19 1022 29 10000 4.6 300 11:46 06.01.2021
4031 Clear 17 1023 23 10000 4.1 300 11:23 06.01.2021
4032 Clear 17 1023 23 10000 4.1 300 10:43 06.01.2021
4033 Clear 15 1024 25 10000 3.1 290 09:52 06.01.2021
4034 Clear 15 1024 25 10000 3.1 290 09:32 06.01.2021
4035 Clear 11 1025 43 10000 3.1 300 08:52 06.01.2021
4036 Clear 8 1024 31 10000 2.6 310 08:19 06.01.2021
4037 Clear 8 1024 31 10000 2.6 310 07:52 06.01.2021
4038 Clouds 14 1023 35 10000 3.87 324 06:44 06.01.2021
4039 Clear 4 1024 69 10000 2.1 320 05:30 06.01.2021
4040 Clear 5 1022 65 10000 2.6 320 04:18 06.01.2021
4041 Clear 5 1022 65 10000 3.1 320 02:43 06.01.2021
4042 Clear 5 1022 65 10000 2.6 300 02:21 06.01.2021
4043 Clear 7 1022 39 10000 2.1 290 23:57 05.01.2021
4044 Clear 7 1022 65 10000 1.5 310 22:57 05.01.2021
4045 Clear 7 1022 65 10000 1.5 310 22:39 05.01.2021
4046 Clear 8 1022 61 10000 2.1 290 22:19 05.01.2021
4047 Clear 8 1022 61 10000 2.1 290 21:34 05.01.2021
4048 Clear 9 1022 61 10000 1 270 20:31 05.01.2021
4049 Clear 10 1022 53 10000 1.5 250 19:59 05.01.2021
4050 Clear 10 1022 53 10000 1.5 250 19:40 05.01.2021
4051 Clear 10 1022 53 10000 1.5 250 19:20 05.01.2021
4052 Clear 11 1022 53 10000 2.1 300 18:42 05.01.2021
4053 Clear 12 1022 50 10000 3.1 300 18:19 05.01.2021
4054 Clear 12 1022 50 10000 3.1 300 17:42 05.01.2021
4055 Clear 15 1021 41 10000 1.5 280 17:21 05.01.2021
4056 Clear 15 1021 41 10000 1.5 280 16:45 05.01.2021
4057 Clear 17 1021 36 10000 3.1 300 16:21 05.01.2021
4058 Clear 17 1021 36 10000 3.1 300 15:49 05.01.2021
4059 Clear 18 1020 36 10000 3.1 280 14:49 05.01.2021
4060 Clear 18 1020 34 10000 3.6 280 14:20 05.01.2021
4061 Clear 18 1020 34 10000 3.6 280 13:46 05.01.2021
4062 Clear 18 1020 36 10000 3.1 290 13:22 05.01.2021
4063 Clear 18 1020 36 10000 3.1 290 12:47 05.01.2021
4064 Clear 18 1020 36 10000 3.1 290 12:24 05.01.2021
4065 Clouds 17 1020 36 10000 3.6 290 11:39 05.01.2021
4066 Clear 16 1021 36 10000 3.1 290 10:55 05.01.2021
4067 Clear 16 1021 36 10000 3.1 290 10:36 05.01.2021
4068 Clear 13 1022 43 10000 3.6 300 09:50 05.01.2021
4069 Clear 13 1022 43 10000 3.6 300 09:29 05.01.2021
4070 Clear 11 1022 35 10000 3.1 300 08:27 05.01.2021
4071 Clear 9 1022 35 10000 3.6 310 07:45 05.01.2021
4072 Clear 6 1020 45 10000 2.6 280 04:56 05.01.2021
4073 Clear 8 1020 70 10000 2.6 260 00:59 05.01.2021
4074 Clear 8 1020 65 10000 1.5 260 23:59 04.01.2021
4075 Clear 8 1020 65 10000 1.5 260 23:36 04.01.2021
4076 Clear 9 1020 61 10000 2.1 270 23:18 04.01.2021
4077 Clear 9 1020 61 10000 2.1 270 22:41 04.01.2021
4078 Clear 10 1020 57 10000 2.1 270 21:53 04.01.2021
4079 Clear 10 1020 57 10000 2.1 270 21:35 04.01.2021
4080 Clear 11 1020 50 10000 2.6 270 20:51 04.01.2021
4081 Clear 11 1020 50 10000 2.6 270 20:31 04.01.2021
4082 Clear 12 1020 54 10000 1.5 260 19:53 04.01.2021
4083 Clear 12 1020 54 10000 1.5 260 19:28 04.01.2021
4084 Clear 12 1020 50 10000 1.5 280 18:58 04.01.2021
4085 Clear 13 1020 47 10000 2.6 270 18:25 04.01.2021
4086 Clear 13 1020 47 10000 2.6 270 17:44 04.01.2021
4087 Clear 13 1020 47 10000 2.6 270 17:25 04.01.2021
4088 Clear 14 1020 44 10000 2.6 300 16:48 04.01.2021
4089 Clear 14 1020 44 10000 2.6 300 16:27 04.01.2021
4090 Clear 18 1019 34 10000 3.6 310 15:51 04.01.2021
4091 Clear 20 1019 30 10000 3.6 290 15:32 04.01.2021
4092 Clear 20 1019 30 10000 3.6 290 14:48 04.01.2021
4093 Clear 20 1019 30 10000 4.1 300 13:51 04.01.2021
4094 Clear 20 1019 30 10000 5.1 300 13:26 04.01.2021
4095 Clear 20 1019 30 10000 5.1 300 12:49 04.01.2021
4096 Clear 19 1019 34 10000 3.1 290 11:59 04.01.2021
4097 Clear 19 1019 34 10000 3.1 290 11:29 04.01.2021
4098 Clear 17 1020 42 10000 2.1 320 10:54 04.01.2021
4099 Clear 15 1020 44 10000 2.6 330 10:29 04.01.2021
4100 Clear 15 1020 44 10000 2.6 330 09:58 04.01.2021
4101 Clear 14 1021 47 10000 2.6 340 09:22 04.01.2021
4102 Clear 13 1021 47 10000 2.6 320 08:48 04.01.2021
4103 Clear 10 1021 57 10000 3.1 310 08:18 04.01.2021
4104 Clear 10 1021 57 10000 3.1 310 07:44 04.01.2021
4105 Clear 5 1020 75 10000 2.6 300 05:34 04.01.2021
4106 Clear 7 1020 70 10000 2.1 270 04:31 04.01.2021
4107 Clear 9 1020 66 10000 2.6 310 01:26 04.01.2021
4108 Clear 9 1019 61 10000 2.1 290 23:51 03.01.2021
4109 Clear 9 1019 61 10000 2.1 290 23:25 03.01.2021
4110 Clear 10 1019 66 10000 0.5 0 22:56 03.01.2021
4111 Clear 10 1019 66 10000 0.5 0 22:33 03.01.2021
4112 Clear 11 1020 62 10000 1.5 280 21:57 03.01.2021
4113 Clear 11 1020 62 10000 1.5 280 21:29 03.01.2021
4114 Clear 12 1020 62 10000 1.5 270 20:50 03.01.2021
4115 Clear 12 1020 62 10000 1.5 270 20:32 03.01.2021
4116 Clear 12 1020 58 9000 2.1 310 19:58 03.01.2021
4117 Clear 12 1020 58 9000 2.1 310 19:35 03.01.2021
4118 Clear 13 1020 54 9000 2.6 320 18:58 03.01.2021
4119 Clear 13 1020 54 9000 2.6 320 18:39 03.01.2021
4120 Clear 14 1020 50 9000 1 290 18:20 03.01.2021
4121 Clear 14 1020 50 9000 1 290 17:48 03.01.2021
4122 Clear 17 1020 33 10000 3.12 324 17:23 03.01.2021
4123 Clear 17 1020 33 10000 3.12 324 16:44 03.01.2021
4124 Clear 19 1019 39 10000 2.6 320 16:20 03.01.2021
4125 Clear 19 1019 39 10000 2.6 320 15:47 03.01.2021
4126 Clear 19 1019 39 10000 2.6 320 15:28 03.01.2021
4127 Clear 21 1019 32 10000 3.1 330 14:57 03.01.2021
4128 Clear 21 1019 32 10000 3.1 330 14:29 03.01.2021
4129 Clear 21 1019 35 10000 3.1 320 13:42 03.01.2021
4130 Clear 21 1019 37 10000 4.6 300 13:23 03.01.2021
4131 Clear 21 1019 37 10000 4.6 300 12:33 03.01.2021
4132 Clear 20 1020 40 10000 4.1 290 11:42 03.01.2021
4133 Clear 20 1020 40 10000 4.1 290 11:24 03.01.2021
4134 Clear 18 1021 45 10000 3.6 300 10:45 03.01.2021
4135 Clear 20 1021 27 10000 3.92 321 10:18 03.01.2021
4136 Clear 20 1021 27 10000 3.92 321 09:41 03.01.2021
4137 Clear 14 1022 62 10000 2.1 290 09:22 03.01.2021
4138 Clear 11 1023 81 6000 2.6 270 07:42 03.01.2021
4139 Clear 8 1022 70 8000 2.1 290 05:58 03.01.2021
4140 Clear 8 1021 65 10000 1.5 260 02:28 03.01.2021
4141 Clear 8 1022 70 10000 3.1 300 01:45 03.01.2021
4142 Clouds 10 1021 71 7000 1 0 00:19 03.01.2021
4143 Clouds 10 1021 71 7000 1 0 23:30 02.01.2021
4144 Clouds 12 1022 62 8000 2.1 230 22:56 02.01.2021
4145 Clouds 12 1022 62 8000 2.1 230 22:32 02.01.2021
4146 Clouds 12 1022 62 7000 1.5 300 21:52 02.01.2021
4147 Clouds 12 1022 62 7000 1.5 300 21:32 02.01.2021
4148 Clouds 11 1022 71 8000 1 330 20:55 02.01.2021
4149 Clouds 11 1022 71 8000 1 330 20:36 02.01.2021
4150 Clear 12 1022 62 10000 1 0 20:18 02.01.2021
4151 Clear 13 1022 58 10000 1.5 270 19:20 02.01.2021
4152 Clear 13 1022 58 10000 1.5 270 18:58 02.01.2021
4153 Clear 13 1022 58 10000 1.5 270 18:39 02.01.2021
4154 Clear 15 1022 51 10000 0.5 340 18:19 02.01.2021
4155 Clear 15 1022 51 10000 0.5 340 17:43 02.01.2021
4156 Clear 17 1022 48 10000 1.5 330 16:58 02.01.2021
4157 Clear 17 1022 48 10000 1.5 330 16:23 02.01.2021
4158 Clear 18 1022 45 10000 2.1 340 15:54 02.01.2021
4159 Clear 18 1022 45 10000 2.1 340 15:33 02.01.2021
4160 Clear 21 1021 35 10000 2.1 330 14:58 02.01.2021
4161 Clear 21 1021 35 10000 2.1 330 14:36 02.01.2021
4162 Clear 21 1022 37 10000 2.1 290 13:51 02.01.2021
4163 Clear 21 1022 37 10000 2.1 290 13:26 02.01.2021
4164 Clear 20 1022 40 10000 2.6 280 12:52 02.01.2021
4165 Clear 20 1022 40 10000 2.6 280 12:31 02.01.2021
4166 Clear 20 1022 42 10000 2.1 260 11:45 02.01.2021
4167 Clear 19 1023 42 10000 2.1 310 11:22 02.01.2021
4168 Clear 19 1023 42 10000 2.1 310 10:46 02.01.2021
4169 Clear 19 1023 42 10000 2.1 310 10:28 02.01.2021
4170 Haze 17 1024 51 8000 2.1 290 09:43 02.01.2021
4171 Haze 14 1024 54 2500 1 0 09:23 02.01.2021
4172 Haze 14 1024 54 2500 1 0 08:49 02.01.2021
4173 Haze 14 1024 54 2500 1 0 08:24 02.01.2021
4174 Haze 11 1024 62 6000 1.5 280 07:44 02.01.2021
4175 Clear 7 1024 75 6000 2.1 290 07:21 02.01.2021
4176 Clear 7 1024 75 6000 2.1 290 06:28 02.01.2021
4177 Clear 6 1023 81 6000 1.5 300 05:28 02.01.2021
4178 Clear 8 1022 75 7000 2.6 310 00:56 02.01.2021
4179 Clear 8 1022 75 7000 2.6 310 00:35 02.01.2021
4180 Clear 9 1022 66 9000 0.5 0 23:54 01.01.2021
4181 Clear 10 1022 66 8000 2.1 220 23:21 01.01.2021
4182 Clear 10 1022 66 8000 2.1 220 22:47 01.01.2021
4183 Clear 10 1022 66 8000 2.1 220 22:24 01.01.2021
4184 Clear 10 1022 66 9000 1 0 21:44 01.01.2021
4185 Clear 10 1021 66 10000 2.02 320 21:22 01.01.2021
4186 Clear 10 1021 66 10000 2.02 320 20:53 01.01.2021
4187 Clear 11 1021 62 10000 1.98 312 20:22 01.01.2021
4188 Clear 11 1021 62 10000 1.98 312 19:43 01.01.2021
4189 Clear 11 1021 62 10000 1.91 299 19:24 01.01.2021
4190 Clear 12 1021 58 10000 1 310 18:59 01.01.2021
4191 Clear 12 1021 58 10000 1 310 18:40 01.01.2021
4192 Clear 14 1021 50 10000 0.5 290 18:19 01.01.2021
4193 Clear 14 1021 50 10000 0.5 290 17:42 01.01.2021
4194 Clear 16 1021 44 10000 1 270 17:18 01.01.2021
4195 Clear 16 1021 44 10000 1 270 16:40 01.01.2021
4196 Clear 19 1020 34 10000 1.5 270 15:56 01.01.2021
4197 Clear 19 1020 34 10000 1.5 270 15:37 01.01.2021
4198 Clear 20 1020 34 10000 2.6 250 14:42 01.01.2021
4199 Clear 21 1020 37 10000 1.5 240 14:19 01.01.2021
4200 Clear 21 1020 37 10000 1.5 240 13:37 01.01.2021
4201 Clear 21 1020 35 10000 2.6 240 12:48 01.01.2021
4202 Clear 21 1020 35 10000 2.6 240 12:25 01.01.2021
4203 Clear 20 1020 34 10000 1.5 0 11:39 01.01.2021
4204 Clear 20 1021 32 10000 1 0 11:18 01.01.2021
4205 Clear 20 1021 32 10000 1 0 10:51 01.01.2021
4206 Clear 18 1022 45 9000 1 0 09:53 01.01.2021
4207 Clear 15 1022 54 3000 0.5 0 09:24 01.01.2021
4208 Clear 15 1022 54 3000 0.5 0 08:30 01.01.2021
4209 Clear 6 1021 81 5000 1.5 330 06:24 01.01.2021
4210 Clear 5 1021 80 9000 1 260 04:49 01.01.2021
4211 Clear 7 1020 81 6000 1.5 310 01:40 01.01.2021
4212 Clear 8 1020 75 6000 1.5 260 00:32 01.01.2021
4213 Clear 8 1020 75 10000 1 310 23:40 31.12.2020
4214 Clear 9 1020 70 10000 1 310 23:20 31.12.2020
4215 Clear 9 1020 70 10000 1 310 22:42 31.12.2020
4216 Clear 9 1020 76 10000 1 0 22:22 31.12.2020
4217 Clear 9 1020 76 10000 1 0 21:56 31.12.2020
4218 Clear 9 1020 76 10000 1 0 21:36 31.12.2020
4219 Clear 10 1020 71 10000 1 230 20:58 31.12.2020
4220 Clear 10 1020 71 10000 1 230 20:27 31.12.2020
4221 Clear 11 1020 62 10000 1 0 19:50 31.12.2020
4222 Clear 11 1020 62 10000 1 0 19:32 31.12.2020
4223 Clear 13 1020 58 10000 0.5 0 18:53 31.12.2020
4224 Clear 13 1020 58 10000 0.5 0 18:25 31.12.2020
4225 Clear 13 1020 62 10000 2.56 305 17:48 31.12.2020
4226 Clear 13 1020 62 10000 2.48 281 17:28 31.12.2020
4227 Clear 16 1020 48 10000 1.5 230 16:57 31.12.2020
4228 Clear 16 1020 48 10000 1.5 230 16:37 31.12.2020
4229 Clear 19 1019 45 10000 1.5 220 16:19 31.12.2020
4230 Clear 19 1019 45 10000 1.5 220 15:42 31.12.2020
4231 Clear 20 1019 40 10000 1.5 240 15:19 31.12.2020
4232 Clear 20 1019 40 10000 1.5 240 14:41 31.12.2020
4233 Clear 20 1019 40 10000 2.1 230 14:23 31.12.2020
4234 Clear 20 1019 40 10000 2.1 230 13:58 31.12.2020
4235 Clear 20 1019 40 10000 2.1 230 13:37 31.12.2020
4236 Clear 20 1019 40 10000 2.6 260 13:19 31.12.2020
4237 Clear 20 1019 40 10000 2.6 260 12:46 31.12.2020
4238 Clear 20 1019 40 10000 2.6 260 12:28 31.12.2020
4239 Clear 19 1020 39 10000 2.6 240 11:47 31.12.2020
4240 Clear 19 1020 39 10000 2.6 240 11:29 31.12.2020
4241 Clear 17 1021 45 10000 2.1 240 10:42 31.12.2020
4242 Clear 16 1021 44 10000 1 0 10:23 31.12.2020
4243 Clear 16 1021 44 10000 1 0 09:49 31.12.2020
4244 Clear 16 1021 44 10000 1 0 09:24 31.12.2020
4245 Clear 13 1022 50 10000 0.5 0 08:48 31.12.2020
4246 Clear 13 1022 50 10000 0.5 0 08:30 31.12.2020
4247 Clear 9 1022 66 10000 1.5 280 07:55 31.12.2020
4248 Clear 9 1022 66 10000 1.5 280 07:25 31.12.2020
4249 Clear 6 1021 70 10000 1.5 250 05:30 31.12.2020
4250 Clear 7 1020 65 10000 1.5 270 03:37 31.12.2020
4251 Clear 8 1021 61 10000 1.5 270 02:38 31.12.2020
4252 Clear 8 1021 41 10000 2.1 240 02:20 31.12.2020
4253 Clear 8 1021 41 10000 2.1 240 01:41 31.12.2020
4254 Clear 8 1021 40 10000 1 300 01:19 31.12.2020
4255 Clear 8 1021 40 10000 1 300 00:39 31.12.2020
4256 Clear 8 1021 61 10000 1 0 23:41 30.12.2020
4257 Clear 9 1021 61 10000 1.5 280 23:19 30.12.2020
4258 Clear 9 1021 61 10000 1.5 280 22:43 30.12.2020
4259 Clear 11 1021 57 10000 0.5 0 22:23 30.12.2020
4260 Clear 11 1021 57 10000 0.5 0 21:38 30.12.2020
4261 Clear 11 1021 57 10000 2.6 210 21:19 30.12.2020
4262 Clear 11 1021 57 10000 2.6 210 20:41 30.12.2020
4263 Clear 11 1020 62 10000 1.5 290 20:20 30.12.2020
4264 Clear 11 1020 62 10000 1.5 290 19:39 30.12.2020
4265 Clear 13 1020 50 10000 1.5 220 19:19 30.12.2020
4266 Clear 13 1020 50 10000 1.5 220 18:42 30.12.2020
4267 Clear 14 1020 47 10000 1 230 18:23 30.12.2020
4268 Clear 14 1020 47 10000 1 230 17:50 30.12.2020
4269 Clear 16 1020 41 10000 2.1 290 17:31 30.12.2020
4270 Clear 16 1020 41 10000 2.1 290 16:52 30.12.2020
4271 Clear 18 1020 36 10000 2.6 310 16:27 30.12.2020
4272 Clear 18 1020 36 10000 2.6 310 15:45 30.12.2020
4273 Clear 20 1020 32 10000 3.1 320 15:24 30.12.2020
4274 Clear 20 1020 32 10000 3.1 320 14:43 30.12.2020
4275 Clear 20 1020 32 10000 3.6 290 14:22 30.12.2020
4276 Clear 20 1020 32 10000 3.6 290 13:26 30.12.2020
4277 Clear 20 1020 34 10000 3.1 290 12:28 30.12.2020
4278 Clear 18 1021 36 10000 3.6 300 11:50 30.12.2020
4279 Clear 17 1022 36 10000 3.1 260 11:24 30.12.2020
4280 Clear 17 1022 36 10000 3.1 260 10:59 30.12.2020
4281 Clear 17 1022 36 10000 3.1 260 10:39 30.12.2020
4282 Clear 15 1022 41 10000 2.6 280 10:20 30.12.2020
4283 Clear 15 1022 41 10000 2.6 280 09:48 30.12.2020
4284 Clear 12 1023 46 10000 3.1 300 09:23 30.12.2020
4285 Clear 12 1023 46 10000 3.1 300 08:24 30.12.2020
4286 Clear 9 1023 57 10000 2.6 300 07:29 30.12.2020
4287 Clear 8 1022 39 10000 2.6 270 06:51 30.12.2020
4288 Clear 8 1022 44 10000 2.6 270 06:29 30.12.2020
4289 Clear 6 1022 60 10000 3.1 290 05:42 30.12.2020
4290 Clear 6 1022 60 10000 3.1 290 05:24 30.12.2020
4291 Clear 7 1021 43 10000 2.6 290 03:28 30.12.2020
4292 Clear 7 1022 56 10000 1.5 280 02:39 30.12.2020
4293 Clear 7 1022 56 10000 1.5 280 01:51 30.12.2020
4294 Clear 7 1022 56 10000 1.5 280 01:32 30.12.2020
4295 Clear 8 1022 52 10000 2.1 270 00:47 30.12.2020
4296 Clear 8 1022 52 10000 2.1 270 00:29 30.12.2020
4297 Clear 9 1022 49 10000 2.1 270 23:54 29.12.2020
4298 Clear 9 1022 49 10000 2.1 270 23:35 29.12.2020
4299 Clear 10 1022 43 10000 2.6 270 22:56 29.12.2020
4300 Clear 10 1022 43 10000 2.6 270 22:37 29.12.2020
4301 Clear 10 1022 43 10000 1.5 270 22:19 29.12.2020
4302 Clear 10 1022 43 10000 1.5 270 21:44 29.12.2020
4303 Clear 11 1022 43 10000 1.5 250 21:24 29.12.2020
4304 Clear 11 1022 43 10000 1.5 250 20:45 29.12.2020
4305 Clear 11 1022 43 10000 1.5 250 20:25 29.12.2020
4306 Clear 10 1022 37 10000 1 260 19:46 29.12.2020
4307 Clear 10 1022 37 10000 1 260 19:23 29.12.2020
4308 Clear 10 1022 37 10000 1 260 19:23 29.12.2020
4309 Clear 13 1022 37 10000 1.5 260 18:54 29.12.2020
4310 Clear 13 1022 37 10000 1.5 260 18:29 29.12.2020
4311 Clear 13 1022 37 10000 2.6 250 17:55 29.12.2020
4312 Clear 13 1022 37 10000 2.6 250 17:36 29.12.2020
4313 Clear 15 1022 33 10000 2.6 270 17:18 29.12.2020
4314 Clear 15 1022 33 10000 2.6 270 16:34 29.12.2020
4315 Clear 16 1021 29 10000 2.6 280 15:53 29.12.2020
4316 Clear 16 1021 29 10000 2.6 280 15:33 29.12.2020
4317 Clear 18 1021 27 10000 4.1 310 14:55 29.12.2020
4318 Clear 18 1021 27 10000 4.1 310 14:36 29.12.2020
4319 Clear 18 1021 27 10000 4.6 310 14:18 29.12.2020
4320 Clear 18 1022 23 10000 4.1 300 13:26 29.12.2020
4321 Clear 18 1022 23 10000 4.1 300 12:59 29.12.2020
4322 Clear 18 1022 23 10000 4.1 300 12:36 29.12.2020
4323 Clear 18 1022 27 10000 4.1 300 12:18 29.12.2020
4324 Clear 18 1022 27 10000 4.1 300 11:49 29.12.2020
4325 Clear 18 1022 27 10000 4.1 300 11:27 29.12.2020
4326 Clear 17 1023 29 10000 3.39 304 10:22 29.12.2020
4327 Clear 17 1023 29 10000 3.39 304 09:41 29.12.2020
4328 Clear 12 1024 31 10000 1.5 290 09:19 29.12.2020
4329 Clear 12 1024 31 10000 1.5 290 09:19 29.12.2020
4330 Clear 12 1024 31 10000 1.5 290 09:19 29.12.2020
4331 Clear 12 1024 31 10000 1.5 290 08:49 29.12.2020
4332 Clear 9 1024 33 10000 2.1 260 07:44 29.12.2020
4333 Clear 9 1024 36 10000 2.1 260 07:26 29.12.2020
4334 Clear 7 1024 65 10000 2.6 270 05:54 29.12.2020
4335 Clouds 12 1023 39 10000 2.74 317 02:41 29.12.2020
4336 Clouds 12 1023 38 10000 2.28 321 00:44 29.12.2020
4337 Clear 7 1024 38 10000 1 290 23:39 28.12.2020
4338 Clear 8 1024 38 10000 1.5 270 22:58 28.12.2020
4339 Clear 8 1024 38 10000 1.5 270 22:23 28.12.2020
4340 Clouds 12 1024 38 10000 1.82 338 21:44 28.12.2020
4341 Clear 8 1024 37 10000 2.01 343 21:23 28.12.2020
4342 Clear 8 1024 37 10000 2.01 343 20:40 28.12.2020
4343 Clear 10 1024 53 10000 1.5 310 20:22 28.12.2020
4344 Clear 10 1024 53 10000 1.5 310 19:42 28.12.2020
4345 Clear 10 1024 53 10000 1.5 310 19:23 28.12.2020
4346 Clear 11 1024 35 10000 2.1 260 18:50 28.12.2020
4347 Clear 11 1024 34 10000 2.1 260 18:28 28.12.2020
4348 Clear 14 1024 34 10000 3.04 330 17:43 28.12.2020
4349 Clear 13 1023 37 10000 1.5 290 17:25 28.12.2020
4350 Clear 13 1023 37 10000 1.5 290 16:43 28.12.2020
4351 Clear 13 1023 37 10000 1.5 290 16:23 28.12.2020
4352 Clear 15 1023 33 10000 3.1 300 15:46 28.12.2020
4353 Clear 17 1023 29 10000 3.6 300 14:58 28.12.2020
4354 Clear 17 1023 25 10000 4.1 310 13:59 28.12.2020
4355 Clear 17 1023 25 10000 4.1 310 13:35 28.12.2020
4356 Clear 17 1023 27 10000 3.6 280 12:55 28.12.2020
4357 Clear 17 1023 27 10000 3.6 280 12:24 28.12.2020
4358 Clear 17 1024 29 10000 4.1 290 11:47 28.12.2020
4359 Clear 17 1024 29 10000 4.1 290 11:25 28.12.2020
4360 Clear 16 1025 28 10000 4.6 290 10:49 28.12.2020
4361 Clear 16 1025 30 10000 4.6 290 10:28 28.12.2020
4362 Clear 15 1025 30 10000 1.5 280 09:49 28.12.2020
4363 Clouds 13 1026 47 10000 2.1 260 09:21 28.12.2020
4364 Clouds 13 1026 47 10000 2.1 260 08:52 28.12.2020
4365 Clouds 8 1025 61 10000 2.1 320 06:51 28.12.2020
4366 Clouds 10 1025 44 10000 2.6 260 04:44 28.12.2020
4367 Clear 10 1025 53 10000 0.5 0 02:59 28.12.2020
4368 Clear 10 1025 53 10000 1.5 260 01:46 28.12.2020
4369 Clear 10 1025 53 10000 1.5 270 23:50 27.12.2020
4370 Clear 10 1025 53 10000 1.5 260 23:20 27.12.2020
4371 Clouds 11 1025 53 10000 1.5 270 21:59 27.12.2020
4372 Clouds 11 1025 53 10000 1.5 270 21:27 27.12.2020
4373 Clouds 11 1025 50 10000 2.1 180 20:53 27.12.2020
4374 Clouds 11 1025 50 10000 1.5 300 19:49 27.12.2020
4375 Clouds 11 1025 50 10000 1.5 300 19:23 27.12.2020
4376 Clouds 12 1025 46 10000 1 300 18:47 27.12.2020
4377 Clouds 12 1026 46 10000 1.5 310 18:20 27.12.2020
4378 Clouds 12 1026 46 10000 1.5 310 17:54 27.12.2020
4379 Clouds 12 1026 46 10000 1.5 310 17:34 27.12.2020
4380 Clouds 13 1025 35 10000 2.1 310 16:54 27.12.2020
4381 Clouds 13 1025 33 10000 2.6 320 16:21 27.12.2020
4382 Clouds 14 1025 47 10000 2.1 250 15:22 27.12.2020
4383 Clouds 14 1025 47 10000 2.1 250 14:49 27.12.2020
4384 Clouds 14 1025 47 10000 2.1 250 14:31 27.12.2020
4385 Clouds 14 1026 44 10000 2.1 260 13:30 27.12.2020
4386 Clouds 14 1026 41 10000 3.6 280 12:52 27.12.2020
4387 Clouds 14 1026 41 10000 3.6 280 12:24 27.12.2020
4388 Clouds 13 1026 28 10000 3.1 260 11:41 27.12.2020
4389 Clouds 12 1026 37 10000 3.6 300 11:18 27.12.2020
4390 Clouds 12 1026 37 10000 3.6 300 10:40 27.12.2020
4391 Clouds 9 1027 49 10000 2.1 280 10:19 27.12.2020
4392 Clouds 7 1027 52 10000 2.6 260 09:19 27.12.2020
4393 Clouds 7 1027 52 10000 2.6 260 08:28 27.12.2020
4394 Clouds 5 1027 56 10000 3.1 270 07:28 27.12.2020
4395 Clear 4 1026 60 10000 2.6 310 05:48 27.12.2020
4396 Clear 3 1025 64 10000 2.6 310 05:21 27.12.2020
4397 Clear 2 1025 64 10000 3.1 310 03:24 27.12.2020
4398 Clear 3 1026 59 10000 2.1 280 01:52 27.12.2020
4399 Clear 4 1026 55 10000 2.1 270 00:26 27.12.2020
4400 Clear 4 1026 55 10000 2.6 290 23:42 26.12.2020
4401 Clear 5 1026 52 10000 3.1 300 23:22 26.12.2020
4402 Clear 5 1026 52 10000 3.1 300 22:41 26.12.2020
4403 Clear 5 1026 56 10000 2.1 290 22:19 26.12.2020
4404 Clear 5 1026 56 10000 2.1 290 21:53 26.12.2020
4405 Clear 5 1026 56 10000 2.1 290 21:24 26.12.2020
4406 Clear 6 1026 52 10000 3.6 320 20:44 26.12.2020
4407 Clear 6 1026 52 10000 3.6 320 20:22 26.12.2020
4408 Clear 8 1027 52 10000 3.1 270 19:31 26.12.2020
4409 Clear 9 1026 49 10000 3.6 300 18:59 26.12.2020
4410 Clear 9 1026 49 10000 3.6 300 18:34 26.12.2020
4411 Clear 10 1026 43 10000 4.1 290 17:47 26.12.2020
4412 Clear 10 1026 43 10000 4.1 290 17:28 26.12.2020
4413 Clear 11 1026 34 10000 2.6 270 16:40 26.12.2020
4414 Clear 12 1026 30 10000 4.6 320 16:18 26.12.2020
4415 Clear 14 1026 26 10000 6.7 310 15:21 26.12.2020
4416 Clear 14 1026 26 10000 6.7 310 14:41 26.12.2020
4417 Clear 15 1026 22 10000 5.7 320 14:20 26.12.2020
4418 Clear 15 1026 22 10000 5.7 320 13:38 26.12.2020
4419 Clear 14 1026 26 10000 5.7 310 13:18 26.12.2020
4420 Clear 14 1026 26 10000 5.7 310 12:41 26.12.2020
4421 Clear 14 1026 30 10000 5.1 300 12:19 26.12.2020
4422 Clear 14 1026 30 10000 5.1 300 11:42 26.12.2020
4423 Clear 13 1027 32 10000 3.1 290 11:20 26.12.2020
4424 Clear 13 1027 32 10000 3.1 290 10:49 26.12.2020
4425 Clear 13 1027 32 10000 3.1 290 10:27 26.12.2020
4426 Clear 11 1028 40 10000 4.1 310 09:49 26.12.2020
4427 Clear 8 1028 52 10000 4.1 300 08:56 26.12.2020
4428 Clear 5 1028 60 10000 3.6 290 08:20 26.12.2020
4429 Clear 5 1028 60 10000 3.6 290 07:33 26.12.2020
4430 Clear 0 1027 52 10000 2.1 310 06:19 26.12.2020
4431 Clear 1 1027 69 10000 4.1 320 02:48 26.12.2020
4432 Clear 2 1028 64 10000 2.1 310 00:42 26.12.2020
4433 Clear 4 1028 55 10000 2.6 270 23:59 25.12.2020
4434 Clear 4 1028 55 10000 2.6 270 23:39 25.12.2020
4435 Clear 3 1028 64 10000 3.6 320 23:20 25.12.2020
4436 Clear 3 1028 64 10000 3.6 320 22:37 25.12.2020
4437 Clear 4 1028 60 10000 1.5 310 21:50 25.12.2020
4438 Clear 4 1028 60 10000 1.5 310 21:32 25.12.2020
4439 Clear 6 1027 52 10000 2.1 290 20:48 25.12.2020
4440 Clear 6 1027 52 10000 2.1 290 20:28 25.12.2020
4441 Clear 7 1027 52 10000 2.1 320 19:44 25.12.2020
4442 Clear 7 1027 48 10000 2.6 300 18:58 25.12.2020
4443 Clear 7 1027 48 10000 2.6 300 18:38 25.12.2020
4444 Clear 9 1027 45 10000 3.1 290 17:35 25.12.2020
4445 Clear 10 1027 43 10000 3.6 290 16:58 25.12.2020
4446 Clear 10 1027 43 10000 3.6 290 16:32 25.12.2020
4447 Clear 12 1026 32 10000 3.6 320 15:57 25.12.2020
4448 Clear 12 1026 32 10000 3.6 320 15:35 25.12.2020
4449 Clear 13 1025 28 10000 4.1 300 14:49 25.12.2020
4450 Clear 13 1025 28 10000 4.1 300 14:28 25.12.2020
4451 Clear 13 1025 30 10000 3.1 300 13:44 25.12.2020
4452 Clear 13 1025 30 10000 3.1 300 13:26 25.12.2020
4453 Clear 13 1025 30 10000 4.1 280 12:45 25.12.2020
4454 Clear 12 1025 37 10000 3.6 270 11:56 25.12.2020
4455 Clear 12 1025 37 10000 3.6 270 11:33 25.12.2020
4456 Clear 11 1026 40 10000 2.6 280 10:57 25.12.2020
4457 Clear 11 1026 40 10000 2.6 280 10:27 25.12.2020
4458 Clear 9 1026 45 10000 2.1 270 09:37 25.12.2020
4459 Clear 7 1026 48 10000 2.6 310 08:48 25.12.2020
4460 Clear 7 1026 48 10000 2.6 310 08:25 25.12.2020
4461 Clear 1 1025 64 10000 3.6 310 06:47 25.12.2020
4462 Clear 2 1024 64 10000 3.1 300 04:29 25.12.2020
4463 Clear 4 1022 60 10000 4.1 290 01:50 25.12.2020
4464 Clear 4 1021 55 10000 3.1 270 00:18 25.12.2020
4465 Clear 4 1021 55 10000 3.1 270 23:26 24.12.2020
4466 Clear 5 1021 52 10000 2.6 260 22:53 24.12.2020
4467 Clear 6 1021 48 10000 2.1 260 22:22 24.12.2020
4468 Clear 6 1021 48 10000 2.1 260 21:41 24.12.2020
4469 Clear 6 1021 48 10000 3.1 300 20:48 24.12.2020
4470 Clear 9 1020 42 10000 5.7 290 19:20 24.12.2020
4471 Clear 11 1019 50 10000 3.6 270 18:21 24.12.2020
4472 Clear 11 1019 50 10000 3.6 270 17:37 24.12.2020
4473 Clear 11 1018 62 10000 2.6 290 16:59 24.12.2020
4474 Clouds 13 1018 62 10000 4.1 290 16:24 24.12.2020
4475 Clear 13 1018 62 10000 4.1 290 15:43 24.12.2020
4476 Clouds 14 1017 62 10000 4.6 270 15:21 24.12.2020
4477 Clouds 14 1017 62 10000 4.6 270 14:55 24.12.2020
4478 Clouds 14 1017 62 10000 4.6 270 14:24 24.12.2020
4479 Clear 14 1017 62 10000 4.1 260 13:49 24.12.2020
4480 Clear 14 1017 62 10000 4.1 260 13:30 24.12.2020
4481 Clear 13 1017 66 10000 4.1 240 12:56 24.12.2020
4482 Clear 13 1017 66 10000 4.1 240 12:37 24.12.2020
4483 Clouds 13 1017 66 10000 4.6 260 12:18 24.12.2020
4484 Clouds 13 1017 66 10000 4.6 260 11:38 24.12.2020
4485 Clouds 16 1017 41 10000 4.57 284 11:18 24.12.2020
4486 Clouds 16 1017 41 10000 4.57 284 10:43 24.12.2020
4487 Clouds 11 1019 81 5000 3.1 270 09:58 24.12.2020
4488 Clouds 11 1019 81 5000 3.1 270 09:40 24.12.2020
4489 Clouds 10 1019 76 8000 4.1 290 08:48 24.12.2020
4490 Clouds 9 1019 81 6000 3.1 310 07:51 24.12.2020
4491 Clouds 9 1019 81 6000 3.1 310 07:51 24.12.2020
4492 Clouds 9 1019 81 6000 3.1 310 07:30 24.12.2020
4493 Clear 7 1018 100 7000 2.6 310 06:23 24.12.2020
4494 Clear 7 1017 93 9000 2.6 320 03:29 24.12.2020
4495 Clear 7 1017 87 10000 3.1 300 01:48 24.12.2020
4496 Clear 7 1017 93 10000 1.5 290 01:19 24.12.2020
4497 Clear 8 1017 81 10000 1 0 00:23 24.12.2020
4498 Clear 8 1017 81 10000 1 0 23:57 23.12.2020
4499 Clear 8 1017 81 10000 1 0 23:38 23.12.2020
4500 Clear 9 1017 76 10000 2.1 240 23:19 23.12.2020
4501 Clear 9 1017 76 10000 2.1 240 22:42 23.12.2020
4502 Clear 11 1017 71 10000 1.5 290 22:21 23.12.2020
4503 Clear 11 1017 71 10000 1.5 290 21:42 23.12.2020
4504 Clear 11 1017 71 10000 2.1 320 21:21 23.12.2020
4505 Clear 11 1017 71 10000 2.1 320 20:38 23.12.2020
4506 Clear 13 1017 62 10000 3.1 290 20:19 23.12.2020
4507 Clear 13 1017 62 10000 3.1 290 19:44 23.12.2020
4508 Clear 12 1017 66 10000 1.5 250 19:23 23.12.2020
4509 Clear 12 1017 66 10000 1.5 250 18:54 23.12.2020
4510 Clear 12 1017 66 10000 1.5 250 18:35 23.12.2020
4511 Clear 13 1016 66 10000 1 310 17:44 23.12.2020
4512 Clear 14 1015 58 10000 2.1 280 17:22 23.12.2020
4513 Clear 14 1015 58 10000 2.1 280 16:56 23.12.2020
4514 Clear 14 1015 58 10000 2.1 280 16:36 23.12.2020
4515 Clear 14 1015 58 10000 2.1 280 16:36 23.12.2020
4516 Clear 16 1015 51 10000 2.6 320 16:18 23.12.2020
4517 Clear 16 1015 51 10000 2.6 320 15:40 23.12.2020
4518 Clear 18 1014 45 10000 3.1 310 15:22 23.12.2020
4519 Clear 18 1014 45 10000 3.1 310 14:51 23.12.2020
4520 Clear 18 1014 45 10000 3.1 310 14:25 23.12.2020
4521 Clear 18 1014 45 10000 3.1 260 13:47 23.12.2020
4522 Clouds 18 1014 48 10000 3.1 240 13:21 23.12.2020
4523 Clouds 18 1014 48 10000 3.1 240 12:59 23.12.2020
4524 Clouds 18 1014 48 10000 3.1 240 12:38 23.12.2020
4525 Clear 17 1014 48 10000 4.1 180 12:18 23.12.2020
4526 Clear 17 1014 48 10000 4.1 180 11:45 23.12.2020
4527 Clouds 16 1015 51 10000 4.6 170 10:57 23.12.2020
4528 Clouds 16 1015 51 10000 4.6 170 10:39 23.12.2020
4529 Rain 15 1016 54 10000 5.1 160 10:19 23.12.2020
4530 Rain 15 1016 54 10000 5.1 160 09:26 23.12.2020
4531 Clouds 14 1017 58 10000 6.2 150 08:42 23.12.2020
4532 Clear 13 1017 62 10000 5.1 130 08:18 23.12.2020
4533 Clouds 12 1017 66 10000 3.1 130 07:21 23.12.2020
4534 Clouds 12 1017 66 10000 3.1 130 06:38 23.12.2020
4535 Clear 12 1017 66 10000 4.1 130 05:26 23.12.2020
4536 Clear 12 1016 66 10000 4.1 140 04:51 23.12.2020
4537 Clouds 12 1017 66 10000 5.1 150 00:34 23.12.2020
4538 Clouds 13 1018 66 10000 3.1 150 23:48 22.12.2020
4539 Clouds 13 1018 66 10000 3.1 150 23:28 22.12.2020
4540 Clouds 13 1019 66 10000 2.1 150 22:44 22.12.2020
4541 Clouds 13 1019 66 10000 2.1 150 22:25 22.12.2020
4542 Clouds 14 1020 62 10000 2.1 150 21:57 22.12.2020
4543 Clouds 14 1020 62 10000 2.1 150 21:38 22.12.2020
4544 Clouds 14 1020 62 10000 2.1 160 21:18 22.12.2020
4545 Clouds 14 1020 62 10000 2.1 160 20:47 22.12.2020
4546 Clouds 14 1020 58 10000 2.6 150 20:21 22.12.2020
4547 Clouds 14 1020 58 10000 2.6 150 19:44 22.12.2020
4548 Clear 15 1020 54 10000 1 90 19:21 22.12.2020
4549 Clear 15 1020 54 10000 1 90 18:50 22.12.2020
4550 Clear 15 1020 54 10000 1 90 18:29 22.12.2020
4551 Clear 16 1020 55 10000 1.5 80 17:57 22.12.2020
4552 Clear 16 1020 55 10000 1.5 80 17:26 22.12.2020
4553 Clear 16 1020 44 10000 1.94 66 16:56 22.12.2020
4554 Clear 18 1020 42 10000 1.5 140 16:37 22.12.2020
4555 Clear 18 1020 42 10000 1.5 140 16:19 22.12.2020
4556 Clear 18 1020 42 10000 1.5 140 15:42 22.12.2020
4557 Clear 18 1020 42 10000 1.5 140 15:21 22.12.2020
4558 Clouds 19 1020 42 10000 0.85 28 14:45 22.12.2020
4559 Clear 19 1021 42 10000 2.1 10 14:26 22.12.2020
4560 Clear 19 1021 42 10000 2.1 10 13:48 22.12.2020
4561 Clear 19 1021 42 10000 1.5 280 13:20 22.12.2020
4562 Clear 19 1021 42 10000 1.5 280 12:58 22.12.2020
4563 Clear 19 1021 42 10000 1.5 280 12:39 22.12.2020
4564 Haze 19 1022 42 4000 2.1 0 12:19 22.12.2020
4565 Haze 19 1022 42 4000 2.1 0 11:42 22.12.2020
4566 Haze 18 1023 45 3100 2.6 300 11:22 22.12.2020
4567 Haze 18 1023 45 3100 2.6 300 10:55 22.12.2020
4568 Haze 18 1023 45 3100 2.6 300 10:27 22.12.2020
4569 Haze 17 1024 48 3200 1.5 280 09:58 22.12.2020
4570 Haze 17 1024 48 3200 1.5 280 09:30 22.12.2020
4571 Haze 14 1025 58 2900 1 0 08:58 22.12.2020
4572 Haze 14 1025 58 2900 1 0 08:39 22.12.2020
4573 Clear 11 1024 71 2200 1 0 08:19 22.12.2020
4574 Clear 11 1024 71 2200 1 0 07:27 22.12.2020
4575 Mist 8 1024 75 2800 2.11 347 06:34 22.12.2020
4576 Mist 6 1024 100 4500 2.1 320 05:33 22.12.2020
4577 Clear 8 1024 81 9000 1.5 280 02:31 22.12.2020
4578 Clear 8 1024 75 6000 1.5 310 00:26 22.12.2020
4579 Clear 9 1024 76 5000 1.5 300 23:50 21.12.2020
4580 Clear 8 1024 87 6000 2.1 310 23:22 21.12.2020
4581 Clear 8 1024 87 6000 2.1 310 22:37 21.12.2020
4582 Clear 10 1025 76 7000 1.5 300 22:19 21.12.2020
4583 Clear 10 1025 76 7000 1.5 300 22:19 21.12.2020
4584 Clear 10 1025 76 7000 1.5 300 22:19 21.12.2020
4585 Clear 10 1025 76 7000 1.5 300 21:48 21.12.2020
4586 Clear 10 1025 76 7000 1.5 300 21:30 21.12.2020
4587 Clear 10 1025 71 9000 1 250 20:46 21.12.2020
4588 Clear 11 1025 71 8000 2.1 300 20:23 21.12.2020
4589 Clear 11 1025 71 8000 2.1 300 19:55 21.12.2020
4590 Clear 11 1025 71 8000 2.1 300 19:36 21.12.2020
4591 Clear 12 1025 62 10000 2.1 270 19:18 21.12.2020
4592 Clear 12 1025 62 10000 2.1 270 18:45 21.12.2020
4593 Clear 12 1025 62 10000 2.1 270 18:27 21.12.2020
4594 Clear 13 1025 58 10000 1 290 17:43 21.12.2020
4595 Clear 15 1024 54 10000 1.5 330 17:23 21.12.2020
4596 Clear 15 1024 54 10000 1.5 330 16:45 21.12.2020
4597 Clear 17 1024 45 10000 2.6 300 16:23 21.12.2020
4598 Clear 17 1024 45 10000 2.6 300 15:43 21.12.2020
4599 Clear 19 1024 39 10000 3.1 320 15:18 21.12.2020
4600 Clear 19 1024 39 10000 3.1 320 14:54 21.12.2020
4601 Clear 19 1024 37 10000 3.1 340 14:20 21.12.2020
4602 Clear 19 1024 37 10000 3.1 340 13:42 21.12.2020
4603 Clear 19 1024 45 10000 3.6 340 13:22 21.12.2020
4604 Clear 19 1024 45 10000 3.6 340 12:43 21.12.2020
4605 Clear 18 1025 48 10000 2.6 340 12:23 21.12.2020
4606 Clear 18 1025 48 10000 2.6 340 11:43 21.12.2020
4607 Clear 17 1026 55 10000 3.1 330 11:23 21.12.2020
4608 Clear 17 1026 55 10000 3.1 330 10:58 21.12.2020
4609 Clear 17 1026 55 10000 3.1 330 10:40 21.12.2020
4610 Clear 17 1026 55 10000 3.6 340 10:18 21.12.2020
4611 Clear 16 1027 63 10000 3.6 320 09:42 21.12.2020
4612 Clear 16 1027 63 10000 3.6 320 09:24 21.12.2020
4613 Clear 13 1027 71 7000 2.6 320 08:47 21.12.2020
4614 Clear 11 1027 87 5000 2.1 320 07:37 21.12.2020
4615 Mist 7 1026 93 2600 2.6 300 06:21 21.12.2020
4616 Mist 6 1025 100 3800 1 290 04:31 21.12.2020
4617 Mist 8 1026 93 3200 3.1 240 00:51 21.12.2020
4618 Mist 8 1026 93 3200 3.1 240 00:30 21.12.2020
4619 Mist 8 1025 93 2500 0.5 0 23:24 20.12.2020
4620 Mist 7 1026 100 4800 1 300 22:58 20.12.2020
4621 Mist 7 1026 100 4800 1 300 22:39 20.12.2020
4622 Mist 9 1026 100 5000 1 320 22:21 20.12.2020
4623 Mist 9 1026 100 5000 1 320 21:39 20.12.2020
4624 Mist 9 1026 100 5000 1.5 330 21:20 20.12.2020
4625 Mist 9 1026 100 5000 1.5 330 20:48 20.12.2020
4626 Clear 10 1026 81 8000 0.5 0 20:23 20.12.2020
4627 Clear 10 1026 81 8000 0.5 0 19:46 20.12.2020
4628 Clear 10 1026 81 8000 0.5 0 19:26 20.12.2020
4629 Clear 11 1026 76 6000 1.5 320 18:56 20.12.2020
4630 Clear 11 1026 76 6000 1.5 320 18:38 20.12.2020
4631 Clear 13 1026 71 10000 1 290 18:19 20.12.2020
4632 Clear 13 1026 71 10000 1 290 17:42 20.12.2020
4633 Clear 13 1025 71 10000 1.5 340 17:18 20.12.2020
4634 Clear 13 1025 71 10000 1.5 340 16:44 20.12.2020
4635 Clear 15 1025 62 10000 1.5 340 16:24 20.12.2020
4636 Clear 15 1025 62 10000 1.5 340 15:41 20.12.2020
4637 Clear 17 1025 55 10000 2.1 330 15:23 20.12.2020
4638 Clear 17 1025 55 10000 2.1 330 14:49 20.12.2020
4639 Clear 17 1025 55 10000 2.1 330 14:29 20.12.2020
4640 Clear 17 1025 55 10000 2.6 300 13:46 20.12.2020
4641 Clear 17 1025 55 10000 2.6 300 13:23 20.12.2020
4642 Clouds 16 1025 67 6000 2.1 330 12:54 20.12.2020
4643 Clouds 16 1025 67 6000 2.1 330 12:36 20.12.2020
4644 Mist 15 1025 82 4700 2.1 280 12:18 20.12.2020
4645 Mist 15 1025 82 4700 2.1 280 11:42 20.12.2020
4646 Mist 13 1026 93 2200 2.1 310 10:55 20.12.2020
4647 Mist 13 1026 93 2200 2.1 310 10:37 20.12.2020
4648 Mist 11 1027 100 2300 2.6 300 10:19 20.12.2020
4649 Mist 11 1027 100 2300 2.6 300 09:42 20.12.2020
4650 Mist 11 1027 100 2300 2.6 300 09:24 20.12.2020
4651 Mist 10 1027 93 650 2.6 310 08:50 20.12.2020
4652 Mist 10 1027 93 650 2.6 310 08:32 20.12.2020
4653 Fog 9 1027 93 400 2.6 290 07:23 20.12.2020
4654 Fog 7 1026 93 200 1 350 05:44 20.12.2020
4655 Fog 7 1025 93 100 1 0 01:33 20.12.2020
4656 Fog 7 1025 93 100 1 0 01:33 20.12.2020
4657 Fog 7 1025 93 100 0.5 0 00:32 20.12.2020
4658 Fog 9 1025 93 100 1.5 300 23:19 19.12.2020
4659 Fog 9 1025 93 100 1.5 300 22:56 19.12.2020
4660 Fog 9 1025 93 100 1.5 300 22:37 19.12.2020
4661 Fog 10 1025 93 100 2.6 300 22:18 19.12.2020
4662 Fog 10 1025 93 100 2.6 300 21:41 19.12.2020
4663 Fog 10 1025 93 100 2.6 300 21:23 19.12.2020
4664 Mist 9 1024 100 3700 1.5 280 20:42 19.12.2020
4665 Mist 11 1024 93 4800 3.1 290 20:19 19.12.2020
4666 Mist 11 1024 93 4800 3.1 290 19:50 19.12.2020
4667 Mist 11 1024 93 4800 3.1 290 19:31 19.12.2020
4668 Clear 10 1024 93 6000 1.5 290 18:41 19.12.2020
4669 Clear 11 1024 81 8000 2.1 300 18:20 19.12.2020
4670 Clear 11 1024 81 8000 2.1 300 17:46 19.12.2020
4671 Clear 13 1024 76 10000 2.1 310 17:24 19.12.2020
4672 Clear 13 1024 76 10000 2.1 310 16:45 19.12.2020
4673 Clear 13 1024 76 10000 2.1 310 16:26 19.12.2020
4674 Clear 14 1023 71 10000 2.6 320 15:59 19.12.2020
4675 Clear 14 1023 71 10000 2.6 320 15:40 19.12.2020
4676 Clear 16 1023 63 9000 4.1 300 14:43 19.12.2020
4677 Clear 16 1023 67 7000 4.6 300 14:22 19.12.2020
4678 Clear 16 1023 67 7000 4.6 300 13:41 19.12.2020
4679 Clear 16 1023 67 7000 3.6 310 13:20 19.12.2020
4680 Clear 16 1023 67 7000 3.6 310 12:46 19.12.2020
4681 Clear 16 1023 67 7000 3.6 310 12:28 19.12.2020
4682 Clear 19 1022 29 10000 4.72 344 11:58 19.12.2020
4683 Clear 19 1022 29 10000 4.72 344 11:40 19.12.2020
4684 Haze 13 1024 87 2400 4.1 300 10:47 19.12.2020
4685 Haze 13 1024 87 2400 4.1 300 10:27 19.12.2020
4686 Mist 12 1025 93 1500 4.6 300 09:59 19.12.2020
4687 Mist 12 1025 93 1500 4.6 300 09:39 19.12.2020
4688 Mist 11 1025 100 1200 4.1 300 08:52 19.12.2020
4689 Fog 9 1025 100 300 4.6 300 07:55 19.12.2020
4690 Fog 9 1025 100 200 4.1 290 07:18 19.12.2020
4691 Mist 9 1024 93 2000 3.6 280 06:39 19.12.2020
4692 Mist 9 1023 93 3700 3.6 290 05:19 19.12.2020
4693 Mist 9 1022 93 4200 3.1 300 03:29 19.12.2020
4694 Mist 9 1022 100 4600 2.6 310 00:41 19.12.2020
4695 Mist 10 1022 100 5000 3.1 300 00:19 19.12.2020
4696 Mist 10 1022 100 5000 3.1 300 23:49 18.12.2020
4697 Mist 10 1022 100 5000 3.1 300 23:24 18.12.2020
4698 Mist 11 1022 93 4900 3.6 300 22:49 18.12.2020
4699 Mist 12 1022 93 4600 3.1 280 22:25 18.12.2020
4700 Mist 12 1022 93 4600 3.1 280 21:59 18.12.2020
4701 Mist 12 1022 93 4600 3.1 280 21:38 18.12.2020
4702 Mist 11 1022 93 4700 3.1 300 21:20 18.12.2020
4703 Mist 11 1022 100 5000 3.1 300 20:24 18.12.2020
4704 Mist 11 1022 100 5000 3.1 300 19:47 18.12.2020
4705 Mist 12 1022 100 4000 3.6 310 19:23 18.12.2020
4706 Mist 12 1022 100 4000 3.6 310 18:46 18.12.2020
4707 Mist 12 1022 100 4000 3.6 310 18:26 18.12.2020
4708 Mist 13 1022 100 4100 2.1 290 17:52 18.12.2020
4709 Mist 13 1021 93 5000 1 320 17:20 18.12.2020
4710 Mist 13 1021 93 5000 1 320 16:45 18.12.2020
4711 Mist 14 1020 93 3300 2.6 320 16:21 18.12.2020
4712 Mist 14 1020 93 3300 2.6 320 15:54 18.12.2020
4713 Mist 14 1020 93 3300 2.6 320 15:34 18.12.2020
4714 Mist 14 1020 93 3300 4.1 330 14:57 18.12.2020
4715 Mist 14 1020 93 2600 2.6 310 14:26 18.12.2020
4716 Mist 14 1020 93 2600 2.6 310 13:59 18.12.2020
4717 Mist 14 1020 93 2600 2.6 310 13:40 18.12.2020
4718 Mist 14 1020 100 1800 2.6 330 13:21 18.12.2020
4719 Mist 14 1020 100 1800 2.6 330 12:42 18.12.2020
4720 Mist 14 1020 93 1400 3.1 340 11:29 18.12.2020
4721 Mist 13 1021 100 1200 2.6 320 10:58 18.12.2020
4722 Mist 13 1021 100 1200 2.6 320 10:37 18.12.2020
4723 Mist 13 1021 93 900 2.1 340 10:19 18.12.2020
4724 Mist 13 1021 93 900 2.1 340 09:38 18.12.2020
4725 Fog 12 1022 93 800 2.6 320 09:19 18.12.2020
4726 Fog 12 1022 93 800 2.6 320 08:50 18.12.2020
4727 Fog 12 1021 93 400 1.5 350 08:21 18.12.2020
4728 Fog 12 1021 93 300 2.1 340 07:20 18.12.2020
4729 Fog 12 1021 93 300 2.1 340 06:59 18.12.2020
4730 Fog 12 1020 93 450 1 0 05:45 18.12.2020
4731 Fog 12 1020 93 450 1 0 05:26 18.12.2020
4732 Fog 12 1020 93 400 0.5 0 04:42 18.12.2020
4733 Fog 12 1020 93 300 2.1 300 01:47 18.12.2020
4734 Fog 12 1020 93 300 2.1 300 01:47 18.12.2020
4735 Fog 12 1020 93 300 2.1 300 01:47 18.12.2020
4736 Mist 12 1019 93 1900 2.1 300 00:38 18.12.2020
4737 Mist 13 1019 93 2000 1.3 18 23:54 17.12.2020
4738 Mist 13 1019 93 2200 1 250 23:25 17.12.2020
4739 Mist 13 1019 93 2200 1 250 23:25 17.12.2020
4740 Mist 13 1019 93 2200 1 250 22:49 17.12.2020
4741 Mist 13 1019 93 2200 1 250 22:28 17.12.2020
4742 Mist 13 1019 93 2200 1.5 210 21:47 17.12.2020
4743 Mist 13 1019 93 2200 1.5 210 21:47 17.12.2020
4744 Mist 13 1019 93 2100 1.5 90 21:22 17.12.2020
4745 Mist 13 1019 93 2100 1.5 90 20:55 17.12.2020
4746 Mist 12 1020 100 2400 1 130 20:37 17.12.2020
4747 Mist 12 1020 100 2400 1 130 20:18 17.12.2020
4748 Mist 12 1020 100 2400 1 130 19:44 17.12.2020
4749 Mist 12 1020 93 2400 1 160 19:22 17.12.2020
4750 Mist 12 1020 93 2400 1 160 18:41 17.12.2020
4751 Mist 12 1019 93 2700 1.5 40 18:22 17.12.2020
4752 Mist 12 1019 93 2700 1.5 40 18:22 17.12.2020
4753 Mist 12 1019 93 2700 1.5 40 17:51 17.12.2020
4754 Mist 12 1019 93 2700 1.5 40 17:32 17.12.2020
4755 Mist 12 1019 93 2700 1.5 40 17:32 17.12.2020
4756 Mist 13 1019 100 3300 2.1 340 16:44 17.12.2020
4757 Mist 14 1019 100 1900 2.1 330 16:24 17.12.2020
4758 Mist 14 1019 100 1900 2.1 330 15:52 17.12.2020
4759 Mist 14 1019 100 1900 2.1 330 15:30 17.12.2020
4760 Mist 14 1019 93 1500 1.5 330 14:54 17.12.2020
4761 Mist 14 1019 100 1400 2.1 340 14:30 17.12.2020
4762 Mist 14 1019 100 1400 2.1 340 13:51 17.12.2020
4763 Mist 14 1019 100 1400 2.1 340 13:28 17.12.2020
4764 Mist 14 1019 93 1100 2.6 310 12:47 17.12.2020
4765 Mist 14 1019 93 1100 2.6 310 12:25 17.12.2020
4766 Fog 13 1019 93 900 2.1 320 11:45 17.12.2020
4767 Fog 13 1019 93 900 2.1 320 11:25 17.12.2020
4768 Fog 12 1019 93 500 1 0 10:55 17.12.2020
4769 Fog 11 1020 100 350 1 0 10:19 17.12.2020
4770 Rain 11 1020 93 200 1.5 290 09:28 17.12.2020
4771 Fog 10 1020 93 100 2.1 280 07:54 17.12.2020
4772 Fog 10 1020 93 100 2.1 280 07:35 17.12.2020
4773 Clear 16 1018 60 10000 1.43 176 06:54 17.12.2020
4774 Fog 9 1019 93 150 1.74 162 06:32 17.12.2020
4775 Fog 9 1019 93 150 1.81 162 05:58 17.12.2020
4776 Fog 9 1018 100 150 1 180 00:40 17.12.2020
4777 Fog 11 1017 93 250 0.5 0 23:54 16.12.2020
4778 Mist 9 1019 100 4000 1.5 340 23:21 16.12.2020
4779 Mist 9 1019 100 4000 1.5 340 22:56 16.12.2020
4780 Mist 9 1019 100 4000 1.5 340 22:35 16.12.2020
4781 Mist 13 1017 93 2500 1 0 21:52 16.12.2020
4782 Mist 13 1017 93 2500 1 0 21:34 16.12.2020
4783 Mist 13 1017 100 2800 1.5 260 20:56 16.12.2020
4784 Mist 13 1017 100 2800 1.5 260 20:37 16.12.2020
4785 Mist 14 1017 93 3300 1.5 250 20:18 16.12.2020
4786 Mist 15 1016 87 3500 1.5 280 19:20 16.12.2020
4787 Mist 15 1016 87 3500 1.5 280 18:54 16.12.2020
4788 Mist 15 1016 87 3500 1.5 280 18:29 16.12.2020
4789 Mist 15 1016 82 4400 2.6 300 17:47 16.12.2020
4790 Mist 15 1016 82 4400 2.6 300 17:28 16.12.2020
4791 Mist 16 1015 77 3900 2.1 290 16:40 16.12.2020
4792 Mist 17 1015 77 3700 2.6 320 16:21 16.12.2020
4793 Mist 17 1015 77 3700 2.6 320 15:51 16.12.2020
4794 Mist 17 1015 77 3700 2.6 320 15:28 16.12.2020
4795 Haze 18 1015 68 4600 2.6 320 14:47 16.12.2020
4796 Haze 18 1015 68 4600 2.6 320 14:28 16.12.2020
4797 Haze 18 1015 68 4600 2.6 320 14:28 16.12.2020
4798 Haze 19 1014 63 5000 2.1 310 13:49 16.12.2020
4799 Haze 19 1014 63 5000 2.1 310 13:30 16.12.2020
4800 Clouds 19 1014 63 6000 1 0 12:56 16.12.2020
4801 Clouds 19 1014 63 6000 1 0 12:35 16.12.2020
4802 Haze 18 1015 68 5000 1.5 0 11:40 16.12.2020
4803 Haze 18 1015 77 4500 1 0 11:22 16.12.2020
4804 Haze 18 1015 77 4500 1 0 10:49 16.12.2020
4805 Haze 18 1015 77 4500 1 0 10:25 16.12.2020
4806 Mist 17 1016 88 3900 0.5 0 09:43 16.12.2020
4807 Mist 16 1017 93 2400 1.5 10 08:42 16.12.2020
4808 Mist 14 1016 93 1400 1.5 340 07:58 16.12.2020
4809 Mist 14 1016 93 1400 1.5 340 07:39 16.12.2020
4810 Mist 12 1016 93 1400 2.1 330 06:53 16.12.2020
4811 Clear 14 1014 87 6000 2.6 150 02:26 16.12.2020
4812 Clouds 15 1015 82 7000 5.7 130 01:20 16.12.2020
4813 Rain 15 1014 87 5000 6.2 120 23:45 15.12.2020
4814 Rain 15 1015 87 5000 6.7 120 22:48 15.12.2020
4815 Rain 15 1015 87 5000 6.7 120 22:25 15.12.2020
4816 Rain 15 1015 87 6000 4.6 130 21:57 15.12.2020
4817 Rain 15 1015 87 6000 4.6 130 21:37 15.12.2020
4818 Rain 16 1015 77 7000 5.7 110 21:19 15.12.2020
4819 Rain 16 1015 77 7000 5.7 110 20:44 15.12.2020
4820 Rain 17 1016 67 8000 2.6 140 20:25 15.12.2020
4821 Rain 17 1016 67 8000 2.6 140 19:51 15.12.2020
4822 Rain 17 1016 67 8000 2.6 140 19:26 15.12.2020
4823 Rain 17 1014 67 8000 1.5 300 18:39 15.12.2020
4824 Rain 18 1013 63 9000 6.2 120 18:21 15.12.2020
4825 Rain 18 1013 63 9000 6.2 120 17:44 15.12.2020
4826 Clouds 18 1013 63 9000 6.2 120 17:25 15.12.2020
4827 Thunderstorm 18 1013 63 8000 7.2 160 16:43 15.12.2020
4828 Clouds 20 1011 52 10000 8.7 130 16:25 15.12.2020
4829 Clouds 20 1011 52 10000 8.7 130 15:38 15.12.2020
4830 Clouds 21 1011 46 9000 10.8 130 15:18 15.12.2020
4831 Clouds 21 1011 46 9000 10.8 130 14:42 15.12.2020
4832 Clear 22 1011 37 10000 10.3 130 14:20 15.12.2020
4833 Clear 22 1011 37 10000 10.3 130 13:49 15.12.2020
4834 Clear 22 1011 37 10000 10.3 130 13:25 15.12.2020
4835 Clear 22 1012 37 10000 11.3 140 12:46 15.12.2020
4836 Clouds 21 1013 40 6000 11.3 130 12:19 15.12.2020
4837 Clouds 21 1013 40 6000 11.3 130 11:52 15.12.2020
4838 Clouds 21 1013 40 6000 11.3 130 11:24 15.12.2020
4839 Dust 20 1014 40 3000 12.9 130 10:52 15.12.2020
4840 Clouds 19 1015 45 5000 9.8 130 10:21 15.12.2020
4841 Clouds 19 1015 45 5000 9.8 130 09:45 15.12.2020
4842 Clouds 17 1016 51 4900 10.3 140 09:27 15.12.2020
4843 Clouds 17 1016 51 4900 10.3 140 08:47 15.12.2020
4844 Clouds 17 1016 51 4900 10.3 140 08:24 15.12.2020
4845 Clouds 16 1016 55 9000 9.3 140 07:49 15.12.2020
4846 Clouds 16 1016 55 9000 9.3 140 07:23 15.12.2020
4847 Clear 14 1016 58 10000 8.7 130 06:26 15.12.2020
4848 Clear 14 1015 58 10000 7.7 140 00:54 15.12.2020
4849 Clear 14 1015 58 10000 7.7 140 00:34 15.12.2020
4850 Clear 14 1016 58 10000 5.1 130 23:23 14.12.2020
4851 Clear 14 1016 58 10000 5.1 130 22:47 14.12.2020
4852 Clear 15 1016 58 10000 5.1 120 22:26 14.12.2020
4853 Clear 15 1016 58 10000 5.1 120 21:42 14.12.2020
4854 Clear 14 1017 67 10000 4.6 130 21:20 14.12.2020
4855 Clear 14 1017 67 10000 4.6 130 20:49 14.12.2020
4856 Clear 14 1017 67 10000 4.6 130 20:29 14.12.2020
4857 Clear 15 1017 62 10000 4.1 130 19:50 14.12.2020
4858 Clear 15 1017 62 10000 4.1 130 19:28 14.12.2020
4859 Clear 15 1017 62 10000 4.6 120 18:44 14.12.2020
4860 Clear 16 1017 59 10000 3.6 120 18:24 14.12.2020
4861 Clear 16 1017 59 10000 3.6 120 17:46 14.12.2020
4862 Clear 16 1017 55 10000 2.6 130 17:23 14.12.2020
4863 Clear 16 1017 55 10000 2.6 130 16:50 14.12.2020
4864 Clear 19 1017 45 10000 3.1 130 16:28 14.12.2020
4865 Clear 19 1017 45 10000 3.1 130 15:33 14.12.2020
4866 Clear 22 1017 37 10000 4.6 140 14:58 14.12.2020
4867 Clear 22 1017 37 10000 4.6 140 14:40 14.12.2020
4868 Clear 22 1017 35 10000 4.1 140 14:21 14.12.2020
4869 Clear 22 1017 35 10000 4.1 140 13:41 14.12.2020
4870 Clear 22 1018 35 10000 4.1 140 13:18 14.12.2020
4871 Clear 22 1018 35 10000 4.1 140 12:50 14.12.2020
4872 Clear 22 1019 37 10000 3.6 130 12:24 14.12.2020
4873 Clear 22 1019 37 10000 3.6 130 11:32 14.12.2020
4874 Clear 21 1019 40 10000 3.1 140 10:37 14.12.2020
4875 Clear 19 1020 42 10000 3.6 160 10:19 14.12.2020
4876 Clear 19 1020 42 10000 3.6 160 09:29 14.12.2020
4877 Clouds 18 1021 48 8000 3.6 150 08:46 14.12.2020
4878 Clouds 18 1021 48 8000 3.6 150 08:28 14.12.2020
4879 Haze 15 1021 58 3000 2.6 130 07:28 14.12.2020
4880 Mist 11 1020 66 2500 2.1 120 06:46 14.12.2020
4881 Mist 10 1020 71 3500 2.1 100 04:52 14.12.2020
4882 Mist 10 1020 76 6000 1.5 150 02:26 14.12.2020
4883 Clouds 9 1020 70 6000 0.69 135 00:55 14.12.2020
4884 Clouds 9 1020 70 6000 0.75 141 00:33 14.12.2020
4885 Clouds 11 1020 76 6000 1 320 23:48 13.12.2020
4886 Clouds 11 1020 76 6000 1 320 23:27 13.12.2020
4887 Clear 11 1020 76 10000 0.5 310 22:46 13.12.2020
4888 Clear 10 1020 71 10000 1 0 22:20 13.12.2020
4889 Clear 10 1020 71 10000 1 0 21:42 13.12.2020
4890 Clear 10 1020 71 10000 1 0 21:24 13.12.2020
4891 Clear 13 1020 66 10000 1 200 20:35 13.12.2020
4892 Clear 13 1020 66 10000 1 200 19:53 13.12.2020
4893 Clear 13 1020 66 10000 1 200 19:33 13.12.2020
4894 Clear 16 1020 55 10000 2.1 210 18:59 13.12.2020
4895 Clear 16 1020 55 10000 2.1 210 18:41 13.12.2020
4896 Clear 15 1020 58 10000 1 290 18:20 13.12.2020
4897 Clear 15 1020 58 10000 1 290 17:46 13.12.2020
4898 Clear 17 1020 51 10000 1.5 240 17:21 13.12.2020
4899 Clear 17 1020 51 10000 1.5 240 16:55 13.12.2020
4900 Clear 17 1020 51 10000 1.5 240 16:36 13.12.2020
4901 Clear 18 1020 48 10000 2.1 320 15:58 13.12.2020
4902 Clear 18 1020 48 10000 2.1 320 15:38 13.12.2020
4903 Clear 20 1020 40 10000 2.1 310 15:20 13.12.2020
4904 Clear 20 1020 40 10000 2.1 310 14:43 13.12.2020
4905 Clear 20 1020 40 10000 2.1 300 14:20 13.12.2020
4906 Clear 20 1020 40 10000 2.1 300 13:42 13.12.2020
4907 Clear 20 1020 40 10000 2.1 300 13:22 13.12.2020
4908 Clear 20 1020 40 10000 2.1 300 13:22 13.12.2020
4909 Clear 20 1020 40 10000 1.5 280 12:42 13.12.2020
4910 Clear 20 1021 42 10000 2.6 260 12:22 13.12.2020
4911 Clear 20 1021 42 10000 2.6 260 11:36 13.12.2020
4912 Clear 19 1022 42 10000 2.6 260 10:55 13.12.2020
4913 Clear 19 1022 42 10000 2.6 260 10:37 13.12.2020
4914 Clouds 18 1023 42 10000 1 0 09:54 13.12.2020
4915 Clear 16 1023 48 10000 2.6 30 08:58 13.12.2020
4916 Clear 16 1023 48 10000 2.6 30 08:34 13.12.2020
4917 Clouds 13 1023 62 5000 1 0 07:47 13.12.2020
4918 Clouds 8 1022 75 8000 1 0 04:29 13.12.2020
4919 Clear 9 1021 76 8000 1 100 02:41 13.12.2020
4920 Clear 9 1022 70 8000 1 230 01:57 13.12.2020
4921 Clear 8 1022 81 6000 1 320 00:49 13.12.2020
4922 Clear 9 1022 70 9000 1 340 23:55 12.12.2020
4923 Clear 9 1022 70 9000 1 340 23:31 12.12.2020
4924 Clear 10 1023 71 10000 1 210 22:52 12.12.2020
4925 Clear 14 1022 41 10000 0.76 328 21:59 12.12.2020
4926 Clear 12 1022 62 10000 0.5 0 21:34 12.12.2020
4927 Clear 12 1022 62 10000 0.5 0 20:55 12.12.2020
4928 Clear 12 1022 62 10000 0.5 0 20:29 12.12.2020
4929 Clear 12 1022 62 10000 0.5 0 19:58 12.12.2020
4930 Clear 12 1022 62 10000 0.5 0 19:39 12.12.2020
4931 Clear 12 1022 62 10000 2.1 320 19:21 12.12.2020
4932 Clear 12 1022 62 10000 2.1 320 18:44 12.12.2020
4933 Clear 12 1022 62 10000 2.1 320 18:26 12.12.2020
4934 Clear 14 1022 58 10000 1 0 17:47 12.12.2020
4935 Clear 15 1021 54 10000 2.1 340 16:56 12.12.2020
4936 Clear 16 1021 51 10000 2.1 340 16:21 12.12.2020
4937 Clear 17 1021 48 10000 2.1 320 15:45 12.12.2020
4938 Clear 17 1021 48 10000 2.1 320 15:27 12.12.2020
4939 Clear 19 1021 39 10000 2.6 350 14:48 12.12.2020
4940 Clear 19 1021 39 10000 2.1 320 13:56 12.12.2020
4941 Clear 19 1021 39 10000 2.1 320 13:37 12.12.2020
4942 Clear 19 1021 39 10000 2.6 310 12:58 12.12.2020
4943 Clear 18 1021 42 10000 1.5 270 11:48 12.12.2020
4944 Clear 17 1022 48 10000 1 0 10:53 12.12.2020
4945 Clear 17 1023 48 10000 1 0 09:46 12.12.2020
4946 Haze 14 1023 58 2900 1.5 260 08:57 12.12.2020
4947 Clear 7 1021 87 8000 1 230 02:57 12.12.2020
4948 Clear 8 1021 81 9000 0.5 0 23:55 11.12.2020
4949 Clear 9 1021 76 10000 0.5 210 22:30 11.12.2020
4950 Clear 10 1022 66 10000 1.23 290 20:48 11.12.2020
4951 Clear 14 1021 58 10000 2.6 270 18:27 11.12.2020
4952 Clear 15 1021 58 10000 2.1 260 16:27 11.12.2020
4953 Clouds 19 1020 45 10000 3.6 280 14:18 11.12.2020
4954 Clouds 19 1020 45 10000 3.6 280 13:25 11.12.2020
4955 Clear 18 1021 48 10000 4.1 300 12:19 11.12.2020
4956 Clear 18 1021 48 10000 4.1 300 11:51 11.12.2020
4957 Clear 18 1021 48 10000 3.1 290 10:55 11.12.2020
4958 Clear 16 1021 55 10000 2.1 290 09:41 11.12.2020
4959 Clear 7 1021 87 10000 2.1 320 05:59 11.12.2020
4960 Clear 7 1021 81 10000 2.6 300 05:18 11.12.2020
4961 Clear 8 1020 81 10000 2.6 300 02:28 11.12.2020
4962 Clear 10 1020 76 10000 2.1 270 00:34 11.12.2020
4963 Clear 11 1020 81 10000 1 260 22:56 10.12.2020
4964 Clear 11 1020 76 9000 1.5 270 21:37 10.12.2020
4965 Clear 11 1020 76 8000 1.5 220 20:47 10.12.2020
4966 Clear 12 1020 71 9000 3.59 320 19:46 10.12.2020
4967 Clear 14 1020 67 10000 1.5 250 19:21 10.12.2020
4968 Clear 14 1020 67 10000 1.5 250 18:44 10.12.2020
4969 Clear 16 1020 59 10000 2.1 300 16:49 10.12.2020
4970 Clear 18 1019 52 10000 2.6 290 15:50 10.12.2020
4971 Clear 19 1019 48 10000 3.1 300 14:58 10.12.2020
4972 Clear 19 1019 48 10000 3.1 300 14:38 10.12.2020
4973 Clear 19 1019 48 10000 3.1 300 14:38 10.12.2020
4974 Clear 19 1019 48 10000 3.1 280 13:23 10.12.2020
4975 Clear 18 1020 55 10000 3.1 290 11:48 10.12.2020
4976 Clear 15 1022 67 9000 4.1 270 09:33 10.12.2020
4977 Clear 11 1022 76 10000 3.6 290 08:19 10.12.2020
4978 Clear 10 1022 76 9000 2.6 270 06:57 10.12.2020
4979 Clear 9 1021 76 10000 2.1 330 04:45 10.12.2020
4980 Mist 10 1020 76 6000 1.5 320 02:27 10.12.2020
4981 Mist 10 1020 81 6000 2.6 340 00:48 10.12.2020
4982 Clear 11 1020 81 6000 2.1 340 23:35 09.12.2020
4983 Clear 12 1020 66 10000 1.5 320 20:37 09.12.2020
4984 Clear 14 1020 67 10000 0.63 341 19:38 09.12.2020
4985 Clear 15 1019 58 10000 1 320 18:21 09.12.2020
4986 Clear 17 1019 59 10000 2.1 140 16:54 09.12.2020
4987 Clear 18 1018 52 10000 2.1 140 16:25 09.12.2020
4988 Clear 18 1018 52 10000 2.1 140 15:38 09.12.2020
4989 Clear 20 1018 49 10000 3.1 120 14:49 09.12.2020
4990 Clouds 21 1018 43 10000 4.1 130 14:24 09.12.2020
4991 Clear 20 1018 42 10000 3.6 140 13:19 09.12.2020
4992 Clear 20 1018 42 10000 3.6 140 12:47 09.12.2020
4993 Clouds 20 1019 42 10000 3.6 130 11:55 09.12.2020
4994 Clouds 20 1019 42 10000 3.6 130 11:32 09.12.2020
4995 Clouds 19 1020 37 5000 4.6 110 09:50 09.12.2020
4996 Clouds 17 1021 39 5000 2.6 80 08:27 09.12.2020
4997 Clouds 11 1021 66 5000 2.1 110 06:18 09.12.2020
4998 Clouds 14 1020 45 10000 1.87 103 04:49 09.12.2020
4999 Clouds 13 1020 62 6000 2.1 60 02:30 09.12.2020
5000 Clear 13 1021 58 7000 1.5 150 23:49 08.12.2020
5001 Clear 12 1021 62 7000 1.5 60 23:23 08.12.2020
5002 Clear 13 1022 54 9000 1.5 100 21:36 08.12.2020
5003 Clear 13 1022 54 7000 1.5 100 19:46 08.12.2020
5004 Clear 15 1022 51 7000 2.1 70 19:25 08.12.2020
5005 Clear 15 1022 51 7000 2.1 70 18:31 08.12.2020
5006 Clear 16 1022 48 10000 1 60 16:28 08.12.2020
5007 Clear 19 1021 34 10000 1.5 70 14:35 08.12.2020
5008 Clear 20 1021 30 10000 1 0 13:40 08.12.2020
5009 Clear 19 1022 32 10000 1.5 220 12:37 08.12.2020
5010 Clear 19 1022 29 10000 2.1 230 11:52 08.12.2020
5011 Clear 17 1023 39 10000 3.1 210 10:52 08.12.2020
5012 Clear 17 1023 39 10000 3.1 210 10:31 08.12.2020
5013 Haze 15 1024 47 2800 2.6 160 09:34 08.12.2020
5014 Haze 13 1024 58 2100 1.5 120 07:34 08.12.2020
5015 Clear 8 1023 70 7000 0.5 0 04:22 08.12.2020
5016 Clear 7 1022 70 10000 0.5 0 01:48 08.12.2020
5017 Clear 8 1022 75 10000 0.5 120 00:44 08.12.2020
5018 Clear 9 1022 66 10000 1.5 150 22:56 07.12.2020
5019 Clear 9 1023 70 10000 1.5 140 22:19 07.12.2020
5020 Clear 9 1023 66 10000 1 160 20:57 07.12.2020
5021 Clear 11 1023 62 10000 1.26 336 18:58 07.12.2020
5022 Clear 12 1022 58 10000 1.5 200 17:38 07.12.2020
5023 Clear 14 1022 47 10000 1 200 17:18 07.12.2020
5024 Clear 14 1022 47 10000 1 200 16:28 07.12.2020
5025 Clear 18 1021 31 10000 2.6 270 15:24 07.12.2020
5026 Clear 18 1021 31 10000 2.6 270 14:28 07.12.2020
5027 Clear 18 1021 28 10000 2.6 280 13:35 07.12.2020
5028 Clear 17 1021 42 10000 3.6 250 11:58 07.12.2020
5029 Clear 17 1021 42 10000 3.6 250 11:58 07.12.2020
5030 Clear 17 1021 42 10000 3.6 250 11:38 07.12.2020
5031 Clear 16 1021 44 10000 2.1 220 10:32 07.12.2020
5032 Clear 13 1022 54 10000 1.5 230 08:56 07.12.2020
5033 Clear 11 1022 53 10000 2.6 250 07:30 07.12.2020
5034 Clear 7 1020 70 10000 0.5 0 05:26 07.12.2020
5035 Clear 8 1018 70 10000 1 0 03:45 07.12.2020
5036 Clear 9 1017 70 10000 0.5 0 00:39 07.12.2020
5037 Clear 11 1017 57 10000 2.6 250 22:52 06.12.2020
5038 Clear 11 1016 62 10000 1.5 240 21:44 06.12.2020
5039 Clear 11 1016 62 10000 1.5 240 21:44 06.12.2020
5040 Clear 13 1016 54 10000 3.1 270 20:43 06.12.2020
5041 Clear 13 1016 54 10000 3.1 270 20:22 06.12.2020
5042 Clear 14 1015 54 10000 3.1 270 19:26 06.12.2020
5043 Clear 15 1014 51 10000 2.6 240 17:31 06.12.2020
5044 Clear 16 1014 48 10000 1.5 270 16:34 06.12.2020
5045 Clear 19 1013 42 10000 5.7 300 14:49 06.12.2020
5046 Clear 19 1012 42 10000 8.2 290 13:21 06.12.2020
5047 Clear 19 1012 42 10000 8.2 290 12:33 06.12.2020
5048 Clear 18 1012 45 10000 8.7 300 11:53 06.12.2020
5049 Clear 18 1012 45 10000 8.7 300 11:25 06.12.2020
5050 Clear 16 1013 59 10000 4.6 280 10:35 06.12.2020
5051 Clear 16 1013 59 10000 4.6 280 09:23 06.12.2020
5052 Clear 13 1013 62 10000 4.1 290 07:29 06.12.2020
5053 Clear 13 1012 76 10000 2.6 270 04:51 06.12.2020
5054 Clear 14 1013 76 10000 3.6 280 00:46 06.12.2020
5055 Clear 14 1013 76 10000 3.6 280 00:26 06.12.2020
5056 Clouds 14 1013 76 10000 2.6 250 23:56 05.12.2020
5057 Clouds 14 1014 82 10000 4.6 230 22:25 05.12.2020
5058 Clouds 15 1014 72 8000 3.1 230 21:55 05.12.2020
5059 Clouds 15 1014 72 8000 3.1 230 21:30 05.12.2020
5060 Clouds 16 1013 67 10000 2.6 290 19:54 05.12.2020
5061 Clouds 15 1014 72 9000 2.1 320 18:46 05.12.2020
5062 Clouds 15 1014 72 9000 2.1 320 17:51 05.12.2020
5063 Clouds 15 1014 72 10000 2.1 340 16:45 05.12.2020
5064 Clouds 15 1014 72 10000 2.1 340 16:25 05.12.2020
5065 Clear 18 1014 52 10000 2.6 330 14:52 05.12.2020
5066 Clouds 19 1015 52 9000 3.1 260 12:36 05.12.2020
5067 Clouds 18 1015 52 9000 2.6 260 11:50 05.12.2020
5068 Clouds 18 1016 59 7000 2.6 250 10:35 05.12.2020
5069 Clouds 15 1018 67 8000 1 0 08:54 05.12.2020
5070 Clouds 14 1018 67 7000 0.5 0 07:48 05.12.2020
5071 Clouds 10 1018 87 5000 1.76 322 05:33 05.12.2020
5072 Clouds 10 1018 87 8000 1 340 00:40 05.12.2020
5073 Clouds 11 1019 81 8000 1.5 270 23:23 04.12.2020
5074 Clear 10 1019 76 10000 0.5 290 21:35 04.12.2020
5075 Clear 13 1019 71 10000 0.5 280 19:21 04.12.2020
5076 Clear 14 1020 67 10000 1.5 280 18:39 04.12.2020
5077 Clear 16 1020 63 10000 2.6 260 17:47 04.12.2020
5078 Clear 16 1019 63 10000 1.5 280 16:32 04.12.2020
5079 Clear 18 1018 59 10000 3.1 320 15:25 04.12.2020
5080 Clouds 20 1018 52 10000 3.6 300 13:37 04.12.2020
5081 Clear 20 1019 56 10000 3.6 320 13:18 04.12.2020
5082 Clear 20 1019 56 10000 3.6 320 12:26 04.12.2020
5083 Clear 19 1020 55 10000 4.1 300 10:37 04.12.2020
5084 Clear 18 1020 63 10000 3.6 290 09:25 04.12.2020
5085 Fog 9 1021 93 300 0.5 0 06:40 04.12.2020
5086 Fog 8 1020 93 150 1.5 300 04:53 04.12.2020
5087 Fog 10 1020 93 250 1 250 01:53 04.12.2020
5088 Mist 11 1021 100 5000 1.5 260 22:51 03.12.2020
5089 Mist 11 1021 100 5000 0.5 270 21:38 03.12.2020
5090 Clear 12 1021 100 7000 1 0 20:47 03.12.2020
5091 Clear 13 1021 93 9000 1.34 350 19:25 03.12.2020
5092 Clear 15 1021 77 10000 1 0 18:48 03.12.2020
5093 Clear 16 1020 77 10000 2.1 310 17:21 03.12.2020
5094 Clear 16 1020 77 10000 2.1 310 16:43 03.12.2020
5095 Clear 17 1020 72 10000 2.6 320 15:33 03.12.2020
5096 Clear 18 1020 68 10000 2.1 360 14:49 03.12.2020
5097 Clear 19 1020 63 10000 2.6 300 13:55 03.12.2020
5098 Clear 19 1020 63 8000 2.1 290 12:54 03.12.2020
5099 Clear 19 1020 63 8000 2.1 290 12:24 03.12.2020
5100 Mist 15 1022 87 3100 2.6 220 10:55 03.12.2020
5101 Mist 13 1022 93 1800 2.6 290 08:49 03.12.2020
5102 Mist 10 1021 93 2900 1 0 04:24 03.12.2020
5103 Mist 11 1020 93 1900 3.1 320 02:20 03.12.2020
5104 Mist 11 1020 100 2500 1.5 300 00:41 03.12.2020
5105 Mist 12 1020 93 2700 1.5 0 22:47 02.12.2020
5106 Mist 13 1020 100 3300 1 270 21:56 02.12.2020
5107 Mist 13 1020 93 4000 1 360 20:52 02.12.2020
5108 Mist 13 1020 93 4000 1 360 20:34 02.12.2020
5109 Mist 13 1020 87 4900 1.73 141 19:58 02.12.2020
5110 Clear 16 1019 82 10000 2.1 60 17:54 02.12.2020
5111 Clear 16 1019 82 10000 2.1 60 17:35 02.12.2020
5112 Clouds 17 1019 77 10000 3.1 40 16:59 02.12.2020
5113 Rain 19 1018 63 8000 2.6 50 14:47 02.12.2020
5114 Rain 20 1019 60 6000 2.6 80 11:34 02.12.2020
5115 Rain 18 1020 72 4600 2.1 80 10:28 02.12.2020
5116 Fog 17 1021 72 650 2.1 10 08:29 02.12.2020
5117 Mist 9 1020 100 2600 1.5 50 01:39 02.12.2020
5118 Mist 11 1020 81 4500 1 140 22:21 01.12.2020
5119 Mist 12 1020 93 4500 1 0 20:46 01.12.2020
5120 Clear 14 1020 71 10000 2.74 113 19:34 01.12.2020
5121 Clear 15 1019 72 10000 1 320 17:49 01.12.2020
5122 Clear 18 1019 59 10000 2.6 330 15:44 01.12.2020
5123 Clear 20 1018 45 10000 2.1 330 13:38 01.12.2020
5124 Clear 20 1019 49 10000 2.6 300 11:46 01.12.2020
5125 Clear 20 1019 49 10000 2.6 300 11:26 01.12.2020
5126 Clear 19 1020 52 10000 1 0 10:38 01.12.2020
5127 Mist 13 1021 87 5000 2.1 250 08:21 01.12.2020
5128 Fog 12 1020 93 2700 2.1 230 06:48 01.12.2020
5129 Fog 11 1019 93 4700 1.5 290 01:53 01.12.2020
5130 Fog 10 1019 100 4400 1.42 4 00:56 01.12.2020
5131 Clear 12 1020 93 6000 1.5 310 23:21 30.11.2020
5132 Clear 12 1020 93 6000 1.5 310 22:44 30.11.2020
5133 Clear 12 1020 93 6000 1.5 310 22:25 30.11.2020
5134 Clear 13 1020 87 8000 1.5 300 20:48 30.11.2020
5135 Clear 13 1020 82 8000 0.5 330 19:42 30.11.2020
5136 Clear 15 1020 72 10000 1.5 340 18:24 30.11.2020
5137 Clear 15 1020 72 10000 1.5 340 17:47 30.11.2020
5138 Clear 16 1020 67 10000 2.6 330 16:55 30.11.2020
5139 Clear 17 1020 63 10000 3.1 310 15:59 30.11.2020
5140 Clear 20 1020 56 10000 2.6 330 14:47 30.11.2020
5141 Clear 20 1020 52 10000 2.6 340 13:53 30.11.2020
5142 Clear 20 1020 56 10000 2.6 320 12:26 30.11.2020
5143 Clear 19 1021 63 10000 3.1 340 11:58 30.11.2020
5144 Clear 18 1022 68 6000 2.1 320 10:26 30.11.2020
5145 Clear 17 1022 82 5000 2.1 300 09:50 30.11.2020
5146 Fog 10 1022 93 200 1.5 320 07:18 30.11.2020
5147 Fog 11 1020 93 600 0.65 21 00:54 30.11.2020
5148 Clear 13 1021 93 6000 1 170 21:53 29.11.2020
5149 Clear 13 1021 93 6000 1 170 21:53 29.11.2020
5150 Clear 13 1021 93 6000 1 170 21:31 29.11.2020
5151 Clear 14 1020 93 8000 1 310 19:58 29.11.2020
5152 Clear 15 1019 82 10000 0.5 10 17:48 29.11.2020
5153 Clear 16 1019 77 10000 0.5 280 16:27 29.11.2020
5154 Clouds 19 1018 63 10000 2.1 280 13:24 29.11.2020
5155 Clouds 19 1018 63 10000 2.1 280 13:24 29.11.2020
5156 Clouds 18 1018 77 10000 3.1 270 11:42 29.11.2020
5157 Clouds 17 1018 82 10000 3.6 310 10:34 29.11.2020
5158 Clouds 16 1018 93 9000 3.1 270 08:38 29.11.2020
5159 Clouds 14 1018 100 7000 3.6 320 06:33 29.11.2020
5160 Clouds 15 1016 93 10000 3.1 310 23:54 28.11.2020
5161 Clouds 15 1016 100 10000 1.5 10 22:56 28.11.2020
5162 Clouds 16 1017 93 9000 3.1 340 20:49 28.11.2020
5163 Clouds 16 1017 93 9000 2.6 30 19:50 28.11.2020
5164 Clouds 16 1017 93 9000 2.6 30 19:23 28.11.2020
5165 Clouds 16 1017 93 10000 2.1 50 18:51 28.11.2020
5166 Clouds 16 1017 93 9000 3.6 40 17:48 28.11.2020
5167 Rain 16 1017 100 10000 3.6 50 16:44 28.11.2020
5168 Rain 17 1017 93 10000 2.6 70 14:56 28.11.2020
5169 Clouds 18 1017 82 10000 5.7 90 13:27 28.11.2020
5170 Haze 19 1019 72 8000 3.1 90 10:57 28.11.2020
5171 Mist 12 1021 93 5000 1 0 06:42 28.11.2020
5172 Clouds 11 1020 93 7000 2.6 310 03:33 28.11.2020
5173 Clouds 12 1020 87 8000 3.1 330 01:50 28.11.2020
5174 Clear 13 1021 82 10000 2.6 330 23:18 27.11.2020
5175 Clear 13 1021 82 10000 3.1 320 21:51 27.11.2020
5176 Clear 14 1021 76 10000 2.1 320 20:37 27.11.2020
5177 Clouds 14 1021 82 6000 2.1 310 19:30 27.11.2020
5178 Clouds 16 1021 72 6000 2.1 300 18:51 27.11.2020
5179 Clear 21 1019 52 10000 1 0 15:21 27.11.2020
5180 Clear 21 1019 49 10000 1.5 250 13:57 27.11.2020
5181 Clear 21 1019 49 10000 1.5 310 12:48 27.11.2020
5182 Clouds 21 1019 49 8000 0.5 0 11:57 27.11.2020
5183 Clouds 20 1019 52 7000 1 0 10:51 27.11.2020
5184 Clouds 20 1019 52 7000 1 0 10:27 27.11.2020
5185 Clouds 18 1020 49 10000 1.72 339 07:30 27.11.2020
5186 Clouds 18 1014 41 10000 1.89 273 22:47 26.11.2020
5187 Clouds 18 1014 44 10000 2.2 268 22:22 26.11.2020
5188 Clouds 16 1014 59 10000 3.1 160 21:39 26.11.2020
5189 Clouds 16 1013 59 10000 3.1 150 19:48 26.11.2020
5190 Clouds 16 1012 59 10000 3.6 140 18:34 26.11.2020
5191 Clear 17 1011 55 10000 2.1 150 16:32 26.11.2020
5192 Clear 21 1008 40 10000 5.7 240 13:44 26.11.2020
5193 Clear 21 1008 40 10000 6.7 220 12:52 26.11.2020
5194 Clear 21 1008 40 10000 6.7 220 12:29 26.11.2020
5195 Clear 21 1007 40 10000 9.8 160 10:39 26.11.2020
5196 Clear 21 1007 46 10000 13.9 160 10:18 26.11.2020
5197 Clear 21 1007 46 10000 13.9 160 09:34 26.11.2020
5198 Clear 19 1007 59 10000 14.9 140 08:44 26.11.2020
5199 Clear 18 1007 59 10000 12.9 130 07:49 26.11.2020
5200 Clouds 16 1010 63 10000 7.2 110 02:18 26.11.2020
5201 Clear 16 1013 55 10000 5.7 120 21:54 25.11.2020
5202 Clear 17 1013 51 10000 4.6 110 20:32 25.11.2020
5203 Clear 17 1014 51 10000 3.6 110 18:59 25.11.2020
5204 Clear 18 1014 48 10000 3.6 120 17:28 25.11.2020
5205 Clear 19 1014 42 10000 3.6 110 15:43 25.11.2020
5206 Clear 20 1014 42 10000 4.6 110 14:57 25.11.2020
5207 Clear 20 1014 42 10000 5.1 120 13:45 25.11.2020
5208 Clear 20 1014 40 10000 5.7 140 12:47 25.11.2020
5209 Clear 20 1015 40 10000 4.1 140 11:23 25.11.2020
5210 Clouds 19 1017 26 10000 2.17 174 09:21 25.11.2020
5211 Clouds 19 1017 26 10000 2.17 174 08:50 25.11.2020
5212 Clouds 13 1018 66 7000 1.5 130 07:21 25.11.2020
5213 Clouds 9 1016 76 10000 1 0 03:49 25.11.2020
5214 Clear 8 1016 81 10000 1 120 01:48 25.11.2020
5215 Clear 9 1017 76 10000 1 210 00:19 25.11.2020
5216 Clear 9 1017 76 10000 1 210 23:35 24.11.2020
5217 Clear 10 1017 71 10000 0.5 90 22:39 24.11.2020
5218 Clear 10 1017 71 10000 0.5 90 22:39 24.11.2020
5219 Clear 11 1017 66 10000 1 250 21:43 24.11.2020
5220 Clear 11 1017 66 10000 1 250 21:23 24.11.2020
5221 Clear 13 1018 62 10000 1 0 19:48 24.11.2020
5222 Clear 15 1018 58 10000 3.6 240 17:33 24.11.2020
5223 Clear 16 1018 55 10000 2.6 240 16:58 24.11.2020
5224 Clear 16 1018 55 10000 2.6 240 16:38 24.11.2020
5225 Clear 18 1017 48 10000 2.6 240 15:56 24.11.2020
5226 Clear 20 1017 40 10000 4.1 260 15:20 24.11.2020
5227 Clear 20 1017 40 10000 4.1 260 14:44 24.11.2020
5228 Clear 20 1017 40 10000 3.1 280 13:38 24.11.2020
5229 Clear 20 1017 49 10000 3.6 300 12:39 24.11.2020
5230 Clear 19 1018 48 10000 3.6 280 12:18 24.11.2020
5231 Clear 19 1018 48 10000 3.6 280 11:25 24.11.2020
5232 Clear 18 1019 48 10000 3.6 280 10:25 24.11.2020
5233 Clear 16 1020 51 10000 3.6 290 09:40 24.11.2020
5234 Clear 14 1020 54 10000 3.1 290 08:59 24.11.2020
5235 Clear 9 1020 70 10000 2.6 260 06:42 24.11.2020
5236 Clear 10 1019 61 10000 3.6 300 01:24 24.11.2020
5237 Clear 11 1019 66 10000 2.6 300 22:24 23.11.2020
5238 Clear 11 1019 66 10000 2.6 300 22:24 23.11.2020
5239 Clear 13 1020 62 10000 2.6 270 21:32 23.11.2020
5240 Clear 13 1020 62 10000 3.1 270 20:36 23.11.2020
5241 Clear 13 1020 66 10000 1.5 260 20:18 23.11.2020
5242 Clear 15 1019 58 10000 1.5 250 17:58 23.11.2020
5243 Clear 16 1019 51 10000 1.5 300 17:19 23.11.2020
5244 Clear 17 1019 48 10000 2.6 310 15:44 23.11.2020
5245 Clear 19 1018 29 10000 4.67 312 14:46 23.11.2020
5246 Clear 21 1018 40 10000 6.2 280 12:42 23.11.2020
5247 Clear 20 1019 45 10000 5.1 280 12:21 23.11.2020
5248 Clear 20 1019 45 10000 5.1 280 11:43 23.11.2020
5249 Clear 18 1019 63 10000 3.6 280 10:45 23.11.2020
5250 Clear 16 1020 67 10000 4.6 290 09:31 23.11.2020
5251 Clear 15 1021 67 10000 4.1 280 08:39 23.11.2020
5252 Clear 11 1020 71 10000 3.1 260 06:57 23.11.2020
5253 Clear 11 1019 81 10000 1 240 00:23 23.11.2020
5254 Clear 14 1019 67 10000 3.1 300 23:18 22.11.2020
5255 Clear 14 1019 71 10000 3.1 280 21:40 22.11.2020
5256 Clear 15 1019 67 10000 4.1 290 20:51 22.11.2020
5257 Clear 16 1019 67 10000 3.6 250 19:52 22.11.2020
5258 Clear 16 1019 72 10000 2.1 250 18:40 22.11.2020
5259 Clear 16 1019 72 10000 2.1 250 18:40 22.11.2020
5260 Clear 18 1018 63 10000 2.1 280 16:51 22.11.2020
5261 Clear 19 1018 59 10000 3.1 290 15:44 22.11.2020
5262 Clear 21 1018 52 10000 5.7 300 14:29 22.11.2020
5263 Clouds 21 1018 64 10000 6.2 290 12:49 22.11.2020
5264 Clouds 20 1018 68 8000 6.2 300 11:56 22.11.2020
5265 Clouds 18 1019 77 8000 4.6 300 11:20 22.11.2020
5266 Clouds 18 1019 77 8000 4.6 300 10:44 22.11.2020
5267 Clear 16 1019 77 9000 4.6 310 08:51 22.11.2020
5268 Clear 13 1016 100 8000 2.6 240 01:48 22.11.2020
5269 Clear 14 1016 100 10000 4.1 210 23:39 21.11.2020
5270 Clear 15 1016 93 10000 2.1 0 21:57 21.11.2020
5271 Clear 15 1016 93 10000 2.1 0 21:24 21.11.2020
5272 Clear 14 1016 100 10000 2.1 210 20:35 21.11.2020
5273 Clear 16 1015 93 10000 2.6 70 19:54 21.11.2020
5274 Clear 16 1015 93 10000 2.6 70 19:33 21.11.2020
5275 Clear 15 1015 93 10000 1 330 18:27 21.11.2020
5276 Clear 16 1014 87 10000 3.1 290 17:26 21.11.2020
5277 Clouds 16 1013 82 9000 2.6 210 16:39 21.11.2020
5278 Clouds 17 1011 72 9000 1 0 15:22 21.11.2020
5279 Rain 17 1011 93 7000 6.2 340 14:43 21.11.2020
5280 Thunderstorm 17 1012 93 4000 2.6 300 14:21 21.11.2020
5281 Thunderstorm 16 1011 100 5000 4.1 280 12:29 21.11.2020
5282 Thunderstorm 16 1011 100 7000 2.1 290 11:58 21.11.2020
5283 Thunderstorm 16 1012 93 2000 2.6 120 10:41 21.11.2020
5284 Thunderstorm 16 1011 82 2000 6.7 80 09:59 21.11.2020
5285 Thunderstorm 18 1011 93 2000 6.7 120 08:51 21.11.2020
5286 Clouds 18 1012 93 10000 7.2 130 06:34 21.11.2020
5287 Clouds 19 1011 77 10000 4.1 80 04:39 21.11.2020
5288 Clouds 20 1011 68 10000 4.1 140 01:21 21.11.2020
5289 Rain 21 1011 64 10000 10.8 140 23:55 20.11.2020
5290 Clouds 21 1010 60 10000 6.2 130 22:26 20.11.2020
5291 Clouds 21 1010 56 10000 5.7 130 21:42 20.11.2020
5292 Clouds 22 1011 52 10000 8.12 140 21:21 20.11.2020
5293 Clouds 21 1011 49 10000 5.1 130 19:46 20.11.2020
5294 Clouds 21 1011 49 10000 6.2 130 18:38 20.11.2020
5295 Clouds 21 1011 52 10000 6.2 130 17:52 20.11.2020
5296 Clouds 22 1011 46 10000 5.7 130 17:24 20.11.2020
5297 Clouds 22 1011 46 10000 5.7 130 16:38 20.11.2020
5298 Clouds 22 1011 46 10000 6.7 130 15:57 20.11.2020
5299 Clouds 22 1011 46 10000 6.7 130 15:25 20.11.2020
5300 Clouds 23 1010 43 10000 7.2 130 13:45 20.11.2020
5301 Clouds 23 1011 43 10000 9.8 130 13:18 20.11.2020
5302 Clouds 23 1011 43 10000 9.8 130 12:34 20.11.2020
5303 Clouds 24 1012 38 10000 6.7 120 11:45 20.11.2020
5304 Clouds 23 1013 40 10000 7.7 110 10:55 20.11.2020
5305 Clouds 20 1015 45 10000 6.2 120 08:53 20.11.2020
5306 Clouds 20 1015 45 10000 6.2 120 08:25 20.11.2020
5307 Clouds 18 1016 55 10000 5.1 80 07:32 20.11.2020
5308 Clear 16 1016 55 10000 3.1 80 03:44 20.11.2020
5309 Clear 16 1016 55 10000 1 0 22:42 19.11.2020
5310 Clear 16 1017 51 10000 2.1 120 21:55 19.11.2020
5311 Clear 16 1017 51 10000 2.1 120 21:36 19.11.2020
5312 Clear 16 1017 48 10000 0.5 140 20:32 19.11.2020
5313 Clear 16 1017 44 10000 1.5 140 19:49 19.11.2020
5314 Clear 16 1017 44 10000 1.5 140 19:24 19.11.2020
5315 Clear 19 1017 37 10000 1.5 180 17:40 19.11.2020
5316 Clear 19 1017 39 10000 1.5 220 16:54 19.11.2020
5317 Clear 20 1016 37 10000 1.5 190 15:36 19.11.2020
5318 Clear 22 1016 30 10000 1.5 100 15:18 19.11.2020
5319 Clear 22 1016 30 10000 1.5 100 15:18 19.11.2020
5320 Clear 22 1016 33 10000 2.1 0 13:46 19.11.2020
5321 Clear 22 1016 33 10000 2.1 0 13:46 19.11.2020
5322 Clear 21 1017 37 10000 1.5 0 13:19 19.11.2020
5323 Clear 21 1017 37 10000 1.5 0 12:35 19.11.2020
5324 Clouds 22 1016 25 10000 0.59 218 11:50 19.11.2020
5325 Clear 20 1018 49 10000 2.6 210 11:32 19.11.2020
5326 Clear 20 1018 49 10000 2.6 210 10:53 19.11.2020
5327 Clear 18 1019 68 6000 2.1 240 10:18 19.11.2020
5328 Clear 18 1019 68 6000 2.1 240 09:42 19.11.2020
5329 Clear 18 1019 68 6000 2.1 240 09:24 19.11.2020
5330 Mist 14 1019 71 5000 1.5 260 08:19 19.11.2020
5331 Clear 11 1018 76 10000 2.6 300 02:44 19.11.2020
5332 Clear 10 1018 76 10000 2.1 280 01:45 19.11.2020
5333 Clear 13 1018 62 10000 2.6 300 23:52 18.11.2020
5334 Clear 13 1018 62 10000 2.6 300 23:24 18.11.2020
5335 Clear 12 1019 66 10000 2.1 300 22:36 18.11.2020
5336 Clear 12 1019 66 10000 1 0 22:18 18.11.2020
5337 Clear 12 1019 66 10000 1 0 21:38 18.11.2020
5338 Clear 12 1019 66 10000 1 250 21:19 18.11.2020
5339 Clear 14 1019 62 10000 1.5 290 19:47 18.11.2020
5340 Clear 14 1019 62 10000 1.5 290 19:25 18.11.2020
5341 Clear 16 1019 55 10000 3.1 280 18:49 18.11.2020
5342 Clear 17 1019 55 10000 4.1 290 17:59 18.11.2020
5343 Clear 17 1019 55 10000 4.1 290 17:35 18.11.2020
5344 Clear 18 1019 52 10000 2.6 280 16:23 18.11.2020
5345 Clear 21 1019 43 10000 5.1 290 15:22 18.11.2020
5346 Clear 21 1019 43 10000 5.1 290 14:40 18.11.2020
5347 Clouds 22 1019 37 10000 4.1 290 13:43 18.11.2020
5348 Clouds 22 1019 40 10000 4.6 290 12:54 18.11.2020
5349 Clouds 22 1019 40 10000 4.6 290 12:27 18.11.2020
5350 Clear 21 1020 46 10000 4.6 330 11:28 18.11.2020
5351 Clear 20 1020 52 10000 6.2 310 10:31 18.11.2020
5352 Clear 19 1021 55 10000 5.1 300 09:52 18.11.2020
5353 Clear 15 1022 72 9000 4.6 310 07:40 18.11.2020
5354 Clear 13 1021 71 9000 3.6 310 06:30 18.11.2020
5355 Clear 12 1020 76 10000 3.1 300 00:25 18.11.2020
5356 Clear 13 1020 71 10000 3.6 300 23:34 17.11.2020
5357 Clear 17 1019 52 10000 3.7 346 22:46 17.11.2020
5358 Clear 14 1020 67 10000 3.6 320 22:28 17.11.2020
5359 Clear 14 1020 67 10000 3.6 320 21:50 17.11.2020
5360 Clear 14 1020 67 10000 3.6 320 21:30 17.11.2020
5361 Clear 15 1020 67 10000 3.6 320 20:47 17.11.2020
5362 Clear 15 1020 67 10000 3.6 320 20:24 17.11.2020
5363 Clouds 16 1020 63 9000 4.1 300 19:54 17.11.2020
5364 Clouds 16 1020 63 9000 4.1 300 19:54 17.11.2020
5365 Clouds 17 1020 67 7000 3.6 280 18:24 17.11.2020
5366 Clouds 17 1020 67 7000 3.6 280 18:24 17.11.2020
5367 Mist 17 1020 72 5000 2.1 280 17:33 17.11.2020
5368 Clouds 18 1019 68 8000 2.1 320 16:53 17.11.2020
5369 Rain 18 1019 63 5000 3.6 310 16:18 17.11.2020
5370 Rain 18 1019 63 5000 3.6 310 15:39 17.11.2020
5371 Rain 18 1019 68 5000 5.7 300 15:21 17.11.2020
5372 Rain 18 1019 68 5000 5.7 300 14:41 17.11.2020
5373 Rain 19 1019 63 6000 5.7 270 13:59 17.11.2020
5374 Rain 19 1019 63 6000 5.7 270 13:30 17.11.2020
5375 Clouds 21 1019 46 9000 5.1 310 12:43 17.11.2020
5376 Clouds 22 1019 46 6000 5.1 300 11:46 17.11.2020
5377 Clouds 22 1019 46 6000 5.1 300 11:28 17.11.2020
5378 Clouds 23 1020 40 10000 3.1 340 10:39 17.11.2020
5379 Clouds 22 1020 43 8000 1 0 10:20 17.11.2020
5380 Clouds 22 1020 43 8000 1 0 09:48 17.11.2020
5381 Clouds 20 1021 45 8000 1.5 100 08:46 17.11.2020
5382 Clouds 19 1021 48 7000 2.1 100 07:59 17.11.2020
5383 Clouds 19 1021 48 7000 2.1 100 07:34 17.11.2020
5384 Clouds 14 1019 58 6000 1 0 04:31 17.11.2020
5385 Clouds 14 1019 62 6000 1.5 80 03:28 17.11.2020
5386 Clouds 14 1019 62 8000 1 0 02:29 17.11.2020
5387 Clear 16 1019 51 10000 1.5 50 00:56 17.11.2020
5388 Clear 17 1019 51 10000 2.1 50 23:54 16.11.2020
5389 Clear 17 1019 51 10000 2.1 50 23:32 16.11.2020
5390 Clouds 18 1019 48 10000 2.1 70 22:58 16.11.2020
5391 Clouds 18 1019 48 10000 2.1 70 22:26 16.11.2020
5392 Clear 17 1019 51 10000 2.1 40 21:56 16.11.2020
5393 Clear 17 1019 51 10000 2.1 40 21:38 16.11.2020
5394 Clear 17 1019 51 10000 2.6 40 21:19 16.11.2020
5395 Clear 17 1019 51 10000 2.6 40 20:26 16.11.2020
5396 Clear 18 1019 48 10000 3.6 40 19:53 16.11.2020
5397 Clear 18 1019 48 10000 3.6 40 19:29 16.11.2020
5398 Clear 19 1018 42 10000 3.6 40 18:51 16.11.2020
5399 Clouds 20 1018 40 10000 4.1 30 18:19 16.11.2020
5400 Clouds 20 1018 40 10000 4.1 30 17:36 16.11.2020
5401 Clear 20 1017 42 10000 4.6 30 17:18 16.11.2020
5402 Clear 20 1017 42 10000 4.6 30 16:49 16.11.2020
5403 Clear 20 1017 42 10000 4.6 30 16:24 16.11.2020
5404 Clouds 21 1017 40 9000 4.1 20 15:44 16.11.2020
5405 Clouds 21 1017 40 9000 4.1 20 15:26 16.11.2020
5406 Clouds 24 1016 31 9000 2.6 100 14:47 16.11.2020
5407 Clouds 24 1016 27 10000 3.1 110 13:46 16.11.2020
5408 Clouds 25 1016 23 10000 3.1 110 12:59 16.11.2020
5409 Clouds 25 1016 23 10000 3.1 110 12:29 16.11.2020
5410 Clouds 24 1017 27 8000 2.1 100 11:40 16.11.2020
5411 Clouds 23 1017 31 9000 1.5 0 11:21 16.11.2020
5412 Clouds 23 1017 31 9000 1.5 0 10:44 16.11.2020
5413 Clouds 23 1017 31 9000 1.5 0 10:25 16.11.2020
5414 Clouds 23 1018 31 10000 2.1 0 09:49 16.11.2020
5415 Clouds 23 1018 31 10000 2.1 0 09:23 16.11.2020
5416 Clouds 21 1018 37 8000 2.1 350 08:41 16.11.2020
5417 Clouds 19 1018 48 6000 1.5 340 07:53 16.11.2020
5418 Haze 17 1018 59 4600 2.1 340 06:54 16.11.2020
5419 Haze 17 1018 59 4600 2.1 340 06:35 16.11.2020
5420 Rain 16 1017 59 6000 1.5 220 04:53 16.11.2020
5421 Clouds 18 1016 42 7000 1.5 130 03:52 16.11.2020
5422 Clear 16 1017 51 7000 2.1 100 01:44 16.11.2020
5423 Clear 17 1016 45 10000 1 180 00:20 16.11.2020
5424 Clear 17 1016 45 10000 1 180 23:28 15.11.2020
5425 Clear 17 1016 48 10000 1 150 22:54 15.11.2020
5426 Clear 17 1016 48 10000 1 150 22:22 15.11.2020
5427 Clear 18 1016 52 8000 1.73 159 21:51 15.11.2020
5428 Clear 18 1016 52 8000 2.14 144 21:27 15.11.2020
5429 Clear 19 1016 45 8000 1 70 20:48 15.11.2020
5430 Clear 19 1016 45 8000 1 70 20:28 15.11.2020
5431 Clear 19 1016 42 10000 1 320 19:55 15.11.2020
5432 Clear 19 1016 42 10000 1 320 19:36 15.11.2020
5433 Clear 19 1016 45 10000 1 120 19:18 15.11.2020
5434 Clear 19 1016 45 10000 1 120 18:43 15.11.2020
5435 Clear 19 1016 45 10000 1 120 18:24 15.11.2020
5436 Clear 19 1016 42 10000 1.5 350 17:47 15.11.2020
5437 Clear 19 1016 42 10000 1.5 350 17:26 15.11.2020
5438 Clear 20 1016 40 10000 2.75 98 16:52 15.11.2020
5439 Clear 20 1016 40 10000 2.19 83 16:24 15.11.2020
5440 Clear 23 1015 31 10000 1.5 230 15:58 15.11.2020
5441 Clear 23 1015 31 10000 1.5 230 15:39 15.11.2020
5442 Clear 23 1015 31 10000 1.5 230 15:21 15.11.2020
5443 Clear 24 1015 29 10000 1 0 14:45 15.11.2020
5444 Clear 24 1015 29 10000 1 0 14:22 15.11.2020
5445 Clear 24 1015 29 10000 2.6 300 13:41 15.11.2020
5446 Clear 24 1015 29 10000 2.1 0 12:54 15.11.2020
5447 Clear 24 1015 29 10000 2.1 0 12:29 15.11.2020
5448 Clear 24 1016 31 10000 2.6 230 11:58 15.11.2020
5449 Clear 24 1016 31 10000 2.6 230 11:40 15.11.2020
5450 Clear 24 1017 29 10000 2.1 0 11:18 15.11.2020
5451 Clear 24 1017 29 10000 2.1 0 10:49 15.11.2020
5452 Clear 24 1017 29 10000 2.1 0 10:29 15.11.2020
5453 Clear 22 1017 35 10000 1 0 09:45 15.11.2020
5454 Clear 22 1017 35 10000 1 0 09:22 15.11.2020
5455 Clear 20 1018 40 10000 1 0 08:54 15.11.2020
5456 Clear 20 1018 40 10000 1 0 08:31 15.11.2020
5457 Clear 17 1018 48 10000 2.1 330 07:43 15.11.2020
5458 Clouds 14 1017 54 10000 1 260 05:30 15.11.2020
5459 Clouds 13 1016 54 10000 1.5 310 04:50 15.11.2020
5460 Clear 13 1017 54 10000 2.1 310 00:56 15.11.2020
5461 Clear 13 1017 54 10000 2.1 310 00:29 15.11.2020
5462 Clear 13 1017 50 10000 2.6 300 23:41 14.11.2020
5463 Clear 12 1017 54 10000 2.1 290 22:51 14.11.2020
5464 Clear 12 1017 54 10000 2.1 290 22:32 14.11.2020
5465 Clear 12 1017 54 10000 2.65 324 21:45 14.11.2020
5466 Clear 12 1017 54 10000 3.05 317 21:23 14.11.2020
5467 Clear 15 1017 44 10000 1.5 200 20:59 14.11.2020
5468 Clear 15 1017 44 10000 1.5 200 20:34 14.11.2020
5469 Clear 15 1017 44 10000 3.28 312 19:58 14.11.2020
5470 Clear 15 1017 44 10000 3.28 312 19:36 14.11.2020
5471 Clear 15 1017 44 10000 3.28 312 19:36 14.11.2020
5472 Clear 17 1017 42 10000 3.67 311 18:55 14.11.2020
5473 Clear 17 1017 42 10000 3.86 316 18:37 14.11.2020
5474 Clear 17 1017 42 10000 3.86 316 18:37 14.11.2020
5475 Clear 18 1017 36 10000 2.1 250 18:19 14.11.2020
5476 Clear 18 1017 36 10000 2.1 250 17:42 14.11.2020
5477 Clear 18 1017 36 10000 2.1 250 17:23 14.11.2020
5478 Clear 20 1017 32 10000 2.6 220 16:51 14.11.2020
5479 Clear 20 1017 32 10000 2.6 220 16:26 14.11.2020
5480 Clear 23 1017 27 10000 2.1 270 15:53 14.11.2020
5481 Clear 23 1017 27 10000 2.1 270 15:30 14.11.2020
5482 Clear 24 1017 23 10000 4.1 290 14:50 14.11.2020
5483 Clear 24 1017 23 10000 4.1 290 14:28 14.11.2020
5484 Clear 25 1017 23 10000 3.1 310 13:49 14.11.2020
5485 Clear 25 1017 23 10000 3.1 310 13:27 14.11.2020
5486 Clear 25 1017 23 10000 3.1 290 12:49 14.11.2020
5487 Clear 25 1017 23 10000 3.1 290 12:30 14.11.2020
5488 Clear 25 1017 25 10000 3.6 310 11:49 14.11.2020
5489 Clear 25 1017 25 10000 3.6 310 11:30 14.11.2020
5490 Clear 24 1018 29 10000 2.6 290 10:51 14.11.2020
5491 Clear 24 1018 29 10000 2.6 290 10:27 14.11.2020
5492 Clear 24 1018 29 10000 2.6 290 10:27 14.11.2020
5493 Clear 22 1019 35 10000 4.1 300 09:58 14.11.2020
5494 Clear 22 1019 35 10000 4.1 300 09:40 14.11.2020
5495 Clear 22 1019 35 10000 4.1 300 09:22 14.11.2020
5496 Clear 20 1020 40 10000 4.1 300 08:40 14.11.2020
5497 Clear 17 1020 48 10000 3.6 300 08:18 14.11.2020
5498 Clear 17 1020 48 10000 3.6 300 07:41 14.11.2020
5499 Clear 14 1020 54 10000 3.6 300 06:38 14.11.2020
5500 Clear 12 1020 58 10000 2.6 300 06:20 14.11.2020
5501 Clear 13 1020 58 10000 3.1 280 04:39 14.11.2020
5502 Clear 13 1019 58 10000 3.1 300 01:41 14.11.2020
5503 Clear 13 1020 62 10000 2.6 300 00:24 14.11.2020
5504 Clear 15 1020 54 10000 3.6 300 23:33 13.11.2020
5505 Clear 16 1020 55 10000 2.6 290 22:58 13.11.2020
5506 Clear 16 1020 55 10000 2.6 290 22:39 13.11.2020
5507 Clear 16 1020 55 10000 2.6 300 22:19 13.11.2020
5508 Clear 16 1020 55 10000 2.6 300 21:43 13.11.2020
5509 Clear 16 1020 55 10000 2.6 300 21:22 13.11.2020
5510 Clear 18 1020 48 10000 2.6 270 20:51 13.11.2020
5511 Clear 18 1020 48 10000 2.6 270 20:28 13.11.2020
5512 Clear 18 1020 48 10000 3.6 270 19:47 13.11.2020
5513 Clear 18 1020 48 10000 3.6 270 19:24 13.11.2020
5514 Clear 20 1020 42 10000 4.1 290 18:59 13.11.2020
5515 Clear 20 1020 42 10000 4.1 290 18:32 13.11.2020
5516 Clear 20 1020 42 10000 4.1 300 17:43 13.11.2020
5517 Clear 20 1020 42 10000 4.1 300 17:43 13.11.2020
5518 Clear 22 1019 37 10000 4.1 290 17:21 13.11.2020
5519 Clear 22 1019 37 10000 4.1 290 16:50 13.11.2020
5520 Clear 22 1019 37 10000 4.1 290 16:25 13.11.2020
5521 Clear 24 1019 33 10000 5.1 290 15:58 13.11.2020
5522 Clear 24 1019 33 10000 5.1 290 15:33 13.11.2020
5523 Clear 25 1019 29 10000 6.7 280 14:55 13.11.2020
5524 Clear 25 1019 29 10000 6.7 280 14:36 13.11.2020
5525 Clouds 25 1019 31 10000 7.7 280 14:18 13.11.2020
5526 Clouds 25 1019 31 10000 7.7 280 14:18 13.11.2020
5527 Clouds 25 1019 31 10000 7.7 280 14:18 13.11.2020
5528 Clouds 25 1019 31 10000 7.7 280 14:18 13.11.2020
5529 Clouds 25 1019 31 10000 7.7 280 13:31 13.11.2020
5530 Clear 26 1019 27 10000 8.2 290 12:52 13.11.2020
5531 Clear 26 1019 27 10000 8.2 290 12:27 13.11.2020
5532 Clouds 25 1019 31 10000 8.7 300 11:58 13.11.2020
5533 Clouds 25 1019 31 10000 8.7 300 11:39 13.11.2020
5534 Clear 24 1020 41 10000 5.7 280 11:19 13.11.2020
5535 Clear 24 1020 41 10000 5.7 280 10:41 13.11.2020
5536 Clear 24 1020 41 10000 5.7 280 10:23 13.11.2020
5537 Clear 22 1021 46 10000 4.1 280 09:47 13.11.2020
5538 Clear 22 1021 46 10000 4.1 280 09:25 13.11.2020
5539 Clear 20 1021 52 10000 4.6 300 08:53 13.11.2020
5540 Clear 20 1021 52 10000 4.6 300 08:23 13.11.2020
5541 Clear 18 1021 55 10000 3.6 310 07:49 13.11.2020
5542 Clear 18 1021 55 10000 3.6 310 07:27 13.11.2020
5543 Clear 16 1021 63 10000 2.1 270 06:55 13.11.2020
5544 Clear 16 1021 63 10000 2.1 270 06:34 13.11.2020
5545 Clear 16 1021 63 10000 2.1 270 06:34 13.11.2020
5546 Clear 13 1020 66 10000 2.1 280 05:40 13.11.2020
5547 Clear 14 1019 67 10000 1.5 270 03:41 13.11.2020
5548 Clear 12 1019 66 10000 2.1 300 01:42 13.11.2020
5549 Clear 15 1019 62 8000 1.5 250 00:35 13.11.2020
5550 Clear 14 1019 62 8000 2.6 310 23:49 12.11.2020
5551 Clear 17 1019 55 10000 1.5 320 23:21 12.11.2020
5552 Clear 17 1019 55 10000 1.5 320 22:54 12.11.2020
5553 Clear 17 1019 55 10000 1.5 320 22:36 12.11.2020
5554 Clear 16 1019 59 10000 2.6 330 21:57 12.11.2020
5555 Clear 16 1019 59 10000 2.6 330 21:39 12.11.2020
5556 Clear 18 1019 55 10000 2.1 320 21:19 12.11.2020
5557 Clear 18 1019 55 10000 2.1 320 20:41 12.11.2020
5558 Clear 18 1019 55 10000 2.1 320 20:23 12.11.2020
5559 Clear 17 1019 63 10000 2.6 320 19:53 12.11.2020
5560 Clear 17 1019 63 10000 2.6 320 19:34 12.11.2020
5561 Clear 21 1019 49 10000 3.6 290 18:58 12.11.2020
5562 Clear 21 1019 49 10000 3.6 290 18:39 12.11.2020
5563 Clear 21 1018 49 10000 3.1 290 18:19 12.11.2020
5564 Clear 21 1018 49 10000 3.1 290 17:40 12.11.2020
5565 Clear 21 1018 56 10000 2.6 330 17:22 12.11.2020
5566 Clear 21 1018 56 10000 2.6 330 16:44 12.11.2020
5567 Clear 21 1018 56 10000 2.6 330 16:23 12.11.2020
5568 Clear 24 1017 44 10000 3.1 330 15:47 12.11.2020
5569 Clear 24 1017 44 10000 3.1 330 15:28 12.11.2020
5570 Clear 26 1017 39 10000 3.6 330 14:47 12.11.2020
5571 Clear 26 1017 39 10000 3.6 330 14:28 12.11.2020
5572 Clear 26 1017 39 10000 3.1 310 13:58 12.11.2020
5573 Clear 26 1017 39 10000 3.1 310 13:40 12.11.2020
5574 Clear 25 1017 41 10000 4.1 310 13:19 12.11.2020
5575 Clear 25 1017 41 10000 4.1 310 12:44 12.11.2020
5576 Clear 25 1017 41 10000 4.1 310 12:24 12.11.2020
5577 Clear 25 1018 47 10000 4.1 330 11:53 12.11.2020
5578 Clear 25 1018 47 10000 4.1 330 11:34 12.11.2020
5579 Clear 25 1018 47 10000 4.6 330 10:50 12.11.2020
5580 Clear 25 1018 47 10000 4.6 330 10:32 12.11.2020
5581 Clouds 24 1019 50 9000 3.6 320 09:52 12.11.2020
5582 Clouds 24 1019 50 9000 3.6 320 09:27 12.11.2020
5583 Clouds 21 1019 56 10000 3.6 320 08:58 12.11.2020
5584 Clouds 21 1019 56 10000 3.6 320 08:40 12.11.2020
5585 Clouds 19 1019 63 10000 3.1 330 08:20 12.11.2020
5586 Clouds 19 1019 63 10000 3.1 330 07:54 12.11.2020
5587 Clouds 19 1019 63 10000 3.1 330 07:31 12.11.2020
5588 Clouds 17 1019 72 7000 3.1 310 06:51 12.11.2020
5589 Clouds 17 1019 72 7000 3.1 310 06:25 12.11.2020
5590 Clear 16 1018 72 10000 2.1 330 03:45 12.11.2020
5591 Clouds 16 1017 72 9000 3.1 330 03:19 12.11.2020
5592 Clear 16 1018 67 10000 3.1 300 00:36 12.11.2020
5593 Clear 18 1017 63 10000 2.1 310 23:44 11.11.2020
5594 Clear 18 1017 63 10000 2.1 310 23:24 11.11.2020
5595 Clear 17 1017 67 10000 3.1 310 22:48 11.11.2020
5596 Clear 17 1017 67 10000 3.1 310 22:23 11.11.2020
5597 Clear 18 1017 63 10000 2.6 340 21:58 11.11.2020
5598 Clear 18 1017 63 10000 2.6 340 21:38 11.11.2020
5599 Clear 19 1017 63 10000 2.6 320 21:20 11.11.2020
5600 Clear 19 1017 63 10000 2.6 320 20:43 11.11.2020
5601 Clear 19 1017 63 10000 2.6 320 20:22 11.11.2020
5602 Clear 20 1017 64 10000 1.5 330 19:57 11.11.2020
5603 Clear 20 1017 64 10000 1.5 330 19:38 11.11.2020
5604 Clear 20 1017 64 10000 1.5 330 19:20 11.11.2020
5605 Clear 21 1016 60 10000 2.6 330 18:44 11.11.2020
5606 Clear 21 1016 60 10000 2.6 330 18:26 11.11.2020
5607 Clear 22 1016 56 10000 2.1 340 17:41 11.11.2020
5608 Clear 23 1015 56 10000 2.6 340 17:21 11.11.2020
5609 Clear 23 1015 56 10000 2.6 340 16:44 11.11.2020
5610 Clear 23 1015 56 10000 2.6 340 16:25 11.11.2020
5611 Clear 25 1015 47 10000 2.6 320 15:44 11.11.2020
5612 Clear 25 1015 47 10000 2.6 320 15:24 11.11.2020
5613 Clear 27 1015 42 10000 2.6 350 14:51 11.11.2020
5614 Clear 27 1015 42 10000 2.6 350 14:31 11.11.2020
5615 Clouds 27 1015 42 10000 2.1 50 13:52 11.11.2020
5616 Clouds 27 1015 42 10000 2.1 50 13:32 11.11.2020
5617 Clouds 27 1015 42 10000 1.5 40 12:40 11.11.2020
5618 Clouds 27 1015 44 10000 3.1 10 12:20 11.11.2020
5619 Clouds 27 1015 44 10000 3.1 10 11:48 11.11.2020
5620 Clouds 27 1015 44 10000 3.1 10 11:26 11.11.2020
5621 Clear 26 1016 47 10000 3.6 350 10:40 11.11.2020
5622 Clear 26 1016 47 10000 3.6 350 10:20 11.11.2020
5623 Clear 25 1016 50 10000 3.1 340 09:44 11.11.2020
5624 Clear 25 1016 50 10000 3.1 340 09:25 11.11.2020
5625 Clouds 24 1016 53 9000 2.6 310 08:46 11.11.2020
5626 Clouds 24 1016 53 9000 2.6 310 08:46 11.11.2020
5627 Clouds 24 1016 53 9000 2.6 310 08:27 11.11.2020
5628 Clouds 23 1016 56 7000 1.5 340 07:49 11.11.2020
5629 Clouds 23 1016 56 7000 1.5 340 07:49 11.11.2020
5630 Clear 20 1016 72 4300 1 330 06:51 11.11.2020
5631 Clear 20 1016 72 4300 1 330 06:25 11.11.2020
5632 Clear 18 1015 72 8000 1 0 03:57 11.11.2020
5633 Haze 17 1015 72 4900 2.6 310 00:59 11.11.2020
5634 Haze 17 1015 72 4900 2.6 310 00:28 11.11.2020
5635 Rain 18 1015 72 7000 1 280 23:49 10.11.2020
5636 Clear 18 1015 72 7000 1 280 23:24 10.11.2020
5637 Clear 17 1015 67 7000 0.5 230 22:57 10.11.2020
5638 Clouds 17 1015 67 7000 0.5 230 22:27 10.11.2020
5639 Clouds 19 1016 77 7000 0.5 0 21:54 10.11.2020
5640 Clouds 19 1016 77 7000 0.5 0 21:36 10.11.2020
5641 Clouds 18 1016 68 8000 1 30 21:18 10.11.2020
5642 Clouds 18 1016 68 8000 1 30 20:42 10.11.2020
5643 Clouds 18 1016 68 8000 1 30 20:23 10.11.2020
5644 Clear 18 1016 72 10000 1 310 19:50 10.11.2020
5645 Clear 18 1016 72 10000 1 310 19:32 10.11.2020
5646 Clear 19 1015 68 10000 1 260 18:59 10.11.2020
5647 Clear 19 1015 68 10000 1 260 18:40 10.11.2020
5648 Clear 21 1015 68 10000 0.5 0 18:19 10.11.2020
5649 Clear 21 1015 68 10000 0.5 0 17:44 10.11.2020
5650 Clear 23 1015 60 10000 1.5 170 17:26 10.11.2020
5651 Clear 23 1015 60 10000 1.5 170 16:57 10.11.2020
5652 Clear 23 1015 60 10000 1.5 170 16:57 10.11.2020
5653 Clear 23 1015 60 10000 1.5 170 16:37 10.11.2020
5654 Clear 24 1015 57 10000 1.33 354 16:18 10.11.2020
5655 Clear 24 1015 57 10000 1.33 354 15:45 10.11.2020
5656 Clear 24 1015 57 10000 1.23 342 15:23 10.11.2020
5657 Clear 26 1015 50 10000 1 0 14:41 10.11.2020
5658 Clear 26 1015 50 10000 1 0 14:22 10.11.2020
5659 Clear 26 1015 47 10000 3.1 190 13:57 10.11.2020
5660 Clear 26 1015 47 10000 3.1 190 13:36 10.11.2020
5661 Clouds 26 1015 47 5000 2.1 70 13:18 10.11.2020
5662 Clouds 26 1015 47 5000 2.1 70 12:44 10.11.2020
5663 Clouds 26 1015 47 5000 2.1 70 12:44 10.11.2020
5664 Clouds 26 1015 47 5000 2.1 70 12:24 10.11.2020
5665 Dust 26 1016 47 4100 1.5 80 11:39 10.11.2020
5666 Dust 25 1016 53 4500 2.1 0 11:20 10.11.2020
5667 Dust 25 1016 53 4500 2.1 0 10:45 10.11.2020
5668 Dust 25 1016 53 4500 2.1 0 10:27 10.11.2020
5669 Dust 25 1016 53 4500 2.1 0 10:27 10.11.2020
5670 Haze 23 1017 60 3500 2.1 320 09:55 10.11.2020
5671 Haze 23 1017 60 3500 2.1 320 09:37 10.11.2020
5672 Haze 22 1018 64 3500 1 0 09:19 10.11.2020
5673 Haze 22 1018 64 3500 1 0 08:45 10.11.2020
5674 Haze 22 1018 64 3500 1 0 08:24 10.11.2020
5675 Mist 21 1018 68 4000 2.1 120 07:42 10.11.2020
5676 Mist 21 1018 68 4000 2.1 120 07:20 10.11.2020
5677 Clear 18 1017 82 4000 1.5 120 06:39 10.11.2020
5678 Clear 16 1017 87 4500 1 110 05:34 10.11.2020
5679 Clear 17 1017 88 7000 2.1 60 04:36 10.11.2020
5680 Clear 16 1017 87 8000 1 10 01:42 10.11.2020
5681 Clear 17 1017 77 10000 0.5 0 00:55 10.11.2020
5682 Clear 18 1018 77 10000 3.22 141 23:51 09.11.2020
5683 Clear 18 1018 77 10000 3.6 143 23:23 09.11.2020
5684 Clouds 20 1018 72 10000 2.1 100 22:44 09.11.2020
5685 Clouds 20 1018 72 10000 2.1 100 22:23 09.11.2020
5686 Rain 18 1018 77 9000 1 0 21:45 09.11.2020
5687 Clear 18 1018 77 9000 1 0 21:27 09.11.2020
5688 Clouds 19 1018 72 10000 1 0 20:45 09.11.2020
5689 Clouds 22 1019 64 10000 2.6 80 20:22 09.11.2020
5690 Clouds 22 1019 64 10000 2.6 80 19:57 09.11.2020
5691 Clouds 22 1019 64 10000 2.6 80 19:39 09.11.2020
5692 Clouds 19 1018 77 10000 2.6 80 19:19 09.11.2020
5693 Clouds 19 1018 77 10000 2.6 80 18:41 09.11.2020
5694 Clouds 21 1017 64 10000 2.1 0 18:20 09.11.2020
5695 Clouds 21 1017 64 10000 2.1 0 17:44 09.11.2020
5696 Clouds 21 1017 64 10000 2.1 0 17:26 09.11.2020
5697 Clouds 21 1016 68 10000 3.1 220 16:44 09.11.2020
5698 Clouds 21 1016 68 10000 3.1 220 16:26 09.11.2020
5699 Rain 21 1016 68 10000 5.7 130 15:48 09.11.2020
5700 Rain 21 1018 77 6000 9.3 170 15:29 09.11.2020
5701 Rain 21 1018 77 6000 9.3 170 14:56 09.11.2020
5702 Rain 21 1018 77 6000 9.3 170 14:37 09.11.2020
5703 Clouds 22 1018 60 9000 8.7 200 14:19 09.11.2020
5704 Clouds 22 1018 60 9000 8.7 200 14:19 09.11.2020
5705 Clouds 22 1018 60 9000 8.7 200 13:42 09.11.2020
5706 Thunderstorm 22 1018 73 8000 7.7 190 13:19 09.11.2020
5707 Clouds 25 1017 57 10000 5.1 230 12:45 09.11.2020
5708 Clouds 26 1017 54 10000 5.7 180 12:21 09.11.2020
5709 Clouds 26 1017 54 10000 5.7 180 11:43 09.11.2020
5710 Clouds 26 1017 54 10000 5.7 180 11:24 09.11.2020
5711 Clouds 26 1018 47 10000 5.1 140 10:58 09.11.2020
5712 Clouds 26 1018 47 10000 5.1 140 10:40 09.11.2020
5713 Clouds 26 1018 47 10000 5.1 140 10:21 09.11.2020
5714 Clouds 26 1018 47 10000 6.2 120 09:30 09.11.2020
5715 Clouds 26 1019 41 10000 4.6 100 08:57 09.11.2020
5716 Clouds 26 1019 41 10000 4.6 100 08:28 09.11.2020
5717 Clouds 24 1019 47 7000 2.1 80 07:57 09.11.2020
5718 Clouds 24 1019 47 7000 2.1 80 07:24 09.11.2020
5719 Clouds 21 1019 52 9000 2.6 70 06:55 09.11.2020
5720 Clouds 19 1019 59 8000 2.1 40 05:38 09.11.2020
5721 Clear 17 1019 67 10000 1 340 02:22 09.11.2020
5722 Clear 18 1018 63 10000 1.5 360 01:41 09.11.2020
5723 Clear 20 1019 60 10000 1 170 00:56 09.11.2020
5724 Clear 21 1019 56 10000 1.5 190 23:48 08.11.2020
5725 Clear 21 1019 56 10000 1.5 190 23:28 08.11.2020
5726 Clear 22 1019 53 10000 3.1 150 22:43 08.11.2020
5727 Clear 22 1019 53 10000 3.1 150 22:22 08.11.2020
5728 Clear 23 1019 49 10000 7.2 140 21:48 08.11.2020
5729 Clear 23 1019 49 10000 7.2 140 21:24 08.11.2020
5730 Clear 22 1019 60 8000 2.6 110 20:57 08.11.2020
5731 Clear 22 1019 60 8000 2.6 110 20:38 08.11.2020
5732 Clear 21 1018 68 8000 1.5 40 20:20 08.11.2020
5733 Clear 21 1018 68 8000 1.5 40 19:46 08.11.2020
5734 Rain 21 1018 68 8000 1.5 40 19:24 08.11.2020
5735 Rain 22 1018 64 8000 1 350 18:59 08.11.2020
5736 Rain 22 1018 64 8000 1 350 18:40 08.11.2020
5737 Clouds 23 1017 60 9000 0.5 330 18:21 08.11.2020
5738 Clouds 23 1017 60 9000 0.5 330 17:56 08.11.2020
5739 Clouds 23 1017 60 9000 0.5 330 17:36 08.11.2020
5740 Clear 23 1017 56 10000 2.6 320 17:18 08.11.2020
5741 Clear 23 1017 56 10000 2.6 320 16:38 08.11.2020
5742 Clear 25 1016 53 10000 2.1 330 16:20 08.11.2020
5743 Clear 25 1016 53 10000 2.1 330 15:46 08.11.2020
5744 Clear 25 1016 53 10000 2.1 330 15:28 08.11.2020
5745 Clouds 26 1016 54 9000 3.6 320 14:44 08.11.2020
5746 Clouds 26 1016 54 9000 3.6 320 14:24 08.11.2020
5747 Clouds 26 1016 54 9000 3.6 320 14:24 08.11.2020
5748 Clouds 26 1016 54 9000 3.1 330 13:57 08.11.2020
5749 Clouds 26 1016 54 9000 3.1 330 13:39 08.11.2020
5750 Clouds 26 1016 54 9000 4.1 330 13:20 08.11.2020
5751 Clouds 26 1016 54 9000 4.1 330 12:41 08.11.2020
5752 Clouds 26 1016 54 9000 4.1 330 12:23 08.11.2020
5753 Clear 26 1016 50 10000 3.1 310 11:56 08.11.2020
5754 Clear 26 1016 50 10000 3.1 310 11:38 08.11.2020
5755 Clouds 26 1016 47 10000 3.1 330 11:19 08.11.2020
5756 Clouds 26 1016 47 10000 3.1 330 10:47 08.11.2020
5757 Clear 24 1017 50 10000 3.6 330 10:18 08.11.2020
5758 Clear 24 1017 50 10000 3.6 330 09:42 08.11.2020
5759 Clear 24 1017 50 10000 3.6 330 09:24 08.11.2020
5760 Clear 22 1017 53 10000 4.1 340 08:47 08.11.2020
5761 Clear 22 1017 53 10000 4.1 340 08:27 08.11.2020
5762 Clouds 20 1017 60 10000 4.1 330 07:53 08.11.2020
5763 Clouds 20 1017 60 10000 4.1 330 07:33 08.11.2020
5764 Clear 18 1017 63 10000 3.1 340 06:45 08.11.2020
5765 Clear 17 1016 67 10000 4.1 320 05:55 08.11.2020
5766 Clear 17 1016 67 10000 4.1 320 05:26 08.11.2020
5767 Clear 18 1015 63 10000 3.6 330 03:39 08.11.2020
5768 Clear 18 1015 59 10000 3.6 330 01:49 08.11.2020
5769 Clear 19 1015 59 10000 4.1 320 01:18 08.11.2020
5770 Clear 19 1015 59 10000 4.1 320 00:23 08.11.2020
5771 Clear 20 1015 52 10000 4.1 330 23:43 07.11.2020
5772 Clear 20 1015 52 10000 4.1 330 23:24 07.11.2020
5773 Clear 20 1015 56 10000 4.1 320 22:41 07.11.2020
5774 Clear 20 1015 56 10000 4.1 320 22:21 07.11.2020
5775 Clear 20 1015 56 10000 3.6 330 21:45 07.11.2020
5776 Clear 20 1015 56 10000 3.6 330 21:21 07.11.2020
5777 Clear 22 1015 46 10000 4.6 340 20:50 07.11.2020
5778 Clear 22 1015 46 10000 4.6 340 20:31 07.11.2020
5779 Clear 22 1015 46 10000 4.1 340 19:52 07.11.2020
5780 Clear 22 1015 46 10000 4.1 340 19:29 07.11.2020
5781 Clear 22 1015 49 10000 3.6 340 18:58 07.11.2020
5782 Clear 22 1015 49 10000 3.6 340 18:38 07.11.2020
5783 Clear 23 1015 46 10000 4.1 340 18:20 07.11.2020
5784 Clear 23 1015 46 10000 4.1 340 17:43 07.11.2020
5785 Clear 23 1015 46 10000 4.1 340 17:23 07.11.2020
5786 Clear 23 1015 49 10000 3.1 340 16:42 07.11.2020
5787 Clear 23 1015 49 10000 3.1 340 16:23 07.11.2020
5788 Clouds 25 1014 50 10000 4.1 330 15:45 07.11.2020
5789 Clouds 25 1014 50 10000 4.1 330 15:23 07.11.2020
5790 Clouds 26 1014 54 8000 5.1 340 14:55 07.11.2020
5791 Clouds 26 1014 54 8000 5.1 340 14:37 07.11.2020
5792 Clouds 26 1015 54 6000 2.6 20 14:18 07.11.2020
5793 Clouds 26 1015 54 6000 2.6 20 13:39 07.11.2020
5794 Dust 26 1014 54 5000 2.6 360 13:20 07.11.2020
5795 Dust 26 1014 54 5000 2.6 360 12:32 07.11.2020
5796 Clouds 27 1013 38 10000 2.67 113 11:45 07.11.2020
5797 Dust 25 1015 61 5000 2.1 50 11:24 07.11.2020
5798 Dust 25 1015 61 5000 2.1 50 10:56 07.11.2020
5799 Dust 25 1015 61 5000 2.1 50 10:38 07.11.2020
5800 Clouds 23 1016 60 7000 3.6 340 10:20 07.11.2020
5801 Clouds 23 1016 60 7000 3.6 340 09:47 07.11.2020
5802 Clouds 22 1016 60 5000 3.6 350 09:21 07.11.2020
5803 Clouds 20 1016 68 7000 3.1 320 08:43 07.11.2020
5804 Clouds 20 1016 68 7000 3.1 320 08:22 07.11.2020
5805 Clouds 19 1016 68 9000 3.1 320 07:37 07.11.2020
5806 Rain 18 1016 77 9000 3.1 320 06:48 07.11.2020
5807 Clouds 18 1015 72 10000 2.1 330 05:40 07.11.2020
5808 Clear 17 1015 72 10000 3.6 320 03:25 07.11.2020
5809 Clear 17 1014 72 10000 3.1 320 02:28 07.11.2020
5810 Clear 19 1014 63 10000 2.6 350 01:26 07.11.2020
5811 Clear 19 1014 63 10000 3.6 330 00:34 07.11.2020
5812 Clear 19 1014 59 10000 4.1 330 23:32 06.11.2020
5813 Clear 20 1014 56 10000 4.1 330 22:57 06.11.2020
5814 Clear 20 1014 56 10000 4.1 330 22:38 06.11.2020
5815 Clear 20 1014 52 10000 4.6 330 22:18 06.11.2020
5816 Clear 20 1014 52 10000 4.6 330 21:41 06.11.2020
5817 Clear 21 1014 49 10000 3.1 340 21:20 06.11.2020
5818 Clear 21 1014 49 10000 3.1 340 20:44 06.11.2020
5819 Clear 21 1014 52 10000 3.1 340 20:20 06.11.2020
5820 Clear 21 1014 52 10000 3.1 340 19:45 06.11.2020
5821 Clear 21 1014 52 10000 3.1 340 19:27 06.11.2020
5822 Clear 22 1013 49 10000 3.6 320 18:56 06.11.2020
5823 Clear 22 1013 49 10000 3.6 320 18:38 06.11.2020
5824 Clear 23 1013 49 10000 3.6 310 18:19 06.11.2020
5825 Clear 23 1013 49 10000 3.6 310 17:42 06.11.2020
5826 Clear 23 1013 49 10000 3.6 310 17:24 06.11.2020
5827 Clear 24 1012 47 10000 2.6 330 16:42 06.11.2020
5828 Clear 26 1012 39 10000 1 320 16:21 06.11.2020
5829 Clear 26 1012 39 10000 1 320 15:47 06.11.2020
5830 Clouds 28 1012 34 9000 0.5 0 15:26 06.11.2020
5831 Clouds 28 1012 34 9000 0.5 0 14:50 06.11.2020
5832 Clouds 28 1012 34 9000 0.5 0 14:23 06.11.2020
5833 Clouds 28 1012 34 8000 2.1 90 13:42 06.11.2020
5834 Clouds 28 1011 34 8000 2.6 90 13:21 06.11.2020
5835 Clouds 28 1011 34 8000 2.6 90 12:43 06.11.2020
5836 Clouds 28 1011 34 8000 2.6 90 12:23 06.11.2020
5837 Clouds 27 1012 36 7000 2.6 80 11:40 06.11.2020
5838 Clouds 26 1012 39 6000 1 0 11:21 06.11.2020
5839 Clouds 30 1010 22 10000 3.34 151 10:38 06.11.2020
5840 Clouds 29 1012 23 10000 3.65 143 10:19 06.11.2020
5841 Clouds 29 1012 23 10000 3.65 143 09:46 06.11.2020
5842 Clear 23 1013 46 5000 2.6 110 09:21 06.11.2020
5843 Clear 23 1013 46 5000 2.6 110 08:49 06.11.2020
5844 Clear 23 1013 46 5000 2.6 110 08:28 06.11.2020
5845 Haze 22 1013 49 5000 2.1 70 07:47 06.11.2020
5846 Haze 22 1013 49 5000 2.1 70 07:29 06.11.2020
5847 Clear 19 1013 59 10000 1 0 06:49 06.11.2020
5848 Clear 16 1012 67 10000 2.1 320 05:42 06.11.2020
5849 Clear 18 1011 59 10000 3.1 360 03:18 06.11.2020
5850 Clear 17 1011 63 10000 3.6 330 00:46 06.11.2020
5851 Clear 18 1011 63 10000 4.1 320 00:19 06.11.2020
5852 Clear 18 1011 63 10000 4.1 320 23:29 05.11.2020
5853 Clear 19 1011 55 10000 4.1 320 22:57 05.11.2020
5854 Clear 19 1011 55 10000 4.1 320 22:37 05.11.2020
5855 Clear 20 1011 52 10000 4.6 290 22:18 05.11.2020
5856 Clear 22 1011 43 10000 3.1 260 21:42 05.11.2020
5857 Clear 24 1011 38 10000 2.6 230 21:21 05.11.2020
5858 Clear 24 1011 38 10000 2.6 230 20:48 05.11.2020
5859 Clear 24 1011 38 10000 2.6 230 20:28 05.11.2020
5860 Clear 23 1010 43 10000 3.1 110 19:59 05.11.2020
5861 Clear 23 1010 43 10000 3.1 110 19:40 05.11.2020
5862 Clear 23 1010 43 10000 3.1 110 19:22 05.11.2020
5863 Clear 24 1010 41 10000 3.1 110 18:45 05.11.2020
5864 Clear 24 1010 41 10000 3.1 110 18:26 05.11.2020
5865 Clouds 24 1010 44 10000 3.1 110 17:52 05.11.2020
5866 Clouds 24 1010 44 10000 3.1 110 17:29 05.11.2020
5867 Clouds 25 1010 36 10000 3.1 110 16:59 05.11.2020
5868 Clouds 25 1010 36 10000 3.1 110 16:40 05.11.2020
5869 Clouds 27 1009 32 10000 2.1 100 16:19 05.11.2020
5870 Clouds 27 1009 32 10000 2.1 100 15:44 05.11.2020
5871 Clouds 27 1009 32 10000 2.1 100 15:22 05.11.2020
5872 Clouds 29 1009 26 10000 1.5 160 14:46 05.11.2020
5873 Clouds 29 1009 26 10000 1.5 160 14:26 05.11.2020
5874 Clouds 29 1009 28 10000 2.1 190 13:42 05.11.2020
5875 Clouds 29 1009 28 10000 2.1 190 13:23 05.11.2020
5876 Clouds 29 1009 30 10000 3.6 230 12:53 05.11.2020
5877 Clouds 29 1009 30 10000 3.6 230 12:27 05.11.2020
5878 Clouds 29 1009 30 10000 4.1 240 11:55 05.11.2020
5879 Clouds 29 1009 30 10000 4.1 240 11:30 05.11.2020
5880 Clouds 27 1010 39 9000 2.6 220 10:58 05.11.2020
5881 Clouds 27 1010 39 9000 2.6 220 10:39 05.11.2020
5882 Clear 26 1011 41 9000 2.1 210 10:21 05.11.2020
5883 Clear 26 1011 41 9000 2.1 210 09:44 05.11.2020
5884 Clear 26 1011 41 9000 2.1 210 09:21 05.11.2020
5885 Clear 26 1011 41 9000 2.1 210 09:21 05.11.2020
5886 Clouds 24 1011 41 9000 2.1 200 08:43 05.11.2020
5887 Clouds 24 1011 41 9000 2.1 200 08:25 05.11.2020
5888 Clouds 22 1011 40 9000 2.6 180 07:30 05.11.2020
5889 Clouds 20 1010 42 10000 4.1 150 06:52 05.11.2020
5890 Clouds 20 1010 42 10000 4.1 150 06:34 05.11.2020
5891 Clouds 20 1010 42 10000 4.1 150 06:34 05.11.2020
5892 Clouds 20 1010 42 10000 4.1 150 06:34 05.11.2020
5893 Clouds 19 1010 45 10000 3.6 130 05:23 05.11.2020
5894 Clouds 23 1010 35 10000 3.6 120 01:24 05.11.2020
5895 Clouds 25 1010 31 10000 4.6 100 00:32 05.11.2020
5896 Clouds 27 1010 26 10000 4.6 120 23:44 04.11.2020
5897 Clouds 27 1010 26 10000 4.6 120 23:26 04.11.2020
5898 Clouds 25 1010 31 10000 3.6 140 22:52 04.11.2020
5899 Clouds 25 1010 31 10000 3.6 140 22:24 04.11.2020
5900 Clouds 25 1010 31 10000 3.6 140 22:24 04.11.2020
5901 Clouds 25 1010 31 10000 4.6 140 21:57 04.11.2020
5902 Clouds 25 1010 31 10000 4.6 140 21:37 04.11.2020
5903 Clouds 26 1010 29 10000 5.1 120 21:18 04.11.2020
5904 Clouds 26 1010 29 10000 5.1 120 20:42 04.11.2020
5905 Clouds 26 1010 29 10000 5.1 120 20:24 04.11.2020
5906 Clouds 27 1010 26 10000 6.2 120 19:48 04.11.2020
5907 Clouds 27 1010 26 10000 6.2 120 19:29 04.11.2020
5908 Clouds 27 1010 18 10000 5.24 140 18:45 04.11.2020
5909 Clouds 27 1011 30 8000 3.6 100 18:27 04.11.2020
5910 Clouds 27 1011 30 8000 3.6 100 17:59 04.11.2020
5911 Clouds 27 1011 30 8000 3.6 100 17:40 04.11.2020
5912 Clear 28 1010 18 10000 4.87 130 17:20 04.11.2020
5913 Clouds 29 1011 30 10000 3.1 120 16:38 04.11.2020
5914 Clouds 29 1011 30 10000 3.1 120 16:20 04.11.2020
5915 Clouds 29 1011 30 10000 3.1 120 15:47 04.11.2020
5916 Clouds 29 1011 30 10000 3.1 120 15:25 04.11.2020
5917 Clouds 31 1012 23 10000 4.1 150 14:57 04.11.2020
5918 Clouds 31 1012 23 10000 4.1 150 14:39 04.11.2020
5919 Clouds 32 1012 25 9000 5.1 150 14:18 04.11.2020
5920 Clouds 32 1012 25 9000 5.1 150 13:41 04.11.2020
5921 Clouds 32 1012 25 9000 3.6 150 13:19 04.11.2020
5922 Clouds 32 1012 25 9000 3.6 150 12:50 04.11.2020
5923 Clouds 32 1012 25 9000 3.6 150 12:26 04.11.2020
5924 Clear 31 1013 23 6000 2.6 150 11:56 04.11.2020
5925 Clear 31 1013 23 6000 2.6 150 11:56 04.11.2020
5926 Clear 31 1013 23 6000 2.6 150 11:37 04.11.2020
5927 Clear 29 1013 26 6000 3.1 80 11:18 04.11.2020
5928 Clear 29 1013 26 6000 3.1 80 10:43 04.11.2020
5929 Clear 29 1013 26 6000 3.1 80 10:22 04.11.2020
5930 Clouds 28 1015 30 6000 3.1 70 09:50 04.11.2020
5931 Clouds 28 1015 30 6000 3.1 70 09:22 04.11.2020
5932 Clear 27 1016 30 6000 3.6 100 08:45 04.11.2020
5933 Haze 26 1016 34 4200 1 0 08:19 04.11.2020
5934 Haze 26 1016 34 4200 1 0 07:48 04.11.2020
5935 Haze 26 1016 34 4200 1 0 07:27 04.11.2020
5936 Haze 22 1016 49 3200 2.1 70 06:42 04.11.2020
5937 Haze 16 1015 63 3100 1.5 340 06:18 04.11.2020
5938 Clear 18 1015 55 6000 1.5 40 02:32 04.11.2020
5939 Clear 17 1015 59 6000 1 20 01:42 04.11.2020
5940 Clouds 18 1015 48 6000 1.5 110 00:41 04.11.2020
5941 Clouds 21 1016 43 6000 1.5 190 23:38 03.11.2020
5942 Clouds 20 1015 42 7000 0.5 0 23:20 03.11.2020
5943 Clouds 20 1015 42 7000 0.5 0 22:41 03.11.2020
5944 Clouds 23 1016 40 8000 2.1 70 22:20 03.11.2020
5945 Clouds 23 1016 40 8000 2.1 70 21:55 03.11.2020
5946 Clouds 23 1016 40 8000 2.1 70 21:37 03.11.2020
5947 Clouds 23 1016 40 7000 1 0 21:18 03.11.2020
5948 Clouds 23 1016 40 7000 1 0 20:42 03.11.2020
5949 Clouds 23 1016 40 7000 1 0 20:21 03.11.2020
5950 Clouds 25 1016 38 6000 2.1 80 19:43 03.11.2020
5951 Clouds 26 1016 36 7000 2.6 60 19:20 03.11.2020
5952 Clouds 26 1016 36 7000 2.6 60 18:44 03.11.2020
5953 Dust 27 1016 34 5000 2.6 70 18:20 03.11.2020
5954 Dust 27 1016 34 5000 2.6 70 17:55 03.11.2020
5955 Dust 27 1016 34 5000 2.6 70 17:36 03.11.2020
5956 Dust 27 1016 34 5000 2.6 70 17:36 03.11.2020
5957 Clouds 25 1016 41 7000 2.6 60 16:55 03.11.2020
5958 Clouds 25 1016 41 7000 2.6 60 16:36 03.11.2020
5959 Dust 27 1016 36 5000 2.1 100 16:18 03.11.2020
5960 Dust 27 1016 36 5000 2.1 100 15:41 03.11.2020
5961 Clouds 28 1017 32 6000 1.5 60 15:22 03.11.2020
5962 Clouds 28 1017 32 6000 1.5 60 14:46 03.11.2020
5963 Clouds 28 1017 32 6000 1.5 60 14:27 03.11.2020
5964 Clouds 28 1017 32 7000 1.5 110 13:44 03.11.2020
5965 Clouds 28 1017 32 7000 1.5 110 13:23 03.11.2020
5966 Clouds 28 1017 32 7000 3.6 180 12:49 03.11.2020
5967 Clouds 28 1017 32 7000 3.6 180 12:28 03.11.2020
5968 Clouds 28 1017 30 8000 3.6 330 11:59 03.11.2020
5969 Clouds 28 1017 30 8000 3.6 330 11:40 03.11.2020
5970 Clouds 27 1018 34 7000 2.6 250 11:18 03.11.2020
5971 Clouds 27 1018 34 7000 2.6 250 10:39 03.11.2020
5972 Clouds 27 1018 34 7000 2.6 250 10:39 03.11.2020
5973 Clouds 29 1018 28 9000 3.1 220 10:20 03.11.2020
5974 Clouds 29 1018 28 9000 3.1 220 09:49 03.11.2020
5975 Clouds 29 1018 28 9000 3.1 220 09:31 03.11.2020
5976 Clouds 27 1017 32 7000 4.6 150 08:55 03.11.2020
5977 Clouds 27 1017 32 7000 4.6 150 08:34 03.11.2020
5978 Clouds 25 1017 33 9000 3.6 110 07:49 03.11.2020
5979 Clouds 25 1017 33 9000 3.6 110 07:22 03.11.2020
5980 Clouds 24 1017 38 10000 2.1 90 06:45 03.11.2020
5981 Clouds 24 1016 23 10000 3.34 137 05:19 03.11.2020
5982 Clouds 24 1016 33 10000 6.7 140 01:51 03.11.2020
5983 Clouds 25 1017 33 10000 5.1 130 00:40 03.11.2020
5984 Clouds 26 1017 31 10000 5.7 140 23:51 02.11.2020
5985 Clouds 26 1017 31 10000 5.7 140 23:33 02.11.2020
5986 Rain 26 1018 34 10000 4.1 220 22:50 02.11.2020
5987 Rain 26 1018 34 10000 4.1 220 22:30 02.11.2020
5988 Clouds 26 1017 31 10000 1.5 190 21:59 02.11.2020
5989 Clouds 26 1017 31 10000 1.5 190 21:37 02.11.2020
5990 Clouds 27 1017 30 10000 4.6 130 21:19 02.11.2020
5991 Clouds 27 1017 30 10000 4.6 130 21:19 02.11.2020
5992 Clouds 27 1017 30 10000 4.6 130 20:39 02.11.2020
5993 Clouds 28 1016 28 10000 5.7 130 20:20 02.11.2020
5994 Clouds 28 1016 28 10000 5.7 130 19:46 02.11.2020
5995 Clouds 28 1016 28 10000 5.7 130 19:27 02.11.2020
5996 Clouds 29 1016 26 10000 5.1 110 18:56 02.11.2020
5997 Clouds 29 1016 26 10000 5.1 110 18:38 02.11.2020
5998 Clouds 28 1016 30 10000 3.6 100 18:19 02.11.2020
5999 Clouds 28 1016 30 10000 3.6 100 17:42 02.11.2020
6000 Clouds 28 1016 30 10000 3.6 100 17:24 02.11.2020
6001 Clouds 28 1016 30 10000 4.1 110 16:51 02.11.2020
6002 Clouds 28 1016 30 10000 4.1 110 16:32 02.11.2020
6003 Clouds 29 1016 28 9000 2.6 100 15:57 02.11.2020
6004 Clouds 29 1016 28 9000 2.6 100 15:39 02.11.2020
6005 Clouds 30 1015 28 10000 5.1 120 15:19 02.11.2020
6006 Clouds 30 1015 28 10000 5.1 120 14:48 02.11.2020
6007 Clouds 30 1015 27 10000 6.7 120 14:19 02.11.2020
6008 Clouds 30 1015 27 10000 6.7 120 13:48 02.11.2020
6009 Clouds 30 1015 27 10000 6.7 120 13:22 02.11.2020
6010 Clouds 31 1015 25 9000 7.7 110 12:51 02.11.2020
6011 Clouds 31 1015 25 9000 7.7 110 12:28 02.11.2020
6012 Clouds 30 1016 28 9000 6.7 100 11:46 02.11.2020
6013 Clouds 29 1017 26 7000 6.2 100 11:21 02.11.2020
6014 Clouds 29 1017 26 7000 6.2 100 10:48 02.11.2020
6015 Clouds 29 1017 26 7000 6.2 100 10:26 02.11.2020
6016 Clouds 27 1017 30 7000 4.6 90 09:56 02.11.2020
6017 Clouds 27 1017 30 7000 4.6 90 09:30 02.11.2020
6018 Clouds 27 1017 30 7000 4.6 90 09:30 02.11.2020
6019 Clouds 25 1018 33 7000 5.1 90 08:59 02.11.2020
6020 Clouds 25 1018 33 7000 5.1 90 08:39 02.11.2020
6021 Clouds 24 1018 36 10000 3.6 80 08:19 02.11.2020
6022 Clouds 24 1018 36 10000 3.6 80 07:42 02.11.2020
6023 Clouds 22 1017 40 10000 3.1 110 06:46 02.11.2020
6024 Clouds 22 1017 40 10000 3.1 110 06:22 02.11.2020
6025 Clear 22 1015 35 10000 5.1 140 01:35 02.11.2020
6026 Clear 22 1015 35 10000 5.7 130 00:42 02.11.2020
6027 Clear 22 1015 35 10000 5.7 130 00:23 02.11.2020
6028 Clear 22 1015 35 10000 5.1 130 23:40 01.11.2020
6029 Clear 23 1015 35 10000 5.7 130 23:21 01.11.2020
6030 Clear 23 1015 35 10000 5.7 130 22:45 01.11.2020
6031 Clear 23 1015 35 10000 5.7 130 22:23 01.11.2020
6032 Clear 22 1015 35 10000 5.1 140 21:46 01.11.2020
6033 Clear 22 1015 35 10000 5.1 140 21:27 01.11.2020
6034 Clear 22 1015 35 10000 5.1 140 21:27 01.11.2020
6035 Clear 23 1015 35 10000 5.7 130 20:52 01.11.2020
6036 Clear 23 1015 35 10000 5.7 130 20:30 01.11.2020
6037 Clear 25 1015 31 10000 6.2 130 19:59 01.11.2020
6038 Clear 25 1015 31 10000 6.2 130 19:41 01.11.2020
6039 Clear 25 1015 31 10000 6.2 130 19:21 01.11.2020
6040 Clear 26 1015 31 10000 6.2 130 18:41 01.11.2020
6041 Clear 27 1015 30 10000 6.7 120 18:19 01.11.2020
6042 Clear 27 1015 30 10000 6.7 120 18:19 01.11.2020
6043 Clear 27 1015 30 10000 6.7 120 17:57 01.11.2020
6044 Clear 27 1015 30 10000 6.7 120 17:37 01.11.2020
6045 Clear 28 1014 30 10000 5.7 120 17:19 01.11.2020
6046 Clear 28 1014 30 10000 5.7 120 16:40 01.11.2020
6047 Clear 29 1014 20 8000 3.6 100 16:19 01.11.2020
6048 Clear 29 1014 20 8000 3.6 100 15:41 01.11.2020
6049 Clear 29 1014 20 8000 3.6 100 15:21 01.11.2020
6050 Clear 32 1014 19 10000 6.7 130 14:57 01.11.2020
6051 Clear 32 1014 19 10000 6.7 130 14:39 01.11.2020
6052 Clear 32 1014 21 10000 7.7 130 14:18 01.11.2020
6053 Clear 32 1014 21 10000 7.7 130 13:46 01.11.2020
6054 Clear 32 1014 21 10000 7.7 130 13:28 01.11.2020
6055 Clear 32 1015 21 10000 7.2 130 12:43 01.11.2020
6056 Clear 32 1015 21 10000 7.2 130 12:22 01.11.2020
6057 Clear 32 1015 19 10000 6.7 130 11:51 01.11.2020
6058 Clear 30 1016 23 10000 6.2 130 11:19 01.11.2020
6059 Clear 30 1016 23 10000 6.2 130 10:43 01.11.2020
6060 Clear 30 1016 23 10000 6.2 130 10:24 01.11.2020
6061 Clear 28 1017 24 10000 5.7 120 09:55 01.11.2020
6062 Clear 28 1017 24 10000 5.7 120 09:35 01.11.2020
6063 Clear 26 1017 29 9000 5.1 130 08:46 01.11.2020
6064 Clear 23 1017 33 9000 5.7 130 08:20 01.11.2020
6065 Clear 23 1017 33 9000 5.7 130 07:40 01.11.2020
6066 Clear 19 1015 37 10000 5.1 100 04:31 01.11.2020
6067 Clear 19 1015 34 10000 4.1 110 01:51 01.11.2020
6068 Clear 20 1014 32 10000 4.1 110 00:43 01.11.2020
6069 Clear 20 1014 30 10000 4.1 110 23:26 31.10.2020
6070 Clear 20 1014 32 10000 4.1 110 22:58 31.10.2020
6071 Clear 20 1014 32 10000 4.1 110 22:39 31.10.2020
6072 Clear 22 1014 30 10000 4.6 110 22:20 31.10.2020
6073 Clear 22 1014 30 10000 4.6 110 21:44 31.10.2020
6074 Clear 24 1014 27 10000 4.6 120 21:19 31.10.2020
6075 Clear 24 1014 27 10000 4.6 120 20:38 31.10.2020
6076 Clear 24 1014 27 10000 4.6 110 20:18 31.10.2020
6077 Clear 24 1014 27 10000 4.6 110 19:41 31.10.2020
6078 Clear 24 1014 27 10000 4.6 110 19:22 31.10.2020
6079 Clouds 26 1014 24 9000 4.6 90 18:47 31.10.2020
6080 Clouds 26 1014 24 9000 4.6 90 18:24 31.10.2020
6081 Clouds 26 1014 26 8000 3.6 90 17:40 31.10.2020
6082 Clear 27 1014 22 10000 3.1 90 17:22 31.10.2020
6083 Clear 27 1014 22 10000 3.1 90 16:44 31.10.2020
6084 Clear 27 1014 22 10000 3.1 90 16:26 31.10.2020
6085 Clear 29 1014 20 10000 3.6 100 15:45 31.10.2020
6086 Clear 29 1014 20 10000 3.6 100 15:25 31.10.2020
6087 Clear 32 1014 14 10000 4.6 110 14:52 31.10.2020
6088 Clear 32 1014 14 10000 4.6 110 14:31 31.10.2020
6089 Clear 32 1014 14 10000 5.1 120 13:51 31.10.2020
6090 Clear 32 1014 14 10000 5.1 120 13:28 31.10.2020
6091 Clear 32 1014 14 10000 5.1 110 12:45 31.10.2020
6092 Clear 32 1015 15 10000 5.7 140 12:19 31.10.2020
6093 Clear 32 1015 15 10000 5.7 140 11:39 31.10.2020
6094 Clear 31 1016 18 10000 6.2 120 11:21 31.10.2020
6095 Clear 31 1016 18 10000 6.2 120 10:37 31.10.2020
6096 Clear 30 1016 17 10000 5.7 130 09:48 31.10.2020
6097 Clear 30 1016 17 10000 5.7 130 09:30 31.10.2020
6098 Clear 28 1017 23 10000 5.1 110 08:57 31.10.2020
6099 Clear 28 1017 23 10000 5.1 110 08:22 31.10.2020
6100 Clear 25 1017 25 9000 3.6 100 07:29 31.10.2020
6101 Clear 21 1017 32 5000 2.1 80 06:56 31.10.2020
6102 Clear 21 1017 32 5000 2.1 80 06:36 31.10.2020
6103 Clear 13 1016 54 5000 1 70 03:47 31.10.2020
6104 Clear 14 1016 50 5000 1 100 02:39 31.10.2020
6105 Clear 14 1016 54 6000 1 140 00:52 31.10.2020
6106 Haze 15 1015 54 5000 1.99 132 23:54 30.10.2020
6107 Haze 15 1015 54 5000 1.99 132 23:30 30.10.2020
6108 Haze 15 1015 54 5000 1.99 132 23:30 30.10.2020
6109 Clear 16 1015 55 7000 1.65 129 22:59 30.10.2020
6110 Clear 16 1015 55 7000 1.65 129 22:38 30.10.2020
6111 Clear 17 1016 45 7000 1 0 22:19 30.10.2020
6112 Clear 17 1016 45 7000 1 0 22:19 30.10.2020
6113 Clear 17 1016 45 7000 1 0 21:48 30.10.2020
6114 Clear 17 1016 45 7000 1 0 21:26 30.10.2020
6115 Clear 18 1016 45 8000 0.5 100 20:45 30.10.2020
6116 Clear 18 1016 45 8000 0.5 100 20:26 30.10.2020
6117 Clear 21 1016 35 8000 1.5 130 19:58 30.10.2020
6118 Clear 21 1016 35 8000 1.5 130 19:37 30.10.2020
6119 Clear 22 1016 33 9000 2.1 130 19:18 30.10.2020
6120 Clear 22 1016 33 9000 2.1 130 18:41 30.10.2020
6121 Clear 22 1016 33 9000 2.1 130 18:22 30.10.2020
6122 Clear 25 1016 27 10000 2.1 140 17:44 30.10.2020
6123 Clear 25 1015 25 10000 1.5 150 17:21 30.10.2020
6124 Clear 25 1015 25 10000 1.5 150 16:50 30.10.2020
6125 Clear 25 1015 25 10000 1.5 150 16:25 30.10.2020
6126 Clear 30 1015 17 10000 1 200 15:44 30.10.2020
6127 Clear 30 1015 17 10000 1 200 15:26 30.10.2020
6128 Clear 31 1015 16 10000 2.1 0 14:58 30.10.2020
6129 Clear 31 1015 16 10000 2.1 0 14:40 30.10.2020
6130 Clear 31 1015 16 10000 2.1 0 14:21 30.10.2020
6131 Clear 31 1015 18 10000 2.6 170 13:42 30.10.2020
6132 Clear 31 1016 19 10000 2.6 250 13:20 30.10.2020
6133 Clear 31 1016 19 10000 2.6 250 12:47 30.10.2020
6134 Clear 31 1016 19 10000 2.6 250 12:22 30.10.2020
6135 Clear 31 1016 16 10000 1.5 0 11:56 30.10.2020
6136 Clear 30 1017 19 10000 2.1 180 11:21 30.10.2020
6137 Clear 30 1017 19 10000 2.1 180 10:50 30.10.2020
6138 Clear 30 1017 19 10000 2.1 180 10:25 30.10.2020
6139 Clouds 29 1017 20 9000 1 0 09:48 30.10.2020
6140 Clouds 29 1017 20 9000 1 0 09:25 30.10.2020
6141 Clouds 27 1018 24 7000 1 0 08:59 30.10.2020
6142 Clouds 27 1018 24 7000 1 0 08:31 30.10.2020
6143 Clouds 23 1018 33 6000 1 0 07:53 30.10.2020
6144 Clouds 23 1018 33 6000 1 0 07:35 30.10.2020
6145 Clouds 18 1017 48 4200 1.5 160 06:50 30.10.2020
6146 Clouds 25 1016 16 10000 2.13 285 05:45 30.10.2020
6147 Dust 14 1016 50 4700 1 320 02:53 30.10.2020
6148 Clouds 16 1016 51 6000 1.5 310 01:20 30.10.2020
6149 Clear 15 1016 54 7000 1 260 23:59 29.10.2020
6150 Clear 15 1016 54 7000 1 260 23:41 29.10.2020
6151 Clouds 17 1016 51 6000 0.57 235 23:21 29.10.2020
6152 Clouds 17 1016 51 6000 0.57 235 22:44 29.10.2020
6153 Clear 17 1016 51 6000 0.31 157 22:25 29.10.2020
6154 Clear 18 1016 39 6000 1 210 21:43 29.10.2020
6155 Clear 18 1016 39 6000 1 210 21:22 29.10.2020
6156 Clear 19 1017 39 7000 1 140 20:43 29.10.2020
6157 Clear 19 1017 39 7000 1 140 20:23 29.10.2020
6158 Clear 20 1016 42 8000 0.5 0 19:56 29.10.2020
6159 Clear 20 1016 42 8000 0.5 0 19:37 29.10.2020
6160 Clear 20 1016 40 10000 1.5 220 19:18 29.10.2020
6161 Clear 20 1016 40 10000 1.5 220 18:41 29.10.2020
6162 Clear 23 1016 31 10000 1 160 18:21 29.10.2020
6163 Clear 23 1016 31 10000 1 160 17:42 29.10.2020
6164 Clear 26 1016 24 10000 1.39 297 17:22 29.10.2020
6165 Clear 26 1016 24 10000 1.39 297 16:52 29.10.2020
6166 Clear 29 1015 23 10000 2.1 350 16:23 29.10.2020
6167 Clear 29 1015 23 10000 2.1 350 15:57 29.10.2020
6168 Clear 29 1015 23 10000 2.1 350 15:39 29.10.2020
6169 Clouds 32 1015 15 9000 1.5 240 15:21 29.10.2020
6170 Clouds 32 1015 15 9000 1.5 240 14:46 29.10.2020
6171 Dust 32 1016 17 5000 2.6 240 14:24 29.10.2020
6172 Dust 32 1016 17 5000 2.6 240 13:59 29.10.2020
6173 Dust 32 1016 17 5000 2.6 240 13:39 29.10.2020
6174 Dust 32 1016 17 5000 2.6 240 13:21 29.10.2020
6175 Clouds 32 1016 19 4100 2.1 210 12:40 29.10.2020
6176 Clouds 32 1016 18 3700 1.5 230 12:19 29.10.2020
6177 Clouds 32 1016 18 3700 1.5 230 11:45 29.10.2020
6178 Clouds 32 1016 18 3700 1.5 230 11:24 29.10.2020
6179 Dust 30 1017 23 3300 1 0 10:38 29.10.2020
6180 Dust 28 1017 23 3100 1 0 10:19 29.10.2020
6181 Dust 28 1017 23 3100 1 0 09:53 29.10.2020
6182 Dust 28 1017 23 3100 1 0 09:28 29.10.2020
6183 Dust 25 1018 29 2800 1.5 270 08:56 29.10.2020
6184 Dust 25 1018 29 2800 1.5 270 08:34 29.10.2020
6185 Haze 21 1018 35 2900 1 0 07:54 29.10.2020
6186 Haze 21 1018 35 2900 1 0 07:35 29.10.2020
6187 Haze 17 1017 45 3400 1.5 240 06:57 29.10.2020
6188 Clouds 12 1016 66 8000 0.5 200 04:52 29.10.2020
6189 Clouds 13 1016 62 7000 1 260 03:58 29.10.2020
6190 Clear 20 1014 23 10000 2.28 330 01:22 29.10.2020
6191 Clear 20 1014 23 10000 2.28 330 00:31 29.10.2020
6192 Clouds 21 1014 22 10000 2.48 328 23:48 28.10.2020
6193 Clouds 21 1015 21 10000 2.62 323 23:22 28.10.2020
6194 Clouds 21 1015 21 10000 2.62 323 22:45 28.10.2020
6195 Clouds 17 1016 51 8000 1 280 22:26 28.10.2020
6196 Clouds 17 1016 51 8000 1 280 21:58 28.10.2020
6197 Clouds 17 1016 51 8000 1 280 21:40 28.10.2020
6198 Clouds 17 1016 51 8000 2.9 338 21:20 28.10.2020
6199 Clouds 17 1016 51 8000 2.9 338 20:42 28.10.2020
6200 Clouds 20 1016 42 7000 3.18 327 20:22 28.10.2020
6201 Clouds 20 1016 42 7000 3.18 327 19:50 28.10.2020
6202 Clouds 20 1016 42 7000 3.16 315 19:28 28.10.2020
6203 Clouds 21 1016 40 7000 3.16 315 18:48 28.10.2020
6204 Clouds 21 1016 40 7000 3.34 299 18:21 28.10.2020
6205 Clouds 24 1016 36 8000 1 0 17:45 28.10.2020
6206 Clouds 24 1016 36 8000 1 0 17:25 28.10.2020
6207 Clouds 26 1015 36 9000 2.1 220 16:57 28.10.2020
6208 Clouds 26 1015 36 9000 2.1 220 16:39 28.10.2020
6209 Clouds 29 1015 32 9000 2.1 210 16:20 28.10.2020
6210 Clouds 29 1015 32 9000 2.1 210 15:38 28.10.2020
6211 Clouds 29 1014 14 10000 4.55 292 15:19 28.10.2020
6212 Clouds 29 1014 14 10000 4.55 292 14:43 28.10.2020
6213 Clear 32 1015 18 10000 4.1 260 14:23 28.10.2020
6214 Clear 33 1014 10 10000 4.5 311 12:48 28.10.2020
6215 Clear 34 1014 10 10000 4.61 314 12:27 28.10.2020
6216 Clear 34 1014 10 10000 4.61 314 11:57 28.10.2020
6217 Clear 29 1017 20 9000 3.1 300 11:39 28.10.2020
6218 Clear 33 1015 11 10000 4.72 313 11:19 28.10.2020
6219 Clear 33 1015 11 10000 4.72 313 10:44 28.10.2020
6220 Clear 27 1017 26 9000 3.1 300 10:26 28.10.2020
6221 Clear 27 1017 26 9000 3.1 300 09:44 28.10.2020
6222 Clear 27 1017 26 9000 3.1 300 09:23 28.10.2020
6223 Clear 25 1017 27 6000 2.6 300 08:51 28.10.2020
6224 Clear 25 1017 27 6000 2.6 300 08:31 28.10.2020
6225 Haze 22 1017 35 5000 3.1 300 07:54 28.10.2020
6226 Haze 22 1017 35 5000 3.1 300 07:31 28.10.2020
6227 Clear 17 1016 63 10000 1.5 310 06:56 28.10.2020
6228 Clear 17 1016 63 10000 1.5 310 06:37 28.10.2020
6229 Clear 13 1016 71 10000 1.5 310 05:23 28.10.2020
6230 Clear 15 1016 62 10000 2.1 290 04:50 28.10.2020
6231 Clear 14 1016 62 10000 1.5 310 03:53 28.10.2020
6232 Clear 21 1014 22 10000 3.92 323 01:56 28.10.2020
6233 Clear 16 1016 41 10000 3.1 320 00:33 28.10.2020
6234 Clear 17 1016 42 8000 2.1 310 23:47 27.10.2020
6235 Clear 17 1016 42 8000 2.1 310 23:22 27.10.2020
6236 Clear 18 1016 36 10000 2.1 300 22:45 27.10.2020
6237 Clear 23 1015 20 10000 4.06 343 22:22 27.10.2020
6238 Clear 23 1015 20 10000 4.06 343 21:57 27.10.2020
6239 Clear 18 1016 34 7000 1 260 21:38 27.10.2020
6240 Clear 18 1016 34 7000 1 260 21:38 27.10.2020
6241 Clear 18 1016 34 7000 1 260 21:20 27.10.2020
6242 Clear 18 1016 34 7000 1 260 20:50 27.10.2020
6243 Clear 18 1016 34 7000 1 260 20:25 27.10.2020
6244 Clear 21 1016 28 8000 1.5 260 19:58 27.10.2020
6245 Clear 21 1016 28 8000 1.5 260 19:38 27.10.2020
6246 Clear 21 1016 28 8000 1.5 260 19:19 27.10.2020
6247 Mist 23 1016 27 7000 2.1 300 18:45 27.10.2020
6248 Mist 23 1016 27 7000 2.1 300 18:45 27.10.2020
6249 Mist 23 1016 27 7000 2.1 300 18:27 27.10.2020
6250 Clear 23 1016 28 8000 1.5 260 17:59 27.10.2020
6251 Clear 23 1016 28 8000 1.5 260 17:40 27.10.2020
6252 Clear 27 1015 21 10000 1.5 300 17:19 27.10.2020
6253 Clear 27 1015 21 10000 1.5 300 16:44 27.10.2020
6254 Clear 27 1015 21 10000 1.5 300 16:23 27.10.2020
6255 Clear 29 1015 20 10000 2.1 340 15:42 27.10.2020
6256 Clear 32 1015 15 10000 3.1 330 15:24 27.10.2020
6257 Clear 32 1015 15 10000 3.1 330 14:51 27.10.2020
6258 Clear 32 1015 15 10000 3.1 330 14:32 27.10.2020
6259 Clear 32 1015 14 10000 3.6 340 13:59 27.10.2020
6260 Clear 32 1015 14 10000 3.6 340 13:32 27.10.2020
6261 Clear 33 1015 14 10000 4.6 330 12:54 27.10.2020
6262 Clear 33 1015 14 10000 4.6 330 12:36 27.10.2020
6263 Clear 32 1016 17 10000 3.6 350 12:18 27.10.2020
6264 Clear 32 1016 17 10000 3.6 350 11:42 27.10.2020
6265 Clear 31 1016 18 9000 3.6 350 11:21 27.10.2020
6266 Clear 31 1016 18 9000 3.6 350 10:46 27.10.2020
6267 Clear 31 1016 18 9000 3.6 350 10:22 27.10.2020
6268 Clear 30 1017 20 9000 3.1 350 09:42 27.10.2020
6269 Clear 30 1017 20 9000 3.1 350 09:23 27.10.2020
6270 Clear 27 1017 24 9000 2.6 340 08:36 27.10.2020
6271 Clear 23 1017 27 10000 2.6 340 08:18 27.10.2020
6272 Clear 23 1017 27 10000 2.6 340 07:42 27.10.2020
6273 Clear 23 1017 27 10000 2.6 340 07:24 27.10.2020
6274 Clear 15 1017 47 7000 2.6 320 06:21 27.10.2020
6275 Clear 15 1017 47 7000 2.6 320 05:51 27.10.2020
6276 Clear 15 1017 47 7000 2.6 320 05:32 27.10.2020
6277 Clear 14 1016 50 9000 2.1 300 04:43 27.10.2020
6278 Clear 17 1015 42 6000 2.1 320 01:32 27.10.2020
6279 Clear 17 1015 42 6000 2.1 320 00:51 27.10.2020
6280 Clear 16 1015 38 7000 3.1 310 23:41 26.10.2020
6281 Clear 20 1016 34 6000 2.6 320 23:19 26.10.2020
6282 Clear 20 1016 34 6000 2.6 320 22:46 26.10.2020
6283 Haze 19 1016 39 4500 2.1 320 22:21 26.10.2020
6284 Haze 19 1016 39 4500 2.1 320 21:43 26.10.2020
6285 Haze 19 1016 37 4400 2.1 300 21:20 26.10.2020
6286 Haze 19 1016 37 4400 2.1 300 20:58 26.10.2020
6287 Haze 19 1016 37 4400 2.1 300 20:39 26.10.2020
6288 Haze 22 1015 33 4700 1.5 320 20:18 26.10.2020
6289 Haze 22 1015 33 4700 1.5 320 19:47 26.10.2020
6290 Haze 22 1015 33 4700 1.5 320 19:23 26.10.2020
6291 Haze 22 1015 33 3800 2.1 300 18:44 26.10.2020
6292 Haze 22 1015 33 3800 2.1 300 18:24 26.10.2020
6293 Clouds 24 1015 29 9000 2.1 290 17:56 26.10.2020
6294 Clouds 24 1015 29 9000 2.1 290 17:37 26.10.2020
6295 Clear 27 1014 22 10000 1.5 300 17:19 26.10.2020
6296 Clear 27 1014 22 10000 1.5 300 16:40 26.10.2020
6297 Clear 31 1014 14 10000 1 0 16:21 26.10.2020
6298 Clear 31 1014 14 10000 1 0 15:42 26.10.2020
6299 Clear 33 1014 14 10000 1.5 0 15:20 26.10.2020
6300 Clear 33 1014 14 10000 1.5 0 14:52 26.10.2020
6301 Clear 33 1014 14 10000 1.5 0 14:31 26.10.2020
6302 Clear 33 1014 13 9000 2.1 70 13:44 26.10.2020
6303 Clear 33 1014 13 9000 2.1 70 13:24 26.10.2020
6304 Clear 33 1014 13 10000 2.1 70 12:51 26.10.2020
6305 Clear 33 1014 13 10000 2.1 70 12:29 26.10.2020
6306 Clear 33 1014 15 10000 2.6 60 11:57 26.10.2020
6307 Clear 33 1014 15 10000 2.6 60 11:39 26.10.2020
6308 Clear 32 1015 17 8000 3.1 90 11:21 26.10.2020
6309 Clear 32 1015 17 8000 3.1 90 10:48 26.10.2020
6310 Clear 32 1015 17 8000 3.1 90 10:26 26.10.2020
6311 Haze 31 1016 20 4000 2.1 80 09:51 26.10.2020
6312 Haze 31 1016 20 4000 2.1 80 09:29 26.10.2020
6313 Haze 28 1016 26 2500 2.1 70 08:54 26.10.2020
6314 Haze 28 1016 26 2500 2.1 70 08:24 26.10.2020
6315 Haze 24 1016 38 1500 2.1 340 07:38 26.10.2020
6316 Haze 24 1016 38 1500 2.1 340 07:38 26.10.2020
6317 Haze 24 1016 38 1500 2.1 340 07:38 26.10.2020
6318 Haze 19 1016 45 1600 1.5 330 07:20 26.10.2020
6319 Haze 14 1015 50 2200 2.6 310 05:31 26.10.2020
6320 Clear 15 1014 58 7000 1 360 04:19 26.10.2020
6321 Clear 15 1014 44 7000 2.1 120 03:21 26.10.2020
6322 Clear 15 1014 44 7000 2.1 120 03:21 26.10.2020
6323 Clear 15 1014 44 7000 2.1 120 03:21 26.10.2020
6324 Clear 15 1014 44 7000 2.1 120 03:21 26.10.2020
6325 Clear 16 1013 51 7000 1 110 01:34 26.10.2020
6326 Clear 17 1013 51 7000 1 110 00:36 26.10.2020
6327 Clear 17 1013 42 8000 1 120 23:51 25.10.2020
6328 Clear 17 1013 42 8000 1 120 23:30 25.10.2020
6329 Clear 18 1013 45 9000 0.51 229 22:48 25.10.2020
6330 Clear 18 1013 45 9000 0.51 229 22:30 25.10.2020
6331 Clear 19 1014 39 9000 1.5 210 21:55 25.10.2020
6332 Clear 19 1014 39 9000 1.5 210 21:36 25.10.2020
6333 Clear 20 1014 40 9000 1.5 120 21:18 25.10.2020
6334 Clear 20 1014 40 9000 1.5 120 20:43 25.10.2020
6335 Clear 20 1014 40 9000 1.5 120 20:23 25.10.2020
6336 Clear 20 1014 40 9000 1.5 130 19:56 25.10.2020
6337 Clear 20 1014 40 9000 1.5 130 19:37 25.10.2020
6338 Clear 20 1014 40 9000 1.5 130 19:19 25.10.2020
6339 Clear 23 1013 31 10000 1.5 170 18:41 25.10.2020
6340 Clear 23 1013 31 10000 1.5 170 18:22 25.10.2020
6341 Clear 23 1013 31 10000 1.5 170 18:22 25.10.2020
6342 Clear 24 1013 29 10000 2.1 150 17:56 25.10.2020
6343 Clear 24 1013 29 10000 2.1 150 17:38 25.10.2020
6344 Clear 26 1012 26 10000 2.1 150 17:19 25.10.2020
6345 Clear 26 1012 26 10000 2.1 150 16:46 25.10.2020
6346 Clear 26 1012 26 10000 2.1 150 16:28 25.10.2020
6347 Clear 30 1012 20 10000 2.1 150 15:50 25.10.2020
6348 Clear 30 1012 20 10000 2.1 150 15:29 25.10.2020
6349 Clear 33 1012 15 10000 2.6 170 14:55 25.10.2020
6350 Clear 33 1012 15 10000 2.6 170 14:31 25.10.2020
6351 Clear 33 1012 17 10000 3.6 230 13:55 25.10.2020
6352 Clear 33 1012 17 10000 3.6 230 13:37 25.10.2020
6353 Clear 33 1012 16 10000 3.1 200 13:18 25.10.2020
6354 Clear 33 1012 16 10000 3.1 200 12:40 25.10.2020
6355 Clear 33 1012 16 10000 3.1 200 12:22 25.10.2020
6356 Clouds 32 1013 19 9000 3.1 200 11:43 25.10.2020
6357 Dust 32 1014 24 4400 3.6 210 11:21 25.10.2020
6358 Dust 32 1014 24 4400 3.6 210 10:48 25.10.2020
6359 Dust 32 1014 24 4400 3.6 210 10:26 25.10.2020
6360 Clear 32 1014 19 5000 1.5 150 09:55 25.10.2020
6361 Clear 32 1014 19 5000 1.5 150 09:37 25.10.2020
6362 Dust 30 1014 22 3000 2.1 160 09:18 25.10.2020
6363 Dust 30 1014 22 3000 2.1 160 08:40 25.10.2020
6364 Dust 30 1014 22 3000 2.1 160 08:40 25.10.2020
6365 Dust 30 1014 22 3000 2.1 160 08:22 25.10.2020
6366 Dust 27 1014 28 4500 0.29 267 07:46 25.10.2020
6367 Clear 20 1014 40 7000 0.5 0 06:57 25.10.2020
6368 Clear 20 1014 40 7000 0.5 0 06:30 25.10.2020
6369 Clear 15 1013 54 10000 0.52 310 05:22 25.10.2020
6370 Clear 15 1013 54 10000 0.52 310 04:51 25.10.2020
6371 Clear 16 1013 44 9000 0.5 0 02:42 25.10.2020
6372 Clear 17 1013 51 8000 1 280 00:54 25.10.2020
6373 Clear 17 1013 51 8000 1 280 00:31 25.10.2020
6374 Clear 18 1013 42 8000 1.5 210 23:59 24.10.2020
6375 Clear 18 1013 42 8000 1.5 210 23:40 24.10.2020
6376 Clear 18 1013 42 8000 1.5 210 23:20 24.10.2020
6377 Clear 19 1013 39 8000 1 180 22:41 24.10.2020
6378 Clear 19 1013 39 8000 1 180 22:23 24.10.2020
6379 Clear 20 1013 40 9000 1 270 21:56 24.10.2020
6380 Clear 20 1013 40 9000 1 270 21:37 24.10.2020
6381 Clear 22 1013 35 9000 0.5 280 21:19 24.10.2020
6382 Clear 22 1013 35 9000 0.5 280 20:43 24.10.2020
6383 Clear 22 1013 35 9000 0.5 280 20:20 24.10.2020
6384 Clear 23 1013 33 10000 2.77 310 19:42 24.10.2020
6385 Clear 23 1013 33 10000 3.01 305 19:23 24.10.2020
6386 Clear 25 1013 31 10000 1 320 18:54 24.10.2020
6387 Clear 25 1013 31 10000 1 320 18:31 24.10.2020
6388 Clear 28 1013 20 10000 2.1 210 17:54 24.10.2020
6389 Clear 28 1013 20 10000 2.1 210 17:27 24.10.2020
6390 Clear 28 1013 20 10000 2.1 210 17:27 24.10.2020
6391 Clear 34 1012 15 10000 2.6 240 16:58 24.10.2020
6392 Clear 34 1012 15 10000 2.6 240 16:40 24.10.2020
6393 Clear 35 1012 13 10000 2.1 300 15:59 24.10.2020
6394 Clear 35 1012 13 10000 2.1 300 15:38 24.10.2020
6395 Clear 35 1012 13 10000 2.1 300 15:19 24.10.2020
6396 Clear 35 1012 13 10000 2.6 310 14:40 24.10.2020
6397 Clear 35 1012 14 10000 2.6 310 14:22 24.10.2020
6398 Clear 35 1012 14 10000 2.6 310 13:44 24.10.2020
6399 Clear 34 1012 15 10000 3.6 300 13:20 24.10.2020
6400 Clear 34 1012 15 10000 3.6 300 12:41 24.10.2020
6401 Clear 32 1013 18 10000 3.6 280 12:20 24.10.2020
6402 Clear 32 1013 18 10000 3.6 280 11:51 24.10.2020
6403 Clear 32 1013 18 10000 3.6 280 11:24 24.10.2020
6404 Clear 31 1014 18 10000 3.6 290 10:48 24.10.2020
6405 Clear 31 1014 18 10000 3.6 290 10:29 24.10.2020
6406 Clear 28 1014 21 10000 3.1 300 09:50 24.10.2020
6407 Clear 28 1014 21 10000 3.1 300 09:27 24.10.2020
6408 Clear 24 1014 25 10000 4.6 310 08:58 24.10.2020
6409 Clear 20 1014 32 10000 3.6 310 08:19 24.10.2020
6410 Clear 20 1014 32 10000 3.6 310 07:53 24.10.2020
6411 Clear 15 1013 58 10000 3.1 320 07:22 24.10.2020
6412 Clear 15 1013 58 10000 3.1 320 06:52 24.10.2020
6413 Clear 16 1013 59 10000 3.6 320 05:47 24.10.2020
6414 Clear 18 1012 59 10000 3.6 300 02:30 24.10.2020
6415 Clear 19 1013 45 10000 2.1 290 01:19 24.10.2020
6416 Clear 19 1013 45 10000 2.1 290 00:40 24.10.2020
6417 Clear 19 1013 45 10000 2.1 290 00:21 24.10.2020
6418 Clear 20 1013 34 10000 3.1 290 23:47 23.10.2020
6419 Clear 20 1013 34 10000 3.1 290 23:25 23.10.2020
6420 Clear 24 1014 27 10000 3.6 280 22:57 23.10.2020
6421 Clear 24 1014 27 10000 3.6 280 22:37 23.10.2020
6422 Clear 22 1014 26 10000 3.6 290 22:18 23.10.2020
6423 Clear 22 1014 26 10000 3.6 290 21:42 23.10.2020
6424 Clear 22 1014 26 10000 3.6 290 21:24 23.10.2020
6425 Clear 22 1014 26 10000 3.6 300 20:40 23.10.2020
6426 Clear 22 1014 26 10000 3.6 300 20:22 23.10.2020
6427 Clear 25 1014 22 10000 4.1 300 19:50 23.10.2020
6428 Clear 25 1014 22 10000 4.1 300 19:32 23.10.2020
6429 Clear 27 1014 22 10000 3.6 300 18:55 23.10.2020
6430 Clear 27 1014 22 10000 3.6 300 18:31 23.10.2020
6431 Clear 31 1013 19 10000 4.6 290 17:50 23.10.2020
6432 Clear 31 1013 19 10000 4.6 290 17:26 23.10.2020
6433 Clear 32 1013 19 10000 3.1 340 16:56 23.10.2020
6434 Clear 32 1013 19 10000 3.1 340 16:37 23.10.2020
6435 Clear 35 1013 16 10000 4.6 340 16:19 23.10.2020
6436 Clear 35 1013 16 10000 4.6 340 15:42 23.10.2020
6437 Clear 35 1013 16 10000 4.6 340 15:23 23.10.2020
6438 Clear 35 1013 16 10000 5.7 350 14:53 23.10.2020
6439 Clear 35 1013 16 10000 5.7 350 14:34 23.10.2020
6440 Clear 35 1014 17 10000 5.7 340 13:56 23.10.2020
6441 Clear 35 1014 17 10000 5.7 340 13:37 23.10.2020
6442 Clear 35 1014 17 10000 6.7 340 13:19 23.10.2020
6443 Clear 35 1014 17 10000 6.7 340 12:43 23.10.2020
6444 Clear 35 1014 17 10000 6.7 340 12:24 23.10.2020
6445 Clear 33 1015 19 10000 5.7 310 11:46 23.10.2020
6446 Clear 33 1015 19 10000 5.7 310 11:21 23.10.2020
6447 Clear 31 1015 22 10000 4.6 330 10:43 23.10.2020
6448 Clear 31 1015 22 10000 4.6 330 10:25 23.10.2020
6449 Clear 28 1016 24 10000 4.1 330 09:45 23.10.2020
6450 Clear 28 1016 24 10000 4.1 330 09:26 23.10.2020
6451 Clear 24 1016 31 10000 4.6 320 08:52 23.10.2020
6452 Clear 24 1016 31 10000 4.6 320 08:32 23.10.2020
6453 Clear 21 1016 35 10000 4.6 320 07:35 23.10.2020
6454 Clear 17 1015 42 10000 3.1 320 06:59 23.10.2020
6455 Clear 17 1015 39 10000 3.1 320 06:20 23.10.2020
6456 Clear 17 1015 39 10000 3.1 320 05:34 23.10.2020
6457 Clear 20 1014 34 10000 4.6 310 02:32 23.10.2020
6458 Clear 19 1015 42 10000 3.6 310 01:24 23.10.2020
6459 Clear 22 1015 37 10000 4.6 310 00:42 23.10.2020
6460 Clear 20 1015 49 10000 3.1 310 23:48 22.10.2020
6461 Clear 20 1015 49 10000 3.1 310 23:26 22.10.2020
6462 Clear 23 1015 35 10000 4.1 310 22:48 22.10.2020
6463 Clear 23 1015 35 10000 4.1 310 22:27 22.10.2020
6464 Clear 25 1015 27 10000 4.1 310 21:59 22.10.2020
6465 Clear 25 1015 27 10000 4.1 310 21:41 22.10.2020
6466 Clear 27 1015 22 10000 4.6 300 21:21 22.10.2020
6467 Clear 27 1015 22 10000 4.6 300 20:45 22.10.2020
6468 Clear 27 1015 22 10000 4.6 300 20:26 22.10.2020
6469 Clear 28 1015 23 10000 4.1 290 19:59 22.10.2020
6470 Clear 28 1015 23 10000 4.1 290 19:40 22.10.2020
6471 Clear 29 1014 21 10000 4.1 280 19:18 22.10.2020
6472 Clear 29 1014 21 10000 4.1 280 18:42 22.10.2020
6473 Clear 31 1014 20 10000 5.1 270 18:20 22.10.2020
6474 Clear 31 1014 20 10000 5.1 270 17:45 22.10.2020
6475 Clear 31 1014 20 10000 5.1 270 17:22 22.10.2020
6476 Clear 33 1014 18 10000 5.7 280 16:47 22.10.2020
6477 Clear 33 1014 18 10000 5.7 280 16:26 22.10.2020
6478 Clear 36 1014 14 10000 7.7 290 15:57 22.10.2020
6479 Clear 36 1014 14 10000 7.7 290 15:38 22.10.2020
6480 Clear 36 1014 13 10000 8.2 290 15:19 22.10.2020
6481 Clear 36 1014 13 10000 8.2 290 14:45 22.10.2020
6482 Clear 36 1014 13 10000 8.2 290 14:24 22.10.2020
6483 Clear 36 1014 18 10000 7.2 290 13:45 22.10.2020
6484 Clear 36 1014 18 10000 7.2 290 13:23 22.10.2020
6485 Clear 36 1015 15 10000 8.7 300 12:47 22.10.2020
6486 Clear 36 1015 15 10000 8.7 300 12:23 22.10.2020
6487 Clear 35 1015 19 10000 7.7 290 11:48 22.10.2020
6488 Clear 32 1016 31 10000 5.7 310 11:20 22.10.2020
6489 Clear 32 1016 31 10000 5.7 310 10:49 22.10.2020
6490 Clear 32 1016 31 10000 5.7 310 10:27 22.10.2020
6491 Clear 29 1017 37 10000 5.1 300 09:47 22.10.2020
6492 Clear 29 1017 37 10000 5.1 300 09:28 22.10.2020
6493 Clear 26 1017 44 10000 4.1 290 08:49 22.10.2020
6494 Clear 26 1017 44 10000 4.1 290 08:28 22.10.2020
6495 Clear 23 1017 46 10000 3.6 290 07:57 22.10.2020
6496 Clear 23 1017 46 10000 3.6 290 07:57 22.10.2020
6497 Clear 23 1017 46 10000 3.6 290 07:34 22.10.2020
6498 Clear 19 1016 42 10000 1.5 300 06:58 22.10.2020
6499 Clear 19 1016 42 10000 1.5 300 06:26 22.10.2020
6500 Clear 18 1015 42 10000 3.1 310 05:40 22.10.2020
6501 Clear 18 1015 45 10000 2.6 310 04:40 22.10.2020
6502 Clear 21 1015 40 10000 2.6 300 01:45 22.10.2020
6503 Clear 22 1015 43 10000 3.6 310 00:26 22.10.2020
6504 Clear 24 1015 47 10000 4.1 310 23:50 21.10.2020
6505 Clear 24 1015 47 10000 4.1 310 23:32 21.10.2020
6506 Clear 24 1015 47 10000 4.1 310 22:43 21.10.2020
6507 Clear 25 1015 38 10000 3.1 300 22:19 21.10.2020
6508 Clear 25 1015 38 10000 3.1 300 21:56 21.10.2020
6509 Clear 25 1015 38 10000 3.1 300 21:37 21.10.2020
6510 Clear 28 1014 19 10000 6.56 322 21:18 21.10.2020
6511 Clear 28 1014 19 10000 6.56 322 20:47 21.10.2020
6512 Clear 29 1014 26 10000 5.7 300 20:19 21.10.2020
6513 Clear 29 1014 26 10000 5.7 300 19:45 21.10.2020
6514 Clear 29 1014 26 10000 5.7 300 19:26 21.10.2020
6515 Clear 29 1014 26 10000 5.7 300 19:26 21.10.2020
6516 Clear 30 1014 23 10000 5.1 280 18:54 21.10.2020
6517 Clear 30 1014 23 10000 5.1 280 18:33 21.10.2020
6518 Clear 31 1014 25 10000 3.6 280 17:57 21.10.2020
6519 Clear 31 1014 25 10000 3.6 280 17:39 21.10.2020
6520 Clear 33 1013 21 10000 5.1 280 17:19 21.10.2020
6521 Clear 33 1013 21 10000 5.1 280 16:40 21.10.2020
6522 Clear 33 1013 21 10000 5.1 280 16:21 21.10.2020
6523 Clear 35 1013 20 10000 6.7 290 15:49 21.10.2020
6524 Clear 35 1013 20 10000 6.7 290 15:29 21.10.2020
6525 Clear 36 1014 18 10000 7.2 290 14:58 21.10.2020
6526 Clear 36 1014 18 10000 7.2 290 14:40 21.10.2020
6527 Clear 36 1014 18 10000 7.2 290 14:22 21.10.2020
6528 Clear 36 1012 12 10000 7.96 328 13:42 21.10.2020
6529 Clear 36 1014 19 10000 7.2 310 13:23 21.10.2020
6530 Clear 36 1014 19 10000 7.2 310 12:43 21.10.2020
6531 Clear 36 1014 19 10000 7.2 310 12:23 21.10.2020
6532 Clear 34 1015 23 10000 6.7 310 11:56 21.10.2020
6533 Clear 34 1015 23 10000 6.7 310 11:37 21.10.2020
6534 Clear 34 1015 23 10000 6.7 310 11:18 21.10.2020
6535 Clear 32 1015 25 10000 6.2 310 10:40 21.10.2020
6536 Clear 32 1015 25 10000 6.2 310 10:21 21.10.2020
6537 Clear 30 1016 28 8000 5.7 300 09:49 21.10.2020
6538 Clear 30 1016 28 8000 5.7 300 09:28 21.10.2020
6539 Clear 26 1016 34 9000 4.6 300 08:42 21.10.2020
6540 Clear 26 1016 34 9000 4.6 300 08:23 21.10.2020
6541 Clear 23 1015 38 10000 4.1 310 07:56 21.10.2020
6542 Clear 23 1015 38 10000 4.1 310 07:24 21.10.2020
6543 Clear 20 1015 42 10000 3.1 320 06:46 21.10.2020
6544 Clear 20 1015 42 10000 3.1 320 06:24 21.10.2020
6545 Clear 19 1014 63 10000 3.6 320 03:48 21.10.2020
6546 Clear 21 1014 46 10000 3.1 300 00:49 21.10.2020
6547 Clear 20 1014 40 10000 3.6 300 23:37 20.10.2020
6548 Clear 21 1014 32 10000 3.6 300 22:47 20.10.2020
6549 Clear 21 1014 32 10000 3.6 300 22:25 20.10.2020
6550 Clear 22 1014 30 10000 3.6 300 21:48 20.10.2020
6551 Clear 22 1014 30 10000 3.6 300 21:20 20.10.2020
6552 Clear 26 1013 19 10000 4.33 315 20:44 20.10.2020
6553 Clear 27 1013 17 10000 4.52 322 20:24 20.10.2020
6554 Clear 27 1013 17 10000 4.52 322 19:57 20.10.2020
6555 Clear 28 1013 24 10000 4.1 290 19:38 20.10.2020
6556 Clear 28 1013 24 10000 4.1 290 19:20 20.10.2020
6557 Clear 28 1013 24 10000 4.1 290 18:44 20.10.2020
6558 Clear 28 1013 24 10000 4.1 290 18:25 20.10.2020
6559 Clear 31 1013 20 10000 4.1 280 17:41 20.10.2020
6560 Clear 31 1013 20 10000 4.1 280 17:23 20.10.2020
6561 Clear 33 1013 18 10000 3.6 280 16:43 20.10.2020
6562 Clear 33 1013 18 10000 3.6 280 16:43 20.10.2020
6563 Clear 33 1013 18 10000 3.6 280 16:24 20.10.2020
6564 Clear 34 1013 18 10000 6.2 290 15:49 20.10.2020
6565 Clear 34 1013 18 10000 6.2 290 15:30 20.10.2020
6566 Clear 34 1013 17 10000 4.1 260 14:55 20.10.2020
6567 Clear 34 1013 17 10000 4.1 260 14:36 20.10.2020
6568 Clear 34 1013 17 10000 4.1 260 14:18 20.10.2020
6569 Clear 34 1013 17 10000 4.6 300 13:41 20.10.2020
6570 Clear 34 1013 17 10000 4.6 300 13:21 20.10.2020
6571 Clear 34 1014 17 10000 4.6 300 12:54 20.10.2020
6572 Clear 34 1014 17 10000 4.6 300 12:31 20.10.2020
6573 Clear 32 1015 18 10000 4.1 310 11:48 20.10.2020
6574 Clear 32 1015 18 10000 4.1 310 11:30 20.10.2020
6575 Clear 31 1015 22 10000 2.6 310 10:58 20.10.2020
6576 Clear 31 1015 22 10000 2.6 310 10:28 20.10.2020
6577 Clear 29 1015 25 10000 3.1 310 09:50 20.10.2020
6578 Clear 29 1015 25 10000 3.1 310 09:20 20.10.2020
6579 Clear 25 1016 29 8000 3.1 300 08:53 20.10.2020
6580 Clear 25 1016 29 8000 3.1 300 08:27 20.10.2020
6581 Clear 22 1015 33 8000 2.1 290 07:49 20.10.2020
6582 Clear 22 1015 33 8000 2.1 290 07:24 20.10.2020
6583 Clear 17 1015 39 10000 2.6 320 06:24 20.10.2020
6584 Clear 17 1014 42 10000 2.1 320 04:58 20.10.2020
6585 Clear 19 1015 34 10000 3.1 300 02:33 20.10.2020
6586 Clear 21 1015 35 10000 2.1 310 01:59 20.10.2020
6587 Clear 19 1014 45 7000 1.5 310 00:57 20.10.2020
6588 Clear 19 1014 45 7000 1.5 310 00:39 20.10.2020
6589 Clear 19 1014 45 7000 1.5 310 00:18 20.10.2020
6590 Clear 19 1014 45 7000 1.5 310 00:18 20.10.2020
6591 Clear 20 1015 40 8000 2.6 300 23:39 19.10.2020
6592 Clear 20 1015 40 8000 2.6 300 23:18 19.10.2020
6593 Clear 22 1015 35 9000 2.1 310 22:42 19.10.2020
6594 Clear 22 1015 35 9000 2.1 310 22:20 19.10.2020
6595 Clear 22 1015 33 10000 0.5 280 21:41 19.10.2020
6596 Clear 22 1015 33 10000 0.5 280 21:19 19.10.2020
6597 Clear 24 1015 31 10000 2.1 260 20:45 19.10.2020
6598 Clear 24 1015 31 10000 2.1 260 20:26 19.10.2020
6599 Clear 25 1015 27 8000 2.6 290 19:47 19.10.2020
6600 Clear 25 1015 27 8000 2.6 290 19:22 19.10.2020
6601 Clear 25 1015 27 8000 2.6 290 19:22 19.10.2020
6602 Clear 27 1015 26 10000 1 270 18:51 19.10.2020
6603 Clear 27 1015 26 10000 1 270 18:32 19.10.2020
6604 Clear 30 1014 23 10000 1 320 17:56 19.10.2020
6605 Clear 30 1014 23 10000 1 320 17:38 19.10.2020
6606 Clear 30 1014 23 10000 1 320 17:19 19.10.2020
6607 Clear 32 1014 21 10000 3.1 350 16:42 19.10.2020
6608 Clear 32 1014 21 10000 3.1 350 16:20 19.10.2020
6609 Clear 32 1013 12 10000 4.3 335 15:40 19.10.2020
6610 Clear 35 1013 10 10000 5.42 334 15:21 19.10.2020
6611 Clear 35 1013 10 10000 5.42 334 14:47 19.10.2020
6612 Clear 35 1013 10 10000 5.64 330 14:24 19.10.2020
6613 Clear 35 1013 10 10000 5.64 330 13:48 19.10.2020
6614 Clear 35 1013 10 10000 5.46 330 13:30 19.10.2020
6615 Clear 35 1013 10 10000 5.74 325 12:46 19.10.2020
6616 Clear 35 1014 10 10000 5.63 317 12:28 19.10.2020
6617 Clear 35 1014 10 10000 5.63 317 11:51 19.10.2020
6618 Clear 32 1016 21 10000 3.1 300 11:25 19.10.2020
6619 Clear 32 1016 21 10000 3.1 300 10:55 19.10.2020
6620 Clear 32 1016 21 10000 3.1 300 10:36 19.10.2020
6621 Clear 29 1017 26 10000 2.6 290 10:18 19.10.2020
6622 Clear 29 1017 26 10000 2.6 290 09:42 19.10.2020
6623 Clear 26 1016 36 10000 3.6 310 09:18 19.10.2020
6624 Clear 26 1016 36 10000 3.6 310 08:47 19.10.2020
6625 Clear 26 1016 36 10000 3.6 310 08:47 19.10.2020
6626 Clear 26 1016 36 10000 3.6 310 08:21 19.10.2020
6627 Clear 17 1016 67 10000 1.5 290 07:21 19.10.2020
6628 Clear 17 1016 67 10000 1.5 290 06:50 19.10.2020
6629 Clear 17 1015 59 10000 1 280 05:42 19.10.2020
6630 Clear 17 1015 45 10000 3.1 300 03:47 19.10.2020
6631 Clear 18 1014 39 10000 2.1 280 01:57 19.10.2020
6632 Clear 19 1014 37 9000 2.1 310 00:44 19.10.2020
6633 Clear 22 1014 33 10000 2.1 310 23:59 18.10.2020
6634 Clear 22 1014 33 10000 2.1 310 23:41 18.10.2020
6635 Clear 22 1014 33 10000 2.1 310 23:21 18.10.2020
6636 Clear 22 1014 35 9000 1.5 350 22:45 18.10.2020
6637 Clear 22 1014 33 10000 1.5 270 22:20 18.10.2020
6638 Clear 22 1014 33 10000 1.5 270 21:50 18.10.2020
6639 Clear 22 1014 33 10000 1.5 270 21:29 18.10.2020
6640 Clear 25 1014 27 10000 2.1 260 20:56 18.10.2020
6641 Clear 25 1014 27 10000 2.1 260 20:38 18.10.2020
6642 Clear 25 1014 27 10000 2.1 260 20:19 18.10.2020
6643 Clear 26 1014 26 10000 2.1 270 19:41 18.10.2020
6644 Clear 26 1014 26 10000 2.6 290 19:19 18.10.2020
6645 Clear 26 1014 26 10000 2.6 290 18:46 18.10.2020
6646 Clear 26 1014 26 10000 2.6 290 18:24 18.10.2020
6647 Clear 28 1013 19 10000 3.85 307 17:43 18.10.2020
6648 Clear 33 1013 17 10000 4.6 290 17:24 18.10.2020
6649 Clear 33 1013 17 10000 4.6 290 16:44 18.10.2020
6650 Clear 33 1013 17 10000 4.6 290 16:26 18.10.2020
6651 Clear 34 1013 18 10000 5.1 280 15:57 18.10.2020
6652 Clear 34 1013 18 10000 5.1 280 15:38 18.10.2020
6653 Clear 35 1013 17 10000 6.2 280 15:18 18.10.2020
6654 Clear 35 1013 17 10000 6.2 280 14:47 18.10.2020
6655 Clear 35 1013 17 10000 6.2 280 14:27 18.10.2020
6656 Clear 35 1013 15 10000 6.2 290 13:47 18.10.2020
6657 Clear 35 1013 15 10000 6.2 290 13:27 18.10.2020
6658 Clear 35 1014 16 10000 5.7 270 12:59 18.10.2020
6659 Clear 35 1014 16 10000 5.7 270 12:40 18.10.2020
6660 Clear 34 1014 18 10000 3.1 290 12:20 18.10.2020
6661 Clear 34 1014 18 10000 3.1 290 11:40 18.10.2020
6662 Clear 34 1014 18 10000 3.1 290 11:40 18.10.2020
6663 Clear 34 1014 18 10000 3.1 290 11:22 18.10.2020
6664 Clear 32 1015 22 4000 3.1 290 10:40 18.10.2020
6665 Clear 30 1015 23 7000 2.6 280 10:20 18.10.2020
6666 Clear 30 1015 23 7000 2.6 280 09:50 18.10.2020
6667 Clear 30 1015 23 7000 2.6 280 09:23 18.10.2020
6668 Clear 26 1015 29 8000 3.1 300 08:57 18.10.2020
6669 Clear 26 1015 29 8000 3.1 300 08:37 18.10.2020
6670 Clear 22 1014 37 8000 3.1 290 08:19 18.10.2020
6671 Clear 18 1014 45 10000 1 290</